<?xml version="1.0" encoding="UTF-8" standalone="no" ?>
<gpx xmlns="http://www.topografix.com/GPX/1/1" xmlns:xsi="http://www.w3.org/2001/XMLSchema-instance" xsi:schemaLocation="http://www.topografix.com/GPX/1/1 http://www.topografix.com/GPX/1/1/gpx.xsd" version="1.1" creator="VisuGPX - https://www.visugpx.com">
  <metadata>
    <name>Pornichet 18/04/2021</name>
    <desc><![CDATA[Sortie VTT du dimanche 18 avril 2021]]></desc>
  </metadata>
  <trk>
    <name><![CDATA[Pornichet Cyclisme]]></name>
    <trkseg>
      <trkpt lat="47.26366" lon="-2.316">
        <ele>8.2</ele>
        <time>2021-04-18T07:12:50.000Z</time>
      </trkpt>
      <trkpt lat="47.26367" lon="-2.31615">
        <ele>8.2</ele>
        <time>2021-04-18T07:12:53.000Z</time>
      </trkpt>
      <trkpt lat="47.26367" lon="-2.3162">
        <ele>0.60000002384186</ele>
        <time>2021-04-18T07:12:54.000Z</time>
      </trkpt>
      <trkpt lat="47.26368" lon="-2.31654">
        <ele>0.60000002384186</ele>
        <time>2021-04-18T07:13:01.000Z</time>
      </trkpt>
      <trkpt lat="47.26368" lon="-2.31662">
        <ele>0.60000002384186</ele>
        <time>2021-04-18T07:13:03.000Z</time>
      </trkpt>
      <trkpt lat="47.26366" lon="-2.31666">
        <ele>0.60000002384186</ele>
        <time>2021-04-18T07:13:05.000Z</time>
      </trkpt>
      <trkpt lat="47.2636" lon="-2.31674">
        <ele>0.60000002384186</ele>
        <time>2021-04-18T07:13:09.000Z</time>
      </trkpt>
      <trkpt lat="47.26353" lon="-2.31679">
        <ele>0.60000002384186</ele>
        <time>2021-04-18T07:13:12.000Z</time>
      </trkpt>
      <trkpt lat="47.26346" lon="-2.31688">
        <ele>0.60000002384186</ele>
        <time>2021-04-18T07:13:17.000Z</time>
      </trkpt>
      <trkpt lat="47.26332" lon="-2.31697">
        <ele>0.60000002384186</ele>
        <time>2021-04-18T07:13:22.000Z</time>
      </trkpt>
      <trkpt lat="47.26314" lon="-2.3171">
        <ele>0.20000000298023</ele>
        <time>2021-04-18T07:13:28.000Z</time>
      </trkpt>
      <trkpt lat="47.26312" lon="-2.31713">
        <ele>-0.20000000298023</ele>
        <time>2021-04-18T07:13:29.000Z</time>
      </trkpt>
      <trkpt lat="47.26312" lon="-2.31717">
        <ele>-1</ele>
        <time>2021-04-18T07:13:30.000Z</time>
      </trkpt>
      <trkpt lat="47.26312" lon="-2.31722">
        <ele>-1.6000000238419</ele>
        <time>2021-04-18T07:13:31.000Z</time>
      </trkpt>
      <trkpt lat="47.2631" lon="-2.31725">
        <ele>-1.6000000238419</ele>
        <time>2021-04-18T07:13:32.000Z</time>
      </trkpt>
      <trkpt lat="47.26296" lon="-2.31734">
        <ele>-1.6000000238419</ele>
        <time>2021-04-18T07:13:36.000Z</time>
      </trkpt>
      <trkpt lat="47.26292" lon="-2.31736">
        <ele>-2</ele>
        <time>2021-04-18T07:13:37.000Z</time>
      </trkpt>
      <trkpt lat="47.26287" lon="-2.31738">
        <ele>-2.4000000953674</ele>
        <time>2021-04-18T07:13:38.000Z</time>
      </trkpt>
      <trkpt lat="47.26283" lon="-2.31742">
        <ele>-2.7999999523163</ele>
        <time>2021-04-18T07:13:39.000Z</time>
      </trkpt>
      <trkpt lat="47.2628" lon="-2.31746">
        <ele>-3.2000000476837</ele>
        <time>2021-04-18T07:13:40.000Z</time>
      </trkpt>
      <trkpt lat="47.26279" lon="-2.31752">
        <ele>-3.5999999046326</ele>
        <time>2021-04-18T07:13:41.000Z</time>
      </trkpt>
      <trkpt lat="47.26282" lon="-2.31767">
        <ele>-3.5999999046326</ele>
        <time>2021-04-18T07:13:43.000Z</time>
      </trkpt>
      <trkpt lat="47.26284" lon="-2.31773">
        <ele>-3.5999999046326</ele>
        <time>2021-04-18T07:13:44.000Z</time>
      </trkpt>
      <trkpt lat="47.26288" lon="-2.3181">
        <ele>-3.5999999046326</ele>
        <time>2021-04-18T07:13:50.000Z</time>
      </trkpt>
      <trkpt lat="47.26287" lon="-2.31822">
        <ele>-3.5999999046326</ele>
        <time>2021-04-18T07:13:51.000Z</time>
      </trkpt>
      <trkpt lat="47.26285" lon="-2.31834">
        <ele>-3.5999999046326</ele>
        <time>2021-04-18T07:13:54.000Z</time>
      </trkpt>
      <trkpt lat="47.26284" lon="-2.3184">
        <ele>-3.5999999046326</ele>
        <time>2021-04-18T07:13:55.000Z</time>
      </trkpt>
      <trkpt lat="47.26282" lon="-2.31876">
        <ele>-3.5999999046326</ele>
        <time>2021-04-18T07:14:01.000Z</time>
      </trkpt>
      <trkpt lat="47.26278" lon="-2.31906">
        <ele>-3.5999999046326</ele>
        <time>2021-04-18T07:14:07.000Z</time>
      </trkpt>
      <trkpt lat="47.26268" lon="-2.31916">
        <ele>-3.5999999046326</ele>
        <time>2021-04-18T07:14:11.000Z</time>
      </trkpt>
      <trkpt lat="47.26265" lon="-2.31919">
        <ele>-3.5999999046326</ele>
        <time>2021-04-18T07:14:12.000Z</time>
      </trkpt>
      <trkpt lat="47.26251" lon="-2.31939">
        <ele>-3.5999999046326</ele>
        <time>2021-04-18T07:14:17.000Z</time>
      </trkpt>
      <trkpt lat="47.2624" lon="-2.31958">
        <ele>-3.5999999046326</ele>
        <time>2021-04-18T07:14:22.000Z</time>
      </trkpt>
      <trkpt lat="47.2623" lon="-2.31984">
        <ele>-3.5999999046326</ele>
        <time>2021-04-18T07:14:28.000Z</time>
      </trkpt>
      <trkpt lat="47.26228" lon="-2.31987">
        <ele>-4</ele>
        <time>2021-04-18T07:14:29.000Z</time>
      </trkpt>
      <trkpt lat="47.26225" lon="-2.31987">
        <ele>-4.4000000953674</ele>
        <time>2021-04-18T07:14:30.000Z</time>
      </trkpt>
      <trkpt lat="47.26222" lon="-2.31987">
        <ele>-4.8000001907349</ele>
        <time>2021-04-18T07:14:31.000Z</time>
      </trkpt>
      <trkpt lat="47.26218" lon="-2.31988">
        <ele>-5.1999998092651</ele>
        <time>2021-04-18T07:14:32.000Z</time>
      </trkpt>
      <trkpt lat="47.26217" lon="-2.31991">
        <ele>-5.5999999046326</ele>
        <time>2021-04-18T07:14:33.000Z</time>
      </trkpt>
      <trkpt lat="47.26213" lon="-2.31996">
        <ele>-5.5999999046326</ele>
        <time>2021-04-18T07:14:35.000Z</time>
      </trkpt>
      <trkpt lat="47.26196" lon="-2.32012">
        <ele>-5.5999999046326</ele>
        <time>2021-04-18T07:14:42.000Z</time>
      </trkpt>
      <trkpt lat="47.26195" lon="-2.32015">
        <ele>-5.5999999046326</ele>
        <time>2021-04-18T07:14:43.000Z</time>
      </trkpt>
      <trkpt lat="47.26194" lon="-2.32022">
        <ele>-5.5999999046326</ele>
        <time>2021-04-18T07:14:45.000Z</time>
      </trkpt>
      <trkpt lat="47.26188" lon="-2.32034">
        <ele>-5.5999999046326</ele>
        <time>2021-04-18T07:14:50.000Z</time>
      </trkpt>
      <trkpt lat="47.26175" lon="-2.32032">
        <ele>-5.5999999046326</ele>
        <time>2021-04-18T07:14:55.000Z</time>
      </trkpt>
      <trkpt lat="47.26169" lon="-2.32035">
        <ele>-5.5999999046326</ele>
        <time>2021-04-18T07:14:57.000Z</time>
      </trkpt>
      <trkpt lat="47.2616" lon="-2.32043">
        <ele>-5.5999999046326</ele>
        <time>2021-04-18T07:15:00.000Z</time>
      </trkpt>
      <trkpt lat="47.26152" lon="-2.32062">
        <ele>-5.5999999046326</ele>
        <time>2021-04-18T07:15:04.000Z</time>
      </trkpt>
      <trkpt lat="47.26142" lon="-2.32094">
        <ele>-5.5999999046326</ele>
        <time>2021-04-18T07:15:10.000Z</time>
      </trkpt>
      <trkpt lat="47.2613" lon="-2.32134">
        <ele>-5.5999999046326</ele>
        <time>2021-04-18T07:15:17.000Z</time>
      </trkpt>
      <trkpt lat="47.26128" lon="-2.32139">
        <ele>-5.5999999046326</ele>
        <time>2021-04-18T07:15:18.000Z</time>
      </trkpt>
      <trkpt lat="47.26119" lon="-2.32171">
        <ele>-5.5999999046326</ele>
        <time>2021-04-18T07:15:24.000Z</time>
      </trkpt>
      <trkpt lat="47.26108" lon="-2.32202">
        <ele>-5.5999999046326</ele>
        <time>2021-04-18T07:15:30.000Z</time>
      </trkpt>
      <trkpt lat="47.26092" lon="-2.32231">
        <ele>-5.5999999046326</ele>
        <time>2021-04-18T07:15:36.000Z</time>
      </trkpt>
      <trkpt lat="47.26069" lon="-2.32261">
        <ele>-5.5999999046326</ele>
        <time>2021-04-18T07:15:43.000Z</time>
      </trkpt>
      <trkpt lat="47.2605" lon="-2.32284">
        <ele>-5.5999999046326</ele>
        <time>2021-04-18T07:15:49.000Z</time>
      </trkpt>
      <trkpt lat="47.26023" lon="-2.32315">
        <ele>-5.5999999046326</ele>
        <time>2021-04-18T07:15:56.000Z</time>
      </trkpt>
      <trkpt lat="47.25996" lon="-2.32349">
        <ele>-5.5999999046326</ele>
        <time>2021-04-18T07:16:04.000Z</time>
      </trkpt>
      <trkpt lat="47.25968" lon="-2.32384">
        <ele>-5.5999999046326</ele>
        <time>2021-04-18T07:16:12.000Z</time>
      </trkpt>
      <trkpt lat="47.25938" lon="-2.32423">
        <ele>-5.5999999046326</ele>
        <time>2021-04-18T07:16:21.000Z</time>
      </trkpt>
      <trkpt lat="47.25914" lon="-2.32452">
        <ele>-5.5999999046326</ele>
        <time>2021-04-18T07:16:28.000Z</time>
      </trkpt>
      <trkpt lat="47.25905" lon="-2.32468">
        <ele>-5.5999999046326</ele>
        <time>2021-04-18T07:16:32.000Z</time>
      </trkpt>
      <trkpt lat="47.25906" lon="-2.32473">
        <ele>-5.5999999046326</ele>
        <time>2021-04-18T07:16:33.000Z</time>
      </trkpt>
      <trkpt lat="47.25914" lon="-2.32483">
        <ele>-5.5999999046326</ele>
        <time>2021-04-18T07:16:36.000Z</time>
      </trkpt>
      <trkpt lat="47.25918" lon="-2.32485">
        <ele>-5.5999999046326</ele>
        <time>2021-04-18T07:16:37.000Z</time>
      </trkpt>
      <trkpt lat="47.25921" lon="-2.32489">
        <ele>-5.5999999046326</ele>
        <time>2021-04-18T07:16:38.000Z</time>
      </trkpt>
      <trkpt lat="47.25929" lon="-2.32504">
        <ele>-5.5999999046326</ele>
        <time>2021-04-18T07:16:41.000Z</time>
      </trkpt>
      <trkpt lat="47.25933" lon="-2.32515">
        <ele>-5.5999999046326</ele>
        <time>2021-04-18T07:16:43.000Z</time>
      </trkpt>
      <trkpt lat="47.2594" lon="-2.32539">
        <ele>-5.5999999046326</ele>
        <time>2021-04-18T07:16:47.000Z</time>
      </trkpt>
      <trkpt lat="47.25948" lon="-2.3256">
        <ele>-5.5999999046326</ele>
        <time>2021-04-18T07:16:51.000Z</time>
      </trkpt>
      <trkpt lat="47.25952" lon="-2.32571">
        <ele>-5.5999999046326</ele>
        <time>2021-04-18T07:16:53.000Z</time>
      </trkpt>
      <trkpt lat="47.25954" lon="-2.32577">
        <ele>-5.5999999046326</ele>
        <time>2021-04-18T07:16:54.000Z</time>
      </trkpt>
      <trkpt lat="47.25962" lon="-2.3262">
        <ele>-5.5999999046326</ele>
        <time>2021-04-18T07:17:01.000Z</time>
      </trkpt>
      <trkpt lat="47.25966" lon="-2.32653">
        <ele>-5.5999999046326</ele>
        <time>2021-04-18T07:17:07.000Z</time>
      </trkpt>
      <trkpt lat="47.25968" lon="-2.32656">
        <ele>-5.5999999046326</ele>
        <time>2021-04-18T07:17:08.000Z</time>
      </trkpt>
      <trkpt lat="47.25973" lon="-2.32656">
        <ele>-5.5999999046326</ele>
        <time>2021-04-18T07:17:10.000Z</time>
      </trkpt>
      <trkpt lat="47.25991" lon="-2.32657">
        <ele>-5.5999999046326</ele>
        <time>2021-04-18T07:17:15.000Z</time>
      </trkpt>
      <trkpt lat="47.25995" lon="-2.32656">
        <ele>-5.1999998092651</ele>
        <time>2021-04-18T07:17:16.000Z</time>
      </trkpt>
      <trkpt lat="47.25998" lon="-2.32655">
        <ele>-4.5999999046326</ele>
        <time>2021-04-18T07:17:17.000Z</time>
      </trkpt>
      <trkpt lat="47.26002" lon="-2.32655">
        <ele>-4.1999998092651</ele>
        <time>2021-04-18T07:17:18.000Z</time>
      </trkpt>
      <trkpt lat="47.26006" lon="-2.32655">
        <ele>-3.7999999523163</ele>
        <time>2021-04-18T07:17:19.000Z</time>
      </trkpt>
      <trkpt lat="47.2601" lon="-2.32654">
        <ele>-3.4000000953674</ele>
        <time>2021-04-18T07:17:20.000Z</time>
      </trkpt>
      <trkpt lat="47.26022" lon="-2.32652">
        <ele>-3.4000000953674</ele>
        <time>2021-04-18T07:17:23.000Z</time>
      </trkpt>
      <trkpt lat="47.26054" lon="-2.32648">
        <ele>-3.4000000953674</ele>
        <time>2021-04-18T07:17:31.000Z</time>
      </trkpt>
      <trkpt lat="47.2609" lon="-2.32643">
        <ele>-3.4000000953674</ele>
        <time>2021-04-18T07:17:40.000Z</time>
      </trkpt>
      <trkpt lat="47.26118" lon="-2.3264">
        <ele>-3.4000000953674</ele>
        <time>2021-04-18T07:17:47.000Z</time>
      </trkpt>
      <trkpt lat="47.26135" lon="-2.32641">
        <ele>-3.4000000953674</ele>
        <time>2021-04-18T07:17:51.000Z</time>
      </trkpt>
      <trkpt lat="47.26147" lon="-2.32645">
        <ele>-3.4000000953674</ele>
        <time>2021-04-18T07:17:54.000Z</time>
      </trkpt>
      <trkpt lat="47.26152" lon="-2.32646">
        <ele>-3</ele>
        <time>2021-04-18T07:17:55.000Z</time>
      </trkpt>
      <trkpt lat="47.26156" lon="-2.32648">
        <ele>-2.5999999046326</ele>
        <time>2021-04-18T07:17:56.000Z</time>
      </trkpt>
      <trkpt lat="47.2616" lon="-2.32649">
        <ele>-2.2000000476837</ele>
        <time>2021-04-18T07:17:57.000Z</time>
      </trkpt>
      <trkpt lat="47.26164" lon="-2.32651">
        <ele>-1.7999999523163</ele>
        <time>2021-04-18T07:17:58.000Z</time>
      </trkpt>
      <trkpt lat="47.26168" lon="-2.32654">
        <ele>-1.3999999761581</ele>
        <time>2021-04-18T07:17:59.000Z</time>
      </trkpt>
      <trkpt lat="47.26173" lon="-2.32656">
        <ele>-1.3999999761581</ele>
        <time>2021-04-18T07:18:00.000Z</time>
      </trkpt>
      <trkpt lat="47.262" lon="-2.32678">
        <ele>-1.3999999761581</ele>
        <time>2021-04-18T07:18:07.000Z</time>
      </trkpt>
      <trkpt lat="47.26232" lon="-2.32718">
        <ele>-1.3999999761581</ele>
        <time>2021-04-18T07:18:16.000Z</time>
      </trkpt>
      <trkpt lat="47.26266" lon="-2.32768">
        <ele>-1.3999999761581</ele>
        <time>2021-04-18T07:18:25.000Z</time>
      </trkpt>
      <trkpt lat="47.26273" lon="-2.32781">
        <ele>-2.2000000476837</ele>
        <time>2021-04-18T07:18:27.000Z</time>
      </trkpt>
      <trkpt lat="47.26276" lon="-2.32788">
        <ele>-2.7999999523163</ele>
        <time>2021-04-18T07:18:28.000Z</time>
      </trkpt>
      <trkpt lat="47.26279" lon="-2.32795">
        <ele>-3.2000000476837</ele>
        <time>2021-04-18T07:18:29.000Z</time>
      </trkpt>
      <trkpt lat="47.26282" lon="-2.32802">
        <ele>-3.5999999046326</ele>
        <time>2021-04-18T07:18:30.000Z</time>
      </trkpt>
      <trkpt lat="47.26287" lon="-2.32816">
        <ele>-3.5999999046326</ele>
        <time>2021-04-18T07:18:32.000Z</time>
      </trkpt>
      <trkpt lat="47.26292" lon="-2.32847">
        <ele>-3.5999999046326</ele>
        <time>2021-04-18T07:18:36.000Z</time>
      </trkpt>
      <trkpt lat="47.26303" lon="-2.32862">
        <ele>-3.5999999046326</ele>
        <time>2021-04-18T07:18:39.000Z</time>
      </trkpt>
      <trkpt lat="47.2632" lon="-2.32875">
        <ele>-3.5999999046326</ele>
        <time>2021-04-18T07:18:43.000Z</time>
      </trkpt>
      <trkpt lat="47.26327" lon="-2.32894">
        <ele>-3.5999999046326</ele>
        <time>2021-04-18T07:18:46.000Z</time>
      </trkpt>
      <trkpt lat="47.26328" lon="-2.32901">
        <ele>-3.5999999046326</ele>
        <time>2021-04-18T07:18:47.000Z</time>
      </trkpt>
      <trkpt lat="47.26348" lon="-2.32962">
        <ele>-3.5999999046326</ele>
        <time>2021-04-18T07:18:56.000Z</time>
      </trkpt>
      <trkpt lat="47.26351" lon="-2.32968">
        <ele>-3.5999999046326</ele>
        <time>2021-04-18T07:18:57.000Z</time>
      </trkpt>
      <trkpt lat="47.26362" lon="-2.32982">
        <ele>-3.5999999046326</ele>
        <time>2021-04-18T07:19:00.000Z</time>
      </trkpt>
      <trkpt lat="47.26367" lon="-2.32992">
        <ele>-3.5999999046326</ele>
        <time>2021-04-18T07:19:02.000Z</time>
      </trkpt>
      <trkpt lat="47.26369" lon="-2.33006">
        <ele>-3.5999999046326</ele>
        <time>2021-04-18T07:19:04.000Z</time>
      </trkpt>
      <trkpt lat="47.26369" lon="-2.3302">
        <ele>-3.5999999046326</ele>
        <time>2021-04-18T07:19:06.000Z</time>
      </trkpt>
      <trkpt lat="47.2637" lon="-2.33055">
        <ele>-3.5999999046326</ele>
        <time>2021-04-18T07:19:11.000Z</time>
      </trkpt>
      <trkpt lat="47.26374" lon="-2.33125">
        <ele>-3.5999999046326</ele>
        <time>2021-04-18T07:19:21.000Z</time>
      </trkpt>
      <trkpt lat="47.26378" lon="-2.33188">
        <ele>-3.5999999046326</ele>
        <time>2021-04-18T07:19:30.000Z</time>
      </trkpt>
      <trkpt lat="47.26383" lon="-2.3325">
        <ele>-3.5999999046326</ele>
        <time>2021-04-18T07:19:39.000Z</time>
      </trkpt>
      <trkpt lat="47.26385" lon="-2.33256">
        <ele>-3.5999999046326</ele>
        <time>2021-04-18T07:19:40.000Z</time>
      </trkpt>
      <trkpt lat="47.26393" lon="-2.33265">
        <ele>-3.5999999046326</ele>
        <time>2021-04-18T07:19:42.000Z</time>
      </trkpt>
      <trkpt lat="47.26412" lon="-2.33269">
        <ele>-3.5999999046326</ele>
        <time>2021-04-18T07:19:46.000Z</time>
      </trkpt>
      <trkpt lat="47.26449" lon="-2.33273">
        <ele>-3.5999999046326</ele>
        <time>2021-04-18T07:19:54.000Z</time>
      </trkpt>
      <trkpt lat="47.2648" lon="-2.33279">
        <ele>-3.5999999046326</ele>
        <time>2021-04-18T07:20:01.000Z</time>
      </trkpt>
      <trkpt lat="47.26504" lon="-2.33282">
        <ele>-3.5999999046326</ele>
        <time>2021-04-18T07:20:07.000Z</time>
      </trkpt>
      <trkpt lat="47.26508" lon="-2.33285">
        <ele>-3.5999999046326</ele>
        <time>2021-04-18T07:20:08.000Z</time>
      </trkpt>
      <trkpt lat="47.26515" lon="-2.3329">
        <ele>-3.5999999046326</ele>
        <time>2021-04-18T07:20:10.000Z</time>
      </trkpt>
      <trkpt lat="47.26527" lon="-2.3329">
        <ele>-3.5999999046326</ele>
        <time>2021-04-18T07:20:13.000Z</time>
      </trkpt>
      <trkpt lat="47.26535" lon="-2.33298">
        <ele>-3.5999999046326</ele>
        <time>2021-04-18T07:20:16.000Z</time>
      </trkpt>
      <trkpt lat="47.26543" lon="-2.33296">
        <ele>-3.5999999046326</ele>
        <time>2021-04-18T07:20:19.000Z</time>
      </trkpt>
      <trkpt lat="47.26546" lon="-2.33292">
        <ele>-3.5999999046326</ele>
        <time>2021-04-18T07:20:20.000Z</time>
      </trkpt>
      <trkpt lat="47.26561" lon="-2.33275">
        <ele>-3.5999999046326</ele>
        <time>2021-04-18T07:20:25.000Z</time>
      </trkpt>
      <trkpt lat="47.26588" lon="-2.33248">
        <ele>-3.5999999046326</ele>
        <time>2021-04-18T07:20:33.000Z</time>
      </trkpt>
      <trkpt lat="47.26618" lon="-2.33218">
        <ele>-3.5999999046326</ele>
        <time>2021-04-18T07:20:41.000Z</time>
      </trkpt>
      <trkpt lat="47.26639" lon="-2.33197">
        <ele>-3.5999999046326</ele>
        <time>2021-04-18T07:20:47.000Z</time>
      </trkpt>
      <trkpt lat="47.26666" lon="-2.33169">
        <ele>-3.5999999046326</ele>
        <time>2021-04-18T07:20:55.000Z</time>
      </trkpt>
      <trkpt lat="47.26694" lon="-2.33141">
        <ele>-3.5999999046326</ele>
        <time>2021-04-18T07:21:03.000Z</time>
      </trkpt>
      <trkpt lat="47.26722" lon="-2.33112">
        <ele>-3.5999999046326</ele>
        <time>2021-04-18T07:21:11.000Z</time>
      </trkpt>
      <trkpt lat="47.26746" lon="-2.33086">
        <ele>-3.5999999046326</ele>
        <time>2021-04-18T07:21:19.000Z</time>
      </trkpt>
      <trkpt lat="47.26749" lon="-2.33086">
        <ele>-3.5999999046326</ele>
        <time>2021-04-18T07:21:20.000Z</time>
      </trkpt>
      <trkpt lat="47.26757" lon="-2.33091">
        <ele>-3.5999999046326</ele>
        <time>2021-04-18T07:21:22.000Z</time>
      </trkpt>
      <trkpt lat="47.26763" lon="-2.33109">
        <ele>-3.5999999046326</ele>
        <time>2021-04-18T07:21:25.000Z</time>
      </trkpt>
      <trkpt lat="47.26764" lon="-2.33143">
        <ele>-3.5999999046326</ele>
        <time>2021-04-18T07:21:30.000Z</time>
      </trkpt>
      <trkpt lat="47.26758" lon="-2.33162">
        <ele>-3.5999999046326</ele>
        <time>2021-04-18T07:21:33.000Z</time>
      </trkpt>
      <trkpt lat="47.26752" lon="-2.33181">
        <ele>-3.5999999046326</ele>
        <time>2021-04-18T07:21:36.000Z</time>
      </trkpt>
      <trkpt lat="47.26741" lon="-2.33225">
        <ele>-3.5999999046326</ele>
        <time>2021-04-18T07:21:43.000Z</time>
      </trkpt>
      <trkpt lat="47.26731" lon="-2.33261">
        <ele>-3.5999999046326</ele>
        <time>2021-04-18T07:21:49.000Z</time>
      </trkpt>
      <trkpt lat="47.26731" lon="-2.33268">
        <ele>-3.5999999046326</ele>
        <time>2021-04-18T07:21:50.000Z</time>
      </trkpt>
      <trkpt lat="47.26732" lon="-2.33283">
        <ele>-3.5999999046326</ele>
        <time>2021-04-18T07:21:52.000Z</time>
      </trkpt>
      <trkpt lat="47.26737" lon="-2.33303">
        <ele>-3.5999999046326</ele>
        <time>2021-04-18T07:21:55.000Z</time>
      </trkpt>
      <trkpt lat="47.2675" lon="-2.33349">
        <ele>-3.5999999046326</ele>
        <time>2021-04-18T07:22:02.000Z</time>
      </trkpt>
      <trkpt lat="47.26754" lon="-2.3337">
        <ele>-3.5999999046326</ele>
        <time>2021-04-18T07:22:05.000Z</time>
      </trkpt>
      <trkpt lat="47.26756" lon="-2.33387">
        <ele>-3.5999999046326</ele>
        <time>2021-04-18T07:22:07.000Z</time>
      </trkpt>
      <trkpt lat="47.26758" lon="-2.33409">
        <ele>-3.5999999046326</ele>
        <time>2021-04-18T07:22:10.000Z</time>
      </trkpt>
      <trkpt lat="47.26761" lon="-2.33439">
        <ele>-3.5999999046326</ele>
        <time>2021-04-18T07:22:14.000Z</time>
      </trkpt>
      <trkpt lat="47.26771" lon="-2.33494">
        <ele>-3.5999999046326</ele>
        <time>2021-04-18T07:22:22.000Z</time>
      </trkpt>
      <trkpt lat="47.26778" lon="-2.33549">
        <ele>-3.5999999046326</ele>
        <time>2021-04-18T07:22:30.000Z</time>
      </trkpt>
      <trkpt lat="47.2678" lon="-2.33577">
        <ele>-3.5999999046326</ele>
        <time>2021-04-18T07:22:34.000Z</time>
      </trkpt>
      <trkpt lat="47.26781" lon="-2.33597">
        <ele>-3.5999999046326</ele>
        <time>2021-04-18T07:22:37.000Z</time>
      </trkpt>
      <trkpt lat="47.2678" lon="-2.33648">
        <ele>-3.5999999046326</ele>
        <time>2021-04-18T07:22:45.000Z</time>
      </trkpt>
      <trkpt lat="47.2678" lon="-2.33689">
        <ele>-3.5999999046326</ele>
        <time>2021-04-18T07:22:52.000Z</time>
      </trkpt>
      <trkpt lat="47.2678" lon="-2.33695">
        <ele>-3.2000000476837</ele>
        <time>2021-04-18T07:22:53.000Z</time>
      </trkpt>
      <trkpt lat="47.26782" lon="-2.33699">
        <ele>-2.7999999523163</ele>
        <time>2021-04-18T07:22:54.000Z</time>
      </trkpt>
      <trkpt lat="47.26784" lon="-2.33704">
        <ele>-2.4000000953674</ele>
        <time>2021-04-18T07:22:55.000Z</time>
      </trkpt>
      <trkpt lat="47.26787" lon="-2.33708">
        <ele>-2</ele>
        <time>2021-04-18T07:22:56.000Z</time>
      </trkpt>
      <trkpt lat="47.2679" lon="-2.33712">
        <ele>-1.6000000238419</ele>
        <time>2021-04-18T07:22:57.000Z</time>
      </trkpt>
      <trkpt lat="47.26805" lon="-2.33733">
        <ele>-1.6000000238419</ele>
        <time>2021-04-18T07:23:02.000Z</time>
      </trkpt>
      <trkpt lat="47.26812" lon="-2.33738">
        <ele>-1.6000000238419</ele>
        <time>2021-04-18T07:23:04.000Z</time>
      </trkpt>
      <trkpt lat="47.26823" lon="-2.33749">
        <ele>-1.6000000238419</ele>
        <time>2021-04-18T07:23:07.000Z</time>
      </trkpt>
      <trkpt lat="47.26836" lon="-2.33766">
        <ele>-1.6000000238419</ele>
        <time>2021-04-18T07:23:11.000Z</time>
      </trkpt>
      <trkpt lat="47.26846" lon="-2.33777">
        <ele>-1.6000000238419</ele>
        <time>2021-04-18T07:23:14.000Z</time>
      </trkpt>
      <trkpt lat="47.26859" lon="-2.33782">
        <ele>-1.6000000238419</ele>
        <time>2021-04-18T07:23:17.000Z</time>
      </trkpt>
      <trkpt lat="47.26887" lon="-2.33794">
        <ele>-1.2000000476837</ele>
        <time>2021-04-18T07:23:24.000Z</time>
      </trkpt>
      <trkpt lat="47.26891" lon="-2.33797">
        <ele>-0.80000001192093</ele>
        <time>2021-04-18T07:23:25.000Z</time>
      </trkpt>
      <trkpt lat="47.26894" lon="-2.33801">
        <ele>-0.40000000596046</ele>
        <time>2021-04-18T07:23:26.000Z</time>
      </trkpt>
      <trkpt lat="47.26896" lon="-2.33805">
        <ele>0.20000000298023</ele>
        <time>2021-04-18T07:23:27.000Z</time>
      </trkpt>
      <trkpt lat="47.26898" lon="-2.3381">
        <ele>0.60000002384186</ele>
        <time>2021-04-18T07:23:28.000Z</time>
      </trkpt>
      <trkpt lat="47.269" lon="-2.33816">
        <ele>0.60000002384186</ele>
        <time>2021-04-18T07:23:29.000Z</time>
      </trkpt>
      <trkpt lat="47.26903" lon="-2.33829">
        <ele>0.60000002384186</ele>
        <time>2021-04-18T07:23:31.000Z</time>
      </trkpt>
      <trkpt lat="47.26904" lon="-2.33835">
        <ele>0.60000002384186</ele>
        <time>2021-04-18T07:23:32.000Z</time>
      </trkpt>
      <trkpt lat="47.26909" lon="-2.33854">
        <ele>0.60000002384186</ele>
        <time>2021-04-18T07:23:35.000Z</time>
      </trkpt>
      <trkpt lat="47.26921" lon="-2.33909">
        <ele>0.60000002384186</ele>
        <time>2021-04-18T07:23:44.000Z</time>
      </trkpt>
      <trkpt lat="47.26932" lon="-2.33952">
        <ele>0.60000002384186</ele>
        <time>2021-04-18T07:23:51.000Z</time>
      </trkpt>
      <trkpt lat="47.26942" lon="-2.33994">
        <ele>0.60000002384186</ele>
        <time>2021-04-18T07:23:58.000Z</time>
      </trkpt>
      <trkpt lat="47.26953" lon="-2.34044">
        <ele>0.60000002384186</ele>
        <time>2021-04-18T07:24:06.000Z</time>
      </trkpt>
      <trkpt lat="47.26955" lon="-2.3405">
        <ele>0.60000002384186</ele>
        <time>2021-04-18T07:24:07.000Z</time>
      </trkpt>
      <trkpt lat="47.26955" lon="-2.34056">
        <ele>1</ele>
        <time>2021-04-18T07:24:08.000Z</time>
      </trkpt>
      <trkpt lat="47.26957" lon="-2.34062">
        <ele>1.3999999761581</ele>
        <time>2021-04-18T07:24:09.000Z</time>
      </trkpt>
      <trkpt lat="47.26959" lon="-2.34068">
        <ele>1.7999999523163</ele>
        <time>2021-04-18T07:24:10.000Z</time>
      </trkpt>
      <trkpt lat="47.2696" lon="-2.34074">
        <ele>2.2000000476837</ele>
        <time>2021-04-18T07:24:11.000Z</time>
      </trkpt>
      <trkpt lat="47.26962" lon="-2.3408">
        <ele>2.7999999523163</ele>
        <time>2021-04-18T07:24:12.000Z</time>
      </trkpt>
      <trkpt lat="47.26964" lon="-2.34093">
        <ele>2.7999999523163</ele>
        <time>2021-04-18T07:24:14.000Z</time>
      </trkpt>
      <trkpt lat="47.26979" lon="-2.34158">
        <ele>2.7999999523163</ele>
        <time>2021-04-18T07:24:24.000Z</time>
      </trkpt>
      <trkpt lat="47.26989" lon="-2.34202">
        <ele>2.7999999523163</ele>
        <time>2021-04-18T07:24:31.000Z</time>
      </trkpt>
      <trkpt lat="47.27005" lon="-2.34272">
        <ele>2.7999999523163</ele>
        <time>2021-04-18T07:24:42.000Z</time>
      </trkpt>
      <trkpt lat="47.27007" lon="-2.34307">
        <ele>2.7999999523163</ele>
        <time>2021-04-18T07:24:48.000Z</time>
      </trkpt>
      <trkpt lat="47.2701" lon="-2.34316">
        <ele>2.7999999523163</ele>
        <time>2021-04-18T07:24:51.000Z</time>
      </trkpt>
      <trkpt lat="47.27011" lon="-2.34317">
        <ele>2.7999999523163</ele>
        <time>2021-04-18T07:24:52.000Z</time>
      </trkpt>
      <trkpt lat="47.2701" lon="-2.34317">
        <ele>2.7999999523163</ele>
        <time>2021-04-18T07:24:54.000Z</time>
      </trkpt>
      <trkpt lat="47.27013" lon="-2.3432">
        <ele>2.7999999523163</ele>
        <time>2021-04-18T07:24:57.000Z</time>
      </trkpt>
      <trkpt lat="47.27016" lon="-2.3432">
        <ele>2.7999999523163</ele>
        <time>2021-04-18T07:24:58.000Z</time>
      </trkpt>
      <trkpt lat="47.27036" lon="-2.34321">
        <ele>2.7999999523163</ele>
        <time>2021-04-18T07:25:04.000Z</time>
      </trkpt>
      <trkpt lat="47.27071" lon="-2.3432">
        <ele>2.7999999523163</ele>
        <time>2021-04-18T07:25:13.000Z</time>
      </trkpt>
      <trkpt lat="47.27083" lon="-2.3432">
        <ele>3.2000000476837</ele>
        <time>2021-04-18T07:25:16.000Z</time>
      </trkpt>
      <trkpt lat="47.27087" lon="-2.34319">
        <ele>3.5999999046326</ele>
        <time>2021-04-18T07:25:17.000Z</time>
      </trkpt>
      <trkpt lat="47.27091" lon="-2.34319">
        <ele>4</ele>
        <time>2021-04-18T07:25:18.000Z</time>
      </trkpt>
      <trkpt lat="47.27095" lon="-2.3432">
        <ele>4.4000000953674</ele>
        <time>2021-04-18T07:25:19.000Z</time>
      </trkpt>
      <trkpt lat="47.27099" lon="-2.34319">
        <ele>4.8000001907349</ele>
        <time>2021-04-18T07:25:20.000Z</time>
      </trkpt>
      <trkpt lat="47.27103" lon="-2.34319">
        <ele>4.8000001907349</ele>
        <time>2021-04-18T07:25:21.000Z</time>
      </trkpt>
      <trkpt lat="47.27134" lon="-2.3432">
        <ele>4.8000001907349</ele>
        <time>2021-04-18T07:25:29.000Z</time>
      </trkpt>
      <trkpt lat="47.27145" lon="-2.34321">
        <ele>5.1999998092651</ele>
        <time>2021-04-18T07:25:32.000Z</time>
      </trkpt>
      <trkpt lat="47.27148" lon="-2.34321">
        <ele>5.5999999046326</ele>
        <time>2021-04-18T07:25:33.000Z</time>
      </trkpt>
      <trkpt lat="47.27151" lon="-2.3432">
        <ele>6.1999998092651</ele>
        <time>2021-04-18T07:25:34.000Z</time>
      </trkpt>
      <trkpt lat="47.27154" lon="-2.3432">
        <ele>6.5999999046326</ele>
        <time>2021-04-18T07:25:35.000Z</time>
      </trkpt>
      <trkpt lat="47.27157" lon="-2.3432">
        <ele>7</ele>
        <time>2021-04-18T07:25:36.000Z</time>
      </trkpt>
      <trkpt lat="47.27181" lon="-2.34321">
        <ele>7</ele>
        <time>2021-04-18T07:25:43.000Z</time>
      </trkpt>
      <trkpt lat="47.27208" lon="-2.34322">
        <ele>7.4000000953674</ele>
        <time>2021-04-18T07:25:50.000Z</time>
      </trkpt>
      <trkpt lat="47.27213" lon="-2.34321">
        <ele>7.8000001907349</ele>
        <time>2021-04-18T07:25:51.000Z</time>
      </trkpt>
      <trkpt lat="47.27217" lon="-2.34322">
        <ele>8.8000001907349</ele>
        <time>2021-04-18T07:25:52.000Z</time>
      </trkpt>
      <trkpt lat="47.27221" lon="-2.34321">
        <ele>9.1999998092651</ele>
        <time>2021-04-18T07:25:53.000Z</time>
      </trkpt>
      <trkpt lat="47.27237" lon="-2.3432">
        <ele>9.1999998092651</ele>
        <time>2021-04-18T07:25:57.000Z</time>
      </trkpt>
      <trkpt lat="47.27267" lon="-2.34318">
        <ele>9.6000003814697</ele>
        <time>2021-04-18T07:26:05.000Z</time>
      </trkpt>
      <trkpt lat="47.27271" lon="-2.34317">
        <ele>10</ele>
        <time>2021-04-18T07:26:06.000Z</time>
      </trkpt>
      <trkpt lat="47.27275" lon="-2.34315">
        <ele>10.39999961853</ele>
        <time>2021-04-18T07:26:07.000Z</time>
      </trkpt>
      <trkpt lat="47.27279" lon="-2.34314">
        <ele>10.800000190735</ele>
        <time>2021-04-18T07:26:08.000Z</time>
      </trkpt>
      <trkpt lat="47.27282" lon="-2.34312">
        <ele>11.199999809265</ele>
        <time>2021-04-18T07:26:09.000Z</time>
      </trkpt>
      <trkpt lat="47.27297" lon="-2.34307">
        <ele>11.199999809265</ele>
        <time>2021-04-18T07:26:13.000Z</time>
      </trkpt>
      <trkpt lat="47.27322" lon="-2.34294">
        <ele>11.199999809265</ele>
        <time>2021-04-18T07:26:20.000Z</time>
      </trkpt>
      <trkpt lat="47.27333" lon="-2.34289">
        <ele>11.60000038147</ele>
        <time>2021-04-18T07:26:23.000Z</time>
      </trkpt>
      <trkpt lat="47.27337" lon="-2.34286">
        <ele>12</ele>
        <time>2021-04-18T07:26:24.000Z</time>
      </trkpt>
      <trkpt lat="47.27341" lon="-2.34283">
        <ele>12.39999961853</ele>
        <time>2021-04-18T07:26:25.000Z</time>
      </trkpt>
      <trkpt lat="47.27344" lon="-2.3428">
        <ele>13</ele>
        <time>2021-04-18T07:26:26.000Z</time>
      </trkpt>
      <trkpt lat="47.27348" lon="-2.34277">
        <ele>13.39999961853</ele>
        <time>2021-04-18T07:26:27.000Z</time>
      </trkpt>
      <trkpt lat="47.27372" lon="-2.34259">
        <ele>13.39999961853</ele>
        <time>2021-04-18T07:26:34.000Z</time>
      </trkpt>
      <trkpt lat="47.27391" lon="-2.34246">
        <ele>13.39999961853</ele>
        <time>2021-04-18T07:26:40.000Z</time>
      </trkpt>
      <trkpt lat="47.27398" lon="-2.34242">
        <ele>14.199999809265</ele>
        <time>2021-04-18T07:26:42.000Z</time>
      </trkpt>
      <trkpt lat="47.27401" lon="-2.34241">
        <ele>14.60000038147</ele>
        <time>2021-04-18T07:26:43.000Z</time>
      </trkpt>
      <trkpt lat="47.27406" lon="-2.34241">
        <ele>15</ele>
        <time>2021-04-18T07:26:44.000Z</time>
      </trkpt>
      <trkpt lat="47.27409" lon="-2.34241">
        <ele>15.39999961853</ele>
        <time>2021-04-18T07:26:45.000Z</time>
      </trkpt>
      <trkpt lat="47.27412" lon="-2.34243">
        <ele>15.39999961853</ele>
        <time>2021-04-18T07:26:46.000Z</time>
      </trkpt>
      <trkpt lat="47.27416" lon="-2.34251">
        <ele>15.39999961853</ele>
        <time>2021-04-18T07:26:48.000Z</time>
      </trkpt>
      <trkpt lat="47.27415" lon="-2.34275">
        <ele>15.39999961853</ele>
        <time>2021-04-18T07:26:52.000Z</time>
      </trkpt>
      <trkpt lat="47.27416" lon="-2.34286">
        <ele>15.39999961853</ele>
        <time>2021-04-18T07:26:54.000Z</time>
      </trkpt>
      <trkpt lat="47.27417" lon="-2.3431">
        <ele>15.39999961853</ele>
        <time>2021-04-18T07:26:58.000Z</time>
      </trkpt>
      <trkpt lat="47.27419" lon="-2.34351">
        <ele>15.39999961853</ele>
        <time>2021-04-18T07:27:05.000Z</time>
      </trkpt>
      <trkpt lat="47.27423" lon="-2.34396">
        <ele>15.39999961853</ele>
        <time>2021-04-18T07:27:13.000Z</time>
      </trkpt>
      <trkpt lat="47.27425" lon="-2.34424">
        <ele>15.800000190735</ele>
        <time>2021-04-18T07:27:18.000Z</time>
      </trkpt>
      <trkpt lat="47.27425" lon="-2.34429">
        <ele>16.200000762939</ele>
        <time>2021-04-18T07:27:19.000Z</time>
      </trkpt>
      <trkpt lat="47.27426" lon="-2.34435">
        <ele>16.60000038147</ele>
        <time>2021-04-18T07:27:20.000Z</time>
      </trkpt>
      <trkpt lat="47.27426" lon="-2.34441">
        <ele>17</ele>
        <time>2021-04-18T07:27:21.000Z</time>
      </trkpt>
      <trkpt lat="47.27427" lon="-2.34447">
        <ele>17.60000038147</ele>
        <time>2021-04-18T07:27:22.000Z</time>
      </trkpt>
      <trkpt lat="47.27428" lon="-2.34482">
        <ele>17.60000038147</ele>
        <time>2021-04-18T07:27:28.000Z</time>
      </trkpt>
      <trkpt lat="47.27435" lon="-2.34515">
        <ele>17.60000038147</ele>
        <time>2021-04-18T07:27:34.000Z</time>
      </trkpt>
      <trkpt lat="47.27443" lon="-2.34546">
        <ele>17.60000038147</ele>
        <time>2021-04-18T07:27:40.000Z</time>
      </trkpt>
      <trkpt lat="47.27449" lon="-2.34569">
        <ele>17.60000038147</ele>
        <time>2021-04-18T07:27:44.000Z</time>
      </trkpt>
      <trkpt lat="47.27452" lon="-2.34586">
        <ele>17.60000038147</ele>
        <time>2021-04-18T07:27:47.000Z</time>
      </trkpt>
      <trkpt lat="47.27456" lon="-2.34634">
        <ele>17.60000038147</ele>
        <time>2021-04-18T07:27:54.000Z</time>
      </trkpt>
      <trkpt lat="47.2746" lon="-2.34686">
        <ele>17.60000038147</ele>
        <time>2021-04-18T07:28:01.000Z</time>
      </trkpt>
      <trkpt lat="47.27462" lon="-2.34691">
        <ele>17.60000038147</ele>
        <time>2021-04-18T07:28:02.000Z</time>
      </trkpt>
      <trkpt lat="47.27473" lon="-2.34693">
        <ele>17.60000038147</ele>
        <time>2021-04-18T07:28:05.000Z</time>
      </trkpt>
      <trkpt lat="47.27493" lon="-2.3468">
        <ele>17.60000038147</ele>
        <time>2021-04-18T07:28:10.000Z</time>
      </trkpt>
      <trkpt lat="47.27506" lon="-2.34679">
        <ele>17.60000038147</ele>
        <time>2021-04-18T07:28:13.000Z</time>
      </trkpt>
      <trkpt lat="47.2752" lon="-2.34677">
        <ele>17.60000038147</ele>
        <time>2021-04-18T07:28:16.000Z</time>
      </trkpt>
      <trkpt lat="47.27547" lon="-2.34673">
        <ele>17.60000038147</ele>
        <time>2021-04-18T07:28:22.000Z</time>
      </trkpt>
      <trkpt lat="47.27555" lon="-2.3467">
        <ele>17.60000038147</ele>
        <time>2021-04-18T07:28:24.000Z</time>
      </trkpt>
      <trkpt lat="47.27573" lon="-2.34661">
        <ele>17.60000038147</ele>
        <time>2021-04-18T07:28:28.000Z</time>
      </trkpt>
      <trkpt lat="47.27581" lon="-2.34653">
        <ele>17.60000038147</ele>
        <time>2021-04-18T07:28:30.000Z</time>
      </trkpt>
      <trkpt lat="47.27611" lon="-2.34623">
        <ele>17.60000038147</ele>
        <time>2021-04-18T07:28:38.000Z</time>
      </trkpt>
      <trkpt lat="47.27646" lon="-2.34589">
        <ele>17.60000038147</ele>
        <time>2021-04-18T07:28:47.000Z</time>
      </trkpt>
      <trkpt lat="47.27675" lon="-2.34563">
        <ele>17.60000038147</ele>
        <time>2021-04-18T07:28:55.000Z</time>
      </trkpt>
      <trkpt lat="47.27678" lon="-2.34564">
        <ele>17.60000038147</ele>
        <time>2021-04-18T07:28:57.000Z</time>
      </trkpt>
      <trkpt lat="47.27678" lon="-2.34569">
        <ele>17.60000038147</ele>
        <time>2021-04-18T07:28:59.000Z</time>
      </trkpt>
      <trkpt lat="47.27686" lon="-2.34586">
        <ele>17.60000038147</ele>
        <time>2021-04-18T07:29:03.000Z</time>
      </trkpt>
      <trkpt lat="47.27688" lon="-2.34592">
        <ele>17.60000038147</ele>
        <time>2021-04-18T07:29:04.000Z</time>
      </trkpt>
      <trkpt lat="47.27692" lon="-2.34613">
        <ele>17.60000038147</ele>
        <time>2021-04-18T07:29:07.000Z</time>
      </trkpt>
      <trkpt lat="47.27692" lon="-2.3462">
        <ele>17.60000038147</ele>
        <time>2021-04-18T07:29:08.000Z</time>
      </trkpt>
      <trkpt lat="47.27691" lon="-2.34641">
        <ele>17.60000038147</ele>
        <time>2021-04-18T07:29:11.000Z</time>
      </trkpt>
      <trkpt lat="47.27692" lon="-2.34648">
        <ele>17.60000038147</ele>
        <time>2021-04-18T07:29:12.000Z</time>
      </trkpt>
      <trkpt lat="47.27695" lon="-2.34667">
        <ele>17.60000038147</ele>
        <time>2021-04-18T07:29:15.000Z</time>
      </trkpt>
      <trkpt lat="47.27696" lon="-2.34672">
        <ele>17.60000038147</ele>
        <time>2021-04-18T07:29:16.000Z</time>
      </trkpt>
      <trkpt lat="47.27698" lon="-2.34687">
        <ele>17.60000038147</ele>
        <time>2021-04-18T07:29:20.000Z</time>
      </trkpt>
      <trkpt lat="47.27703" lon="-2.34702">
        <ele>17.60000038147</ele>
        <time>2021-04-18T07:29:23.000Z</time>
      </trkpt>
      <trkpt lat="47.27707" lon="-2.34714">
        <ele>17.60000038147</ele>
        <time>2021-04-18T07:29:25.000Z</time>
      </trkpt>
      <trkpt lat="47.27718" lon="-2.34743">
        <ele>17.60000038147</ele>
        <time>2021-04-18T07:29:30.000Z</time>
      </trkpt>
      <trkpt lat="47.27721" lon="-2.34749">
        <ele>17.60000038147</ele>
        <time>2021-04-18T07:29:31.000Z</time>
      </trkpt>
      <trkpt lat="47.27745" lon="-2.34796">
        <ele>17.60000038147</ele>
        <time>2021-04-18T07:29:39.000Z</time>
      </trkpt>
      <trkpt lat="47.27755" lon="-2.34816">
        <ele>17.60000038147</ele>
        <time>2021-04-18T07:29:43.000Z</time>
      </trkpt>
      <trkpt lat="47.27757" lon="-2.34821">
        <ele>17.200000762939</ele>
        <time>2021-04-18T07:29:44.000Z</time>
      </trkpt>
      <trkpt lat="47.2776" lon="-2.34826">
        <ele>16.60000038147</ele>
        <time>2021-04-18T07:29:45.000Z</time>
      </trkpt>
      <trkpt lat="47.27762" lon="-2.3483">
        <ele>16.200000762939</ele>
        <time>2021-04-18T07:29:46.000Z</time>
      </trkpt>
      <trkpt lat="47.27765" lon="-2.34835">
        <ele>15.800000190735</ele>
        <time>2021-04-18T07:29:47.000Z</time>
      </trkpt>
      <trkpt lat="47.27768" lon="-2.34841">
        <ele>15.39999961853</ele>
        <time>2021-04-18T07:29:48.000Z</time>
      </trkpt>
      <trkpt lat="47.27786" lon="-2.34871">
        <ele>15.39999961853</ele>
        <time>2021-04-18T07:29:54.000Z</time>
      </trkpt>
      <trkpt lat="47.27788" lon="-2.34875">
        <ele>15</ele>
        <time>2021-04-18T07:29:55.000Z</time>
      </trkpt>
      <trkpt lat="47.27789" lon="-2.34881">
        <ele>14.60000038147</ele>
        <time>2021-04-18T07:29:56.000Z</time>
      </trkpt>
      <trkpt lat="47.27789" lon="-2.34887">
        <ele>14</ele>
        <time>2021-04-18T07:29:57.000Z</time>
      </trkpt>
      <trkpt lat="47.27789" lon="-2.34894">
        <ele>13.199999809265</ele>
        <time>2021-04-18T07:29:58.000Z</time>
      </trkpt>
      <trkpt lat="47.27786" lon="-2.34916">
        <ele>13.199999809265</ele>
        <time>2021-04-18T07:30:01.000Z</time>
      </trkpt>
      <trkpt lat="47.27777" lon="-2.34971">
        <ele>13.199999809265</ele>
        <time>2021-04-18T07:30:08.000Z</time>
      </trkpt>
      <trkpt lat="47.27769" lon="-2.35021">
        <ele>12.800000190735</ele>
        <time>2021-04-18T07:30:14.000Z</time>
      </trkpt>
      <trkpt lat="47.27768" lon="-2.35029">
        <ele>12.199999809265</ele>
        <time>2021-04-18T07:30:15.000Z</time>
      </trkpt>
      <trkpt lat="47.27767" lon="-2.35039">
        <ele>11.800000190735</ele>
        <time>2021-04-18T07:30:16.000Z</time>
      </trkpt>
      <trkpt lat="47.27767" lon="-2.35048">
        <ele>11.39999961853</ele>
        <time>2021-04-18T07:30:17.000Z</time>
      </trkpt>
      <trkpt lat="47.27767" lon="-2.35057">
        <ele>11</ele>
        <time>2021-04-18T07:30:18.000Z</time>
      </trkpt>
      <trkpt lat="47.27767" lon="-2.35066">
        <ele>11</ele>
        <time>2021-04-18T07:30:19.000Z</time>
      </trkpt>
      <trkpt lat="47.2777" lon="-2.35129">
        <ele>11</ele>
        <time>2021-04-18T07:30:26.000Z</time>
      </trkpt>
      <trkpt lat="47.27774" lon="-2.35191">
        <ele>10.60000038147</ele>
        <time>2021-04-18T07:30:33.000Z</time>
      </trkpt>
      <trkpt lat="47.27774" lon="-2.352">
        <ele>10.199999809265</ele>
        <time>2021-04-18T07:30:34.000Z</time>
      </trkpt>
      <trkpt lat="47.27775" lon="-2.35208">
        <ele>9.8000001907349</ele>
        <time>2021-04-18T07:30:35.000Z</time>
      </trkpt>
      <trkpt lat="47.27776" lon="-2.35218">
        <ele>9.1999998092651</ele>
        <time>2021-04-18T07:30:36.000Z</time>
      </trkpt>
      <trkpt lat="47.27777" lon="-2.35225">
        <ele>8.8000001907349</ele>
        <time>2021-04-18T07:30:37.000Z</time>
      </trkpt>
      <trkpt lat="47.27784" lon="-2.35269">
        <ele>8.8000001907349</ele>
        <time>2021-04-18T07:30:42.000Z</time>
      </trkpt>
      <trkpt lat="47.27798" lon="-2.35332">
        <ele>8.8000001907349</ele>
        <time>2021-04-18T07:30:50.000Z</time>
      </trkpt>
      <trkpt lat="47.27804" lon="-2.35354">
        <ele>8.8000001907349</ele>
        <time>2021-04-18T07:30:53.000Z</time>
      </trkpt>
      <trkpt lat="47.27811" lon="-2.35365">
        <ele>8.8000001907349</ele>
        <time>2021-04-18T07:30:55.000Z</time>
      </trkpt>
      <trkpt lat="47.27826" lon="-2.35366">
        <ele>8.8000001907349</ele>
        <time>2021-04-18T07:30:58.000Z</time>
      </trkpt>
      <trkpt lat="47.27868" lon="-2.35363">
        <ele>8.8000001907349</ele>
        <time>2021-04-18T07:31:07.000Z</time>
      </trkpt>
      <trkpt lat="47.27879" lon="-2.35371">
        <ele>8.8000001907349</ele>
        <time>2021-04-18T07:31:10.000Z</time>
      </trkpt>
      <trkpt lat="47.27882" lon="-2.35375">
        <ele>8.8000001907349</ele>
        <time>2021-04-18T07:31:11.000Z</time>
      </trkpt>
      <trkpt lat="47.27905" lon="-2.35404">
        <ele>8.8000001907349</ele>
        <time>2021-04-18T07:31:18.000Z</time>
      </trkpt>
      <trkpt lat="47.27933" lon="-2.35441">
        <ele>8.8000001907349</ele>
        <time>2021-04-18T07:31:26.000Z</time>
      </trkpt>
      <trkpt lat="47.27937" lon="-2.35445">
        <ele>8.8000001907349</ele>
        <time>2021-04-18T07:31:27.000Z</time>
      </trkpt>
      <trkpt lat="47.27954" lon="-2.35459">
        <ele>8.8000001907349</ele>
        <time>2021-04-18T07:31:31.000Z</time>
      </trkpt>
      <trkpt lat="47.27972" lon="-2.3547">
        <ele>8.8000001907349</ele>
        <time>2021-04-18T07:31:35.000Z</time>
      </trkpt>
      <trkpt lat="47.2798" lon="-2.3548">
        <ele>8.8000001907349</ele>
        <time>2021-04-18T07:31:37.000Z</time>
      </trkpt>
      <trkpt lat="47.27987" lon="-2.35491">
        <ele>8.8000001907349</ele>
        <time>2021-04-18T07:31:39.000Z</time>
      </trkpt>
      <trkpt lat="47.27998" lon="-2.35512">
        <ele>8.8000001907349</ele>
        <time>2021-04-18T07:31:43.000Z</time>
      </trkpt>
      <trkpt lat="47.28004" lon="-2.35537">
        <ele>8.8000001907349</ele>
        <time>2021-04-18T07:31:48.000Z</time>
      </trkpt>
      <trkpt lat="47.28014" lon="-2.35562">
        <ele>9.1999998092651</ele>
        <time>2021-04-18T07:31:54.000Z</time>
      </trkpt>
      <trkpt lat="47.28016" lon="-2.35563">
        <ele>9.6000003814697</ele>
        <time>2021-04-18T07:31:55.000Z</time>
      </trkpt>
      <trkpt lat="47.2802" lon="-2.35563">
        <ele>10.199999809265</ele>
        <time>2021-04-18T07:31:56.000Z</time>
      </trkpt>
      <trkpt lat="47.28023" lon="-2.35563">
        <ele>10.60000038147</ele>
        <time>2021-04-18T07:31:57.000Z</time>
      </trkpt>
      <trkpt lat="47.28026" lon="-2.35563">
        <ele>11</ele>
        <time>2021-04-18T07:31:58.000Z</time>
      </trkpt>
      <trkpt lat="47.28034" lon="-2.35566">
        <ele>11</ele>
        <time>2021-04-18T07:32:00.000Z</time>
      </trkpt>
      <trkpt lat="47.28052" lon="-2.3558">
        <ele>11</ele>
        <time>2021-04-18T07:32:06.000Z</time>
      </trkpt>
      <trkpt lat="47.2806" lon="-2.35584">
        <ele>11.39999961853</ele>
        <time>2021-04-18T07:32:09.000Z</time>
      </trkpt>
      <trkpt lat="47.28063" lon="-2.35585">
        <ele>11.800000190735</ele>
        <time>2021-04-18T07:32:10.000Z</time>
      </trkpt>
      <trkpt lat="47.28066" lon="-2.35586">
        <ele>12.199999809265</ele>
        <time>2021-04-18T07:32:11.000Z</time>
      </trkpt>
      <trkpt lat="47.28068" lon="-2.35589">
        <ele>12.60000038147</ele>
        <time>2021-04-18T07:32:12.000Z</time>
      </trkpt>
      <trkpt lat="47.2807" lon="-2.35592">
        <ele>13</ele>
        <time>2021-04-18T07:32:13.000Z</time>
      </trkpt>
      <trkpt lat="47.28072" lon="-2.35595">
        <ele>13</ele>
        <time>2021-04-18T07:32:14.000Z</time>
      </trkpt>
      <trkpt lat="47.28084" lon="-2.35619">
        <ele>13</ele>
        <time>2021-04-18T07:32:21.000Z</time>
      </trkpt>
      <trkpt lat="47.28088" lon="-2.35629">
        <ele>13</ele>
        <time>2021-04-18T07:32:26.000Z</time>
      </trkpt>
      <trkpt lat="47.28088" lon="-2.3563">
        <ele>13</ele>
        <time>2021-04-18T07:32:27.000Z</time>
      </trkpt>
      <trkpt lat="47.28088" lon="-2.35631">
        <ele>13</ele>
        <time>2021-04-18T07:37:24.000Z</time>
      </trkpt>
      <trkpt lat="47.28086" lon="-2.35625">
        <ele>13</ele>
        <time>2021-04-18T07:37:26.000Z</time>
      </trkpt>
      <trkpt lat="47.28085" lon="-2.35622">
        <ele>13</ele>
        <time>2021-04-18T07:37:27.000Z</time>
      </trkpt>
      <trkpt lat="47.28078" lon="-2.35618">
        <ele>13</ele>
        <time>2021-04-18T07:37:30.000Z</time>
      </trkpt>
      <trkpt lat="47.28073" lon="-2.35629">
        <ele>13</ele>
        <time>2021-04-18T07:37:33.000Z</time>
      </trkpt>
      <trkpt lat="47.28076" lon="-2.35651">
        <ele>13.39999961853</ele>
        <time>2021-04-18T07:37:38.000Z</time>
      </trkpt>
      <trkpt lat="47.28077" lon="-2.35654">
        <ele>14</ele>
        <time>2021-04-18T07:37:39.000Z</time>
      </trkpt>
      <trkpt lat="47.28077" lon="-2.35657">
        <ele>14.39999961853</ele>
        <time>2021-04-18T07:37:40.000Z</time>
      </trkpt>
      <trkpt lat="47.28078" lon="-2.3566">
        <ele>14.800000190735</ele>
        <time>2021-04-18T07:37:41.000Z</time>
      </trkpt>
      <trkpt lat="47.28079" lon="-2.35664">
        <ele>15.199999809265</ele>
        <time>2021-04-18T07:37:42.000Z</time>
      </trkpt>
      <trkpt lat="47.2808" lon="-2.35671">
        <ele>15.60000038147</ele>
        <time>2021-04-18T07:37:44.000Z</time>
      </trkpt>
      <trkpt lat="47.28082" lon="-2.35674">
        <ele>16</ele>
        <time>2021-04-18T07:37:45.000Z</time>
      </trkpt>
      <trkpt lat="47.28082" lon="-2.35677">
        <ele>16.39999961853</ele>
        <time>2021-04-18T07:37:46.000Z</time>
      </trkpt>
      <trkpt lat="47.28083" lon="-2.35681">
        <ele>17.200000762939</ele>
        <time>2021-04-18T07:37:47.000Z</time>
      </trkpt>
      <trkpt lat="47.28085" lon="-2.35687">
        <ele>17.200000762939</ele>
        <time>2021-04-18T07:37:49.000Z</time>
      </trkpt>
      <trkpt lat="47.2809" lon="-2.35707">
        <ele>17.799999237061</ele>
        <time>2021-04-18T07:37:55.000Z</time>
      </trkpt>
      <trkpt lat="47.2809" lon="-2.3571">
        <ele>18.200000762939</ele>
        <time>2021-04-18T07:37:56.000Z</time>
      </trkpt>
      <trkpt lat="47.2809" lon="-2.35714">
        <ele>18.60000038147</ele>
        <time>2021-04-18T07:37:57.000Z</time>
      </trkpt>
      <trkpt lat="47.2809" lon="-2.35719">
        <ele>19</ele>
        <time>2021-04-18T07:37:58.000Z</time>
      </trkpt>
      <trkpt lat="47.2809" lon="-2.35723">
        <ele>19.39999961853</ele>
        <time>2021-04-18T07:37:59.000Z</time>
      </trkpt>
      <trkpt lat="47.2809" lon="-2.35734">
        <ele>19.39999961853</ele>
        <time>2021-04-18T07:38:01.000Z</time>
      </trkpt>
      <trkpt lat="47.28088" lon="-2.35758">
        <ele>19.39999961853</ele>
        <time>2021-04-18T07:38:04.000Z</time>
      </trkpt>
      <trkpt lat="47.28087" lon="-2.35765">
        <ele>19.39999961853</ele>
        <time>2021-04-18T07:38:05.000Z</time>
      </trkpt>
      <trkpt lat="47.28084" lon="-2.35777">
        <ele>19</ele>
        <time>2021-04-18T07:38:07.000Z</time>
      </trkpt>
      <trkpt lat="47.28083" lon="-2.35782">
        <ele>18.60000038147</ele>
        <time>2021-04-18T07:38:08.000Z</time>
      </trkpt>
      <trkpt lat="47.28082" lon="-2.35787">
        <ele>18.200000762939</ele>
        <time>2021-04-18T07:38:09.000Z</time>
      </trkpt>
      <trkpt lat="47.28082" lon="-2.35792">
        <ele>17.799999237061</ele>
        <time>2021-04-18T07:38:10.000Z</time>
      </trkpt>
      <trkpt lat="47.28082" lon="-2.35796">
        <ele>17.39999961853</ele>
        <time>2021-04-18T07:38:11.000Z</time>
      </trkpt>
      <trkpt lat="47.28082" lon="-2.35798">
        <ele>16.39999961853</ele>
        <time>2021-04-18T07:38:12.000Z</time>
      </trkpt>
      <trkpt lat="47.28083" lon="-2.358">
        <ele>16</ele>
        <time>2021-04-18T07:38:13.000Z</time>
      </trkpt>
      <trkpt lat="47.28084" lon="-2.35801">
        <ele>15.39999961853</ele>
        <time>2021-04-18T07:38:14.000Z</time>
      </trkpt>
      <trkpt lat="47.28086" lon="-2.35801">
        <ele>15</ele>
        <time>2021-04-18T07:38:15.000Z</time>
      </trkpt>
      <trkpt lat="47.28092" lon="-2.35802">
        <ele>14.60000038147</ele>
        <time>2021-04-18T07:38:19.000Z</time>
      </trkpt>
      <trkpt lat="47.28093" lon="-2.35802">
        <ele>14.199999809265</ele>
        <time>2021-04-18T07:38:20.000Z</time>
      </trkpt>
      <trkpt lat="47.28094" lon="-2.35803">
        <ele>13.800000190735</ele>
        <time>2021-04-18T07:38:21.000Z</time>
      </trkpt>
      <trkpt lat="47.28095" lon="-2.35803">
        <ele>13.39999961853</ele>
        <time>2021-04-18T07:38:22.000Z</time>
      </trkpt>
      <trkpt lat="47.28096" lon="-2.35803">
        <ele>13</ele>
        <time>2021-04-18T07:38:23.000Z</time>
      </trkpt>
      <trkpt lat="47.281" lon="-2.35807">
        <ele>13</ele>
        <time>2021-04-18T07:38:27.000Z</time>
      </trkpt>
      <trkpt lat="47.28107" lon="-2.35813">
        <ele>13</ele>
        <time>2021-04-18T07:38:34.000Z</time>
      </trkpt>
      <trkpt lat="47.2811" lon="-2.35815">
        <ele>13</ele>
        <time>2021-04-18T07:38:37.000Z</time>
      </trkpt>
      <trkpt lat="47.2811" lon="-2.35819">
        <ele>15.199999809265</ele>
        <time>2021-04-18T07:38:53.000Z</time>
      </trkpt>
      <trkpt lat="47.28111" lon="-2.35825">
        <ele>15.199999809265</ele>
        <time>2021-04-18T07:38:54.000Z</time>
      </trkpt>
      <trkpt lat="47.28115" lon="-2.35846">
        <ele>15.199999809265</ele>
        <time>2021-04-18T07:38:58.000Z</time>
      </trkpt>
      <trkpt lat="47.28124" lon="-2.35854">
        <ele>15.199999809265</ele>
        <time>2021-04-18T07:39:03.000Z</time>
      </trkpt>
      <trkpt lat="47.28139" lon="-2.35862">
        <ele>15.199999809265</ele>
        <time>2021-04-18T07:39:08.000Z</time>
      </trkpt>
      <trkpt lat="47.28155" lon="-2.35872">
        <ele>15.199999809265</ele>
        <time>2021-04-18T07:39:14.000Z</time>
      </trkpt>
      <trkpt lat="47.28168" lon="-2.35875">
        <ele>15.199999809265</ele>
        <time>2021-04-18T07:39:19.000Z</time>
      </trkpt>
      <trkpt lat="47.28178" lon="-2.35875">
        <ele>15.199999809265</ele>
        <time>2021-04-18T07:39:24.000Z</time>
      </trkpt>
      <trkpt lat="47.28181" lon="-2.35866">
        <ele>15.199999809265</ele>
        <time>2021-04-18T07:39:29.000Z</time>
      </trkpt>
      <trkpt lat="47.28179" lon="-2.35851">
        <ele>15.199999809265</ele>
        <time>2021-04-18T07:39:35.000Z</time>
      </trkpt>
      <trkpt lat="47.28176" lon="-2.35834">
        <ele>15.199999809265</ele>
        <time>2021-04-18T07:39:41.000Z</time>
      </trkpt>
      <trkpt lat="47.28172" lon="-2.3582">
        <ele>15.199999809265</ele>
        <time>2021-04-18T07:39:46.000Z</time>
      </trkpt>
      <trkpt lat="47.28167" lon="-2.35806">
        <ele>15.199999809265</ele>
        <time>2021-04-18T07:39:52.000Z</time>
      </trkpt>
      <trkpt lat="47.28165" lon="-2.35802">
        <ele>15.199999809265</ele>
        <time>2021-04-18T07:39:54.000Z</time>
      </trkpt>
      <trkpt lat="47.28161" lon="-2.35793">
        <ele>15.199999809265</ele>
        <time>2021-04-18T07:39:58.000Z</time>
      </trkpt>
      <trkpt lat="47.28156" lon="-2.35774">
        <ele>15.199999809265</ele>
        <time>2021-04-18T07:40:05.000Z</time>
      </trkpt>
      <trkpt lat="47.28149" lon="-2.35765">
        <ele>15.199999809265</ele>
        <time>2021-04-18T07:40:08.000Z</time>
      </trkpt>
      <trkpt lat="47.28146" lon="-2.35764">
        <ele>15.199999809265</ele>
        <time>2021-04-18T07:40:09.000Z</time>
      </trkpt>
      <trkpt lat="47.28136" lon="-2.35763">
        <ele>15.199999809265</ele>
        <time>2021-04-18T07:40:13.000Z</time>
      </trkpt>
      <trkpt lat="47.28135" lon="-2.3576">
        <ele>15.199999809265</ele>
        <time>2021-04-18T07:40:14.000Z</time>
      </trkpt>
      <trkpt lat="47.28128" lon="-2.35744">
        <ele>15.199999809265</ele>
        <time>2021-04-18T07:40:18.000Z</time>
      </trkpt>
      <trkpt lat="47.28118" lon="-2.35743">
        <ele>15.199999809265</ele>
        <time>2021-04-18T07:40:22.000Z</time>
      </trkpt>
      <trkpt lat="47.28115" lon="-2.35747">
        <ele>14.800000190735</ele>
        <time>2021-04-18T07:40:24.000Z</time>
      </trkpt>
      <trkpt lat="47.28114" lon="-2.35751">
        <ele>14.199999809265</ele>
        <time>2021-04-18T07:40:25.000Z</time>
      </trkpt>
      <trkpt lat="47.28113" lon="-2.35754">
        <ele>13.800000190735</ele>
        <time>2021-04-18T07:40:26.000Z</time>
      </trkpt>
      <trkpt lat="47.28111" lon="-2.35759">
        <ele>13.39999961853</ele>
        <time>2021-04-18T07:40:27.000Z</time>
      </trkpt>
      <trkpt lat="47.28109" lon="-2.35763">
        <ele>13</ele>
        <time>2021-04-18T07:40:28.000Z</time>
      </trkpt>
      <trkpt lat="47.28099" lon="-2.3579">
        <ele>13</ele>
        <time>2021-04-18T07:40:33.000Z</time>
      </trkpt>
      <trkpt lat="47.28099" lon="-2.35806">
        <ele>13</ele>
        <time>2021-04-18T07:40:36.000Z</time>
      </trkpt>
      <trkpt lat="47.28101" lon="-2.35811">
        <ele>13</ele>
        <time>2021-04-18T07:40:37.000Z</time>
      </trkpt>
      <trkpt lat="47.28113" lon="-2.35838">
        <ele>13</ele>
        <time>2021-04-18T07:40:43.000Z</time>
      </trkpt>
      <trkpt lat="47.28118" lon="-2.35845">
        <ele>13.39999961853</ele>
        <time>2021-04-18T07:40:45.000Z</time>
      </trkpt>
      <trkpt lat="47.28121" lon="-2.3585">
        <ele>14</ele>
        <time>2021-04-18T07:40:46.000Z</time>
      </trkpt>
      <trkpt lat="47.28125" lon="-2.35854">
        <ele>14.39999961853</ele>
        <time>2021-04-18T07:40:47.000Z</time>
      </trkpt>
      <trkpt lat="47.28128" lon="-2.35858">
        <ele>14.800000190735</ele>
        <time>2021-04-18T07:40:48.000Z</time>
      </trkpt>
      <trkpt lat="47.2813" lon="-2.35862">
        <ele>15.199999809265</ele>
        <time>2021-04-18T07:40:49.000Z</time>
      </trkpt>
      <trkpt lat="47.28144" lon="-2.35879">
        <ele>15.199999809265</ele>
        <time>2021-04-18T07:40:55.000Z</time>
      </trkpt>
      <trkpt lat="47.28159" lon="-2.35895">
        <ele>15.199999809265</ele>
        <time>2021-04-18T07:41:01.000Z</time>
      </trkpt>
      <trkpt lat="47.28173" lon="-2.35907">
        <ele>15.199999809265</ele>
        <time>2021-04-18T07:41:04.000Z</time>
      </trkpt>
      <trkpt lat="47.28177" lon="-2.35913">
        <ele>15.199999809265</ele>
        <time>2021-04-18T07:41:05.000Z</time>
      </trkpt>
      <trkpt lat="47.28183" lon="-2.35927">
        <ele>15.199999809265</ele>
        <time>2021-04-18T07:41:08.000Z</time>
      </trkpt>
      <trkpt lat="47.28183" lon="-2.35929">
        <ele>14.800000190735</ele>
        <time>2021-04-18T07:41:09.000Z</time>
      </trkpt>
      <trkpt lat="47.28182" lon="-2.35931">
        <ele>14.39999961853</ele>
        <time>2021-04-18T07:41:10.000Z</time>
      </trkpt>
      <trkpt lat="47.28182" lon="-2.35932">
        <ele>14</ele>
        <time>2021-04-18T07:41:11.000Z</time>
      </trkpt>
      <trkpt lat="47.28182" lon="-2.35933">
        <ele>13.60000038147</ele>
        <time>2021-04-18T07:41:12.000Z</time>
      </trkpt>
      <trkpt lat="47.28182" lon="-2.35935">
        <ele>13.199999809265</ele>
        <time>2021-04-18T07:41:13.000Z</time>
      </trkpt>
      <trkpt lat="47.28184" lon="-2.35937">
        <ele>13.199999809265</ele>
        <time>2021-04-18T07:41:14.000Z</time>
      </trkpt>
      <trkpt lat="47.28186" lon="-2.35944">
        <ele>13.199999809265</ele>
        <time>2021-04-18T07:41:16.000Z</time>
      </trkpt>
      <trkpt lat="47.28193" lon="-2.35968">
        <ele>13.199999809265</ele>
        <time>2021-04-18T07:41:20.000Z</time>
      </trkpt>
      <trkpt lat="47.28195" lon="-2.35973">
        <ele>13.199999809265</ele>
        <time>2021-04-18T07:41:21.000Z</time>
      </trkpt>
      <trkpt lat="47.28202" lon="-2.3599">
        <ele>13.199999809265</ele>
        <time>2021-04-18T07:41:24.000Z</time>
      </trkpt>
      <trkpt lat="47.28205" lon="-2.35995">
        <ele>13.199999809265</ele>
        <time>2021-04-18T07:41:25.000Z</time>
      </trkpt>
      <trkpt lat="47.2821" lon="-2.36008">
        <ele>13.199999809265</ele>
        <time>2021-04-18T07:41:28.000Z</time>
      </trkpt>
      <trkpt lat="47.2822" lon="-2.3602">
        <ele>13.199999809265</ele>
        <time>2021-04-18T07:41:32.000Z</time>
      </trkpt>
      <trkpt lat="47.28229" lon="-2.3602">
        <ele>13.199999809265</ele>
        <time>2021-04-18T07:41:35.000Z</time>
      </trkpt>
      <trkpt lat="47.28246" lon="-2.36011">
        <ele>13.199999809265</ele>
        <time>2021-04-18T07:41:42.000Z</time>
      </trkpt>
      <trkpt lat="47.28247" lon="-2.36013">
        <ele>13.199999809265</ele>
        <time>2021-04-18T07:41:43.000Z</time>
      </trkpt>
      <trkpt lat="47.28249" lon="-2.36018">
        <ele>13.199999809265</ele>
        <time>2021-04-18T07:41:45.000Z</time>
      </trkpt>
      <trkpt lat="47.2825" lon="-2.36044">
        <ele>13.60000038147</ele>
        <time>2021-04-18T07:41:51.000Z</time>
      </trkpt>
      <trkpt lat="47.2825" lon="-2.36049">
        <ele>14</ele>
        <time>2021-04-18T07:41:52.000Z</time>
      </trkpt>
      <trkpt lat="47.28251" lon="-2.36053">
        <ele>14.60000038147</ele>
        <time>2021-04-18T07:41:53.000Z</time>
      </trkpt>
      <trkpt lat="47.28251" lon="-2.36057">
        <ele>15.39999961853</ele>
        <time>2021-04-18T07:41:54.000Z</time>
      </trkpt>
      <trkpt lat="47.28249" lon="-2.36068">
        <ele>15.39999961853</ele>
        <time>2021-04-18T07:41:57.000Z</time>
      </trkpt>
      <trkpt lat="47.28245" lon="-2.36092">
        <ele>15.39999961853</ele>
        <time>2021-04-18T07:42:02.000Z</time>
      </trkpt>
      <trkpt lat="47.28248" lon="-2.36103">
        <ele>15.39999961853</ele>
        <time>2021-04-18T07:42:04.000Z</time>
      </trkpt>
      <trkpt lat="47.28254" lon="-2.36113">
        <ele>15.39999961853</ele>
        <time>2021-04-18T07:42:06.000Z</time>
      </trkpt>
      <trkpt lat="47.28276" lon="-2.36154">
        <ele>15.39999961853</ele>
        <time>2021-04-18T07:42:14.000Z</time>
      </trkpt>
      <trkpt lat="47.28277" lon="-2.36161">
        <ele>15.39999961853</ele>
        <time>2021-04-18T07:42:15.000Z</time>
      </trkpt>
      <trkpt lat="47.2828" lon="-2.36178">
        <ele>15.39999961853</ele>
        <time>2021-04-18T07:42:18.000Z</time>
      </trkpt>
      <trkpt lat="47.28288" lon="-2.36212">
        <ele>15.39999961853</ele>
        <time>2021-04-18T07:42:24.000Z</time>
      </trkpt>
      <trkpt lat="47.28289" lon="-2.36216">
        <ele>15.39999961853</ele>
        <time>2021-04-18T07:42:25.000Z</time>
      </trkpt>
      <trkpt lat="47.2829" lon="-2.3622">
        <ele>15.39999961853</ele>
        <time>2021-04-18T07:42:27.000Z</time>
      </trkpt>
      <trkpt lat="47.28295" lon="-2.36219">
        <ele>15.39999961853</ele>
        <time>2021-04-18T07:42:31.000Z</time>
      </trkpt>
      <trkpt lat="47.28304" lon="-2.36211">
        <ele>15.39999961853</ele>
        <time>2021-04-18T07:42:36.000Z</time>
      </trkpt>
      <trkpt lat="47.28305" lon="-2.36211">
        <ele>15.39999961853</ele>
        <time>2021-04-18T07:42:37.000Z</time>
      </trkpt>
      <trkpt lat="47.28317" lon="-2.36206">
        <ele>15.39999961853</ele>
        <time>2021-04-18T07:42:43.000Z</time>
      </trkpt>
      <trkpt lat="47.28319" lon="-2.36206">
        <ele>16.200000762939</ele>
        <time>2021-04-18T07:42:44.000Z</time>
      </trkpt>
      <trkpt lat="47.2832" lon="-2.36204">
        <ele>16.60000038147</ele>
        <time>2021-04-18T07:42:45.000Z</time>
      </trkpt>
      <trkpt lat="47.28322" lon="-2.36203">
        <ele>17</ele>
        <time>2021-04-18T07:42:46.000Z</time>
      </trkpt>
      <trkpt lat="47.28323" lon="-2.36202">
        <ele>17.60000038147</ele>
        <time>2021-04-18T07:42:47.000Z</time>
      </trkpt>
      <trkpt lat="47.28325" lon="-2.36199">
        <ele>17.60000038147</ele>
        <time>2021-04-18T07:42:49.000Z</time>
      </trkpt>
      <trkpt lat="47.28333" lon="-2.36191">
        <ele>17.60000038147</ele>
        <time>2021-04-18T07:42:55.000Z</time>
      </trkpt>
      <trkpt lat="47.28337" lon="-2.36186">
        <ele>18</ele>
        <time>2021-04-18T07:42:59.000Z</time>
      </trkpt>
      <trkpt lat="47.28338" lon="-2.36185">
        <ele>18.39999961853</ele>
        <time>2021-04-18T07:43:00.000Z</time>
      </trkpt>
      <trkpt lat="47.28339" lon="-2.36183">
        <ele>18.799999237061</ele>
        <time>2021-04-18T07:43:01.000Z</time>
      </trkpt>
      <trkpt lat="47.2834" lon="-2.36182">
        <ele>19.39999961853</ele>
        <time>2021-04-18T07:43:02.000Z</time>
      </trkpt>
      <trkpt lat="47.28341" lon="-2.36181">
        <ele>19.799999237061</ele>
        <time>2021-04-18T07:43:03.000Z</time>
      </trkpt>
      <trkpt lat="47.28346" lon="-2.36176">
        <ele>20.200000762939</ele>
        <time>2021-04-18T07:43:07.000Z</time>
      </trkpt>
      <trkpt lat="47.28347" lon="-2.36174">
        <ele>20.60000038147</ele>
        <time>2021-04-18T07:43:08.000Z</time>
      </trkpt>
      <trkpt lat="47.28348" lon="-2.36172">
        <ele>21.60000038147</ele>
        <time>2021-04-18T07:43:09.000Z</time>
      </trkpt>
      <trkpt lat="47.28349" lon="-2.36171">
        <ele>22</ele>
        <time>2021-04-18T07:43:10.000Z</time>
      </trkpt>
      <trkpt lat="47.28351" lon="-2.36168">
        <ele>22.39999961853</ele>
        <time>2021-04-18T07:43:12.000Z</time>
      </trkpt>
      <trkpt lat="47.28351" lon="-2.36167">
        <ele>22.799999237061</ele>
        <time>2021-04-18T07:43:13.000Z</time>
      </trkpt>
      <trkpt lat="47.28352" lon="-2.36166">
        <ele>23.200000762939</ele>
        <time>2021-04-18T07:43:14.000Z</time>
      </trkpt>
      <trkpt lat="47.28353" lon="-2.36165">
        <ele>23.60000038147</ele>
        <time>2021-04-18T07:43:15.000Z</time>
      </trkpt>
      <trkpt lat="47.28353" lon="-2.36164">
        <ele>24.200000762939</ele>
        <time>2021-04-18T07:43:16.000Z</time>
      </trkpt>
      <trkpt lat="47.28354" lon="-2.36163">
        <ele>24.200000762939</ele>
        <time>2021-04-18T07:43:17.000Z</time>
      </trkpt>
      <trkpt lat="47.28357" lon="-2.36161">
        <ele>24.60000038147</ele>
        <time>2021-04-18T07:43:20.000Z</time>
      </trkpt>
      <trkpt lat="47.28358" lon="-2.3616">
        <ele>25</ele>
        <time>2021-04-18T07:43:21.000Z</time>
      </trkpt>
      <trkpt lat="47.28359" lon="-2.36159">
        <ele>25.39999961853</ele>
        <time>2021-04-18T07:43:22.000Z</time>
      </trkpt>
      <trkpt lat="47.28361" lon="-2.36158">
        <ele>25.799999237061</ele>
        <time>2021-04-18T07:43:23.000Z</time>
      </trkpt>
      <trkpt lat="47.28362" lon="-2.36156">
        <ele>26.200000762939</ele>
        <time>2021-04-18T07:43:24.000Z</time>
      </trkpt>
      <trkpt lat="47.28363" lon="-2.36155">
        <ele>26.200000762939</ele>
        <time>2021-04-18T07:43:25.000Z</time>
      </trkpt>
      <trkpt lat="47.28367" lon="-2.36151">
        <ele>26.60000038147</ele>
        <time>2021-04-18T07:43:28.000Z</time>
      </trkpt>
      <trkpt lat="47.28368" lon="-2.3615">
        <ele>27</ele>
        <time>2021-04-18T07:43:29.000Z</time>
      </trkpt>
      <trkpt lat="47.2837" lon="-2.36148">
        <ele>27.60000038147</ele>
        <time>2021-04-18T07:43:30.000Z</time>
      </trkpt>
      <trkpt lat="47.28371" lon="-2.36147">
        <ele>28</ele>
        <time>2021-04-18T07:43:31.000Z</time>
      </trkpt>
      <trkpt lat="47.28372" lon="-2.36146">
        <ele>28.39999961853</ele>
        <time>2021-04-18T07:43:32.000Z</time>
      </trkpt>
      <trkpt lat="47.28376" lon="-2.36141">
        <ele>28.39999961853</ele>
        <time>2021-04-18T07:43:36.000Z</time>
      </trkpt>
      <trkpt lat="47.28378" lon="-2.36136">
        <ele>28.39999961853</ele>
        <time>2021-04-18T07:43:39.000Z</time>
      </trkpt>
      <trkpt lat="47.28379" lon="-2.36134">
        <ele>28.799999237061</ele>
        <time>2021-04-18T07:43:40.000Z</time>
      </trkpt>
      <trkpt lat="47.2838" lon="-2.36132">
        <ele>29.200000762939</ele>
        <time>2021-04-18T07:43:41.000Z</time>
      </trkpt>
      <trkpt lat="47.28381" lon="-2.36131">
        <ele>29.60000038147</ele>
        <time>2021-04-18T07:43:42.000Z</time>
      </trkpt>
      <trkpt lat="47.28382" lon="-2.36129">
        <ele>30</ele>
        <time>2021-04-18T07:43:43.000Z</time>
      </trkpt>
      <trkpt lat="47.28383" lon="-2.36127">
        <ele>30.39999961853</ele>
        <time>2021-04-18T07:43:44.000Z</time>
      </trkpt>
      <trkpt lat="47.28384" lon="-2.36124">
        <ele>30.39999961853</ele>
        <time>2021-04-18T07:43:45.000Z</time>
      </trkpt>
      <trkpt lat="47.28385" lon="-2.36114">
        <ele>30.39999961853</ele>
        <time>2021-04-18T07:43:51.000Z</time>
      </trkpt>
      <trkpt lat="47.28386" lon="-2.36111">
        <ele>30.39999961853</ele>
        <time>2021-04-18T07:43:53.000Z</time>
      </trkpt>
      <trkpt lat="47.28388" lon="-2.36106">
        <ele>30.799999237061</ele>
        <time>2021-04-18T07:43:55.000Z</time>
      </trkpt>
      <trkpt lat="47.28389" lon="-2.36104">
        <ele>31.200000762939</ele>
        <time>2021-04-18T07:43:56.000Z</time>
      </trkpt>
      <trkpt lat="47.2839" lon="-2.36101">
        <ele>31.799999237061</ele>
        <time>2021-04-18T07:43:57.000Z</time>
      </trkpt>
      <trkpt lat="47.2839" lon="-2.36099">
        <ele>32.599998474121</ele>
        <time>2021-04-18T07:43:58.000Z</time>
      </trkpt>
      <trkpt lat="47.2839" lon="-2.36097">
        <ele>32.599998474121</ele>
        <time>2021-04-18T07:43:59.000Z</time>
      </trkpt>
      <trkpt lat="47.28391" lon="-2.3609">
        <ele>32.599998474121</ele>
        <time>2021-04-18T07:44:02.000Z</time>
      </trkpt>
      <trkpt lat="47.28391" lon="-2.36073">
        <ele>32.599998474121</ele>
        <time>2021-04-18T07:44:10.000Z</time>
      </trkpt>
      <trkpt lat="47.28391" lon="-2.36071">
        <ele>33</ele>
        <time>2021-04-18T07:44:12.000Z</time>
      </trkpt>
      <trkpt lat="47.28391" lon="-2.36069">
        <ele>33.400001525879</ele>
        <time>2021-04-18T07:44:13.000Z</time>
      </trkpt>
      <trkpt lat="47.28391" lon="-2.36068">
        <ele>33.799999237061</ele>
        <time>2021-04-18T07:44:14.000Z</time>
      </trkpt>
      <trkpt lat="47.2839" lon="-2.36066">
        <ele>34.200000762939</ele>
        <time>2021-04-18T07:44:15.000Z</time>
      </trkpt>
      <trkpt lat="47.2839" lon="-2.36065">
        <ele>34.599998474121</ele>
        <time>2021-04-18T07:44:16.000Z</time>
      </trkpt>
      <trkpt lat="47.2839" lon="-2.3606">
        <ele>34.599998474121</ele>
        <time>2021-04-18T07:44:19.000Z</time>
      </trkpt>
      <trkpt lat="47.2839" lon="-2.3606">
        <ele>34.599998474121</ele>
        <time>2021-04-18T07:44:26.000Z</time>
      </trkpt>
      <trkpt lat="47.28391" lon="-2.36053">
        <ele>34.599998474121</ele>
        <time>2021-04-18T07:44:28.000Z</time>
      </trkpt>
      <trkpt lat="47.28393" lon="-2.36039">
        <ele>34.200000762939</ele>
        <time>2021-04-18T07:44:32.000Z</time>
      </trkpt>
      <trkpt lat="47.28394" lon="-2.36037">
        <ele>33.799999237061</ele>
        <time>2021-04-18T07:44:33.000Z</time>
      </trkpt>
      <trkpt lat="47.28395" lon="-2.36036">
        <ele>33.400001525879</ele>
        <time>2021-04-18T07:44:34.000Z</time>
      </trkpt>
      <trkpt lat="47.28396" lon="-2.36035">
        <ele>33</ele>
        <time>2021-04-18T07:44:35.000Z</time>
      </trkpt>
      <trkpt lat="47.28398" lon="-2.36034">
        <ele>32.599998474121</ele>
        <time>2021-04-18T07:44:36.000Z</time>
      </trkpt>
      <trkpt lat="47.28401" lon="-2.36033">
        <ele>32.599998474121</ele>
        <time>2021-04-18T07:44:38.000Z</time>
      </trkpt>
      <trkpt lat="47.28412" lon="-2.36021">
        <ele>32.599998474121</ele>
        <time>2021-04-18T07:44:44.000Z</time>
      </trkpt>
      <trkpt lat="47.28428" lon="-2.36001">
        <ele>32.599998474121</ele>
        <time>2021-04-18T07:44:51.000Z</time>
      </trkpt>
      <trkpt lat="47.28431" lon="-2.35999">
        <ele>33</ele>
        <time>2021-04-18T07:44:52.000Z</time>
      </trkpt>
      <trkpt lat="47.28433" lon="-2.35998">
        <ele>33.400001525879</ele>
        <time>2021-04-18T07:44:53.000Z</time>
      </trkpt>
      <trkpt lat="47.28435" lon="-2.35996">
        <ele>33.799999237061</ele>
        <time>2021-04-18T07:44:54.000Z</time>
      </trkpt>
      <trkpt lat="47.28438" lon="-2.35995">
        <ele>34.200000762939</ele>
        <time>2021-04-18T07:44:55.000Z</time>
      </trkpt>
      <trkpt lat="47.28441" lon="-2.35995">
        <ele>34.599998474121</ele>
        <time>2021-04-18T07:44:56.000Z</time>
      </trkpt>
      <trkpt lat="47.28455" lon="-2.36006">
        <ele>34.599998474121</ele>
        <time>2021-04-18T07:45:01.000Z</time>
      </trkpt>
      <trkpt lat="47.28474" lon="-2.36025">
        <ele>34.599998474121</ele>
        <time>2021-04-18T07:45:08.000Z</time>
      </trkpt>
      <trkpt lat="47.2849" lon="-2.36034">
        <ele>34.599998474121</ele>
        <time>2021-04-18T07:45:14.000Z</time>
      </trkpt>
      <trkpt lat="47.28515" lon="-2.36052">
        <ele>34.599998474121</ele>
        <time>2021-04-18T07:45:23.000Z</time>
      </trkpt>
      <trkpt lat="47.28533" lon="-2.36072">
        <ele>34.599998474121</ele>
        <time>2021-04-18T07:45:29.000Z</time>
      </trkpt>
      <trkpt lat="47.28535" lon="-2.36076">
        <ele>35</ele>
        <time>2021-04-18T07:45:30.000Z</time>
      </trkpt>
      <trkpt lat="47.28538" lon="-2.3608">
        <ele>35.400001525879</ele>
        <time>2021-04-18T07:45:31.000Z</time>
      </trkpt>
      <trkpt lat="47.2854" lon="-2.36085">
        <ele>35.799999237061</ele>
        <time>2021-04-18T07:45:32.000Z</time>
      </trkpt>
      <trkpt lat="47.28542" lon="-2.36092">
        <ele>36.200000762939</ele>
        <time>2021-04-18T07:45:33.000Z</time>
      </trkpt>
      <trkpt lat="47.28545" lon="-2.361">
        <ele>36.599998474121</ele>
        <time>2021-04-18T07:45:34.000Z</time>
      </trkpt>
      <trkpt lat="47.28555" lon="-2.3614">
        <ele>36.599998474121</ele>
        <time>2021-04-18T07:45:39.000Z</time>
      </trkpt>
      <trkpt lat="47.28558" lon="-2.36147">
        <ele>36.599998474121</ele>
        <time>2021-04-18T07:45:41.000Z</time>
      </trkpt>
      <trkpt lat="47.2856" lon="-2.36148">
        <ele>36.599998474121</ele>
        <time>2021-04-18T07:45:42.000Z</time>
      </trkpt>
      <trkpt lat="47.28569" lon="-2.36145">
        <ele>36.599998474121</ele>
        <time>2021-04-18T07:45:47.000Z</time>
      </trkpt>
      <trkpt lat="47.2857" lon="-2.36145">
        <ele>37</ele>
        <time>2021-04-18T07:45:48.000Z</time>
      </trkpt>
      <trkpt lat="47.28572" lon="-2.36144">
        <ele>37.400001525879</ele>
        <time>2021-04-18T07:45:49.000Z</time>
      </trkpt>
      <trkpt lat="47.28574" lon="-2.36144">
        <ele>37.799999237061</ele>
        <time>2021-04-18T07:45:50.000Z</time>
      </trkpt>
      <trkpt lat="47.28576" lon="-2.36144">
        <ele>38.400001525879</ele>
        <time>2021-04-18T07:45:51.000Z</time>
      </trkpt>
      <trkpt lat="47.28579" lon="-2.36144">
        <ele>38.799999237061</ele>
        <time>2021-04-18T07:45:52.000Z</time>
      </trkpt>
      <trkpt lat="47.28583" lon="-2.36144">
        <ele>38.799999237061</ele>
        <time>2021-04-18T07:45:54.000Z</time>
      </trkpt>
      <trkpt lat="47.28586" lon="-2.36145">
        <ele>39.200000762939</ele>
        <time>2021-04-18T07:45:55.000Z</time>
      </trkpt>
      <trkpt lat="47.2859" lon="-2.36147">
        <ele>39.599998474121</ele>
        <time>2021-04-18T07:45:56.000Z</time>
      </trkpt>
      <trkpt lat="47.28593" lon="-2.36147">
        <ele>40</ele>
        <time>2021-04-18T07:45:57.000Z</time>
      </trkpt>
      <trkpt lat="47.28597" lon="-2.36148">
        <ele>40.400001525879</ele>
        <time>2021-04-18T07:45:58.000Z</time>
      </trkpt>
      <trkpt lat="47.286" lon="-2.36148">
        <ele>40.799999237061</ele>
        <time>2021-04-18T07:45:59.000Z</time>
      </trkpt>
      <trkpt lat="47.28615" lon="-2.36139">
        <ele>40.799999237061</ele>
        <time>2021-04-18T07:46:05.000Z</time>
      </trkpt>
      <trkpt lat="47.28622" lon="-2.36133">
        <ele>40.799999237061</ele>
        <time>2021-04-18T07:46:09.000Z</time>
      </trkpt>
      <trkpt lat="47.28625" lon="-2.36133">
        <ele>40.799999237061</ele>
        <time>2021-04-18T07:46:11.000Z</time>
      </trkpt>
      <trkpt lat="47.28632" lon="-2.36132">
        <ele>40.799999237061</ele>
        <time>2021-04-18T07:46:16.000Z</time>
      </trkpt>
      <trkpt lat="47.28639" lon="-2.36118">
        <ele>40.799999237061</ele>
        <time>2021-04-18T07:46:21.000Z</time>
      </trkpt>
      <trkpt lat="47.2864" lon="-2.36115">
        <ele>40.200000762939</ele>
        <time>2021-04-18T07:46:22.000Z</time>
      </trkpt>
      <trkpt lat="47.28641" lon="-2.36111">
        <ele>39.799999237061</ele>
        <time>2021-04-18T07:46:23.000Z</time>
      </trkpt>
      <trkpt lat="47.28642" lon="-2.36107">
        <ele>39.400001525879</ele>
        <time>2021-04-18T07:46:24.000Z</time>
      </trkpt>
      <trkpt lat="47.28644" lon="-2.36104">
        <ele>38.799999237061</ele>
        <time>2021-04-18T07:46:25.000Z</time>
      </trkpt>
      <trkpt lat="47.28646" lon="-2.36101">
        <ele>37.599998474121</ele>
        <time>2021-04-18T07:46:26.000Z</time>
      </trkpt>
      <trkpt lat="47.28647" lon="-2.36097">
        <ele>37</ele>
        <time>2021-04-18T07:46:27.000Z</time>
      </trkpt>
      <trkpt lat="47.28648" lon="-2.36093">
        <ele>36.200000762939</ele>
        <time>2021-04-18T07:46:28.000Z</time>
      </trkpt>
      <trkpt lat="47.28648" lon="-2.36089">
        <ele>35.400001525879</ele>
        <time>2021-04-18T07:46:29.000Z</time>
      </trkpt>
      <trkpt lat="47.2865" lon="-2.36086">
        <ele>34.799999237061</ele>
        <time>2021-04-18T07:46:30.000Z</time>
      </trkpt>
      <trkpt lat="47.28653" lon="-2.36084">
        <ele>34</ele>
        <time>2021-04-18T07:46:31.000Z</time>
      </trkpt>
      <trkpt lat="47.28655" lon="-2.36085">
        <ele>33.200000762939</ele>
        <time>2021-04-18T07:46:32.000Z</time>
      </trkpt>
      <trkpt lat="47.28661" lon="-2.36094">
        <ele>33.200000762939</ele>
        <time>2021-04-18T07:46:36.000Z</time>
      </trkpt>
      <trkpt lat="47.28664" lon="-2.36104">
        <ele>33.200000762939</ele>
        <time>2021-04-18T07:46:38.000Z</time>
      </trkpt>
      <trkpt lat="47.28669" lon="-2.36121">
        <ele>32.799999237061</ele>
        <time>2021-04-18T07:46:41.000Z</time>
      </trkpt>
      <trkpt lat="47.2867" lon="-2.36126">
        <ele>32.400001525879</ele>
        <time>2021-04-18T07:46:42.000Z</time>
      </trkpt>
      <trkpt lat="47.28672" lon="-2.36131">
        <ele>32</ele>
        <time>2021-04-18T07:46:43.000Z</time>
      </trkpt>
      <trkpt lat="47.28674" lon="-2.36136">
        <ele>31.60000038147</ele>
        <time>2021-04-18T07:46:44.000Z</time>
      </trkpt>
      <trkpt lat="47.28675" lon="-2.36141">
        <ele>31.200000762939</ele>
        <time>2021-04-18T07:46:45.000Z</time>
      </trkpt>
      <trkpt lat="47.28678" lon="-2.3615">
        <ele>31.200000762939</ele>
        <time>2021-04-18T07:46:47.000Z</time>
      </trkpt>
      <trkpt lat="47.28682" lon="-2.36159">
        <ele>31.200000762939</ele>
        <time>2021-04-18T07:46:51.000Z</time>
      </trkpt>
      <trkpt lat="47.28683" lon="-2.3616">
        <ele>31.200000762939</ele>
        <time>2021-04-18T07:46:53.000Z</time>
      </trkpt>
      <trkpt lat="47.28686" lon="-2.36165">
        <ele>31.200000762939</ele>
        <time>2021-04-18T07:47:05.000Z</time>
      </trkpt>
      <trkpt lat="47.28689" lon="-2.36173">
        <ele>31.200000762939</ele>
        <time>2021-04-18T07:47:07.000Z</time>
      </trkpt>
      <trkpt lat="47.28694" lon="-2.36193">
        <ele>31.200000762939</ele>
        <time>2021-04-18T07:47:11.000Z</time>
      </trkpt>
      <trkpt lat="47.28697" lon="-2.36196">
        <ele>31.200000762939</ele>
        <time>2021-04-18T07:47:12.000Z</time>
      </trkpt>
      <trkpt lat="47.28706" lon="-2.362">
        <ele>31.200000762939</ele>
        <time>2021-04-18T07:47:15.000Z</time>
      </trkpt>
      <trkpt lat="47.28712" lon="-2.36201">
        <ele>31.200000762939</ele>
        <time>2021-04-18T07:47:17.000Z</time>
      </trkpt>
      <trkpt lat="47.28734" lon="-2.36194">
        <ele>31.200000762939</ele>
        <time>2021-04-18T07:47:24.000Z</time>
      </trkpt>
      <trkpt lat="47.28745" lon="-2.36196">
        <ele>31.200000762939</ele>
        <time>2021-04-18T07:47:28.000Z</time>
      </trkpt>
      <trkpt lat="47.28759" lon="-2.36204">
        <ele>31.200000762939</ele>
        <time>2021-04-18T07:47:32.000Z</time>
      </trkpt>
      <trkpt lat="47.28765" lon="-2.36201">
        <ele>31.200000762939</ele>
        <time>2021-04-18T07:47:33.000Z</time>
      </trkpt>
      <trkpt lat="47.28802" lon="-2.36185">
        <ele>31.200000762939</ele>
        <time>2021-04-18T07:47:40.000Z</time>
      </trkpt>
      <trkpt lat="47.28823" lon="-2.36169">
        <ele>31.200000762939</ele>
        <time>2021-04-18T07:47:44.000Z</time>
      </trkpt>
      <trkpt lat="47.28831" lon="-2.36157">
        <ele>31.200000762939</ele>
        <time>2021-04-18T07:47:46.000Z</time>
      </trkpt>
      <trkpt lat="47.28835" lon="-2.36152">
        <ele>31.200000762939</ele>
        <time>2021-04-18T07:47:47.000Z</time>
      </trkpt>
      <trkpt lat="47.28857" lon="-2.36126">
        <ele>31.200000762939</ele>
        <time>2021-04-18T07:47:52.000Z</time>
      </trkpt>
      <trkpt lat="47.28885" lon="-2.36099">
        <ele>31.200000762939</ele>
        <time>2021-04-18T07:47:58.000Z</time>
      </trkpt>
      <trkpt lat="47.28912" lon="-2.36071">
        <ele>31.200000762939</ele>
        <time>2021-04-18T07:48:04.000Z</time>
      </trkpt>
      <trkpt lat="47.2895" lon="-2.36045">
        <ele>31.200000762939</ele>
        <time>2021-04-18T07:48:12.000Z</time>
      </trkpt>
      <trkpt lat="47.28978" lon="-2.36023">
        <ele>31.200000762939</ele>
        <time>2021-04-18T07:48:18.000Z</time>
      </trkpt>
      <trkpt lat="47.2901" lon="-2.3599">
        <ele>31.200000762939</ele>
        <time>2021-04-18T07:48:26.000Z</time>
      </trkpt>
      <trkpt lat="47.2904" lon="-2.35958">
        <ele>31.200000762939</ele>
        <time>2021-04-18T07:48:33.000Z</time>
      </trkpt>
      <trkpt lat="47.29065" lon="-2.35928">
        <ele>31.200000762939</ele>
        <time>2021-04-18T07:48:39.000Z</time>
      </trkpt>
      <trkpt lat="47.29098" lon="-2.35889">
        <ele>31.200000762939</ele>
        <time>2021-04-18T07:48:47.000Z</time>
      </trkpt>
      <trkpt lat="47.2914" lon="-2.35843">
        <ele>31.200000762939</ele>
        <time>2021-04-18T07:48:57.000Z</time>
      </trkpt>
      <trkpt lat="47.29172" lon="-2.35817">
        <ele>31.200000762939</ele>
        <time>2021-04-18T07:49:04.000Z</time>
      </trkpt>
      <trkpt lat="47.29211" lon="-2.3579">
        <ele>31.200000762939</ele>
        <time>2021-04-18T07:49:12.000Z</time>
      </trkpt>
      <trkpt lat="47.29238" lon="-2.35762">
        <ele>31.200000762939</ele>
        <time>2021-04-18T07:49:19.000Z</time>
      </trkpt>
      <trkpt lat="47.2925" lon="-2.35744">
        <ele>31.200000762939</ele>
        <time>2021-04-18T07:49:23.000Z</time>
      </trkpt>
      <trkpt lat="47.29251" lon="-2.35738">
        <ele>31.200000762939</ele>
        <time>2021-04-18T07:49:24.000Z</time>
      </trkpt>
      <trkpt lat="47.29253" lon="-2.35732">
        <ele>31.200000762939</ele>
        <time>2021-04-18T07:49:27.000Z</time>
      </trkpt>
      <trkpt lat="47.29261" lon="-2.35727">
        <ele>31.200000762939</ele>
        <time>2021-04-18T07:49:31.000Z</time>
      </trkpt>
      <trkpt lat="47.29268" lon="-2.35733">
        <ele>31.200000762939</ele>
        <time>2021-04-18T07:49:33.000Z</time>
      </trkpt>
      <trkpt lat="47.29277" lon="-2.3574">
        <ele>31.200000762939</ele>
        <time>2021-04-18T07:49:35.000Z</time>
      </trkpt>
      <trkpt lat="47.29281" lon="-2.35744">
        <ele>31.200000762939</ele>
        <time>2021-04-18T07:49:36.000Z</time>
      </trkpt>
      <trkpt lat="47.29301" lon="-2.35765">
        <ele>31.200000762939</ele>
        <time>2021-04-18T07:49:41.000Z</time>
      </trkpt>
      <trkpt lat="47.29306" lon="-2.35769">
        <ele>31.200000762939</ele>
        <time>2021-04-18T07:49:42.000Z</time>
      </trkpt>
      <trkpt lat="47.29325" lon="-2.35785">
        <ele>31.200000762939</ele>
        <time>2021-04-18T07:49:46.000Z</time>
      </trkpt>
      <trkpt lat="47.29352" lon="-2.35813">
        <ele>31.200000762939</ele>
        <time>2021-04-18T07:49:52.000Z</time>
      </trkpt>
      <trkpt lat="47.29382" lon="-2.35842">
        <ele>31.200000762939</ele>
        <time>2021-04-18T07:49:59.000Z</time>
      </trkpt>
      <trkpt lat="47.29413" lon="-2.35875">
        <ele>31.200000762939</ele>
        <time>2021-04-18T07:50:07.000Z</time>
      </trkpt>
      <trkpt lat="47.2943" lon="-2.35897">
        <ele>31.200000762939</ele>
        <time>2021-04-18T07:50:13.000Z</time>
      </trkpt>
      <trkpt lat="47.29446" lon="-2.35906">
        <ele>31.200000762939</ele>
        <time>2021-04-18T07:50:18.000Z</time>
      </trkpt>
      <trkpt lat="47.29459" lon="-2.35906">
        <ele>31.200000762939</ele>
        <time>2021-04-18T07:50:22.000Z</time>
      </trkpt>
      <trkpt lat="47.29476" lon="-2.35902">
        <ele>31.200000762939</ele>
        <time>2021-04-18T07:50:27.000Z</time>
      </trkpt>
      <trkpt lat="47.29493" lon="-2.35896">
        <ele>31.200000762939</ele>
        <time>2021-04-18T07:50:33.000Z</time>
      </trkpt>
      <trkpt lat="47.29494" lon="-2.35896">
        <ele>31.200000762939</ele>
        <time>2021-04-18T07:50:36.000Z</time>
      </trkpt>
      <trkpt lat="47.29496" lon="-2.35902">
        <ele>31.200000762939</ele>
        <time>2021-04-18T07:50:38.000Z</time>
      </trkpt>
      <trkpt lat="47.29507" lon="-2.35928">
        <ele>31.200000762939</ele>
        <time>2021-04-18T07:50:43.000Z</time>
      </trkpt>
      <trkpt lat="47.29511" lon="-2.35928">
        <ele>31.200000762939</ele>
        <time>2021-04-18T07:50:44.000Z</time>
      </trkpt>
      <trkpt lat="47.29529" lon="-2.35922">
        <ele>31.200000762939</ele>
        <time>2021-04-18T07:50:48.000Z</time>
      </trkpt>
      <trkpt lat="47.29548" lon="-2.35913">
        <ele>31.200000762939</ele>
        <time>2021-04-18T07:50:52.000Z</time>
      </trkpt>
      <trkpt lat="47.29557" lon="-2.35909">
        <ele>31.200000762939</ele>
        <time>2021-04-18T07:50:54.000Z</time>
      </trkpt>
      <trkpt lat="47.29589" lon="-2.35894">
        <ele>31.200000762939</ele>
        <time>2021-04-18T07:51:01.000Z</time>
      </trkpt>
      <trkpt lat="47.29628" lon="-2.35872">
        <ele>31.200000762939</ele>
        <time>2021-04-18T07:51:09.000Z</time>
      </trkpt>
      <trkpt lat="47.29639" lon="-2.35866">
        <ele>31.200000762939</ele>
        <time>2021-04-18T07:51:11.000Z</time>
      </trkpt>
      <trkpt lat="47.29652" lon="-2.3585">
        <ele>31.200000762939</ele>
        <time>2021-04-18T07:51:14.000Z</time>
      </trkpt>
      <trkpt lat="47.29657" lon="-2.3584">
        <ele>31.200000762939</ele>
        <time>2021-04-18T07:51:16.000Z</time>
      </trkpt>
      <trkpt lat="47.2966" lon="-2.35838">
        <ele>31.200000762939</ele>
        <time>2021-04-18T07:51:17.000Z</time>
      </trkpt>
      <trkpt lat="47.29664" lon="-2.35837">
        <ele>31.200000762939</ele>
        <time>2021-04-18T07:51:18.000Z</time>
      </trkpt>
      <trkpt lat="47.29685" lon="-2.35838">
        <ele>31.200000762939</ele>
        <time>2021-04-18T07:51:22.000Z</time>
      </trkpt>
      <trkpt lat="47.29691" lon="-2.35837">
        <ele>31.200000762939</ele>
        <time>2021-04-18T07:51:23.000Z</time>
      </trkpt>
      <trkpt lat="47.29702" lon="-2.35834">
        <ele>31.200000762939</ele>
        <time>2021-04-18T07:51:25.000Z</time>
      </trkpt>
      <trkpt lat="47.29713" lon="-2.35829">
        <ele>31.200000762939</ele>
        <time>2021-04-18T07:51:27.000Z</time>
      </trkpt>
      <trkpt lat="47.29752" lon="-2.35807">
        <ele>31.60000038147</ele>
        <time>2021-04-18T07:51:35.000Z</time>
      </trkpt>
      <trkpt lat="47.29757" lon="-2.35805">
        <ele>32</ele>
        <time>2021-04-18T07:51:36.000Z</time>
      </trkpt>
      <trkpt lat="47.29762" lon="-2.35803">
        <ele>32.599998474121</ele>
        <time>2021-04-18T07:51:37.000Z</time>
      </trkpt>
      <trkpt lat="47.29767" lon="-2.35802">
        <ele>33</ele>
        <time>2021-04-18T07:51:38.000Z</time>
      </trkpt>
      <trkpt lat="47.29772" lon="-2.358">
        <ele>33.400001525879</ele>
        <time>2021-04-18T07:51:39.000Z</time>
      </trkpt>
      <trkpt lat="47.29781" lon="-2.35797">
        <ele>33.400001525879</ele>
        <time>2021-04-18T07:51:41.000Z</time>
      </trkpt>
      <trkpt lat="47.29817" lon="-2.35786">
        <ele>33.400001525879</ele>
        <time>2021-04-18T07:51:48.000Z</time>
      </trkpt>
      <trkpt lat="47.29852" lon="-2.35774">
        <ele>33.400001525879</ele>
        <time>2021-04-18T07:51:54.000Z</time>
      </trkpt>
      <trkpt lat="47.29888" lon="-2.35761">
        <ele>33.400001525879</ele>
        <time>2021-04-18T07:52:00.000Z</time>
      </trkpt>
      <trkpt lat="47.29897" lon="-2.35744">
        <ele>33.400001525879</ele>
        <time>2021-04-18T07:52:04.000Z</time>
      </trkpt>
      <trkpt lat="47.2989" lon="-2.3572">
        <ele>33.400001525879</ele>
        <time>2021-04-18T07:52:08.000Z</time>
      </trkpt>
      <trkpt lat="47.29878" lon="-2.35674">
        <ele>33.400001525879</ele>
        <time>2021-04-18T07:52:14.000Z</time>
      </trkpt>
      <trkpt lat="47.29869" lon="-2.35623">
        <ele>33.400001525879</ele>
        <time>2021-04-18T07:52:21.000Z</time>
      </trkpt>
      <trkpt lat="47.29861" lon="-2.35593">
        <ele>33</ele>
        <time>2021-04-18T07:52:25.000Z</time>
      </trkpt>
      <trkpt lat="47.29859" lon="-2.35586">
        <ele>32.599998474121</ele>
        <time>2021-04-18T07:52:26.000Z</time>
      </trkpt>
      <trkpt lat="47.29857" lon="-2.35578">
        <ele>32.200000762939</ele>
        <time>2021-04-18T07:52:27.000Z</time>
      </trkpt>
      <trkpt lat="47.29855" lon="-2.3557">
        <ele>31.799999237061</ele>
        <time>2021-04-18T07:52:28.000Z</time>
      </trkpt>
      <trkpt lat="47.29853" lon="-2.35562">
        <ele>31.200000762939</ele>
        <time>2021-04-18T07:52:29.000Z</time>
      </trkpt>
      <trkpt lat="47.29851" lon="-2.35555">
        <ele>31.200000762939</ele>
        <time>2021-04-18T07:52:30.000Z</time>
      </trkpt>
      <trkpt lat="47.29836" lon="-2.355">
        <ele>31.200000762939</ele>
        <time>2021-04-18T07:52:37.000Z</time>
      </trkpt>
      <trkpt lat="47.29828" lon="-2.35471">
        <ele>31.200000762939</ele>
        <time>2021-04-18T07:52:41.000Z</time>
      </trkpt>
      <trkpt lat="47.29828" lon="-2.35464">
        <ele>30.799999237061</ele>
        <time>2021-04-18T07:52:42.000Z</time>
      </trkpt>
      <trkpt lat="47.2983" lon="-2.35457">
        <ele>30.39999961853</ele>
        <time>2021-04-18T07:52:43.000Z</time>
      </trkpt>
      <trkpt lat="47.29834" lon="-2.35452">
        <ele>30</ele>
        <time>2021-04-18T07:52:44.000Z</time>
      </trkpt>
      <trkpt lat="47.29838" lon="-2.35446">
        <ele>29.39999961853</ele>
        <time>2021-04-18T07:52:45.000Z</time>
      </trkpt>
      <trkpt lat="47.29842" lon="-2.35442">
        <ele>29</ele>
        <time>2021-04-18T07:52:46.000Z</time>
      </trkpt>
      <trkpt lat="47.29848" lon="-2.35438">
        <ele>29</ele>
        <time>2021-04-18T07:52:47.000Z</time>
      </trkpt>
      <trkpt lat="47.29864" lon="-2.35423">
        <ele>29</ele>
        <time>2021-04-18T07:52:50.000Z</time>
      </trkpt>
      <trkpt lat="47.299" lon="-2.35383">
        <ele>29</ele>
        <time>2021-04-18T07:52:57.000Z</time>
      </trkpt>
      <trkpt lat="47.29933" lon="-2.35342">
        <ele>29</ele>
        <time>2021-04-18T07:53:04.000Z</time>
      </trkpt>
      <trkpt lat="47.29968" lon="-2.35298">
        <ele>29</ele>
        <time>2021-04-18T07:53:12.000Z</time>
      </trkpt>
      <trkpt lat="47.29985" lon="-2.3528">
        <ele>28.60000038147</ele>
        <time>2021-04-18T07:53:16.000Z</time>
      </trkpt>
      <trkpt lat="47.29989" lon="-2.35275">
        <ele>28.200000762939</ele>
        <time>2021-04-18T07:53:17.000Z</time>
      </trkpt>
      <trkpt lat="47.29992" lon="-2.35272">
        <ele>27.799999237061</ele>
        <time>2021-04-18T07:53:18.000Z</time>
      </trkpt>
      <trkpt lat="47.29996" lon="-2.35268">
        <ele>27.39999961853</ele>
        <time>2021-04-18T07:53:19.000Z</time>
      </trkpt>
      <trkpt lat="47.29998" lon="-2.35264">
        <ele>27</ele>
        <time>2021-04-18T07:53:20.000Z</time>
      </trkpt>
      <trkpt lat="47.30007" lon="-2.35257">
        <ele>27</ele>
        <time>2021-04-18T07:53:23.000Z</time>
      </trkpt>
      <trkpt lat="47.3002" lon="-2.35251">
        <ele>27</ele>
        <time>2021-04-18T07:53:28.000Z</time>
      </trkpt>
      <trkpt lat="47.30025" lon="-2.35248">
        <ele>27</ele>
        <time>2021-04-18T07:53:32.000Z</time>
      </trkpt>
      <trkpt lat="47.30026" lon="-2.35247">
        <ele>27</ele>
        <time>2021-04-18T07:53:33.000Z</time>
      </trkpt>
      <trkpt lat="47.30034" lon="-2.35242">
        <ele>27</ele>
        <time>2021-04-18T07:53:36.000Z</time>
      </trkpt>
      <trkpt lat="47.30036" lon="-2.35239">
        <ele>27</ele>
        <time>2021-04-18T07:53:37.000Z</time>
      </trkpt>
      <trkpt lat="47.30054" lon="-2.35229">
        <ele>27</ele>
        <time>2021-04-18T07:53:42.000Z</time>
      </trkpt>
      <trkpt lat="47.30076" lon="-2.35214">
        <ele>27</ele>
        <time>2021-04-18T07:53:48.000Z</time>
      </trkpt>
      <trkpt lat="47.3008" lon="-2.35213">
        <ele>27</ele>
        <time>2021-04-18T07:53:49.000Z</time>
      </trkpt>
      <trkpt lat="47.30094" lon="-2.35208">
        <ele>27</ele>
        <time>2021-04-18T07:53:52.000Z</time>
      </trkpt>
      <trkpt lat="47.30114" lon="-2.35199">
        <ele>27</ele>
        <time>2021-04-18T07:53:57.000Z</time>
      </trkpt>
      <trkpt lat="47.30124" lon="-2.35194">
        <ele>27</ele>
        <time>2021-04-18T07:53:59.000Z</time>
      </trkpt>
      <trkpt lat="47.30134" lon="-2.35193">
        <ele>27</ele>
        <time>2021-04-18T07:54:02.000Z</time>
      </trkpt>
      <trkpt lat="47.30139" lon="-2.35195">
        <ele>27</ele>
        <time>2021-04-18T07:54:07.000Z</time>
      </trkpt>
      <trkpt lat="47.30143" lon="-2.35195">
        <ele>27</ele>
        <time>2021-04-18T07:54:14.000Z</time>
      </trkpt>
      <trkpt lat="47.30146" lon="-2.35194">
        <ele>27</ele>
        <time>2021-04-18T07:54:16.000Z</time>
      </trkpt>
      <trkpt lat="47.30147" lon="-2.35194">
        <ele>27</ele>
        <time>2021-04-18T07:54:17.000Z</time>
      </trkpt>
      <trkpt lat="47.30158" lon="-2.35185">
        <ele>27</ele>
        <time>2021-04-18T07:54:22.000Z</time>
      </trkpt>
      <trkpt lat="47.30161" lon="-2.35182">
        <ele>27</ele>
        <time>2021-04-18T07:54:23.000Z</time>
      </trkpt>
      <trkpt lat="47.30177" lon="-2.35173">
        <ele>27</ele>
        <time>2021-04-18T07:54:28.000Z</time>
      </trkpt>
      <trkpt lat="47.30193" lon="-2.35166">
        <ele>27</ele>
        <time>2021-04-18T07:54:33.000Z</time>
      </trkpt>
      <trkpt lat="47.30204" lon="-2.35152">
        <ele>27</ele>
        <time>2021-04-18T07:54:37.000Z</time>
      </trkpt>
      <trkpt lat="47.30206" lon="-2.35125">
        <ele>27</ele>
        <time>2021-04-18T07:54:42.000Z</time>
      </trkpt>
      <trkpt lat="47.30208" lon="-2.35108">
        <ele>27.39999961853</ele>
        <time>2021-04-18T07:54:45.000Z</time>
      </trkpt>
      <trkpt lat="47.30208" lon="-2.35102">
        <ele>27.799999237061</ele>
        <time>2021-04-18T07:54:46.000Z</time>
      </trkpt>
      <trkpt lat="47.30208" lon="-2.35096">
        <ele>28.200000762939</ele>
        <time>2021-04-18T07:54:47.000Z</time>
      </trkpt>
      <trkpt lat="47.30209" lon="-2.3509">
        <ele>28.60000038147</ele>
        <time>2021-04-18T07:54:48.000Z</time>
      </trkpt>
      <trkpt lat="47.30208" lon="-2.35085">
        <ele>29</ele>
        <time>2021-04-18T07:54:49.000Z</time>
      </trkpt>
      <trkpt lat="47.30209" lon="-2.35056">
        <ele>29</ele>
        <time>2021-04-18T07:54:54.000Z</time>
      </trkpt>
      <trkpt lat="47.30208" lon="-2.35045">
        <ele>29</ele>
        <time>2021-04-18T07:54:56.000Z</time>
      </trkpt>
      <trkpt lat="47.30208" lon="-2.35012">
        <ele>29</ele>
        <time>2021-04-18T07:55:02.000Z</time>
      </trkpt>
      <trkpt lat="47.30209" lon="-2.34981">
        <ele>29.39999961853</ele>
        <time>2021-04-18T07:55:08.000Z</time>
      </trkpt>
      <trkpt lat="47.30209" lon="-2.34976">
        <ele>29.799999237061</ele>
        <time>2021-04-18T07:55:09.000Z</time>
      </trkpt>
      <trkpt lat="47.30209" lon="-2.3497">
        <ele>30.200000762939</ele>
        <time>2021-04-18T07:55:10.000Z</time>
      </trkpt>
      <trkpt lat="47.30209" lon="-2.34964">
        <ele>30.60000038147</ele>
        <time>2021-04-18T07:55:11.000Z</time>
      </trkpt>
      <trkpt lat="47.30209" lon="-2.34959">
        <ele>31.200000762939</ele>
        <time>2021-04-18T07:55:12.000Z</time>
      </trkpt>
      <trkpt lat="47.3021" lon="-2.34937">
        <ele>31.200000762939</ele>
        <time>2021-04-18T07:55:16.000Z</time>
      </trkpt>
      <trkpt lat="47.30214" lon="-2.34905">
        <ele>31.200000762939</ele>
        <time>2021-04-18T07:55:22.000Z</time>
      </trkpt>
      <trkpt lat="47.30228" lon="-2.3489">
        <ele>31.200000762939</ele>
        <time>2021-04-18T07:55:26.000Z</time>
      </trkpt>
      <trkpt lat="47.30244" lon="-2.34878">
        <ele>31.200000762939</ele>
        <time>2021-04-18T07:55:31.000Z</time>
      </trkpt>
      <trkpt lat="47.30262" lon="-2.34866">
        <ele>31.60000038147</ele>
        <time>2021-04-18T07:55:36.000Z</time>
      </trkpt>
      <trkpt lat="47.30266" lon="-2.34864">
        <ele>32</ele>
        <time>2021-04-18T07:55:37.000Z</time>
      </trkpt>
      <trkpt lat="47.3027" lon="-2.34862">
        <ele>32.400001525879</ele>
        <time>2021-04-18T07:55:38.000Z</time>
      </trkpt>
      <trkpt lat="47.30274" lon="-2.34859">
        <ele>32.799999237061</ele>
        <time>2021-04-18T07:55:39.000Z</time>
      </trkpt>
      <trkpt lat="47.30278" lon="-2.34857">
        <ele>33.200000762939</ele>
        <time>2021-04-18T07:55:40.000Z</time>
      </trkpt>
      <trkpt lat="47.30289" lon="-2.34848">
        <ele>33.200000762939</ele>
        <time>2021-04-18T07:55:43.000Z</time>
      </trkpt>
      <trkpt lat="47.30295" lon="-2.34841">
        <ele>33.200000762939</ele>
        <time>2021-04-18T07:55:45.000Z</time>
      </trkpt>
      <trkpt lat="47.30312" lon="-2.34822">
        <ele>33.200000762939</ele>
        <time>2021-04-18T07:55:50.000Z</time>
      </trkpt>
      <trkpt lat="47.30314" lon="-2.34817">
        <ele>33.200000762939</ele>
        <time>2021-04-18T07:55:51.000Z</time>
      </trkpt>
      <trkpt lat="47.30321" lon="-2.34802">
        <ele>33.200000762939</ele>
        <time>2021-04-18T07:55:54.000Z</time>
      </trkpt>
      <trkpt lat="47.3033" lon="-2.34783">
        <ele>33.200000762939</ele>
        <time>2021-04-18T07:55:58.000Z</time>
      </trkpt>
      <trkpt lat="47.30338" lon="-2.34775">
        <ele>33.200000762939</ele>
        <time>2021-04-18T07:56:00.000Z</time>
      </trkpt>
      <trkpt lat="47.30358" lon="-2.34761">
        <ele>33.200000762939</ele>
        <time>2021-04-18T07:56:05.000Z</time>
      </trkpt>
      <trkpt lat="47.3038" lon="-2.34743">
        <ele>33.200000762939</ele>
        <time>2021-04-18T07:56:10.000Z</time>
      </trkpt>
      <trkpt lat="47.30384" lon="-2.34741">
        <ele>33.200000762939</ele>
        <time>2021-04-18T07:56:11.000Z</time>
      </trkpt>
      <trkpt lat="47.30396" lon="-2.34732">
        <ele>33.200000762939</ele>
        <time>2021-04-18T07:56:14.000Z</time>
      </trkpt>
      <trkpt lat="47.30405" lon="-2.34727">
        <ele>33.200000762939</ele>
        <time>2021-04-18T07:56:16.000Z</time>
      </trkpt>
      <trkpt lat="47.30417" lon="-2.34716">
        <ele>33.200000762939</ele>
        <time>2021-04-18T07:56:19.000Z</time>
      </trkpt>
      <trkpt lat="47.30429" lon="-2.34704">
        <ele>33.200000762939</ele>
        <time>2021-04-18T07:56:22.000Z</time>
      </trkpt>
      <trkpt lat="47.30434" lon="-2.347">
        <ele>33.200000762939</ele>
        <time>2021-04-18T07:56:23.000Z</time>
      </trkpt>
      <trkpt lat="47.30453" lon="-2.34686">
        <ele>33.200000762939</ele>
        <time>2021-04-18T07:56:27.000Z</time>
      </trkpt>
      <trkpt lat="47.30467" lon="-2.34672">
        <ele>33.200000762939</ele>
        <time>2021-04-18T07:56:30.000Z</time>
      </trkpt>
      <trkpt lat="47.30475" lon="-2.34663">
        <ele>33.200000762939</ele>
        <time>2021-04-18T07:56:32.000Z</time>
      </trkpt>
      <trkpt lat="47.30479" lon="-2.3466">
        <ele>33.200000762939</ele>
        <time>2021-04-18T07:56:33.000Z</time>
      </trkpt>
      <trkpt lat="47.30491" lon="-2.34644">
        <ele>33.200000762939</ele>
        <time>2021-04-18T07:56:37.000Z</time>
      </trkpt>
      <trkpt lat="47.30504" lon="-2.34615">
        <ele>33.200000762939</ele>
        <time>2021-04-18T07:56:43.000Z</time>
      </trkpt>
      <trkpt lat="47.30525" lon="-2.34586">
        <ele>33.200000762939</ele>
        <time>2021-04-18T07:56:49.000Z</time>
      </trkpt>
      <trkpt lat="47.30529" lon="-2.34582">
        <ele>33.200000762939</ele>
        <time>2021-04-18T07:56:50.000Z</time>
      </trkpt>
      <trkpt lat="47.30547" lon="-2.3456">
        <ele>33.200000762939</ele>
        <time>2021-04-18T07:56:55.000Z</time>
      </trkpt>
      <trkpt lat="47.30556" lon="-2.34546">
        <ele>33.200000762939</ele>
        <time>2021-04-18T07:56:58.000Z</time>
      </trkpt>
      <trkpt lat="47.30562" lon="-2.34534">
        <ele>33.200000762939</ele>
        <time>2021-04-18T07:57:00.000Z</time>
      </trkpt>
      <trkpt lat="47.30564" lon="-2.34528">
        <ele>33.599998474121</ele>
        <time>2021-04-18T07:57:01.000Z</time>
      </trkpt>
      <trkpt lat="47.30568" lon="-2.34523">
        <ele>34</ele>
        <time>2021-04-18T07:57:02.000Z</time>
      </trkpt>
      <trkpt lat="47.30572" lon="-2.34516">
        <ele>34.400001525879</ele>
        <time>2021-04-18T07:57:03.000Z</time>
      </trkpt>
      <trkpt lat="47.30575" lon="-2.3451">
        <ele>34.799999237061</ele>
        <time>2021-04-18T07:57:04.000Z</time>
      </trkpt>
      <trkpt lat="47.30577" lon="-2.34505">
        <ele>35.200000762939</ele>
        <time>2021-04-18T07:57:05.000Z</time>
      </trkpt>
      <trkpt lat="47.3058" lon="-2.34499">
        <ele>35.200000762939</ele>
        <time>2021-04-18T07:57:06.000Z</time>
      </trkpt>
      <trkpt lat="47.30595" lon="-2.34473">
        <ele>35.200000762939</ele>
        <time>2021-04-18T07:57:11.000Z</time>
      </trkpt>
      <trkpt lat="47.30599" lon="-2.34467">
        <ele>35.200000762939</ele>
        <time>2021-04-18T07:57:12.000Z</time>
      </trkpt>
      <trkpt lat="47.3061" lon="-2.34452">
        <ele>35.200000762939</ele>
        <time>2021-04-18T07:57:15.000Z</time>
      </trkpt>
      <trkpt lat="47.30617" lon="-2.34443">
        <ele>35.200000762939</ele>
        <time>2021-04-18T07:57:17.000Z</time>
      </trkpt>
      <trkpt lat="47.30631" lon="-2.34429">
        <ele>35.200000762939</ele>
        <time>2021-04-18T07:57:20.000Z</time>
      </trkpt>
      <trkpt lat="47.30638" lon="-2.3442">
        <ele>35.200000762939</ele>
        <time>2021-04-18T07:57:22.000Z</time>
      </trkpt>
      <trkpt lat="47.30656" lon="-2.34394">
        <ele>35.200000762939</ele>
        <time>2021-04-18T07:57:28.000Z</time>
      </trkpt>
      <trkpt lat="47.30677" lon="-2.34362">
        <ele>35.200000762939</ele>
        <time>2021-04-18T07:57:34.000Z</time>
      </trkpt>
      <trkpt lat="47.30698" lon="-2.3432">
        <ele>35.200000762939</ele>
        <time>2021-04-18T07:57:41.000Z</time>
      </trkpt>
      <trkpt lat="47.30701" lon="-2.34314">
        <ele>35.200000762939</ele>
        <time>2021-04-18T07:57:42.000Z</time>
      </trkpt>
      <trkpt lat="47.30714" lon="-2.34292">
        <ele>35.200000762939</ele>
        <time>2021-04-18T07:57:46.000Z</time>
      </trkpt>
      <trkpt lat="47.30725" lon="-2.34264">
        <ele>35.200000762939</ele>
        <time>2021-04-18T07:57:52.000Z</time>
      </trkpt>
      <trkpt lat="47.30727" lon="-2.34237">
        <ele>35.200000762939</ele>
        <time>2021-04-18T07:57:57.000Z</time>
      </trkpt>
      <trkpt lat="47.30732" lon="-2.34229">
        <ele>35.200000762939</ele>
        <time>2021-04-18T07:57:59.000Z</time>
      </trkpt>
      <trkpt lat="47.30735" lon="-2.34226">
        <ele>35.200000762939</ele>
        <time>2021-04-18T07:58:00.000Z</time>
      </trkpt>
      <trkpt lat="47.30752" lon="-2.34221">
        <ele>35.200000762939</ele>
        <time>2021-04-18T07:58:04.000Z</time>
      </trkpt>
      <trkpt lat="47.30761" lon="-2.34208">
        <ele>35.200000762939</ele>
        <time>2021-04-18T07:58:07.000Z</time>
      </trkpt>
      <trkpt lat="47.30763" lon="-2.34202">
        <ele>35.200000762939</ele>
        <time>2021-04-18T07:58:08.000Z</time>
      </trkpt>
      <trkpt lat="47.30768" lon="-2.34182">
        <ele>35.200000762939</ele>
        <time>2021-04-18T07:58:12.000Z</time>
      </trkpt>
      <trkpt lat="47.30774" lon="-2.34146">
        <ele>35.200000762939</ele>
        <time>2021-04-18T07:58:18.000Z</time>
      </trkpt>
      <trkpt lat="47.30779" lon="-2.34095">
        <ele>35.200000762939</ele>
        <time>2021-04-18T07:58:25.000Z</time>
      </trkpt>
      <trkpt lat="47.30782" lon="-2.34049">
        <ele>35.200000762939</ele>
        <time>2021-04-18T07:58:32.000Z</time>
      </trkpt>
      <trkpt lat="47.30782" lon="-2.34026">
        <ele>35.200000762939</ele>
        <time>2021-04-18T07:58:35.000Z</time>
      </trkpt>
      <trkpt lat="47.30782" lon="-2.34012">
        <ele>35.200000762939</ele>
        <time>2021-04-18T07:58:37.000Z</time>
      </trkpt>
      <trkpt lat="47.30785" lon="-2.33985">
        <ele>35.200000762939</ele>
        <time>2021-04-18T07:58:42.000Z</time>
      </trkpt>
      <trkpt lat="47.30796" lon="-2.33979">
        <ele>35.200000762939</ele>
        <time>2021-04-18T07:58:45.000Z</time>
      </trkpt>
      <trkpt lat="47.30821" lon="-2.33969">
        <ele>35.200000762939</ele>
        <time>2021-04-18T07:58:50.000Z</time>
      </trkpt>
      <trkpt lat="47.30856" lon="-2.33957">
        <ele>35.200000762939</ele>
        <time>2021-04-18T07:58:58.000Z</time>
      </trkpt>
      <trkpt lat="47.30895" lon="-2.3395">
        <ele>35.200000762939</ele>
        <time>2021-04-18T07:59:07.000Z</time>
      </trkpt>
      <trkpt lat="47.30925" lon="-2.33949">
        <ele>35.200000762939</ele>
        <time>2021-04-18T07:59:14.000Z</time>
      </trkpt>
      <trkpt lat="47.30943" lon="-2.33951">
        <ele>35.200000762939</ele>
        <time>2021-04-18T07:59:18.000Z</time>
      </trkpt>
      <trkpt lat="47.30956" lon="-2.33954">
        <ele>35.200000762939</ele>
        <time>2021-04-18T07:59:21.000Z</time>
      </trkpt>
      <trkpt lat="47.30987" lon="-2.33956">
        <ele>35.200000762939</ele>
        <time>2021-04-18T07:59:27.000Z</time>
      </trkpt>
      <trkpt lat="47.31024" lon="-2.33951">
        <ele>35.200000762939</ele>
        <time>2021-04-18T07:59:34.000Z</time>
      </trkpt>
      <trkpt lat="47.3104" lon="-2.33948">
        <ele>34.799999237061</ele>
        <time>2021-04-18T07:59:37.000Z</time>
      </trkpt>
      <trkpt lat="47.31046" lon="-2.33948">
        <ele>34.400001525879</ele>
        <time>2021-04-18T07:59:38.000Z</time>
      </trkpt>
      <trkpt lat="47.31051" lon="-2.33947">
        <ele>34</ele>
        <time>2021-04-18T07:59:39.000Z</time>
      </trkpt>
      <trkpt lat="47.31055" lon="-2.33946">
        <ele>33.599998474121</ele>
        <time>2021-04-18T07:59:40.000Z</time>
      </trkpt>
      <trkpt lat="47.31059" lon="-2.33944">
        <ele>33</ele>
        <time>2021-04-18T07:59:41.000Z</time>
      </trkpt>
      <trkpt lat="47.31063" lon="-2.33927">
        <ele>33</ele>
        <time>2021-04-18T07:59:44.000Z</time>
      </trkpt>
      <trkpt lat="47.31063" lon="-2.3392">
        <ele>33</ele>
        <time>2021-04-18T07:59:45.000Z</time>
      </trkpt>
      <trkpt lat="47.31064" lon="-2.33882">
        <ele>33</ele>
        <time>2021-04-18T07:59:50.000Z</time>
      </trkpt>
      <trkpt lat="47.31067" lon="-2.33834">
        <ele>33</ele>
        <time>2021-04-18T07:59:56.000Z</time>
      </trkpt>
      <trkpt lat="47.31078" lon="-2.33787">
        <ele>33</ele>
        <time>2021-04-18T08:00:02.000Z</time>
      </trkpt>
      <trkpt lat="47.31095" lon="-2.33743">
        <ele>33</ele>
        <time>2021-04-18T08:00:08.000Z</time>
      </trkpt>
      <trkpt lat="47.31098" lon="-2.33727">
        <ele>32.599998474121</ele>
        <time>2021-04-18T08:00:10.000Z</time>
      </trkpt>
      <trkpt lat="47.31099" lon="-2.33718">
        <ele>32.200000762939</ele>
        <time>2021-04-18T08:00:11.000Z</time>
      </trkpt>
      <trkpt lat="47.31101" lon="-2.3371">
        <ele>31.799999237061</ele>
        <time>2021-04-18T08:00:12.000Z</time>
      </trkpt>
      <trkpt lat="47.31102" lon="-2.33702">
        <ele>31.39999961853</ele>
        <time>2021-04-18T08:00:13.000Z</time>
      </trkpt>
      <trkpt lat="47.31103" lon="-2.33693">
        <ele>31</ele>
        <time>2021-04-18T08:00:14.000Z</time>
      </trkpt>
      <trkpt lat="47.31109" lon="-2.33632">
        <ele>31</ele>
        <time>2021-04-18T08:00:22.000Z</time>
      </trkpt>
      <trkpt lat="47.31114" lon="-2.33588">
        <ele>31</ele>
        <time>2021-04-18T08:00:28.000Z</time>
      </trkpt>
      <trkpt lat="47.31114" lon="-2.3358">
        <ele>31</ele>
        <time>2021-04-18T08:00:29.000Z</time>
      </trkpt>
      <trkpt lat="47.3111" lon="-2.3354">
        <ele>31</ele>
        <time>2021-04-18T08:00:35.000Z</time>
      </trkpt>
      <trkpt lat="47.31098" lon="-2.33488">
        <ele>31</ele>
        <time>2021-04-18T08:00:41.000Z</time>
      </trkpt>
      <trkpt lat="47.31096" lon="-2.33468">
        <ele>31</ele>
        <time>2021-04-18T08:00:43.000Z</time>
      </trkpt>
      <trkpt lat="47.31095" lon="-2.33434">
        <ele>31</ele>
        <time>2021-04-18T08:00:46.000Z</time>
      </trkpt>
      <trkpt lat="47.31096" lon="-2.33353">
        <ele>31</ele>
        <time>2021-04-18T08:00:54.000Z</time>
      </trkpt>
      <trkpt lat="47.31096" lon="-2.33343">
        <ele>30.60000038147</ele>
        <time>2021-04-18T08:00:55.000Z</time>
      </trkpt>
      <trkpt lat="47.31097" lon="-2.33334">
        <ele>30.200000762939</ele>
        <time>2021-04-18T08:00:56.000Z</time>
      </trkpt>
      <trkpt lat="47.31097" lon="-2.33324">
        <ele>29.799999237061</ele>
        <time>2021-04-18T08:00:57.000Z</time>
      </trkpt>
      <trkpt lat="47.31098" lon="-2.33315">
        <ele>29.39999961853</ele>
        <time>2021-04-18T08:00:58.000Z</time>
      </trkpt>
      <trkpt lat="47.31099" lon="-2.33305">
        <ele>29</ele>
        <time>2021-04-18T08:00:59.000Z</time>
      </trkpt>
      <trkpt lat="47.311" lon="-2.33258">
        <ele>29</ele>
        <time>2021-04-18T08:01:04.000Z</time>
      </trkpt>
      <trkpt lat="47.31106" lon="-2.3321">
        <ele>29</ele>
        <time>2021-04-18T08:01:10.000Z</time>
      </trkpt>
      <trkpt lat="47.31114" lon="-2.33196">
        <ele>28.60000038147</ele>
        <time>2021-04-18T08:01:13.000Z</time>
      </trkpt>
      <trkpt lat="47.31119" lon="-2.33194">
        <ele>28.200000762939</ele>
        <time>2021-04-18T08:01:14.000Z</time>
      </trkpt>
      <trkpt lat="47.31124" lon="-2.33192">
        <ele>27.799999237061</ele>
        <time>2021-04-18T08:01:15.000Z</time>
      </trkpt>
      <trkpt lat="47.31129" lon="-2.33189">
        <ele>27.39999961853</ele>
        <time>2021-04-18T08:01:16.000Z</time>
      </trkpt>
      <trkpt lat="47.31134" lon="-2.33186">
        <ele>27</ele>
        <time>2021-04-18T08:01:17.000Z</time>
      </trkpt>
      <trkpt lat="47.31175" lon="-2.33162">
        <ele>27</ele>
        <time>2021-04-18T08:01:24.000Z</time>
      </trkpt>
      <trkpt lat="47.31211" lon="-2.33144">
        <ele>27</ele>
        <time>2021-04-18T08:01:30.000Z</time>
      </trkpt>
      <trkpt lat="47.31223" lon="-2.33143">
        <ele>27</ele>
        <time>2021-04-18T08:01:32.000Z</time>
      </trkpt>
      <trkpt lat="47.31242" lon="-2.33146">
        <ele>27</ele>
        <time>2021-04-18T08:01:35.000Z</time>
      </trkpt>
      <trkpt lat="47.31277" lon="-2.3316">
        <ele>27</ele>
        <time>2021-04-18T08:01:41.000Z</time>
      </trkpt>
      <trkpt lat="47.3131" lon="-2.33186">
        <ele>27</ele>
        <time>2021-04-18T08:01:47.000Z</time>
      </trkpt>
      <trkpt lat="47.31344" lon="-2.33219">
        <ele>27</ele>
        <time>2021-04-18T08:01:54.000Z</time>
      </trkpt>
      <trkpt lat="47.31382" lon="-2.33246">
        <ele>27</ele>
        <time>2021-04-18T08:02:01.000Z</time>
      </trkpt>
      <trkpt lat="47.31418" lon="-2.33273">
        <ele>27</ele>
        <time>2021-04-18T08:02:08.000Z</time>
      </trkpt>
      <trkpt lat="47.31441" lon="-2.33297">
        <ele>27</ele>
        <time>2021-04-18T08:02:13.000Z</time>
      </trkpt>
      <trkpt lat="47.31445" lon="-2.33303">
        <ele>27</ele>
        <time>2021-04-18T08:02:14.000Z</time>
      </trkpt>
      <trkpt lat="47.31466" lon="-2.33337">
        <ele>27</ele>
        <time>2021-04-18T08:02:20.000Z</time>
      </trkpt>
      <trkpt lat="47.31472" lon="-2.33351">
        <ele>27</ele>
        <time>2021-04-18T08:02:22.000Z</time>
      </trkpt>
      <trkpt lat="47.31487" lon="-2.3337">
        <ele>27</ele>
        <time>2021-04-18T08:02:26.000Z</time>
      </trkpt>
      <trkpt lat="47.31493" lon="-2.33368">
        <ele>27</ele>
        <time>2021-04-18T08:02:27.000Z</time>
      </trkpt>
      <trkpt lat="47.3151" lon="-2.33356">
        <ele>27</ele>
        <time>2021-04-18T08:02:30.000Z</time>
      </trkpt>
      <trkpt lat="47.31516" lon="-2.33353">
        <ele>27</ele>
        <time>2021-04-18T08:02:31.000Z</time>
      </trkpt>
      <trkpt lat="47.31547" lon="-2.33339">
        <ele>27</ele>
        <time>2021-04-18T08:02:37.000Z</time>
      </trkpt>
      <trkpt lat="47.31585" lon="-2.33322">
        <ele>27</ele>
        <time>2021-04-18T08:02:44.000Z</time>
      </trkpt>
      <trkpt lat="47.3159" lon="-2.33319">
        <ele>27.39999961853</ele>
        <time>2021-04-18T08:02:45.000Z</time>
      </trkpt>
      <trkpt lat="47.31595" lon="-2.33315">
        <ele>27.799999237061</ele>
        <time>2021-04-18T08:02:46.000Z</time>
      </trkpt>
      <trkpt lat="47.31601" lon="-2.33312">
        <ele>28.200000762939</ele>
        <time>2021-04-18T08:02:47.000Z</time>
      </trkpt>
      <trkpt lat="47.31606" lon="-2.3331">
        <ele>28.60000038147</ele>
        <time>2021-04-18T08:02:48.000Z</time>
      </trkpt>
      <trkpt lat="47.31611" lon="-2.33306">
        <ele>29</ele>
        <time>2021-04-18T08:02:49.000Z</time>
      </trkpt>
      <trkpt lat="47.31621" lon="-2.333">
        <ele>29</ele>
        <time>2021-04-18T08:02:51.000Z</time>
      </trkpt>
      <trkpt lat="47.31661" lon="-2.33278">
        <ele>29</ele>
        <time>2021-04-18T08:02:59.000Z</time>
      </trkpt>
      <trkpt lat="47.31689" lon="-2.33266">
        <ele>28.60000038147</ele>
        <time>2021-04-18T08:03:05.000Z</time>
      </trkpt>
      <trkpt lat="47.31694" lon="-2.33263">
        <ele>28</ele>
        <time>2021-04-18T08:03:06.000Z</time>
      </trkpt>
      <trkpt lat="47.31698" lon="-2.3326">
        <ele>27.60000038147</ele>
        <time>2021-04-18T08:03:07.000Z</time>
      </trkpt>
      <trkpt lat="47.31703" lon="-2.33257">
        <ele>27.200000762939</ele>
        <time>2021-04-18T08:03:08.000Z</time>
      </trkpt>
      <trkpt lat="47.31708" lon="-2.33254">
        <ele>26.60000038147</ele>
        <time>2021-04-18T08:03:09.000Z</time>
      </trkpt>
      <trkpt lat="47.31713" lon="-2.33251">
        <ele>26.60000038147</ele>
        <time>2021-04-18T08:03:10.000Z</time>
      </trkpt>
      <trkpt lat="47.31728" lon="-2.33243">
        <ele>26.200000762939</ele>
        <time>2021-04-18T08:03:13.000Z</time>
      </trkpt>
      <trkpt lat="47.31732" lon="-2.33242">
        <ele>25.799999237061</ele>
        <time>2021-04-18T08:03:14.000Z</time>
      </trkpt>
      <trkpt lat="47.31735" lon="-2.33243">
        <ele>25</ele>
        <time>2021-04-18T08:03:15.000Z</time>
      </trkpt>
      <trkpt lat="47.31737" lon="-2.33248">
        <ele>24.60000038147</ele>
        <time>2021-04-18T08:03:16.000Z</time>
      </trkpt>
      <trkpt lat="47.3174" lon="-2.3326">
        <ele>24.60000038147</ele>
        <time>2021-04-18T08:03:18.000Z</time>
      </trkpt>
      <trkpt lat="47.31744" lon="-2.3327">
        <ele>24.60000038147</ele>
        <time>2021-04-18T08:03:20.000Z</time>
      </trkpt>
      <trkpt lat="47.31759" lon="-2.33313">
        <ele>24.200000762939</ele>
        <time>2021-04-18T08:03:27.000Z</time>
      </trkpt>
      <trkpt lat="47.31762" lon="-2.33319">
        <ele>23.799999237061</ele>
        <time>2021-04-18T08:03:28.000Z</time>
      </trkpt>
      <trkpt lat="47.31767" lon="-2.33324">
        <ele>23.39999961853</ele>
        <time>2021-04-18T08:03:29.000Z</time>
      </trkpt>
      <trkpt lat="47.31772" lon="-2.33328">
        <ele>23</ele>
        <time>2021-04-18T08:03:30.000Z</time>
      </trkpt>
      <trkpt lat="47.31777" lon="-2.3333">
        <ele>22.60000038147</ele>
        <time>2021-04-18T08:03:31.000Z</time>
      </trkpt>
      <trkpt lat="47.31781" lon="-2.33327">
        <ele>22.60000038147</ele>
        <time>2021-04-18T08:03:32.000Z</time>
      </trkpt>
      <trkpt lat="47.31794" lon="-2.33313">
        <ele>22.200000762939</ele>
        <time>2021-04-18T08:03:35.000Z</time>
      </trkpt>
      <trkpt lat="47.31799" lon="-2.33308">
        <ele>21.799999237061</ele>
        <time>2021-04-18T08:03:36.000Z</time>
      </trkpt>
      <trkpt lat="47.31805" lon="-2.33301">
        <ele>21.39999961853</ele>
        <time>2021-04-18T08:03:37.000Z</time>
      </trkpt>
      <trkpt lat="47.3181" lon="-2.33295">
        <ele>21</ele>
        <time>2021-04-18T08:03:38.000Z</time>
      </trkpt>
      <trkpt lat="47.31815" lon="-2.3329">
        <ele>20</ele>
        <time>2021-04-18T08:03:39.000Z</time>
      </trkpt>
      <trkpt lat="47.31818" lon="-2.33286">
        <ele>19.39999961853</ele>
        <time>2021-04-18T08:03:40.000Z</time>
      </trkpt>
      <trkpt lat="47.31822" lon="-2.33282">
        <ele>19</ele>
        <time>2021-04-18T08:03:41.000Z</time>
      </trkpt>
      <trkpt lat="47.31825" lon="-2.33278">
        <ele>18.39999961853</ele>
        <time>2021-04-18T08:03:42.000Z</time>
      </trkpt>
      <trkpt lat="47.31828" lon="-2.33274">
        <ele>18</ele>
        <time>2021-04-18T08:03:43.000Z</time>
      </trkpt>
      <trkpt lat="47.31832" lon="-2.33269">
        <ele>17.39999961853</ele>
        <time>2021-04-18T08:03:44.000Z</time>
      </trkpt>
      <trkpt lat="47.31836" lon="-2.33264">
        <ele>17</ele>
        <time>2021-04-18T08:03:45.000Z</time>
      </trkpt>
      <trkpt lat="47.31838" lon="-2.33258">
        <ele>16.39999961853</ele>
        <time>2021-04-18T08:03:46.000Z</time>
      </trkpt>
      <trkpt lat="47.31848" lon="-2.33234">
        <ele>16.39999961853</ele>
        <time>2021-04-18T08:03:49.000Z</time>
      </trkpt>
      <trkpt lat="47.3185" lon="-2.33225">
        <ele>16.39999961853</ele>
        <time>2021-04-18T08:03:50.000Z</time>
      </trkpt>
      <trkpt lat="47.31856" lon="-2.33194">
        <ele>16.39999961853</ele>
        <time>2021-04-18T08:03:53.000Z</time>
      </trkpt>
      <trkpt lat="47.31861" lon="-2.33164">
        <ele>16.39999961853</ele>
        <time>2021-04-18T08:03:56.000Z</time>
      </trkpt>
      <trkpt lat="47.31863" lon="-2.33154">
        <ele>16</ele>
        <time>2021-04-18T08:03:57.000Z</time>
      </trkpt>
      <trkpt lat="47.31866" lon="-2.33145">
        <ele>15.60000038147</ele>
        <time>2021-04-18T08:03:58.000Z</time>
      </trkpt>
      <trkpt lat="47.31867" lon="-2.33135">
        <ele>15.199999809265</ele>
        <time>2021-04-18T08:03:59.000Z</time>
      </trkpt>
      <trkpt lat="47.31869" lon="-2.33126">
        <ele>14.800000190735</ele>
        <time>2021-04-18T08:04:00.000Z</time>
      </trkpt>
      <trkpt lat="47.31871" lon="-2.33117">
        <ele>14.39999961853</ele>
        <time>2021-04-18T08:04:01.000Z</time>
      </trkpt>
      <trkpt lat="47.31873" lon="-2.33106">
        <ele>14.39999961853</ele>
        <time>2021-04-18T08:04:02.000Z</time>
      </trkpt>
      <trkpt lat="47.31874" lon="-2.33096">
        <ele>14.39999961853</ele>
        <time>2021-04-18T08:04:03.000Z</time>
      </trkpt>
      <trkpt lat="47.31876" lon="-2.33085">
        <ele>13.60000038147</ele>
        <time>2021-04-18T08:04:04.000Z</time>
      </trkpt>
      <trkpt lat="47.31877" lon="-2.33075">
        <ele>13.199999809265</ele>
        <time>2021-04-18T08:04:05.000Z</time>
      </trkpt>
      <trkpt lat="47.31877" lon="-2.33063">
        <ele>12.60000038147</ele>
        <time>2021-04-18T08:04:06.000Z</time>
      </trkpt>
      <trkpt lat="47.31878" lon="-2.33052">
        <ele>12.199999809265</ele>
        <time>2021-04-18T08:04:07.000Z</time>
      </trkpt>
      <trkpt lat="47.31878" lon="-2.33019">
        <ele>12.199999809265</ele>
        <time>2021-04-18T08:04:10.000Z</time>
      </trkpt>
      <trkpt lat="47.31878" lon="-2.32986">
        <ele>12.199999809265</ele>
        <time>2021-04-18T08:04:13.000Z</time>
      </trkpt>
      <trkpt lat="47.31882" lon="-2.32958">
        <ele>12.199999809265</ele>
        <time>2021-04-18T08:04:16.000Z</time>
      </trkpt>
      <trkpt lat="47.31885" lon="-2.32918">
        <ele>12.199999809265</ele>
        <time>2021-04-18T08:04:21.000Z</time>
      </trkpt>
      <trkpt lat="47.31888" lon="-2.32859">
        <ele>12.199999809265</ele>
        <time>2021-04-18T08:04:28.000Z</time>
      </trkpt>
      <trkpt lat="47.31884" lon="-2.32803">
        <ele>12.199999809265</ele>
        <time>2021-04-18T08:04:34.000Z</time>
      </trkpt>
      <trkpt lat="47.31877" lon="-2.32763">
        <ele>12.199999809265</ele>
        <time>2021-04-18T08:04:39.000Z</time>
      </trkpt>
      <trkpt lat="47.31872" lon="-2.3275">
        <ele>12.199999809265</ele>
        <time>2021-04-18T08:04:41.000Z</time>
      </trkpt>
      <trkpt lat="47.31864" lon="-2.32729">
        <ele>12.199999809265</ele>
        <time>2021-04-18T08:04:44.000Z</time>
      </trkpt>
      <trkpt lat="47.31852" lon="-2.327">
        <ele>12.199999809265</ele>
        <time>2021-04-18T08:04:48.000Z</time>
      </trkpt>
      <trkpt lat="47.31847" lon="-2.32687">
        <ele>12.199999809265</ele>
        <time>2021-04-18T08:04:50.000Z</time>
      </trkpt>
      <trkpt lat="47.3184" lon="-2.32668">
        <ele>12.199999809265</ele>
        <time>2021-04-18T08:04:53.000Z</time>
      </trkpt>
      <trkpt lat="47.31839" lon="-2.32661">
        <ele>13</ele>
        <time>2021-04-18T08:04:54.000Z</time>
      </trkpt>
      <trkpt lat="47.31836" lon="-2.32651">
        <ele>13.39999961853</ele>
        <time>2021-04-18T08:04:55.000Z</time>
      </trkpt>
      <trkpt lat="47.31835" lon="-2.32645">
        <ele>13.800000190735</ele>
        <time>2021-04-18T08:04:56.000Z</time>
      </trkpt>
      <trkpt lat="47.31833" lon="-2.32639">
        <ele>14.39999961853</ele>
        <time>2021-04-18T08:04:57.000Z</time>
      </trkpt>
      <trkpt lat="47.31823" lon="-2.32596">
        <ele>14.39999961853</ele>
        <time>2021-04-18T08:05:03.000Z</time>
      </trkpt>
      <trkpt lat="47.31814" lon="-2.32559">
        <ele>14.800000190735</ele>
        <time>2021-04-18T08:05:09.000Z</time>
      </trkpt>
      <trkpt lat="47.31812" lon="-2.32553">
        <ele>15.199999809265</ele>
        <time>2021-04-18T08:05:10.000Z</time>
      </trkpt>
      <trkpt lat="47.3181" lon="-2.32546">
        <ele>15.60000038147</ele>
        <time>2021-04-18T08:05:11.000Z</time>
      </trkpt>
      <trkpt lat="47.31809" lon="-2.32541">
        <ele>16</ele>
        <time>2021-04-18T08:05:12.000Z</time>
      </trkpt>
      <trkpt lat="47.31808" lon="-2.32536">
        <ele>16.60000038147</ele>
        <time>2021-04-18T08:05:13.000Z</time>
      </trkpt>
      <trkpt lat="47.31806" lon="-2.32525">
        <ele>16.60000038147</ele>
        <time>2021-04-18T08:05:15.000Z</time>
      </trkpt>
      <trkpt lat="47.31799" lon="-2.32495">
        <ele>17</ele>
        <time>2021-04-18T08:05:20.000Z</time>
      </trkpt>
      <trkpt lat="47.31798" lon="-2.32489">
        <ele>17.39999961853</ele>
        <time>2021-04-18T08:05:21.000Z</time>
      </trkpt>
      <trkpt lat="47.31797" lon="-2.32484">
        <ele>17.799999237061</ele>
        <time>2021-04-18T08:05:22.000Z</time>
      </trkpt>
      <trkpt lat="47.31796" lon="-2.3248">
        <ele>18.200000762939</ele>
        <time>2021-04-18T08:05:23.000Z</time>
      </trkpt>
      <trkpt lat="47.31794" lon="-2.32477">
        <ele>18.60000038147</ele>
        <time>2021-04-18T08:05:24.000Z</time>
      </trkpt>
      <trkpt lat="47.31792" lon="-2.32468">
        <ele>19</ele>
        <time>2021-04-18T08:05:26.000Z</time>
      </trkpt>
      <trkpt lat="47.31791" lon="-2.32464">
        <ele>19.60000038147</ele>
        <time>2021-04-18T08:05:27.000Z</time>
      </trkpt>
      <trkpt lat="47.31791" lon="-2.32459">
        <ele>20</ele>
        <time>2021-04-18T08:05:28.000Z</time>
      </trkpt>
      <trkpt lat="47.31791" lon="-2.32453">
        <ele>20.39999961853</ele>
        <time>2021-04-18T08:05:29.000Z</time>
      </trkpt>
      <trkpt lat="47.3179" lon="-2.32447">
        <ele>20.799999237061</ele>
        <time>2021-04-18T08:05:30.000Z</time>
      </trkpt>
      <trkpt lat="47.31788" lon="-2.32441">
        <ele>20.799999237061</ele>
        <time>2021-04-18T08:05:31.000Z</time>
      </trkpt>
      <trkpt lat="47.3178" lon="-2.32396">
        <ele>20.799999237061</ele>
        <time>2021-04-18T08:05:39.000Z</time>
      </trkpt>
      <trkpt lat="47.31779" lon="-2.32389">
        <ele>21.200000762939</ele>
        <time>2021-04-18T08:05:40.000Z</time>
      </trkpt>
      <trkpt lat="47.31777" lon="-2.32384">
        <ele>21.60000038147</ele>
        <time>2021-04-18T08:05:41.000Z</time>
      </trkpt>
      <trkpt lat="47.31776" lon="-2.32378">
        <ele>22</ele>
        <time>2021-04-18T08:05:42.000Z</time>
      </trkpt>
      <trkpt lat="47.31775" lon="-2.3237">
        <ele>23</ele>
        <time>2021-04-18T08:05:43.000Z</time>
      </trkpt>
      <trkpt lat="47.31772" lon="-2.32352">
        <ele>23</ele>
        <time>2021-04-18T08:05:46.000Z</time>
      </trkpt>
      <trkpt lat="47.31765" lon="-2.32317">
        <ele>23</ele>
        <time>2021-04-18T08:05:52.000Z</time>
      </trkpt>
      <trkpt lat="47.3176" lon="-2.32286">
        <ele>23.39999961853</ele>
        <time>2021-04-18T08:05:57.000Z</time>
      </trkpt>
      <trkpt lat="47.31759" lon="-2.3228">
        <ele>23.799999237061</ele>
        <time>2021-04-18T08:05:58.000Z</time>
      </trkpt>
      <trkpt lat="47.31758" lon="-2.32275">
        <ele>24.200000762939</ele>
        <time>2021-04-18T08:05:59.000Z</time>
      </trkpt>
      <trkpt lat="47.31756" lon="-2.32271">
        <ele>24.799999237061</ele>
        <time>2021-04-18T08:06:00.000Z</time>
      </trkpt>
      <trkpt lat="47.31755" lon="-2.32267">
        <ele>25.200000762939</ele>
        <time>2021-04-18T08:06:01.000Z</time>
      </trkpt>
      <trkpt lat="47.31751" lon="-2.32247">
        <ele>25.200000762939</ele>
        <time>2021-04-18T08:06:07.000Z</time>
      </trkpt>
      <trkpt lat="47.31752" lon="-2.32241">
        <ele>25.200000762939</ele>
        <time>2021-04-18T08:06:11.000Z</time>
      </trkpt>
      <trkpt lat="47.31753" lon="-2.32239">
        <ele>25.200000762939</ele>
        <time>2021-04-18T08:06:56.000Z</time>
      </trkpt>
      <trkpt lat="47.31755" lon="-2.32238">
        <ele>25.200000762939</ele>
        <time>2021-04-18T08:06:57.000Z</time>
      </trkpt>
      <trkpt lat="47.31775" lon="-2.32235">
        <ele>25.200000762939</ele>
        <time>2021-04-18T08:07:03.000Z</time>
      </trkpt>
      <trkpt lat="47.31805" lon="-2.3223">
        <ele>25.200000762939</ele>
        <time>2021-04-18T08:07:10.000Z</time>
      </trkpt>
      <trkpt lat="47.31831" lon="-2.32226">
        <ele>25.200000762939</ele>
        <time>2021-04-18T08:07:15.000Z</time>
      </trkpt>
      <trkpt lat="47.31837" lon="-2.32224">
        <ele>25.200000762939</ele>
        <time>2021-04-18T08:07:16.000Z</time>
      </trkpt>
      <trkpt lat="47.31849" lon="-2.3222">
        <ele>24.799999237061</ele>
        <time>2021-04-18T08:07:18.000Z</time>
      </trkpt>
      <trkpt lat="47.31856" lon="-2.32218">
        <ele>24.39999961853</ele>
        <time>2021-04-18T08:07:19.000Z</time>
      </trkpt>
      <trkpt lat="47.31863" lon="-2.32216">
        <ele>24</ele>
        <time>2021-04-18T08:07:20.000Z</time>
      </trkpt>
      <trkpt lat="47.3187" lon="-2.32214">
        <ele>23.60000038147</ele>
        <time>2021-04-18T08:07:21.000Z</time>
      </trkpt>
      <trkpt lat="47.31877" lon="-2.32212">
        <ele>22.60000038147</ele>
        <time>2021-04-18T08:07:22.000Z</time>
      </trkpt>
      <trkpt lat="47.31884" lon="-2.3221">
        <ele>22.200000762939</ele>
        <time>2021-04-18T08:07:23.000Z</time>
      </trkpt>
      <trkpt lat="47.31891" lon="-2.32208">
        <ele>21.799999237061</ele>
        <time>2021-04-18T08:07:24.000Z</time>
      </trkpt>
      <trkpt lat="47.31898" lon="-2.32206">
        <ele>21.200000762939</ele>
        <time>2021-04-18T08:07:25.000Z</time>
      </trkpt>
      <trkpt lat="47.31905" lon="-2.32206">
        <ele>20.799999237061</ele>
        <time>2021-04-18T08:07:26.000Z</time>
      </trkpt>
      <trkpt lat="47.31912" lon="-2.32206">
        <ele>20.799999237061</ele>
        <time>2021-04-18T08:07:27.000Z</time>
      </trkpt>
      <trkpt lat="47.31919" lon="-2.32206">
        <ele>20.799999237061</ele>
        <time>2021-04-18T08:07:28.000Z</time>
      </trkpt>
      <trkpt lat="47.31927" lon="-2.32208">
        <ele>20.39999961853</ele>
        <time>2021-04-18T08:07:29.000Z</time>
      </trkpt>
      <trkpt lat="47.31935" lon="-2.3221">
        <ele>20</ele>
        <time>2021-04-18T08:07:30.000Z</time>
      </trkpt>
      <trkpt lat="47.31942" lon="-2.32212">
        <ele>19.60000038147</ele>
        <time>2021-04-18T08:07:31.000Z</time>
      </trkpt>
      <trkpt lat="47.31947" lon="-2.32213">
        <ele>19</ele>
        <time>2021-04-18T08:07:32.000Z</time>
      </trkpt>
      <trkpt lat="47.31952" lon="-2.32215">
        <ele>18.39999961853</ele>
        <time>2021-04-18T08:07:33.000Z</time>
      </trkpt>
      <trkpt lat="47.31955" lon="-2.32219">
        <ele>17.799999237061</ele>
        <time>2021-04-18T08:07:34.000Z</time>
      </trkpt>
      <trkpt lat="47.31957" lon="-2.32224">
        <ele>17</ele>
        <time>2021-04-18T08:07:35.000Z</time>
      </trkpt>
      <trkpt lat="47.31957" lon="-2.3223">
        <ele>16.200000762939</ele>
        <time>2021-04-18T08:07:36.000Z</time>
      </trkpt>
      <trkpt lat="47.31956" lon="-2.32236">
        <ele>15.60000038147</ele>
        <time>2021-04-18T08:07:37.000Z</time>
      </trkpt>
      <trkpt lat="47.31954" lon="-2.32241">
        <ele>14.800000190735</ele>
        <time>2021-04-18T08:07:38.000Z</time>
      </trkpt>
      <trkpt lat="47.31952" lon="-2.32246">
        <ele>14</ele>
        <time>2021-04-18T08:07:39.000Z</time>
      </trkpt>
      <trkpt lat="47.3195" lon="-2.32257">
        <ele>14</ele>
        <time>2021-04-18T08:07:41.000Z</time>
      </trkpt>
      <trkpt lat="47.31954" lon="-2.32264">
        <ele>14</ele>
        <time>2021-04-18T08:07:43.000Z</time>
      </trkpt>
      <trkpt lat="47.31962" lon="-2.32259">
        <ele>13.60000038147</ele>
        <time>2021-04-18T08:07:45.000Z</time>
      </trkpt>
      <trkpt lat="47.31965" lon="-2.32254">
        <ele>12.800000190735</ele>
        <time>2021-04-18T08:07:46.000Z</time>
      </trkpt>
      <trkpt lat="47.31968" lon="-2.32247">
        <ele>12.39999961853</ele>
        <time>2021-04-18T08:07:47.000Z</time>
      </trkpt>
      <trkpt lat="47.31972" lon="-2.32241">
        <ele>12</ele>
        <time>2021-04-18T08:07:48.000Z</time>
      </trkpt>
      <trkpt lat="47.31977" lon="-2.32235">
        <ele>12</ele>
        <time>2021-04-18T08:07:49.000Z</time>
      </trkpt>
      <trkpt lat="47.3199" lon="-2.32221">
        <ele>11.39999961853</ele>
        <time>2021-04-18T08:07:51.000Z</time>
      </trkpt>
      <trkpt lat="47.31996" lon="-2.32213">
        <ele>11</ele>
        <time>2021-04-18T08:07:52.000Z</time>
      </trkpt>
      <trkpt lat="47.32003" lon="-2.32205">
        <ele>10.60000038147</ele>
        <time>2021-04-18T08:07:53.000Z</time>
      </trkpt>
      <trkpt lat="47.3201" lon="-2.32198">
        <ele>10</ele>
        <time>2021-04-18T08:07:54.000Z</time>
      </trkpt>
      <trkpt lat="47.32016" lon="-2.3219">
        <ele>9.6000003814697</ele>
        <time>2021-04-18T08:07:55.000Z</time>
      </trkpt>
      <trkpt lat="47.32024" lon="-2.32184">
        <ele>9.6000003814697</ele>
        <time>2021-04-18T08:07:56.000Z</time>
      </trkpt>
      <trkpt lat="47.32031" lon="-2.32181">
        <ele>9.6000003814697</ele>
        <time>2021-04-18T08:07:57.000Z</time>
      </trkpt>
      <trkpt lat="47.32064" lon="-2.3218">
        <ele>9.6000003814697</ele>
        <time>2021-04-18T08:08:01.000Z</time>
      </trkpt>
      <trkpt lat="47.32098" lon="-2.32179">
        <ele>9.1999998092651</ele>
        <time>2021-04-18T08:08:05.000Z</time>
      </trkpt>
      <trkpt lat="47.32107" lon="-2.32179">
        <ele>8.6000003814697</ele>
        <time>2021-04-18T08:08:06.000Z</time>
      </trkpt>
      <trkpt lat="47.32115" lon="-2.32177">
        <ele>8.1999998092651</ele>
        <time>2021-04-18T08:08:07.000Z</time>
      </trkpt>
      <trkpt lat="47.32123" lon="-2.32175">
        <ele>7.8000001907349</ele>
        <time>2021-04-18T08:08:08.000Z</time>
      </trkpt>
      <trkpt lat="47.32131" lon="-2.32172">
        <ele>7.4000000953674</ele>
        <time>2021-04-18T08:08:09.000Z</time>
      </trkpt>
      <trkpt lat="47.32139" lon="-2.32169">
        <ele>7.4000000953674</ele>
        <time>2021-04-18T08:08:10.000Z</time>
      </trkpt>
      <trkpt lat="47.32154" lon="-2.3216">
        <ele>7.4000000953674</ele>
        <time>2021-04-18T08:08:12.000Z</time>
      </trkpt>
      <trkpt lat="47.32176" lon="-2.32139">
        <ele>7.4000000953674</ele>
        <time>2021-04-18T08:08:16.000Z</time>
      </trkpt>
      <trkpt lat="47.32193" lon="-2.32123">
        <ele>6.8000001907349</ele>
        <time>2021-04-18T08:08:20.000Z</time>
      </trkpt>
      <trkpt lat="47.32196" lon="-2.3212">
        <ele>6.4000000953674</ele>
        <time>2021-04-18T08:08:21.000Z</time>
      </trkpt>
      <trkpt lat="47.32198" lon="-2.32118">
        <ele>5.8000001907349</ele>
        <time>2021-04-18T08:08:22.000Z</time>
      </trkpt>
      <trkpt lat="47.322" lon="-2.32116">
        <ele>5.4000000953674</ele>
        <time>2021-04-18T08:08:23.000Z</time>
      </trkpt>
      <trkpt lat="47.32202" lon="-2.32114">
        <ele>4.8000001907349</ele>
        <time>2021-04-18T08:08:24.000Z</time>
      </trkpt>
      <trkpt lat="47.32205" lon="-2.32115">
        <ele>4.8000001907349</ele>
        <time>2021-04-18T08:08:25.000Z</time>
      </trkpt>
      <trkpt lat="47.32222" lon="-2.32112">
        <ele>4.8000001907349</ele>
        <time>2021-04-18T08:08:29.000Z</time>
      </trkpt>
      <trkpt lat="47.32227" lon="-2.3211">
        <ele>4.8000001907349</ele>
        <time>2021-04-18T08:08:30.000Z</time>
      </trkpt>
      <trkpt lat="47.32252" lon="-2.32105">
        <ele>4.8000001907349</ele>
        <time>2021-04-18T08:08:35.000Z</time>
      </trkpt>
      <trkpt lat="47.32287" lon="-2.321">
        <ele>4.8000001907349</ele>
        <time>2021-04-18T08:08:42.000Z</time>
      </trkpt>
      <trkpt lat="47.3231" lon="-2.32098">
        <ele>4.8000001907349</ele>
        <time>2021-04-18T08:08:47.000Z</time>
      </trkpt>
      <trkpt lat="47.32314" lon="-2.32099">
        <ele>4.8000001907349</ele>
        <time>2021-04-18T08:08:48.000Z</time>
      </trkpt>
      <trkpt lat="47.32344" lon="-2.32105">
        <ele>4.8000001907349</ele>
        <time>2021-04-18T08:08:55.000Z</time>
      </trkpt>
      <trkpt lat="47.32364" lon="-2.32107">
        <ele>4.8000001907349</ele>
        <time>2021-04-18T08:09:00.000Z</time>
      </trkpt>
      <trkpt lat="47.32398" lon="-2.32104">
        <ele>4.8000001907349</ele>
        <time>2021-04-18T08:09:06.000Z</time>
      </trkpt>
      <trkpt lat="47.32452" lon="-2.32101">
        <ele>4.8000001907349</ele>
        <time>2021-04-18T08:09:15.000Z</time>
      </trkpt>
      <trkpt lat="47.32489" lon="-2.32099">
        <ele>4.8000001907349</ele>
        <time>2021-04-18T08:09:22.000Z</time>
      </trkpt>
      <trkpt lat="47.32493" lon="-2.32098">
        <ele>4.8000001907349</ele>
        <time>2021-04-18T08:09:23.000Z</time>
      </trkpt>
      <trkpt lat="47.32499" lon="-2.32092">
        <ele>4.8000001907349</ele>
        <time>2021-04-18T08:09:25.000Z</time>
      </trkpt>
      <trkpt lat="47.32501" lon="-2.32081">
        <ele>4.8000001907349</ele>
        <time>2021-04-18T08:09:27.000Z</time>
      </trkpt>
      <trkpt lat="47.32502" lon="-2.32075">
        <ele>4.8000001907349</ele>
        <time>2021-04-18T08:09:28.000Z</time>
      </trkpt>
      <trkpt lat="47.32502" lon="-2.32038">
        <ele>4.8000001907349</ele>
        <time>2021-04-18T08:09:34.000Z</time>
      </trkpt>
      <trkpt lat="47.32503" lon="-2.31988">
        <ele>4.8000001907349</ele>
        <time>2021-04-18T08:09:41.000Z</time>
      </trkpt>
      <trkpt lat="47.3251" lon="-2.31933">
        <ele>4.8000001907349</ele>
        <time>2021-04-18T08:09:48.000Z</time>
      </trkpt>
      <trkpt lat="47.32511" lon="-2.31926">
        <ele>4.8000001907349</ele>
        <time>2021-04-18T08:09:49.000Z</time>
      </trkpt>
      <trkpt lat="47.32514" lon="-2.31897">
        <ele>4.8000001907349</ele>
        <time>2021-04-18T08:09:53.000Z</time>
      </trkpt>
      <trkpt lat="47.32519" lon="-2.31853">
        <ele>5.1999998092651</ele>
        <time>2021-04-18T08:09:59.000Z</time>
      </trkpt>
      <trkpt lat="47.32519" lon="-2.31846">
        <ele>5.5999999046326</ele>
        <time>2021-04-18T08:10:00.000Z</time>
      </trkpt>
      <trkpt lat="47.32519" lon="-2.31839">
        <ele>6</ele>
        <time>2021-04-18T08:10:01.000Z</time>
      </trkpt>
      <trkpt lat="47.32519" lon="-2.31832">
        <ele>6.4000000953674</ele>
        <time>2021-04-18T08:10:02.000Z</time>
      </trkpt>
      <trkpt lat="47.32518" lon="-2.31826">
        <ele>6.8000001907349</ele>
        <time>2021-04-18T08:10:03.000Z</time>
      </trkpt>
      <trkpt lat="47.32515" lon="-2.31786">
        <ele>6.8000001907349</ele>
        <time>2021-04-18T08:10:08.000Z</time>
      </trkpt>
      <trkpt lat="47.3251" lon="-2.31725">
        <ele>6.8000001907349</ele>
        <time>2021-04-18T08:10:15.000Z</time>
      </trkpt>
      <trkpt lat="47.32507" lon="-2.31699">
        <ele>7.1999998092651</ele>
        <time>2021-04-18T08:10:18.000Z</time>
      </trkpt>
      <trkpt lat="47.32507" lon="-2.3169">
        <ele>7.5999999046326</ele>
        <time>2021-04-18T08:10:19.000Z</time>
      </trkpt>
      <trkpt lat="47.32506" lon="-2.31681">
        <ele>8</ele>
        <time>2021-04-18T08:10:20.000Z</time>
      </trkpt>
      <trkpt lat="47.32506" lon="-2.31671">
        <ele>8.3999996185303</ele>
        <time>2021-04-18T08:10:21.000Z</time>
      </trkpt>
      <trkpt lat="47.32507" lon="-2.31662">
        <ele>8.8000001907349</ele>
        <time>2021-04-18T08:10:22.000Z</time>
      </trkpt>
      <trkpt lat="47.32516" lon="-2.31639">
        <ele>8.8000001907349</ele>
        <time>2021-04-18T08:10:25.000Z</time>
      </trkpt>
      <trkpt lat="47.3252" lon="-2.31633">
        <ele>8.8000001907349</ele>
        <time>2021-04-18T08:10:26.000Z</time>
      </trkpt>
      <trkpt lat="47.3255" lon="-2.31595">
        <ele>8.8000001907349</ele>
        <time>2021-04-18T08:10:32.000Z</time>
      </trkpt>
      <trkpt lat="47.32553" lon="-2.31589">
        <ele>8.8000001907349</ele>
        <time>2021-04-18T08:10:33.000Z</time>
      </trkpt>
      <trkpt lat="47.32556" lon="-2.31574">
        <ele>8.8000001907349</ele>
        <time>2021-04-18T08:10:35.000Z</time>
      </trkpt>
      <trkpt lat="47.32556" lon="-2.31524">
        <ele>8.8000001907349</ele>
        <time>2021-04-18T08:10:41.000Z</time>
      </trkpt>
      <trkpt lat="47.32556" lon="-2.31516">
        <ele>8.8000001907349</ele>
        <time>2021-04-18T08:10:42.000Z</time>
      </trkpt>
      <trkpt lat="47.32558" lon="-2.31478">
        <ele>8.8000001907349</ele>
        <time>2021-04-18T08:10:47.000Z</time>
      </trkpt>
      <trkpt lat="47.32556" lon="-2.31456">
        <ele>8.8000001907349</ele>
        <time>2021-04-18T08:10:50.000Z</time>
      </trkpt>
      <trkpt lat="47.32554" lon="-2.31441">
        <ele>8.8000001907349</ele>
        <time>2021-04-18T08:10:52.000Z</time>
      </trkpt>
      <trkpt lat="47.32551" lon="-2.31421">
        <ele>8.8000001907349</ele>
        <time>2021-04-18T08:10:55.000Z</time>
      </trkpt>
      <trkpt lat="47.3255" lon="-2.31411">
        <ele>8.8000001907349</ele>
        <time>2021-04-18T08:10:57.000Z</time>
      </trkpt>
      <trkpt lat="47.32551" lon="-2.31395">
        <ele>8.8000001907349</ele>
        <time>2021-04-18T08:11:01.000Z</time>
      </trkpt>
      <trkpt lat="47.32554" lon="-2.31359">
        <ele>8.8000001907349</ele>
        <time>2021-04-18T08:11:06.000Z</time>
      </trkpt>
      <trkpt lat="47.32557" lon="-2.31344">
        <ele>8.8000001907349</ele>
        <time>2021-04-18T08:11:08.000Z</time>
      </trkpt>
      <trkpt lat="47.32564" lon="-2.31322">
        <ele>8.8000001907349</ele>
        <time>2021-04-18T08:11:11.000Z</time>
      </trkpt>
      <trkpt lat="47.32566" lon="-2.31314">
        <ele>8.8000001907349</ele>
        <time>2021-04-18T08:11:12.000Z</time>
      </trkpt>
      <trkpt lat="47.32569" lon="-2.31288">
        <ele>8.8000001907349</ele>
        <time>2021-04-18T08:11:15.000Z</time>
      </trkpt>
      <trkpt lat="47.32569" lon="-2.31279">
        <ele>8.8000001907349</ele>
        <time>2021-04-18T08:11:16.000Z</time>
      </trkpt>
      <trkpt lat="47.32571" lon="-2.31225">
        <ele>8.8000001907349</ele>
        <time>2021-04-18T08:11:22.000Z</time>
      </trkpt>
      <trkpt lat="47.3257" lon="-2.31217">
        <ele>8.3999996185303</ele>
        <time>2021-04-18T08:11:23.000Z</time>
      </trkpt>
      <trkpt lat="47.32567" lon="-2.3121">
        <ele>8</ele>
        <time>2021-04-18T08:11:24.000Z</time>
      </trkpt>
      <trkpt lat="47.32563" lon="-2.31203">
        <ele>7.5999999046326</ele>
        <time>2021-04-18T08:11:25.000Z</time>
      </trkpt>
      <trkpt lat="47.32561" lon="-2.31196">
        <ele>7.1999998092651</ele>
        <time>2021-04-18T08:11:26.000Z</time>
      </trkpt>
      <trkpt lat="47.32559" lon="-2.31189">
        <ele>6.8000001907349</ele>
        <time>2021-04-18T08:11:27.000Z</time>
      </trkpt>
      <trkpt lat="47.3256" lon="-2.31163">
        <ele>6.8000001907349</ele>
        <time>2021-04-18T08:11:31.000Z</time>
      </trkpt>
      <trkpt lat="47.32561" lon="-2.31156">
        <ele>6.8000001907349</ele>
        <time>2021-04-18T08:11:32.000Z</time>
      </trkpt>
      <trkpt lat="47.32564" lon="-2.31128">
        <ele>6.8000001907349</ele>
        <time>2021-04-18T08:11:36.000Z</time>
      </trkpt>
      <trkpt lat="47.32565" lon="-2.3112">
        <ele>6.8000001907349</ele>
        <time>2021-04-18T08:11:37.000Z</time>
      </trkpt>
      <trkpt lat="47.32568" lon="-2.3107">
        <ele>6.8000001907349</ele>
        <time>2021-04-18T08:11:44.000Z</time>
      </trkpt>
      <trkpt lat="47.32565" lon="-2.31044">
        <ele>6.8000001907349</ele>
        <time>2021-04-18T08:11:48.000Z</time>
      </trkpt>
      <trkpt lat="47.32564" lon="-2.31038">
        <ele>7.1999998092651</ele>
        <time>2021-04-18T08:11:49.000Z</time>
      </trkpt>
      <trkpt lat="47.32563" lon="-2.31032">
        <ele>7.5999999046326</ele>
        <time>2021-04-18T08:11:50.000Z</time>
      </trkpt>
      <trkpt lat="47.32562" lon="-2.31025">
        <ele>8.1999998092651</ele>
        <time>2021-04-18T08:11:51.000Z</time>
      </trkpt>
      <trkpt lat="47.32562" lon="-2.31017">
        <ele>8.6000003814697</ele>
        <time>2021-04-18T08:11:52.000Z</time>
      </trkpt>
      <trkpt lat="47.32562" lon="-2.31008">
        <ele>9</ele>
        <time>2021-04-18T08:11:53.000Z</time>
      </trkpt>
      <trkpt lat="47.32564" lon="-2.30953">
        <ele>9</ele>
        <time>2021-04-18T08:12:00.000Z</time>
      </trkpt>
      <trkpt lat="47.32567" lon="-2.30898">
        <ele>9</ele>
        <time>2021-04-18T08:12:06.000Z</time>
      </trkpt>
      <trkpt lat="47.32566" lon="-2.30843">
        <ele>9</ele>
        <time>2021-04-18T08:12:12.000Z</time>
      </trkpt>
      <trkpt lat="47.32561" lon="-2.30785">
        <ele>9</ele>
        <time>2021-04-18T08:12:18.000Z</time>
      </trkpt>
      <trkpt lat="47.3256" lon="-2.30776">
        <ele>9</ele>
        <time>2021-04-18T08:12:19.000Z</time>
      </trkpt>
      <trkpt lat="47.32552" lon="-2.30721">
        <ele>9</ele>
        <time>2021-04-18T08:12:25.000Z</time>
      </trkpt>
      <trkpt lat="47.32543" lon="-2.30663">
        <ele>9</ele>
        <time>2021-04-18T08:12:32.000Z</time>
      </trkpt>
      <trkpt lat="47.32533" lon="-2.30617">
        <ele>9</ele>
        <time>2021-04-18T08:12:38.000Z</time>
      </trkpt>
      <trkpt lat="47.32528" lon="-2.30586">
        <ele>9</ele>
        <time>2021-04-18T08:12:42.000Z</time>
      </trkpt>
      <trkpt lat="47.32526" lon="-2.30571">
        <ele>9</ele>
        <time>2021-04-18T08:12:44.000Z</time>
      </trkpt>
      <trkpt lat="47.32517" lon="-2.30515">
        <ele>9</ele>
        <time>2021-04-18T08:12:51.000Z</time>
      </trkpt>
      <trkpt lat="47.32513" lon="-2.30498">
        <ele>9</ele>
        <time>2021-04-18T08:12:53.000Z</time>
      </trkpt>
      <trkpt lat="47.32507" lon="-2.30466">
        <ele>9</ele>
        <time>2021-04-18T08:12:57.000Z</time>
      </trkpt>
      <trkpt lat="47.32499" lon="-2.30429">
        <ele>9.3999996185303</ele>
        <time>2021-04-18T08:13:02.000Z</time>
      </trkpt>
      <trkpt lat="47.325" lon="-2.30423">
        <ele>9.8000001907349</ele>
        <time>2021-04-18T08:13:03.000Z</time>
      </trkpt>
      <trkpt lat="47.32503" lon="-2.30418">
        <ele>10.199999809265</ele>
        <time>2021-04-18T08:13:04.000Z</time>
      </trkpt>
      <trkpt lat="47.32507" lon="-2.30415">
        <ele>10.60000038147</ele>
        <time>2021-04-18T08:13:05.000Z</time>
      </trkpt>
      <trkpt lat="47.32512" lon="-2.30413">
        <ele>11</ele>
        <time>2021-04-18T08:13:06.000Z</time>
      </trkpt>
      <trkpt lat="47.32517" lon="-2.30411">
        <ele>11</ele>
        <time>2021-04-18T08:13:07.000Z</time>
      </trkpt>
      <trkpt lat="47.32532" lon="-2.30404">
        <ele>11</ele>
        <time>2021-04-18T08:13:10.000Z</time>
      </trkpt>
      <trkpt lat="47.32542" lon="-2.30391">
        <ele>11</ele>
        <time>2021-04-18T08:13:13.000Z</time>
      </trkpt>
      <trkpt lat="47.32539" lon="-2.30373">
        <ele>11</ele>
        <time>2021-04-18T08:13:16.000Z</time>
      </trkpt>
      <trkpt lat="47.32528" lon="-2.30326">
        <ele>11</ele>
        <time>2021-04-18T08:13:23.000Z</time>
      </trkpt>
      <trkpt lat="47.32522" lon="-2.30296">
        <ele>11</ele>
        <time>2021-04-18T08:13:27.000Z</time>
      </trkpt>
      <trkpt lat="47.32519" lon="-2.30281">
        <ele>11</ele>
        <time>2021-04-18T08:13:29.000Z</time>
      </trkpt>
      <trkpt lat="47.32512" lon="-2.30222">
        <ele>11.60000038147</ele>
        <time>2021-04-18T08:13:37.000Z</time>
      </trkpt>
      <trkpt lat="47.32511" lon="-2.30215">
        <ele>12</ele>
        <time>2021-04-18T08:13:38.000Z</time>
      </trkpt>
      <trkpt lat="47.3251" lon="-2.30208">
        <ele>12.39999961853</ele>
        <time>2021-04-18T08:13:39.000Z</time>
      </trkpt>
      <trkpt lat="47.32509" lon="-2.30201">
        <ele>12.800000190735</ele>
        <time>2021-04-18T08:13:40.000Z</time>
      </trkpt>
      <trkpt lat="47.32507" lon="-2.30194">
        <ele>13.39999961853</ele>
        <time>2021-04-18T08:13:41.000Z</time>
      </trkpt>
      <trkpt lat="47.32506" lon="-2.30187">
        <ele>13.39999961853</ele>
        <time>2021-04-18T08:13:42.000Z</time>
      </trkpt>
      <trkpt lat="47.32503" lon="-2.30166">
        <ele>13.800000190735</ele>
        <time>2021-04-18T08:13:45.000Z</time>
      </trkpt>
      <trkpt lat="47.32502" lon="-2.30159">
        <ele>14.199999809265</ele>
        <time>2021-04-18T08:13:46.000Z</time>
      </trkpt>
      <trkpt lat="47.32501" lon="-2.30153">
        <ele>14.60000038147</ele>
        <time>2021-04-18T08:13:47.000Z</time>
      </trkpt>
      <trkpt lat="47.32501" lon="-2.30146">
        <ele>15</ele>
        <time>2021-04-18T08:13:48.000Z</time>
      </trkpt>
      <trkpt lat="47.325" lon="-2.30139">
        <ele>15.39999961853</ele>
        <time>2021-04-18T08:13:49.000Z</time>
      </trkpt>
      <trkpt lat="47.32496" lon="-2.30113">
        <ele>15.39999961853</ele>
        <time>2021-04-18T08:13:53.000Z</time>
      </trkpt>
      <trkpt lat="47.32491" lon="-2.30064">
        <ele>15.39999961853</ele>
        <time>2021-04-18T08:14:00.000Z</time>
      </trkpt>
      <trkpt lat="47.32481" lon="-2.30029">
        <ele>15.39999961853</ele>
        <time>2021-04-18T08:14:05.000Z</time>
      </trkpt>
      <trkpt lat="47.3247" lon="-2.3">
        <ele>15.39999961853</ele>
        <time>2021-04-18T08:14:09.000Z</time>
      </trkpt>
      <trkpt lat="47.32464" lon="-2.29988">
        <ele>15.39999961853</ele>
        <time>2021-04-18T08:14:11.000Z</time>
      </trkpt>
      <trkpt lat="47.32446" lon="-2.29961">
        <ele>15.39999961853</ele>
        <time>2021-04-18T08:14:17.000Z</time>
      </trkpt>
      <trkpt lat="47.32444" lon="-2.29958">
        <ele>15</ele>
        <time>2021-04-18T08:14:18.000Z</time>
      </trkpt>
      <trkpt lat="47.32443" lon="-2.29955">
        <ele>14.60000038147</ele>
        <time>2021-04-18T08:14:19.000Z</time>
      </trkpt>
      <trkpt lat="47.32443" lon="-2.29953">
        <ele>14.199999809265</ele>
        <time>2021-04-18T08:14:20.000Z</time>
      </trkpt>
      <trkpt lat="47.32443" lon="-2.29953">
        <ele>13.60000038147</ele>
        <time>2021-04-18T08:14:21.000Z</time>
      </trkpt>
      <trkpt lat="47.32444" lon="-2.29949">
        <ele>13.199999809265</ele>
        <time>2021-04-18T08:15:13.000Z</time>
      </trkpt>
      <trkpt lat="47.32444" lon="-2.29949">
        <ele>13.199999809265</ele>
        <time>2021-04-18T08:15:14.000Z</time>
      </trkpt>
      <trkpt lat="47.32445" lon="-2.29947">
        <ele>13.199999809265</ele>
        <time>2021-04-18T08:15:15.000Z</time>
      </trkpt>
      <trkpt lat="47.32447" lon="-2.29927">
        <ele>13.199999809265</ele>
        <time>2021-04-18T08:15:19.000Z</time>
      </trkpt>
      <trkpt lat="47.32442" lon="-2.2989">
        <ele>13.199999809265</ele>
        <time>2021-04-18T08:15:25.000Z</time>
      </trkpt>
      <trkpt lat="47.32442" lon="-2.29877">
        <ele>13.199999809265</ele>
        <time>2021-04-18T08:15:27.000Z</time>
      </trkpt>
      <trkpt lat="47.32446" lon="-2.29866">
        <ele>13.199999809265</ele>
        <time>2021-04-18T08:15:29.000Z</time>
      </trkpt>
      <trkpt lat="47.32456" lon="-2.29853">
        <ele>13.199999809265</ele>
        <time>2021-04-18T08:15:32.000Z</time>
      </trkpt>
      <trkpt lat="47.32461" lon="-2.29849">
        <ele>13.199999809265</ele>
        <time>2021-04-18T08:15:33.000Z</time>
      </trkpt>
      <trkpt lat="47.32488" lon="-2.29823">
        <ele>13.199999809265</ele>
        <time>2021-04-18T08:15:39.000Z</time>
      </trkpt>
      <trkpt lat="47.32517" lon="-2.29792">
        <ele>13.199999809265</ele>
        <time>2021-04-18T08:15:46.000Z</time>
      </trkpt>
      <trkpt lat="47.32521" lon="-2.29774">
        <ele>13.199999809265</ele>
        <time>2021-04-18T08:15:49.000Z</time>
      </trkpt>
      <trkpt lat="47.32516" lon="-2.29754">
        <ele>13.199999809265</ele>
        <time>2021-04-18T08:15:52.000Z</time>
      </trkpt>
      <trkpt lat="47.32512" lon="-2.29739">
        <ele>13.199999809265</ele>
        <time>2021-04-18T08:15:54.000Z</time>
      </trkpt>
      <trkpt lat="47.32498" lon="-2.29682">
        <ele>13.199999809265</ele>
        <time>2021-04-18T08:16:01.000Z</time>
      </trkpt>
      <trkpt lat="47.3248" lon="-2.29611">
        <ele>13.199999809265</ele>
        <time>2021-04-18T08:16:09.000Z</time>
      </trkpt>
      <trkpt lat="47.32478" lon="-2.29601">
        <ele>12.800000190735</ele>
        <time>2021-04-18T08:16:10.000Z</time>
      </trkpt>
      <trkpt lat="47.32475" lon="-2.29591">
        <ele>12.39999961853</ele>
        <time>2021-04-18T08:16:11.000Z</time>
      </trkpt>
      <trkpt lat="47.32473" lon="-2.29581">
        <ele>12</ele>
        <time>2021-04-18T08:16:12.000Z</time>
      </trkpt>
      <trkpt lat="47.3247" lon="-2.29571">
        <ele>11.60000038147</ele>
        <time>2021-04-18T08:16:13.000Z</time>
      </trkpt>
      <trkpt lat="47.32467" lon="-2.29561">
        <ele>11.199999809265</ele>
        <time>2021-04-18T08:16:14.000Z</time>
      </trkpt>
      <trkpt lat="47.32464" lon="-2.29551">
        <ele>10.800000190735</ele>
        <time>2021-04-18T08:16:15.000Z</time>
      </trkpt>
      <trkpt lat="47.32461" lon="-2.29541">
        <ele>10.39999961853</ele>
        <time>2021-04-18T08:16:16.000Z</time>
      </trkpt>
      <trkpt lat="47.32458" lon="-2.2953">
        <ele>10</ele>
        <time>2021-04-18T08:16:17.000Z</time>
      </trkpt>
      <trkpt lat="47.32455" lon="-2.29519">
        <ele>9.3999996185303</ele>
        <time>2021-04-18T08:16:18.000Z</time>
      </trkpt>
      <trkpt lat="47.32451" lon="-2.29509">
        <ele>9</ele>
        <time>2021-04-18T08:16:19.000Z</time>
      </trkpt>
      <trkpt lat="47.32444" lon="-2.29487">
        <ele>8.6000003814697</ele>
        <time>2021-04-18T08:16:21.000Z</time>
      </trkpt>
      <trkpt lat="47.32441" lon="-2.29477">
        <ele>8.1999998092651</ele>
        <time>2021-04-18T08:16:22.000Z</time>
      </trkpt>
      <trkpt lat="47.32438" lon="-2.29466">
        <ele>7.5999999046326</ele>
        <time>2021-04-18T08:16:23.000Z</time>
      </trkpt>
      <trkpt lat="47.32436" lon="-2.29455">
        <ele>7.1999998092651</ele>
        <time>2021-04-18T08:16:24.000Z</time>
      </trkpt>
      <trkpt lat="47.32435" lon="-2.29443">
        <ele>6.5999999046326</ele>
        <time>2021-04-18T08:16:25.000Z</time>
      </trkpt>
      <trkpt lat="47.32434" lon="-2.29432">
        <ele>6.1999998092651</ele>
        <time>2021-04-18T08:16:26.000Z</time>
      </trkpt>
      <trkpt lat="47.32433" lon="-2.29421">
        <ele>5.8000001907349</ele>
        <time>2021-04-18T08:16:27.000Z</time>
      </trkpt>
      <trkpt lat="47.32431" lon="-2.2941">
        <ele>5.4000000953674</ele>
        <time>2021-04-18T08:16:28.000Z</time>
      </trkpt>
      <trkpt lat="47.32429" lon="-2.294">
        <ele>5</ele>
        <time>2021-04-18T08:16:29.000Z</time>
      </trkpt>
      <trkpt lat="47.32426" lon="-2.29389">
        <ele>4.5999999046326</ele>
        <time>2021-04-18T08:16:30.000Z</time>
      </trkpt>
      <trkpt lat="47.32424" lon="-2.29378">
        <ele>4.1999998092651</ele>
        <time>2021-04-18T08:16:31.000Z</time>
      </trkpt>
      <trkpt lat="47.32422" lon="-2.29368">
        <ele>3.7999999523163</ele>
        <time>2021-04-18T08:16:32.000Z</time>
      </trkpt>
      <trkpt lat="47.32421" lon="-2.29358">
        <ele>3.4000000953674</ele>
        <time>2021-04-18T08:16:33.000Z</time>
      </trkpt>
      <trkpt lat="47.32419" lon="-2.29348">
        <ele>3</ele>
        <time>2021-04-18T08:16:34.000Z</time>
      </trkpt>
      <trkpt lat="47.32418" lon="-2.29338">
        <ele>2.5999999046326</ele>
        <time>2021-04-18T08:16:35.000Z</time>
      </trkpt>
      <trkpt lat="47.32417" lon="-2.29328">
        <ele>2.5999999046326</ele>
        <time>2021-04-18T08:16:36.000Z</time>
      </trkpt>
      <trkpt lat="47.32407" lon="-2.29279">
        <ele>2.5999999046326</ele>
        <time>2021-04-18T08:16:41.000Z</time>
      </trkpt>
      <trkpt lat="47.32402" lon="-2.2927">
        <ele>2.5999999046326</ele>
        <time>2021-04-18T08:16:42.000Z</time>
      </trkpt>
      <trkpt lat="47.32384" lon="-2.29256">
        <ele>2.2000000476837</ele>
        <time>2021-04-18T08:16:45.000Z</time>
      </trkpt>
      <trkpt lat="47.32378" lon="-2.29253">
        <ele>1.7999999523163</ele>
        <time>2021-04-18T08:16:46.000Z</time>
      </trkpt>
      <trkpt lat="47.32371" lon="-2.2925">
        <ele>1.3999999761581</ele>
        <time>2021-04-18T08:16:47.000Z</time>
      </trkpt>
      <trkpt lat="47.32365" lon="-2.29247">
        <ele>0.80000001192093</ele>
        <time>2021-04-18T08:16:48.000Z</time>
      </trkpt>
      <trkpt lat="47.32358" lon="-2.29245">
        <ele>0.40000000596046</ele>
        <time>2021-04-18T08:16:49.000Z</time>
      </trkpt>
      <trkpt lat="47.32352" lon="-2.29242">
        <ele>0.40000000596046</ele>
        <time>2021-04-18T08:16:50.000Z</time>
      </trkpt>
      <trkpt lat="47.32346" lon="-2.29238">
        <ele>0.40000000596046</ele>
        <time>2021-04-18T08:16:51.000Z</time>
      </trkpt>
      <trkpt lat="47.32311" lon="-2.29221">
        <ele>0.40000000596046</ele>
        <time>2021-04-18T08:16:57.000Z</time>
      </trkpt>
      <trkpt lat="47.323" lon="-2.29218">
        <ele>0.40000000596046</ele>
        <time>2021-04-18T08:16:59.000Z</time>
      </trkpt>
      <trkpt lat="47.32289" lon="-2.2922">
        <ele>0.40000000596046</ele>
        <time>2021-04-18T08:17:01.000Z</time>
      </trkpt>
      <trkpt lat="47.32255" lon="-2.29226">
        <ele>0.40000000596046</ele>
        <time>2021-04-18T08:17:07.000Z</time>
      </trkpt>
      <trkpt lat="47.32244" lon="-2.2922">
        <ele>0.40000000596046</ele>
        <time>2021-04-18T08:17:10.000Z</time>
      </trkpt>
      <trkpt lat="47.32237" lon="-2.29208">
        <ele>0.40000000596046</ele>
        <time>2021-04-18T08:17:12.000Z</time>
      </trkpt>
      <trkpt lat="47.32228" lon="-2.29191">
        <ele>0.40000000596046</ele>
        <time>2021-04-18T08:17:15.000Z</time>
      </trkpt>
      <trkpt lat="47.32222" lon="-2.29181">
        <ele>0.40000000596046</ele>
        <time>2021-04-18T08:17:17.000Z</time>
      </trkpt>
      <trkpt lat="47.32215" lon="-2.29171">
        <ele>0.40000000596046</ele>
        <time>2021-04-18T08:17:19.000Z</time>
      </trkpt>
      <trkpt lat="47.32208" lon="-2.29163">
        <ele>0.40000000596046</ele>
        <time>2021-04-18T08:17:21.000Z</time>
      </trkpt>
      <trkpt lat="47.32192" lon="-2.29146">
        <ele>0.40000000596046</ele>
        <time>2021-04-18T08:17:25.000Z</time>
      </trkpt>
      <trkpt lat="47.32189" lon="-2.29142">
        <ele>0.40000000596046</ele>
        <time>2021-04-18T08:17:26.000Z</time>
      </trkpt>
      <trkpt lat="47.32175" lon="-2.2913">
        <ele>0.40000000596046</ele>
        <time>2021-04-18T08:17:30.000Z</time>
      </trkpt>
      <trkpt lat="47.32155" lon="-2.2911">
        <ele>0.40000000596046</ele>
        <time>2021-04-18T08:17:36.000Z</time>
      </trkpt>
      <trkpt lat="47.32143" lon="-2.29088">
        <ele>0.40000000596046</ele>
        <time>2021-04-18T08:17:41.000Z</time>
      </trkpt>
      <trkpt lat="47.32129" lon="-2.29045">
        <ele>0.40000000596046</ele>
        <time>2021-04-18T08:17:48.000Z</time>
      </trkpt>
      <trkpt lat="47.32118" lon="-2.29019">
        <ele>0.40000000596046</ele>
        <time>2021-04-18T08:17:52.000Z</time>
      </trkpt>
      <trkpt lat="47.32112" lon="-2.29007">
        <ele>0.40000000596046</ele>
        <time>2021-04-18T08:17:54.000Z</time>
      </trkpt>
      <trkpt lat="47.32096" lon="-2.28981">
        <ele>0.40000000596046</ele>
        <time>2021-04-18T08:17:58.000Z</time>
      </trkpt>
      <trkpt lat="47.32091" lon="-2.28975">
        <ele>0.40000000596046</ele>
        <time>2021-04-18T08:17:59.000Z</time>
      </trkpt>
      <trkpt lat="47.32076" lon="-2.28964">
        <ele>0.40000000596046</ele>
        <time>2021-04-18T08:18:02.000Z</time>
      </trkpt>
      <trkpt lat="47.32065" lon="-2.28956">
        <ele>0.40000000596046</ele>
        <time>2021-04-18T08:18:04.000Z</time>
      </trkpt>
      <trkpt lat="47.32054" lon="-2.28947">
        <ele>0.40000000596046</ele>
        <time>2021-04-18T08:18:06.000Z</time>
      </trkpt>
      <trkpt lat="47.32047" lon="-2.28933">
        <ele>0.40000000596046</ele>
        <time>2021-04-18T08:18:08.000Z</time>
      </trkpt>
      <trkpt lat="47.32043" lon="-2.2891">
        <ele>0.40000000596046</ele>
        <time>2021-04-18T08:18:11.000Z</time>
      </trkpt>
      <trkpt lat="47.32036" lon="-2.28877">
        <ele>0.40000000596046</ele>
        <time>2021-04-18T08:18:16.000Z</time>
      </trkpt>
      <trkpt lat="47.32029" lon="-2.28872">
        <ele>3</ele>
        <time>2021-04-18T08:18:18.000Z</time>
      </trkpt>
      <trkpt lat="47.32025" lon="-2.28874">
        <ele>-0.40000000596046</ele>
        <time>2021-04-18T08:18:19.000Z</time>
      </trkpt>
      <trkpt lat="47.32021" lon="-2.28876">
        <ele>-0.80000001192093</ele>
        <time>2021-04-18T08:18:20.000Z</time>
      </trkpt>
      <trkpt lat="47.32017" lon="-2.28879">
        <ele>-1.2000000476837</ele>
        <time>2021-04-18T08:18:21.000Z</time>
      </trkpt>
      <trkpt lat="47.32013" lon="-2.28881">
        <ele>-1.6000000238419</ele>
        <time>2021-04-18T08:18:22.000Z</time>
      </trkpt>
      <trkpt lat="47.31999" lon="-2.28888">
        <ele>-1.6000000238419</ele>
        <time>2021-04-18T08:18:25.000Z</time>
      </trkpt>
      <trkpt lat="47.31993" lon="-2.28889">
        <ele>-1.6000000238419</ele>
        <time>2021-04-18T08:18:26.000Z</time>
      </trkpt>
      <trkpt lat="47.31982" lon="-2.28891">
        <ele>-1.6000000238419</ele>
        <time>2021-04-18T08:18:28.000Z</time>
      </trkpt>
      <trkpt lat="47.31971" lon="-2.28893">
        <ele>-1.6000000238419</ele>
        <time>2021-04-18T08:18:30.000Z</time>
      </trkpt>
      <trkpt lat="47.31961" lon="-2.28896">
        <ele>-1.6000000238419</ele>
        <time>2021-04-18T08:18:32.000Z</time>
      </trkpt>
      <trkpt lat="47.31955" lon="-2.289">
        <ele>-1.6000000238419</ele>
        <time>2021-04-18T08:18:34.000Z</time>
      </trkpt>
      <trkpt lat="47.31949" lon="-2.28902">
        <ele>-1.6000000238419</ele>
        <time>2021-04-18T08:18:36.000Z</time>
      </trkpt>
      <trkpt lat="47.31942" lon="-2.28901">
        <ele>-1.6000000238419</ele>
        <time>2021-04-18T08:18:38.000Z</time>
      </trkpt>
      <trkpt lat="47.31926" lon="-2.28912">
        <ele>-1.6000000238419</ele>
        <time>2021-04-18T08:18:42.000Z</time>
      </trkpt>
      <trkpt lat="47.31914" lon="-2.28924">
        <ele>-1.6000000238419</ele>
        <time>2021-04-18T08:18:45.000Z</time>
      </trkpt>
      <trkpt lat="47.31901" lon="-2.28933">
        <ele>-1.6000000238419</ele>
        <time>2021-04-18T08:18:48.000Z</time>
      </trkpt>
      <trkpt lat="47.31881" lon="-2.28939">
        <ele>-1.6000000238419</ele>
        <time>2021-04-18T08:18:53.000Z</time>
      </trkpt>
      <trkpt lat="47.31869" lon="-2.28938">
        <ele>-1.6000000238419</ele>
        <time>2021-04-18T08:18:58.000Z</time>
      </trkpt>
      <trkpt lat="47.31867" lon="-2.28937">
        <ele>-1.6000000238419</ele>
        <time>2021-04-18T08:19:00.000Z</time>
      </trkpt>
      <trkpt lat="47.31867" lon="-2.28937">
        <ele>-1.6000000238419</ele>
        <time>2021-04-18T08:19:02.000Z</time>
      </trkpt>
      <trkpt lat="47.31866" lon="-2.2893">
        <ele>-1.6000000238419</ele>
        <time>2021-04-18T08:20:25.000Z</time>
      </trkpt>
      <trkpt lat="47.31866" lon="-2.2891">
        <ele>-1.6000000238419</ele>
        <time>2021-04-18T08:20:30.000Z</time>
      </trkpt>
      <trkpt lat="47.31866" lon="-2.28879">
        <ele>-1.6000000238419</ele>
        <time>2021-04-18T08:20:36.000Z</time>
      </trkpt>
      <trkpt lat="47.31866" lon="-2.28875">
        <ele>-1.2000000476837</ele>
        <time>2021-04-18T08:20:37.000Z</time>
      </trkpt>
      <trkpt lat="47.31866" lon="-2.28871">
        <ele>-0.80000001192093</ele>
        <time>2021-04-18T08:20:38.000Z</time>
      </trkpt>
      <trkpt lat="47.31866" lon="-2.28867">
        <ele>-0.40000000596046</ele>
        <time>2021-04-18T08:20:39.000Z</time>
      </trkpt>
      <trkpt lat="47.31866" lon="-2.28863">
        <ele>4.2</ele>
        <time>2021-04-18T08:20:40.000Z</time>
      </trkpt>
      <trkpt lat="47.31866" lon="-2.28858">
        <ele>0.40000000596046</ele>
        <time>2021-04-18T08:20:41.000Z</time>
      </trkpt>
      <trkpt lat="47.31867" lon="-2.2885">
        <ele>0.40000000596046</ele>
        <time>2021-04-18T08:20:43.000Z</time>
      </trkpt>
      <trkpt lat="47.3187" lon="-2.2883">
        <ele>0.40000000596046</ele>
        <time>2021-04-18T08:20:48.000Z</time>
      </trkpt>
      <trkpt lat="47.31875" lon="-2.28786">
        <ele>0.40000000596046</ele>
        <time>2021-04-18T08:20:54.000Z</time>
      </trkpt>
      <trkpt lat="47.31879" lon="-2.28726">
        <ele>0.40000000596046</ele>
        <time>2021-04-18T08:21:02.000Z</time>
      </trkpt>
      <trkpt lat="47.31884" lon="-2.28667">
        <ele>0.40000000596046</ele>
        <time>2021-04-18T08:21:10.000Z</time>
      </trkpt>
      <trkpt lat="47.3189" lon="-2.28628">
        <ele>0.40000000596046</ele>
        <time>2021-04-18T08:21:16.000Z</time>
      </trkpt>
      <trkpt lat="47.31895" lon="-2.28601">
        <ele>0.40000000596046</ele>
        <time>2021-04-18T08:21:21.000Z</time>
      </trkpt>
      <trkpt lat="47.31897" lon="-2.28583">
        <ele>0.40000000596046</ele>
        <time>2021-04-18T08:21:27.000Z</time>
      </trkpt>
      <trkpt lat="47.31897" lon="-2.28561">
        <ele>0.40000000596046</ele>
        <time>2021-04-18T08:21:31.000Z</time>
      </trkpt>
      <trkpt lat="47.31895" lon="-2.28511">
        <ele>0.40000000596046</ele>
        <time>2021-04-18T08:21:39.000Z</time>
      </trkpt>
      <trkpt lat="47.31897" lon="-2.28464">
        <ele>0.40000000596046</ele>
        <time>2021-04-18T08:21:46.000Z</time>
      </trkpt>
      <trkpt lat="47.31897" lon="-2.28423">
        <ele>0.40000000596046</ele>
        <time>2021-04-18T08:21:52.000Z</time>
      </trkpt>
      <trkpt lat="47.31895" lon="-2.2841">
        <ele>0.40000000596046</ele>
        <time>2021-04-18T08:21:54.000Z</time>
      </trkpt>
      <trkpt lat="47.31887" lon="-2.28371">
        <ele>0.80000001192093</ele>
        <time>2021-04-18T08:22:00.000Z</time>
      </trkpt>
      <trkpt lat="47.31886" lon="-2.28365">
        <ele>1.2000000476837</ele>
        <time>2021-04-18T08:22:01.000Z</time>
      </trkpt>
      <trkpt lat="47.31885" lon="-2.28359">
        <ele>1.6000000238419</ele>
        <time>2021-04-18T08:22:02.000Z</time>
      </trkpt>
      <trkpt lat="47.31884" lon="-2.28352">
        <ele>2</ele>
        <time>2021-04-18T08:22:03.000Z</time>
      </trkpt>
      <trkpt lat="47.31882" lon="-2.28346">
        <ele>2.4000000953674</ele>
        <time>2021-04-18T08:22:04.000Z</time>
      </trkpt>
      <trkpt lat="47.31873" lon="-2.28306">
        <ele>2.4000000953674</ele>
        <time>2021-04-18T08:22:10.000Z</time>
      </trkpt>
      <trkpt lat="47.31867" lon="-2.28279">
        <ele>2.4000000953674</ele>
        <time>2021-04-18T08:22:15.000Z</time>
      </trkpt>
      <trkpt lat="47.31867" lon="-2.28275">
        <ele>2.4000000953674</ele>
        <time>2021-04-18T08:22:16.000Z</time>
      </trkpt>
      <trkpt lat="47.31863" lon="-2.28245">
        <ele>2.4000000953674</ele>
        <time>2021-04-18T08:22:21.000Z</time>
      </trkpt>
      <trkpt lat="47.31859" lon="-2.28198">
        <ele>2.4000000953674</ele>
        <time>2021-04-18T08:22:27.000Z</time>
      </trkpt>
      <trkpt lat="47.31862" lon="-2.28156">
        <ele>2.4000000953674</ele>
        <time>2021-04-18T08:22:32.000Z</time>
      </trkpt>
      <trkpt lat="47.31874" lon="-2.28141">
        <ele>2.4000000953674</ele>
        <time>2021-04-18T08:22:35.000Z</time>
      </trkpt>
      <trkpt lat="47.31891" lon="-2.28138">
        <ele>2.4000000953674</ele>
        <time>2021-04-18T08:22:38.000Z</time>
      </trkpt>
      <trkpt lat="47.31896" lon="-2.28138">
        <ele>2.4000000953674</ele>
        <time>2021-04-18T08:22:39.000Z</time>
      </trkpt>
      <trkpt lat="47.3194" lon="-2.28136">
        <ele>2.4000000953674</ele>
        <time>2021-04-18T08:22:48.000Z</time>
      </trkpt>
      <trkpt lat="47.31978" lon="-2.28134">
        <ele>2.4000000953674</ele>
        <time>2021-04-18T08:22:55.000Z</time>
      </trkpt>
      <trkpt lat="47.32017" lon="-2.28127">
        <ele>2.4000000953674</ele>
        <time>2021-04-18T08:23:02.000Z</time>
      </trkpt>
      <trkpt lat="47.32034" lon="-2.28122">
        <ele>2.4000000953674</ele>
        <time>2021-04-18T08:23:05.000Z</time>
      </trkpt>
      <trkpt lat="47.32042" lon="-2.28111">
        <ele>2.4000000953674</ele>
        <time>2021-04-18T08:23:07.000Z</time>
      </trkpt>
      <trkpt lat="47.32044" lon="-2.28086">
        <ele>2.4000000953674</ele>
        <time>2021-04-18T08:23:10.000Z</time>
      </trkpt>
      <trkpt lat="47.32044" lon="-2.28078">
        <ele>2.4000000953674</ele>
        <time>2021-04-18T08:23:11.000Z</time>
      </trkpt>
      <trkpt lat="47.32043" lon="-2.2807">
        <ele>2.4000000953674</ele>
        <time>2021-04-18T08:23:12.000Z</time>
      </trkpt>
      <trkpt lat="47.32044" lon="-2.28038">
        <ele>2.4000000953674</ele>
        <time>2021-04-18T08:23:16.000Z</time>
      </trkpt>
      <trkpt lat="47.32045" lon="-2.28006">
        <ele>2.4000000953674</ele>
        <time>2021-04-18T08:23:20.000Z</time>
      </trkpt>
      <trkpt lat="47.32047" lon="-2.27999">
        <ele>2.4000000953674</ele>
        <time>2021-04-18T08:23:21.000Z</time>
      </trkpt>
      <trkpt lat="47.32064" lon="-2.27974">
        <ele>2.4000000953674</ele>
        <time>2021-04-18T08:23:25.000Z</time>
      </trkpt>
      <trkpt lat="47.32089" lon="-2.2796">
        <ele>2.4000000953674</ele>
        <time>2021-04-18T08:23:29.000Z</time>
      </trkpt>
      <trkpt lat="47.32095" lon="-2.27957">
        <ele>2</ele>
        <time>2021-04-18T08:23:30.000Z</time>
      </trkpt>
      <trkpt lat="47.32102" lon="-2.27954">
        <ele>1.6000000238419</ele>
        <time>2021-04-18T08:23:31.000Z</time>
      </trkpt>
      <trkpt lat="47.32108" lon="-2.27952">
        <ele>1.2000000476837</ele>
        <time>2021-04-18T08:23:32.000Z</time>
      </trkpt>
      <trkpt lat="47.32115" lon="-2.27948">
        <ele>0.60000002384186</ele>
        <time>2021-04-18T08:23:33.000Z</time>
      </trkpt>
      <trkpt lat="47.32119" lon="-2.27942">
        <ele>0.20000000298023</ele>
        <time>2021-04-18T08:23:34.000Z</time>
      </trkpt>
      <trkpt lat="47.32125" lon="-2.27915">
        <ele>0.20000000298023</ele>
        <time>2021-04-18T08:23:37.000Z</time>
      </trkpt>
      <trkpt lat="47.32144" lon="-2.27832">
        <ele>0.20000000298023</ele>
        <time>2021-04-18T08:23:46.000Z</time>
      </trkpt>
      <trkpt lat="47.32151" lon="-2.27809">
        <ele>0.20000000298023</ele>
        <time>2021-04-18T08:23:49.000Z</time>
      </trkpt>
      <trkpt lat="47.3216" lon="-2.27801">
        <ele>0.20000000298023</ele>
        <time>2021-04-18T08:23:51.000Z</time>
      </trkpt>
      <trkpt lat="47.32178" lon="-2.27803">
        <ele>0.20000000298023</ele>
        <time>2021-04-18T08:23:54.000Z</time>
      </trkpt>
      <trkpt lat="47.32223" lon="-2.27815">
        <ele>0.20000000298023</ele>
        <time>2021-04-18T08:24:01.000Z</time>
      </trkpt>
      <trkpt lat="47.32251" lon="-2.27826">
        <ele>0.20000000298023</ele>
        <time>2021-04-18T08:24:06.000Z</time>
      </trkpt>
      <trkpt lat="47.32263" lon="-2.27828">
        <ele>0.20000000298023</ele>
        <time>2021-04-18T08:24:08.000Z</time>
      </trkpt>
      <trkpt lat="47.32299" lon="-2.27834">
        <ele>0.20000000298023</ele>
        <time>2021-04-18T08:24:14.000Z</time>
      </trkpt>
      <trkpt lat="47.32305" lon="-2.27833">
        <ele>0.20000000298023</ele>
        <time>2021-04-18T08:24:15.000Z</time>
      </trkpt>
      <trkpt lat="47.32326" lon="-2.27818">
        <ele>0.20000000298023</ele>
        <time>2021-04-18T08:24:19.000Z</time>
      </trkpt>
      <trkpt lat="47.32332" lon="-2.27801">
        <ele>0.20000000298023</ele>
        <time>2021-04-18T08:24:22.000Z</time>
      </trkpt>
      <trkpt lat="47.32333" lon="-2.27796">
        <ele>-0.20000000298023</ele>
        <time>2021-04-18T08:24:23.000Z</time>
      </trkpt>
      <trkpt lat="47.32334" lon="-2.27791">
        <ele>-0.60000002384186</ele>
        <time>2021-04-18T08:24:24.000Z</time>
      </trkpt>
      <trkpt lat="47.32335" lon="-2.27785">
        <ele>-1</ele>
        <time>2021-04-18T08:24:25.000Z</time>
      </trkpt>
      <trkpt lat="47.32336" lon="-2.27779">
        <ele>-1.3999999761581</ele>
        <time>2021-04-18T08:24:26.000Z</time>
      </trkpt>
      <trkpt lat="47.32337" lon="-2.27774">
        <ele>-1.7999999523163</ele>
        <time>2021-04-18T08:24:27.000Z</time>
      </trkpt>
      <trkpt lat="47.32339" lon="-2.27768">
        <ele>-1.7999999523163</ele>
        <time>2021-04-18T08:24:28.000Z</time>
      </trkpt>
      <trkpt lat="47.32342" lon="-2.27748">
        <ele>-1.7999999523163</ele>
        <time>2021-04-18T08:24:31.000Z</time>
      </trkpt>
      <trkpt lat="47.32344" lon="-2.27728">
        <ele>-1.7999999523163</ele>
        <time>2021-04-18T08:24:34.000Z</time>
      </trkpt>
      <trkpt lat="47.3235" lon="-2.27687">
        <ele>-1.7999999523163</ele>
        <time>2021-04-18T08:24:40.000Z</time>
      </trkpt>
      <trkpt lat="47.32358" lon="-2.27637">
        <ele>-1.7999999523163</ele>
        <time>2021-04-18T08:24:47.000Z</time>
      </trkpt>
      <trkpt lat="47.32365" lon="-2.2759">
        <ele>-1.7999999523163</ele>
        <time>2021-04-18T08:24:53.000Z</time>
      </trkpt>
      <trkpt lat="47.32367" lon="-2.27572">
        <ele>-1.7999999523163</ele>
        <time>2021-04-18T08:24:55.000Z</time>
      </trkpt>
      <trkpt lat="47.32366" lon="-2.27554">
        <ele>-1.7999999523163</ele>
        <time>2021-04-18T08:24:57.000Z</time>
      </trkpt>
      <trkpt lat="47.32362" lon="-2.27536">
        <ele>-1.7999999523163</ele>
        <time>2021-04-18T08:24:59.000Z</time>
      </trkpt>
      <trkpt lat="47.32357" lon="-2.2752">
        <ele>-1.7999999523163</ele>
        <time>2021-04-18T08:25:01.000Z</time>
      </trkpt>
      <trkpt lat="47.32352" lon="-2.27515">
        <ele>-1.7999999523163</ele>
        <time>2021-04-18T08:25:02.000Z</time>
      </trkpt>
      <trkpt lat="47.32335" lon="-2.27512">
        <ele>-1.7999999523163</ele>
        <time>2021-04-18T08:25:05.000Z</time>
      </trkpt>
      <trkpt lat="47.323" lon="-2.27507">
        <ele>-1.7999999523163</ele>
        <time>2021-04-18T08:25:11.000Z</time>
      </trkpt>
      <trkpt lat="47.32262" lon="-2.27501">
        <ele>-1.7999999523163</ele>
        <time>2021-04-18T08:25:18.000Z</time>
      </trkpt>
      <trkpt lat="47.32257" lon="-2.27501">
        <ele>-1.7999999523163</ele>
        <time>2021-04-18T08:25:19.000Z</time>
      </trkpt>
      <trkpt lat="47.32248" lon="-2.27501">
        <ele>-1.7999999523163</ele>
        <time>2021-04-18T08:25:21.000Z</time>
      </trkpt>
      <trkpt lat="47.32242" lon="-2.27494">
        <ele>-1.7999999523163</ele>
        <time>2021-04-18T08:25:23.000Z</time>
      </trkpt>
      <trkpt lat="47.32242" lon="-2.27476">
        <ele>-1.7999999523163</ele>
        <time>2021-04-18T08:25:26.000Z</time>
      </trkpt>
      <trkpt lat="47.32242" lon="-2.27468">
        <ele>-1.7999999523163</ele>
        <time>2021-04-18T08:25:27.000Z</time>
      </trkpt>
      <trkpt lat="47.32249" lon="-2.27427">
        <ele>-1.7999999523163</ele>
        <time>2021-04-18T08:25:32.000Z</time>
      </trkpt>
      <trkpt lat="47.32253" lon="-2.27371">
        <ele>-1.7999999523163</ele>
        <time>2021-04-18T08:25:39.000Z</time>
      </trkpt>
      <trkpt lat="47.32252" lon="-2.27364">
        <ele>-1.7999999523163</ele>
        <time>2021-04-18T08:25:40.000Z</time>
      </trkpt>
      <trkpt lat="47.32251" lon="-2.27334">
        <ele>-1.7999999523163</ele>
        <time>2021-04-18T08:25:44.000Z</time>
      </trkpt>
      <trkpt lat="47.32258" lon="-2.27307">
        <ele>-1.7999999523163</ele>
        <time>2021-04-18T08:25:48.000Z</time>
      </trkpt>
      <trkpt lat="47.32272" lon="-2.27298">
        <ele>-1.7999999523163</ele>
        <time>2021-04-18T08:25:51.000Z</time>
      </trkpt>
      <trkpt lat="47.32278" lon="-2.27296">
        <ele>-1.7999999523163</ele>
        <time>2021-04-18T08:25:52.000Z</time>
      </trkpt>
      <trkpt lat="47.32302" lon="-2.27284">
        <ele>-1.3999999761581</ele>
        <time>2021-04-18T08:25:56.000Z</time>
      </trkpt>
      <trkpt lat="47.32307" lon="-2.27281">
        <ele>-1</ele>
        <time>2021-04-18T08:25:57.000Z</time>
      </trkpt>
      <trkpt lat="47.32312" lon="-2.27277">
        <ele>-0.60000002384186</ele>
        <time>2021-04-18T08:25:58.000Z</time>
      </trkpt>
      <trkpt lat="47.32318" lon="-2.27274">
        <ele>-0.20000000298023</ele>
        <time>2021-04-18T08:25:59.000Z</time>
      </trkpt>
      <trkpt lat="47.32323" lon="-2.2727">
        <ele>0.20000000298023</ele>
        <time>2021-04-18T08:26:00.000Z</time>
      </trkpt>
      <trkpt lat="47.32337" lon="-2.27257">
        <ele>0.20000000298023</ele>
        <time>2021-04-18T08:26:03.000Z</time>
      </trkpt>
      <trkpt lat="47.32361" lon="-2.27225">
        <ele>0.20000000298023</ele>
        <time>2021-04-18T08:26:09.000Z</time>
      </trkpt>
      <trkpt lat="47.32371" lon="-2.27197">
        <ele>0.60000002384186</ele>
        <time>2021-04-18T08:26:13.000Z</time>
      </trkpt>
      <trkpt lat="47.32373" lon="-2.2719">
        <ele>1</ele>
        <time>2021-04-18T08:26:14.000Z</time>
      </trkpt>
      <trkpt lat="47.32375" lon="-2.27184">
        <ele>1.3999999761581</ele>
        <time>2021-04-18T08:26:15.000Z</time>
      </trkpt>
      <trkpt lat="47.32378" lon="-2.27177">
        <ele>1.7999999523163</ele>
        <time>2021-04-18T08:26:16.000Z</time>
      </trkpt>
      <trkpt lat="47.3238" lon="-2.27169">
        <ele>2.2000000476837</ele>
        <time>2021-04-18T08:26:17.000Z</time>
      </trkpt>
      <trkpt lat="47.32385" lon="-2.27147">
        <ele>2.2000000476837</ele>
        <time>2021-04-18T08:26:20.000Z</time>
      </trkpt>
      <trkpt lat="47.32385" lon="-2.27139">
        <ele>2.2000000476837</ele>
        <time>2021-04-18T08:26:21.000Z</time>
      </trkpt>
      <trkpt lat="47.32384" lon="-2.27088">
        <ele>2.2000000476837</ele>
        <time>2021-04-18T08:26:27.000Z</time>
      </trkpt>
      <trkpt lat="47.32384" lon="-2.27072">
        <ele>2.2000000476837</ele>
        <time>2021-04-18T08:26:29.000Z</time>
      </trkpt>
      <trkpt lat="47.32383" lon="-2.27041">
        <ele>2.2000000476837</ele>
        <time>2021-04-18T08:26:33.000Z</time>
      </trkpt>
      <trkpt lat="47.32383" lon="-2.27034">
        <ele>2.2000000476837</ele>
        <time>2021-04-18T08:26:34.000Z</time>
      </trkpt>
      <trkpt lat="47.32393" lon="-2.27021">
        <ele>2.2000000476837</ele>
        <time>2021-04-18T08:26:37.000Z</time>
      </trkpt>
      <trkpt lat="47.32416" lon="-2.27023">
        <ele>2.2000000476837</ele>
        <time>2021-04-18T08:26:41.000Z</time>
      </trkpt>
      <trkpt lat="47.32422" lon="-2.27023">
        <ele>1.7999999523163</ele>
        <time>2021-04-18T08:26:42.000Z</time>
      </trkpt>
      <trkpt lat="47.32428" lon="-2.27023">
        <ele>1.3999999761581</ele>
        <time>2021-04-18T08:26:43.000Z</time>
      </trkpt>
      <trkpt lat="47.32435" lon="-2.27025">
        <ele>1</ele>
        <time>2021-04-18T08:26:44.000Z</time>
      </trkpt>
      <trkpt lat="47.32442" lon="-2.27025">
        <ele>0.60000002384186</ele>
        <time>2021-04-18T08:26:45.000Z</time>
      </trkpt>
      <trkpt lat="47.32447" lon="-2.27023">
        <ele>0.20000000298023</ele>
        <time>2021-04-18T08:26:46.000Z</time>
      </trkpt>
      <trkpt lat="47.32452" lon="-2.2701">
        <ele>0.20000000298023</ele>
        <time>2021-04-18T08:26:48.000Z</time>
      </trkpt>
      <trkpt lat="47.32451" lon="-2.26984">
        <ele>0.20000000298023</ele>
        <time>2021-04-18T08:26:51.000Z</time>
      </trkpt>
      <trkpt lat="47.32448" lon="-2.26966">
        <ele>0.20000000298023</ele>
        <time>2021-04-18T08:26:53.000Z</time>
      </trkpt>
      <trkpt lat="47.32446" lon="-2.26958">
        <ele>0.20000000298023</ele>
        <time>2021-04-18T08:26:54.000Z</time>
      </trkpt>
      <trkpt lat="47.3244" lon="-2.26934">
        <ele>0.20000000298023</ele>
        <time>2021-04-18T08:26:57.000Z</time>
      </trkpt>
      <trkpt lat="47.32433" lon="-2.26895">
        <ele>0.20000000298023</ele>
        <time>2021-04-18T08:27:02.000Z</time>
      </trkpt>
      <trkpt lat="47.32427" lon="-2.26845">
        <ele>0.20000000298023</ele>
        <time>2021-04-18T08:27:08.000Z</time>
      </trkpt>
      <trkpt lat="47.32423" lon="-2.26789">
        <ele>0.20000000298023</ele>
        <time>2021-04-18T08:27:14.000Z</time>
      </trkpt>
      <trkpt lat="47.32419" lon="-2.26713">
        <ele>0.20000000298023</ele>
        <time>2021-04-18T08:27:22.000Z</time>
      </trkpt>
      <trkpt lat="47.32412" lon="-2.2666">
        <ele>0.20000000298023</ele>
        <time>2021-04-18T08:27:28.000Z</time>
      </trkpt>
      <trkpt lat="47.3241" lon="-2.26652">
        <ele>0.20000000298023</ele>
        <time>2021-04-18T08:27:29.000Z</time>
      </trkpt>
      <trkpt lat="47.32395" lon="-2.26612">
        <ele>0.20000000298023</ele>
        <time>2021-04-18T08:27:34.000Z</time>
      </trkpt>
      <trkpt lat="47.32393" lon="-2.26604">
        <ele>0.20000000298023</ele>
        <time>2021-04-18T08:27:35.000Z</time>
      </trkpt>
      <trkpt lat="47.32384" lon="-2.2657">
        <ele>0.20000000298023</ele>
        <time>2021-04-18T08:27:39.000Z</time>
      </trkpt>
      <trkpt lat="47.32374" lon="-2.26536">
        <ele>0.20000000298023</ele>
        <time>2021-04-18T08:27:43.000Z</time>
      </trkpt>
      <trkpt lat="47.32369" lon="-2.26531">
        <ele>0.20000000298023</ele>
        <time>2021-04-18T08:27:44.000Z</time>
      </trkpt>
      <trkpt lat="47.32365" lon="-2.26527">
        <ele>-0.20000000298023</ele>
        <time>2021-04-18T08:27:45.000Z</time>
      </trkpt>
      <trkpt lat="47.3236" lon="-2.26525">
        <ele>-0.60000002384186</ele>
        <time>2021-04-18T08:27:46.000Z</time>
      </trkpt>
      <trkpt lat="47.32355" lon="-2.26527">
        <ele>-1</ele>
        <time>2021-04-18T08:27:47.000Z</time>
      </trkpt>
      <trkpt lat="47.32351" lon="-2.26529">
        <ele>-1.3999999761581</ele>
        <time>2021-04-18T08:27:48.000Z</time>
      </trkpt>
      <trkpt lat="47.32346" lon="-2.26532">
        <ele>-1.7999999523163</ele>
        <time>2021-04-18T08:27:49.000Z</time>
      </trkpt>
      <trkpt lat="47.3234" lon="-2.26535">
        <ele>-1.7999999523163</ele>
        <time>2021-04-18T08:27:50.000Z</time>
      </trkpt>
      <trkpt lat="47.32327" lon="-2.26548">
        <ele>-1.7999999523163</ele>
        <time>2021-04-18T08:27:52.000Z</time>
      </trkpt>
      <trkpt lat="47.32322" lon="-2.26554">
        <ele>-1.7999999523163</ele>
        <time>2021-04-18T08:27:53.000Z</time>
      </trkpt>
      <trkpt lat="47.32305" lon="-2.26578">
        <ele>-1.7999999523163</ele>
        <time>2021-04-18T08:27:57.000Z</time>
      </trkpt>
      <trkpt lat="47.32296" lon="-2.26589">
        <ele>-1.7999999523163</ele>
        <time>2021-04-18T08:27:59.000Z</time>
      </trkpt>
      <trkpt lat="47.32279" lon="-2.26602">
        <ele>-1.7999999523163</ele>
        <time>2021-04-18T08:28:02.000Z</time>
      </trkpt>
      <trkpt lat="47.32258" lon="-2.26607">
        <ele>-1.7999999523163</ele>
        <time>2021-04-18T08:28:06.000Z</time>
      </trkpt>
      <trkpt lat="47.32216" lon="-2.26609">
        <ele>-1.7999999523163</ele>
        <time>2021-04-18T08:28:13.000Z</time>
      </trkpt>
      <trkpt lat="47.3221" lon="-2.26609">
        <ele>-1.3999999761581</ele>
        <time>2021-04-18T08:28:14.000Z</time>
      </trkpt>
      <trkpt lat="47.32204" lon="-2.26609">
        <ele>-1</ele>
        <time>2021-04-18T08:28:15.000Z</time>
      </trkpt>
      <trkpt lat="47.32198" lon="-2.26609">
        <ele>-0.60000002384186</ele>
        <time>2021-04-18T08:28:16.000Z</time>
      </trkpt>
      <trkpt lat="47.32192" lon="-2.26609">
        <ele>-0.20000000298023</ele>
        <time>2021-04-18T08:28:17.000Z</time>
      </trkpt>
      <trkpt lat="47.32186" lon="-2.2661">
        <ele>0.20000000298023</ele>
        <time>2021-04-18T08:28:18.000Z</time>
      </trkpt>
      <trkpt lat="47.32169" lon="-2.2661">
        <ele>0.20000000298023</ele>
        <time>2021-04-18T08:28:21.000Z</time>
      </trkpt>
      <trkpt lat="47.32131" lon="-2.26602">
        <ele>0.20000000298023</ele>
        <time>2021-04-18T08:28:28.000Z</time>
      </trkpt>
      <trkpt lat="47.32094" lon="-2.2659">
        <ele>0.20000000298023</ele>
        <time>2021-04-18T08:28:35.000Z</time>
      </trkpt>
      <trkpt lat="47.32088" lon="-2.2659">
        <ele>0.20000000298023</ele>
        <time>2021-04-18T08:28:36.000Z</time>
      </trkpt>
      <trkpt lat="47.3207" lon="-2.26593">
        <ele>0.20000000298023</ele>
        <time>2021-04-18T08:28:39.000Z</time>
      </trkpt>
      <trkpt lat="47.32057" lon="-2.26597">
        <ele>0.20000000298023</ele>
        <time>2021-04-18T08:28:41.000Z</time>
      </trkpt>
      <trkpt lat="47.32038" lon="-2.26604">
        <ele>0.20000000298023</ele>
        <time>2021-04-18T08:28:44.000Z</time>
      </trkpt>
      <trkpt lat="47.31999" lon="-2.26628">
        <ele>0.20000000298023</ele>
        <time>2021-04-18T08:28:51.000Z</time>
      </trkpt>
      <trkpt lat="47.31968" lon="-2.26649">
        <ele>0.60000002384186</ele>
        <time>2021-04-18T08:28:57.000Z</time>
      </trkpt>
      <trkpt lat="47.31963" lon="-2.26653">
        <ele>1</ele>
        <time>2021-04-18T08:28:58.000Z</time>
      </trkpt>
      <trkpt lat="47.31959" lon="-2.26657">
        <ele>1.3999999761581</ele>
        <time>2021-04-18T08:28:59.000Z</time>
      </trkpt>
      <trkpt lat="47.31954" lon="-2.2666">
        <ele>1.7999999523163</ele>
        <time>2021-04-18T08:29:00.000Z</time>
      </trkpt>
      <trkpt lat="47.31949" lon="-2.26664">
        <ele>2.2000000476837</ele>
        <time>2021-04-18T08:29:01.000Z</time>
      </trkpt>
      <trkpt lat="47.31931" lon="-2.2668">
        <ele>2.2000000476837</ele>
        <time>2021-04-18T08:29:05.000Z</time>
      </trkpt>
      <trkpt lat="47.31918" lon="-2.26692">
        <ele>2.7999999523163</ele>
        <time>2021-04-18T08:29:08.000Z</time>
      </trkpt>
      <trkpt lat="47.31913" lon="-2.26695">
        <ele>3.2000000476837</ele>
        <time>2021-04-18T08:29:09.000Z</time>
      </trkpt>
      <trkpt lat="47.31908" lon="-2.26699">
        <ele>3.5999999046326</ele>
        <time>2021-04-18T08:29:10.000Z</time>
      </trkpt>
      <trkpt lat="47.31903" lon="-2.26703">
        <ele>4</ele>
        <time>2021-04-18T08:29:11.000Z</time>
      </trkpt>
      <trkpt lat="47.31898" lon="-2.26707">
        <ele>4.4000000953674</ele>
        <time>2021-04-18T08:29:12.000Z</time>
      </trkpt>
      <trkpt lat="47.31868" lon="-2.26732">
        <ele>4.4000000953674</ele>
        <time>2021-04-18T08:29:18.000Z</time>
      </trkpt>
      <trkpt lat="47.3185" lon="-2.26743">
        <ele>4.4000000953674</ele>
        <time>2021-04-18T08:29:22.000Z</time>
      </trkpt>
      <trkpt lat="47.31844" lon="-2.26744">
        <ele>4.4000000953674</ele>
        <time>2021-04-18T08:29:23.000Z</time>
      </trkpt>
      <trkpt lat="47.31823" lon="-2.26732">
        <ele>4.4000000953674</ele>
        <time>2021-04-18T08:29:27.000Z</time>
      </trkpt>
      <trkpt lat="47.31809" lon="-2.26706">
        <ele>4.4000000953674</ele>
        <time>2021-04-18T08:29:31.000Z</time>
      </trkpt>
      <trkpt lat="47.31806" lon="-2.26699">
        <ele>4.4000000953674</ele>
        <time>2021-04-18T08:29:32.000Z</time>
      </trkpt>
      <trkpt lat="47.31792" lon="-2.26689">
        <ele>4.4000000953674</ele>
        <time>2021-04-18T08:29:35.000Z</time>
      </trkpt>
      <trkpt lat="47.31787" lon="-2.26688">
        <ele>4.4000000953674</ele>
        <time>2021-04-18T08:29:36.000Z</time>
      </trkpt>
      <trkpt lat="47.3178" lon="-2.26691">
        <ele>4.4000000953674</ele>
        <time>2021-04-18T08:29:37.000Z</time>
      </trkpt>
      <trkpt lat="47.31773" lon="-2.26695">
        <ele>4.4000000953674</ele>
        <time>2021-04-18T08:29:38.000Z</time>
      </trkpt>
      <trkpt lat="47.31757" lon="-2.26703">
        <ele>4</ele>
        <time>2021-04-18T08:29:40.000Z</time>
      </trkpt>
      <trkpt lat="47.31748" lon="-2.26707">
        <ele>3.5999999046326</ele>
        <time>2021-04-18T08:29:41.000Z</time>
      </trkpt>
      <trkpt lat="47.31741" lon="-2.2671">
        <ele>3</ele>
        <time>2021-04-18T08:29:42.000Z</time>
      </trkpt>
      <trkpt lat="47.31733" lon="-2.26713">
        <ele>2.5999999046326</ele>
        <time>2021-04-18T08:29:43.000Z</time>
      </trkpt>
      <trkpt lat="47.31726" lon="-2.26716">
        <ele>2.2000000476837</ele>
        <time>2021-04-18T08:29:44.000Z</time>
      </trkpt>
      <trkpt lat="47.31718" lon="-2.26719">
        <ele>2.2000000476837</ele>
        <time>2021-04-18T08:29:45.000Z</time>
      </trkpt>
      <trkpt lat="47.31682" lon="-2.26724">
        <ele>1.7999999523163</ele>
        <time>2021-04-18T08:29:50.000Z</time>
      </trkpt>
      <trkpt lat="47.31676" lon="-2.26725">
        <ele>1.3999999761581</ele>
        <time>2021-04-18T08:29:51.000Z</time>
      </trkpt>
      <trkpt lat="47.3167" lon="-2.26726">
        <ele>1</ele>
        <time>2021-04-18T08:29:52.000Z</time>
      </trkpt>
      <trkpt lat="47.31664" lon="-2.26727">
        <ele>0.40000000596046</ele>
        <time>2021-04-18T08:29:53.000Z</time>
      </trkpt>
      <trkpt lat="47.31658" lon="-2.26729">
        <ele>4.1</ele>
        <time>2021-04-18T08:29:54.000Z</time>
      </trkpt>
      <trkpt lat="47.31647" lon="-2.26734">
        <ele>4.3</ele>
        <time>2021-04-18T08:29:56.000Z</time>
      </trkpt>
      <trkpt lat="47.31627" lon="-2.26745">
        <ele>3.8</ele>
        <time>2021-04-18T08:30:00.000Z</time>
      </trkpt>
      <trkpt lat="47.31617" lon="-2.26754">
        <ele>2.9</ele>
        <time>2021-04-18T08:30:02.000Z</time>
      </trkpt>
      <trkpt lat="47.31596" lon="-2.26755">
        <ele>2.6</ele>
        <time>2021-04-18T08:30:05.000Z</time>
      </trkpt>
      <trkpt lat="47.31577" lon="-2.26753">
        <ele>2.4</ele>
        <time>2021-04-18T08:30:08.000Z</time>
      </trkpt>
      <trkpt lat="47.3157" lon="-2.26755">
        <ele>1.9</ele>
        <time>2021-04-18T08:30:09.000Z</time>
      </trkpt>
      <trkpt lat="47.31558" lon="-2.26764">
        <ele>-0.40000000596046</ele>
        <time>2021-04-18T08:30:11.000Z</time>
      </trkpt>
      <trkpt lat="47.31552" lon="-2.26771">
        <ele>-0.80000001192093</ele>
        <time>2021-04-18T08:30:12.000Z</time>
      </trkpt>
      <trkpt lat="47.31547" lon="-2.26777">
        <ele>-1.2000000476837</ele>
        <time>2021-04-18T08:30:13.000Z</time>
      </trkpt>
      <trkpt lat="47.31543" lon="-2.26783">
        <ele>-1.6000000238419</ele>
        <time>2021-04-18T08:30:14.000Z</time>
      </trkpt>
      <trkpt lat="47.31539" lon="-2.26789">
        <ele>-2</ele>
        <time>2021-04-18T08:30:15.000Z</time>
      </trkpt>
      <trkpt lat="47.31532" lon="-2.26803">
        <ele>-2</ele>
        <time>2021-04-18T08:30:17.000Z</time>
      </trkpt>
      <trkpt lat="47.31524" lon="-2.26835">
        <ele>-2</ele>
        <time>2021-04-18T08:30:21.000Z</time>
      </trkpt>
      <trkpt lat="47.31521" lon="-2.26844">
        <ele>-2</ele>
        <time>2021-04-18T08:30:22.000Z</time>
      </trkpt>
      <trkpt lat="47.31505" lon="-2.26885">
        <ele>-2</ele>
        <time>2021-04-18T08:30:28.000Z</time>
      </trkpt>
      <trkpt lat="47.31485" lon="-2.26946">
        <ele>-2</ele>
        <time>2021-04-18T08:30:37.000Z</time>
      </trkpt>
      <trkpt lat="47.31476" lon="-2.26977">
        <ele>-2</ele>
        <time>2021-04-18T08:30:42.000Z</time>
      </trkpt>
      <trkpt lat="47.31472" lon="-2.26981">
        <ele>-2</ele>
        <time>2021-04-18T08:30:43.000Z</time>
      </trkpt>
      <trkpt lat="47.31449" lon="-2.27005">
        <ele>-2</ele>
        <time>2021-04-18T08:30:48.000Z</time>
      </trkpt>
      <trkpt lat="47.31425" lon="-2.27023">
        <ele>-1.6000000238419</ele>
        <time>2021-04-18T08:30:53.000Z</time>
      </trkpt>
      <trkpt lat="47.31421" lon="-2.27027">
        <ele>-1.2000000476837</ele>
        <time>2021-04-18T08:30:54.000Z</time>
      </trkpt>
      <trkpt lat="47.31417" lon="-2.27032">
        <ele>-0.60000002384186</ele>
        <time>2021-04-18T08:30:55.000Z</time>
      </trkpt>
      <trkpt lat="47.31412" lon="-2.27036">
        <ele>-0.20000000298023</ele>
        <time>2021-04-18T08:30:56.000Z</time>
      </trkpt>
      <trkpt lat="47.31407" lon="-2.27041">
        <ele>0.20000000298023</ele>
        <time>2021-04-18T08:30:57.000Z</time>
      </trkpt>
      <trkpt lat="47.31402" lon="-2.27044">
        <ele>0.20000000298023</ele>
        <time>2021-04-18T08:30:58.000Z</time>
      </trkpt>
      <trkpt lat="47.31382" lon="-2.27056">
        <ele>0.20000000298023</ele>
        <time>2021-04-18T08:31:02.000Z</time>
      </trkpt>
      <trkpt lat="47.31346" lon="-2.27073">
        <ele>0.20000000298023</ele>
        <time>2021-04-18T08:31:09.000Z</time>
      </trkpt>
      <trkpt lat="47.31306" lon="-2.27087">
        <ele>0.60000002384186</ele>
        <time>2021-04-18T08:31:17.000Z</time>
      </trkpt>
      <trkpt lat="47.31301" lon="-2.27089">
        <ele>1</ele>
        <time>2021-04-18T08:31:18.000Z</time>
      </trkpt>
      <trkpt lat="47.31295" lon="-2.27092">
        <ele>1.3999999761581</ele>
        <time>2021-04-18T08:31:19.000Z</time>
      </trkpt>
      <trkpt lat="47.3129" lon="-2.27095">
        <ele>1.7999999523163</ele>
        <time>2021-04-18T08:31:20.000Z</time>
      </trkpt>
      <trkpt lat="47.31286" lon="-2.27097">
        <ele>2.2000000476837</ele>
        <time>2021-04-18T08:31:21.000Z</time>
      </trkpt>
      <trkpt lat="47.31278" lon="-2.27102">
        <ele>2.2000000476837</ele>
        <time>2021-04-18T08:31:23.000Z</time>
      </trkpt>
      <trkpt lat="47.3127" lon="-2.27112">
        <ele>2.2000000476837</ele>
        <time>2021-04-18T08:31:27.000Z</time>
      </trkpt>
      <trkpt lat="47.31271" lon="-2.27115">
        <ele>2.2000000476837</ele>
        <time>2021-04-18T08:31:28.000Z</time>
      </trkpt>
      <trkpt lat="47.31274" lon="-2.27125">
        <ele>2.2000000476837</ele>
        <time>2021-04-18T08:31:31.000Z</time>
      </trkpt>
      <trkpt lat="47.31278" lon="-2.27139">
        <ele>2.2000000476837</ele>
        <time>2021-04-18T08:31:36.000Z</time>
      </trkpt>
      <trkpt lat="47.31278" lon="-2.27142">
        <ele>2.2000000476837</ele>
        <time>2021-04-18T08:31:37.000Z</time>
      </trkpt>
      <trkpt lat="47.31283" lon="-2.27171">
        <ele>2.2000000476837</ele>
        <time>2021-04-18T08:31:45.000Z</time>
      </trkpt>
      <trkpt lat="47.3129" lon="-2.27207">
        <ele>2.2000000476837</ele>
        <time>2021-04-18T08:31:53.000Z</time>
      </trkpt>
      <trkpt lat="47.31292" lon="-2.2722">
        <ele>1.7999999523163</ele>
        <time>2021-04-18T08:31:56.000Z</time>
      </trkpt>
      <trkpt lat="47.31293" lon="-2.27224">
        <ele>1.3999999761581</ele>
        <time>2021-04-18T08:31:57.000Z</time>
      </trkpt>
      <trkpt lat="47.31294" lon="-2.27228">
        <ele>1</ele>
        <time>2021-04-18T08:31:58.000Z</time>
      </trkpt>
      <trkpt lat="47.31295" lon="-2.27233">
        <ele>0.60000002384186</ele>
        <time>2021-04-18T08:31:59.000Z</time>
      </trkpt>
      <trkpt lat="47.31296" lon="-2.27238">
        <ele>0.20000000298023</ele>
        <time>2021-04-18T08:32:00.000Z</time>
      </trkpt>
      <trkpt lat="47.31303" lon="-2.27263">
        <ele>0.20000000298023</ele>
        <time>2021-04-18T08:32:05.000Z</time>
      </trkpt>
      <trkpt lat="47.31318" lon="-2.27292">
        <ele>-0.20000000298023</ele>
        <time>2021-04-18T08:32:11.000Z</time>
      </trkpt>
      <trkpt lat="47.31322" lon="-2.27297">
        <ele>-0.60000002384186</ele>
        <time>2021-04-18T08:32:12.000Z</time>
      </trkpt>
      <trkpt lat="47.31325" lon="-2.27303">
        <ele>-1.2000000476837</ele>
        <time>2021-04-18T08:32:13.000Z</time>
      </trkpt>
      <trkpt lat="47.31328" lon="-2.27307">
        <ele>-1.6000000238419</ele>
        <time>2021-04-18T08:32:14.000Z</time>
      </trkpt>
      <trkpt lat="47.31332" lon="-2.27312">
        <ele>-2</ele>
        <time>2021-04-18T08:32:15.000Z</time>
      </trkpt>
      <trkpt lat="47.31347" lon="-2.27336">
        <ele>-2</ele>
        <time>2021-04-18T08:32:20.000Z</time>
      </trkpt>
      <trkpt lat="47.31366" lon="-2.27361">
        <ele>-2</ele>
        <time>2021-04-18T08:32:26.000Z</time>
      </trkpt>
      <trkpt lat="47.31396" lon="-2.27404">
        <ele>-2</ele>
        <time>2021-04-18T08:32:35.000Z</time>
      </trkpt>
      <trkpt lat="47.31425" lon="-2.27428">
        <ele>-2</ele>
        <time>2021-04-18T08:32:42.000Z</time>
      </trkpt>
      <trkpt lat="47.31443" lon="-2.27444">
        <ele>-2</ele>
        <time>2021-04-18T08:32:46.000Z</time>
      </trkpt>
      <trkpt lat="47.31451" lon="-2.27454">
        <ele>-2</ele>
        <time>2021-04-18T08:32:48.000Z</time>
      </trkpt>
      <trkpt lat="47.31454" lon="-2.27459">
        <ele>-2</ele>
        <time>2021-04-18T08:32:49.000Z</time>
      </trkpt>
      <trkpt lat="47.3146" lon="-2.27481">
        <ele>-2</ele>
        <time>2021-04-18T08:32:52.000Z</time>
      </trkpt>
      <trkpt lat="47.31464" lon="-2.27496">
        <ele>-2</ele>
        <time>2021-04-18T08:32:54.000Z</time>
      </trkpt>
      <trkpt lat="47.31476" lon="-2.27528">
        <ele>-2</ele>
        <time>2021-04-18T08:32:58.000Z</time>
      </trkpt>
      <trkpt lat="47.31496" lon="-2.27579">
        <ele>-2</ele>
        <time>2021-04-18T08:33:05.000Z</time>
      </trkpt>
      <trkpt lat="47.31501" lon="-2.27605">
        <ele>-2</ele>
        <time>2021-04-18T08:33:08.000Z</time>
      </trkpt>
      <trkpt lat="47.31502" lon="-2.27621">
        <ele>-2</ele>
        <time>2021-04-18T08:33:10.000Z</time>
      </trkpt>
      <trkpt lat="47.31497" lon="-2.27653">
        <ele>-2</ele>
        <time>2021-04-18T08:33:14.000Z</time>
      </trkpt>
      <trkpt lat="47.31477" lon="-2.27697">
        <ele>-2</ele>
        <time>2021-04-18T08:33:20.000Z</time>
      </trkpt>
      <trkpt lat="47.31448" lon="-2.27718">
        <ele>-2</ele>
        <time>2021-04-18T08:33:25.000Z</time>
      </trkpt>
      <trkpt lat="47.31415" lon="-2.2774">
        <ele>-2</ele>
        <time>2021-04-18T08:33:31.000Z</time>
      </trkpt>
      <trkpt lat="47.31371" lon="-2.27763">
        <ele>-2</ele>
        <time>2021-04-18T08:33:39.000Z</time>
      </trkpt>
      <trkpt lat="47.31333" lon="-2.27773">
        <ele>-2</ele>
        <time>2021-04-18T08:33:46.000Z</time>
      </trkpt>
      <trkpt lat="47.31282" lon="-2.27782">
        <ele>-2</ele>
        <time>2021-04-18T08:33:55.000Z</time>
      </trkpt>
      <trkpt lat="47.3126" lon="-2.27787">
        <ele>-2</ele>
        <time>2021-04-18T08:33:59.000Z</time>
      </trkpt>
      <trkpt lat="47.31249" lon="-2.27787">
        <ele>-2</ele>
        <time>2021-04-18T08:34:01.000Z</time>
      </trkpt>
      <trkpt lat="47.31233" lon="-2.27774">
        <ele>-2</ele>
        <time>2021-04-18T08:34:04.000Z</time>
      </trkpt>
      <trkpt lat="47.31224" lon="-2.27755">
        <ele>-2</ele>
        <time>2021-04-18T08:34:07.000Z</time>
      </trkpt>
      <trkpt lat="47.31214" lon="-2.27739">
        <ele>-2</ele>
        <time>2021-04-18T08:34:10.000Z</time>
      </trkpt>
      <trkpt lat="47.31209" lon="-2.27738">
        <ele>-2</ele>
        <time>2021-04-18T08:34:11.000Z</time>
      </trkpt>
      <trkpt lat="47.31191" lon="-2.27742">
        <ele>-2</ele>
        <time>2021-04-18T08:34:14.000Z</time>
      </trkpt>
      <trkpt lat="47.31166" lon="-2.27752">
        <ele>-2</ele>
        <time>2021-04-18T08:34:19.000Z</time>
      </trkpt>
      <trkpt lat="47.31142" lon="-2.2776">
        <ele>-2</ele>
        <time>2021-04-18T08:34:24.000Z</time>
      </trkpt>
      <trkpt lat="47.31136" lon="-2.27767">
        <ele>-2</ele>
        <time>2021-04-18T08:34:27.000Z</time>
      </trkpt>
      <trkpt lat="47.31139" lon="-2.27778">
        <ele>-2</ele>
        <time>2021-04-18T08:34:29.000Z</time>
      </trkpt>
      <trkpt lat="47.31141" lon="-2.27787">
        <ele>-2</ele>
        <time>2021-04-18T08:34:30.000Z</time>
      </trkpt>
      <trkpt lat="47.31154" lon="-2.27842">
        <ele>-2</ele>
        <time>2021-04-18T08:34:37.000Z</time>
      </trkpt>
      <trkpt lat="47.31154" lon="-2.27849">
        <ele>-2</ele>
        <time>2021-04-18T08:34:38.000Z</time>
      </trkpt>
      <trkpt lat="47.31152" lon="-2.27863">
        <ele>-2</ele>
        <time>2021-04-18T08:34:40.000Z</time>
      </trkpt>
      <trkpt lat="47.31149" lon="-2.2787">
        <ele>-2</ele>
        <time>2021-04-18T08:34:41.000Z</time>
      </trkpt>
      <trkpt lat="47.31138" lon="-2.27888">
        <ele>-2</ele>
        <time>2021-04-18T08:34:43.000Z</time>
      </trkpt>
      <trkpt lat="47.31107" lon="-2.27945">
        <ele>-2</ele>
        <time>2021-04-18T08:34:50.000Z</time>
      </trkpt>
      <trkpt lat="47.31079" lon="-2.27991">
        <ele>-2</ele>
        <time>2021-04-18T08:34:57.000Z</time>
      </trkpt>
      <trkpt lat="47.31037" lon="-2.28041">
        <ele>-2</ele>
        <time>2021-04-18T08:35:05.000Z</time>
      </trkpt>
      <trkpt lat="47.31004" lon="-2.28068">
        <ele>-2</ele>
        <time>2021-04-18T08:35:11.000Z</time>
      </trkpt>
      <trkpt lat="47.30971" lon="-2.2809">
        <ele>-2</ele>
        <time>2021-04-18T08:35:16.000Z</time>
      </trkpt>
      <trkpt lat="47.30943" lon="-2.28127">
        <ele>-2</ele>
        <time>2021-04-18T08:35:22.000Z</time>
      </trkpt>
      <trkpt lat="47.30909" lon="-2.28176">
        <ele>-2</ele>
        <time>2021-04-18T08:35:30.000Z</time>
      </trkpt>
      <trkpt lat="47.3088" lon="-2.28216">
        <ele>-2</ele>
        <time>2021-04-18T08:35:37.000Z</time>
      </trkpt>
      <trkpt lat="47.30875" lon="-2.28222">
        <ele>-2</ele>
        <time>2021-04-18T08:35:38.000Z</time>
      </trkpt>
      <trkpt lat="47.30854" lon="-2.28242">
        <ele>-2</ele>
        <time>2021-04-18T08:35:42.000Z</time>
      </trkpt>
      <trkpt lat="47.30831" lon="-2.28253">
        <ele>-2</ele>
        <time>2021-04-18T08:35:46.000Z</time>
      </trkpt>
      <trkpt lat="47.30824" lon="-2.28254">
        <ele>-2</ele>
        <time>2021-04-18T08:35:47.000Z</time>
      </trkpt>
      <trkpt lat="47.30803" lon="-2.28256">
        <ele>-2</ele>
        <time>2021-04-18T08:35:50.000Z</time>
      </trkpt>
      <trkpt lat="47.30789" lon="-2.28251">
        <ele>-2</ele>
        <time>2021-04-18T08:35:52.000Z</time>
      </trkpt>
      <trkpt lat="47.30778" lon="-2.28245">
        <ele>-2</ele>
        <time>2021-04-18T08:35:54.000Z</time>
      </trkpt>
      <trkpt lat="47.30767" lon="-2.28237">
        <ele>-2</ele>
        <time>2021-04-18T08:35:56.000Z</time>
      </trkpt>
      <trkpt lat="47.30763" lon="-2.28231">
        <ele>-2</ele>
        <time>2021-04-18T08:35:57.000Z</time>
      </trkpt>
      <trkpt lat="47.30734" lon="-2.28191">
        <ele>-2</ele>
        <time>2021-04-18T08:36:03.000Z</time>
      </trkpt>
      <trkpt lat="47.30702" lon="-2.28149">
        <ele>-2</ele>
        <time>2021-04-18T08:36:10.000Z</time>
      </trkpt>
      <trkpt lat="47.30665" lon="-2.2811">
        <ele>-2</ele>
        <time>2021-04-18T08:36:18.000Z</time>
      </trkpt>
      <trkpt lat="47.30631" lon="-2.28074">
        <ele>-2</ele>
        <time>2021-04-18T08:36:25.000Z</time>
      </trkpt>
      <trkpt lat="47.30606" lon="-2.28051">
        <ele>-2</ele>
        <time>2021-04-18T08:36:30.000Z</time>
      </trkpt>
      <trkpt lat="47.30575" lon="-2.28035">
        <ele>-2</ele>
        <time>2021-04-18T08:36:35.000Z</time>
      </trkpt>
      <trkpt lat="47.30551" lon="-2.28025">
        <ele>-2</ele>
        <time>2021-04-18T08:36:39.000Z</time>
      </trkpt>
      <trkpt lat="47.30541" lon="-2.28014">
        <ele>-2</ele>
        <time>2021-04-18T08:36:41.000Z</time>
      </trkpt>
      <trkpt lat="47.30533" lon="-2.27999">
        <ele>-2</ele>
        <time>2021-04-18T08:36:43.000Z</time>
      </trkpt>
      <trkpt lat="47.30528" lon="-2.27983">
        <ele>-2</ele>
        <time>2021-04-18T08:36:45.000Z</time>
      </trkpt>
      <trkpt lat="47.30525" lon="-2.27974">
        <ele>-2</ele>
        <time>2021-04-18T08:36:46.000Z</time>
      </trkpt>
      <trkpt lat="47.3052" lon="-2.27943">
        <ele>-2</ele>
        <time>2021-04-18T08:36:50.000Z</time>
      </trkpt>
      <trkpt lat="47.30517" lon="-2.27931">
        <ele>-2</ele>
        <time>2021-04-18T08:36:52.000Z</time>
      </trkpt>
      <trkpt lat="47.30507" lon="-2.27925">
        <ele>-2</ele>
        <time>2021-04-18T08:36:54.000Z</time>
      </trkpt>
      <trkpt lat="47.30496" lon="-2.27923">
        <ele>-2</ele>
        <time>2021-04-18T08:36:56.000Z</time>
      </trkpt>
      <trkpt lat="47.30479" lon="-2.2792">
        <ele>-2</ele>
        <time>2021-04-18T08:36:59.000Z</time>
      </trkpt>
      <trkpt lat="47.30459" lon="-2.27909">
        <ele>-2</ele>
        <time>2021-04-18T08:37:03.000Z</time>
      </trkpt>
      <trkpt lat="47.30455" lon="-2.27905">
        <ele>-2</ele>
        <time>2021-04-18T08:37:04.000Z</time>
      </trkpt>
      <trkpt lat="47.30454" lon="-2.27887">
        <ele>-2</ele>
        <time>2021-04-18T08:37:07.000Z</time>
      </trkpt>
      <trkpt lat="47.30465" lon="-2.27873">
        <ele>-2</ele>
        <time>2021-04-18T08:37:10.000Z</time>
      </trkpt>
      <trkpt lat="47.30474" lon="-2.27842">
        <ele>-2</ele>
        <time>2021-04-18T08:37:14.000Z</time>
      </trkpt>
      <trkpt lat="47.30475" lon="-2.27834">
        <ele>-2</ele>
        <time>2021-04-18T08:37:15.000Z</time>
      </trkpt>
      <trkpt lat="47.30471" lon="-2.27808">
        <ele>-2</ele>
        <time>2021-04-18T08:37:18.000Z</time>
      </trkpt>
      <trkpt lat="47.3046" lon="-2.27787">
        <ele>-2</ele>
        <time>2021-04-18T08:37:21.000Z</time>
      </trkpt>
      <trkpt lat="47.30455" lon="-2.27781">
        <ele>-2</ele>
        <time>2021-04-18T08:37:22.000Z</time>
      </trkpt>
      <trkpt lat="47.30441" lon="-2.27766">
        <ele>-1.6000000238419</ele>
        <time>2021-04-18T08:37:25.000Z</time>
      </trkpt>
      <trkpt lat="47.30436" lon="-2.27761">
        <ele>-1.2000000476837</ele>
        <time>2021-04-18T08:37:26.000Z</time>
      </trkpt>
      <trkpt lat="47.30431" lon="-2.27756">
        <ele>-0.80000001192093</ele>
        <time>2021-04-18T08:37:27.000Z</time>
      </trkpt>
      <trkpt lat="47.30427" lon="-2.27751">
        <ele>-0.40000000596046</ele>
        <time>2021-04-18T08:37:28.000Z</time>
      </trkpt>
      <trkpt lat="47.30422" lon="-2.27745">
        <ele>6</ele>
        <time>2021-04-18T08:37:29.000Z</time>
      </trkpt>
      <trkpt lat="47.30407" lon="-2.2772">
        <ele>6.4</ele>
        <time>2021-04-18T08:37:33.000Z</time>
      </trkpt>
      <trkpt lat="47.30405" lon="-2.27713">
        <ele>6.6</ele>
        <time>2021-04-18T08:37:34.000Z</time>
      </trkpt>
      <trkpt lat="47.30401" lon="-2.27692">
        <ele>0.40000000596046</ele>
        <time>2021-04-18T08:37:37.000Z</time>
      </trkpt>
      <trkpt lat="47.30401" lon="-2.27684">
        <ele>0.80000001192093</ele>
        <time>2021-04-18T08:37:38.000Z</time>
      </trkpt>
      <trkpt lat="47.30404" lon="-2.27676">
        <ele>1.2000000476837</ele>
        <time>2021-04-18T08:37:39.000Z</time>
      </trkpt>
      <trkpt lat="47.30407" lon="-2.27671">
        <ele>1.6000000238419</ele>
        <time>2021-04-18T08:37:40.000Z</time>
      </trkpt>
      <trkpt lat="47.3041" lon="-2.27665">
        <ele>2</ele>
        <time>2021-04-18T08:37:41.000Z</time>
      </trkpt>
      <trkpt lat="47.30418" lon="-2.27655">
        <ele>2</ele>
        <time>2021-04-18T08:37:43.000Z</time>
      </trkpt>
      <trkpt lat="47.30427" lon="-2.27647">
        <ele>2</ele>
        <time>2021-04-18T08:37:45.000Z</time>
      </trkpt>
      <trkpt lat="47.30431" lon="-2.27644">
        <ele>2</ele>
        <time>2021-04-18T08:37:46.000Z</time>
      </trkpt>
      <trkpt lat="47.30463" lon="-2.27619">
        <ele>2</ele>
        <time>2021-04-18T08:37:52.000Z</time>
      </trkpt>
      <trkpt lat="47.305" lon="-2.27581">
        <ele>2</ele>
        <time>2021-04-18T08:37:59.000Z</time>
      </trkpt>
      <trkpt lat="47.30516" lon="-2.27568">
        <ele>2</ele>
        <time>2021-04-18T08:38:02.000Z</time>
      </trkpt>
      <trkpt lat="47.30528" lon="-2.27564">
        <ele>2</ele>
        <time>2021-04-18T08:38:04.000Z</time>
      </trkpt>
      <trkpt lat="47.30566" lon="-2.27546">
        <ele>1.6000000238419</ele>
        <time>2021-04-18T08:38:10.000Z</time>
      </trkpt>
      <trkpt lat="47.30571" lon="-2.27542">
        <ele>1.2000000476837</ele>
        <time>2021-04-18T08:38:11.000Z</time>
      </trkpt>
      <trkpt lat="47.30576" lon="-2.27539">
        <ele>0.80000001192093</ele>
        <time>2021-04-18T08:38:12.000Z</time>
      </trkpt>
      <trkpt lat="47.30581" lon="-2.27536">
        <ele>4</ele>
        <time>2021-04-18T08:38:13.000Z</time>
      </trkpt>
      <trkpt lat="47.3059" lon="-2.27529">
        <ele>4</ele>
        <time>2021-04-18T08:38:15.000Z</time>
      </trkpt>
      <trkpt lat="47.30596" lon="-2.27515">
        <ele>4</ele>
        <time>2021-04-18T08:38:18.000Z</time>
      </trkpt>
      <trkpt lat="47.3061" lon="-2.27505">
        <ele>4</ele>
        <time>2021-04-18T08:38:22.000Z</time>
      </trkpt>
      <trkpt lat="47.30614" lon="-2.27504">
        <ele>4.1</ele>
        <time>2021-04-18T08:38:23.000Z</time>
      </trkpt>
      <trkpt lat="47.30635" lon="-2.27494">
        <ele>5.1</ele>
        <time>2021-04-18T08:38:27.000Z</time>
      </trkpt>
      <trkpt lat="47.30671" lon="-2.27483">
        <ele>6.1</ele>
        <time>2021-04-18T08:38:33.000Z</time>
      </trkpt>
      <trkpt lat="47.30715" lon="-2.27465">
        <ele>7.2</ele>
        <time>2021-04-18T08:38:41.000Z</time>
      </trkpt>
      <trkpt lat="47.30726" lon="-2.27461">
        <ele>0.40000000596046</ele>
        <time>2021-04-18T08:38:43.000Z</time>
      </trkpt>
      <trkpt lat="47.30731" lon="-2.27458">
        <ele>0.80000001192093</ele>
        <time>2021-04-18T08:38:44.000Z</time>
      </trkpt>
      <trkpt lat="47.30737" lon="-2.27456">
        <ele>1.2000000476837</ele>
        <time>2021-04-18T08:38:45.000Z</time>
      </trkpt>
      <trkpt lat="47.30742" lon="-2.27454">
        <ele>1.6000000238419</ele>
        <time>2021-04-18T08:38:46.000Z</time>
      </trkpt>
      <trkpt lat="47.30748" lon="-2.27452">
        <ele>2</ele>
        <time>2021-04-18T08:38:47.000Z</time>
      </trkpt>
      <trkpt lat="47.30755" lon="-2.27452">
        <ele>2</ele>
        <time>2021-04-18T08:38:48.000Z</time>
      </trkpt>
      <trkpt lat="47.30762" lon="-2.27452">
        <ele>2</ele>
        <time>2021-04-18T08:38:49.000Z</time>
      </trkpt>
      <trkpt lat="47.30799" lon="-2.27454">
        <ele>2</ele>
        <time>2021-04-18T08:38:55.000Z</time>
      </trkpt>
      <trkpt lat="47.30834" lon="-2.27456">
        <ele>2</ele>
        <time>2021-04-18T08:39:01.000Z</time>
      </trkpt>
      <trkpt lat="47.30877" lon="-2.27455">
        <ele>2</ele>
        <time>2021-04-18T08:39:08.000Z</time>
      </trkpt>
      <trkpt lat="47.3089" lon="-2.27453">
        <ele>2</ele>
        <time>2021-04-18T08:39:10.000Z</time>
      </trkpt>
      <trkpt lat="47.30913" lon="-2.27446">
        <ele>2</ele>
        <time>2021-04-18T08:39:14.000Z</time>
      </trkpt>
      <trkpt lat="47.30959" lon="-2.27432">
        <ele>2</ele>
        <time>2021-04-18T08:39:22.000Z</time>
      </trkpt>
      <trkpt lat="47.31012" lon="-2.27413">
        <ele>2</ele>
        <time>2021-04-18T08:39:31.000Z</time>
      </trkpt>
      <trkpt lat="47.31016" lon="-2.27409">
        <ele>2</ele>
        <time>2021-04-18T08:39:32.000Z</time>
      </trkpt>
      <trkpt lat="47.31021" lon="-2.27398">
        <ele>2</ele>
        <time>2021-04-18T08:39:34.000Z</time>
      </trkpt>
      <trkpt lat="47.31022" lon="-2.27375">
        <ele>2</ele>
        <time>2021-04-18T08:39:38.000Z</time>
      </trkpt>
      <trkpt lat="47.31021" lon="-2.27368">
        <ele>2</ele>
        <time>2021-04-18T08:39:39.000Z</time>
      </trkpt>
      <trkpt lat="47.31018" lon="-2.27335">
        <ele>2</ele>
        <time>2021-04-18T08:39:43.000Z</time>
      </trkpt>
      <trkpt lat="47.31012" lon="-2.27276">
        <ele>2</ele>
        <time>2021-04-18T08:39:51.000Z</time>
      </trkpt>
      <trkpt lat="47.31011" lon="-2.27256">
        <ele>2</ele>
        <time>2021-04-18T08:39:54.000Z</time>
      </trkpt>
      <trkpt lat="47.31009" lon="-2.27236">
        <ele>2</ele>
        <time>2021-04-18T08:39:57.000Z</time>
      </trkpt>
      <trkpt lat="47.31005" lon="-2.27208">
        <ele>2.4000000953674</ele>
        <time>2021-04-18T08:40:01.000Z</time>
      </trkpt>
      <trkpt lat="47.31005" lon="-2.272">
        <ele>2.7999999523163</ele>
        <time>2021-04-18T08:40:02.000Z</time>
      </trkpt>
      <trkpt lat="47.31004" lon="-2.27192">
        <ele>3.2000000476837</ele>
        <time>2021-04-18T08:40:03.000Z</time>
      </trkpt>
      <trkpt lat="47.31003" lon="-2.27185">
        <ele>3.5999999046326</ele>
        <time>2021-04-18T08:40:04.000Z</time>
      </trkpt>
      <trkpt lat="47.31003" lon="-2.27177">
        <ele>4</ele>
        <time>2021-04-18T08:40:05.000Z</time>
      </trkpt>
      <trkpt lat="47.30999" lon="-2.27118">
        <ele>4</ele>
        <time>2021-04-18T08:40:13.000Z</time>
      </trkpt>
      <trkpt lat="47.30997" lon="-2.27068">
        <ele>4</ele>
        <time>2021-04-18T08:40:19.000Z</time>
      </trkpt>
      <trkpt lat="47.30996" lon="-2.27039">
        <ele>3.5999999046326</ele>
        <time>2021-04-18T08:40:22.000Z</time>
      </trkpt>
      <trkpt lat="47.30996" lon="-2.27028">
        <ele>3</ele>
        <time>2021-04-18T08:40:23.000Z</time>
      </trkpt>
      <trkpt lat="47.30995" lon="-2.27017">
        <ele>2.5999999046326</ele>
        <time>2021-04-18T08:40:24.000Z</time>
      </trkpt>
      <trkpt lat="47.30994" lon="-2.27006">
        <ele>2</ele>
        <time>2021-04-18T08:40:25.000Z</time>
      </trkpt>
      <trkpt lat="47.30992" lon="-2.26995">
        <ele>1.6000000238419</ele>
        <time>2021-04-18T08:40:26.000Z</time>
      </trkpt>
      <trkpt lat="47.3099" lon="-2.26986">
        <ele>1.6000000238419</ele>
        <time>2021-04-18T08:40:27.000Z</time>
      </trkpt>
      <trkpt lat="47.30978" lon="-2.26967">
        <ele>1.6000000238419</ele>
        <time>2021-04-18T08:40:29.000Z</time>
      </trkpt>
      <trkpt lat="47.30972" lon="-2.2696">
        <ele>1</ele>
        <time>2021-04-18T08:40:30.000Z</time>
      </trkpt>
      <trkpt lat="47.30965" lon="-2.26954">
        <ele>0.60000002384186</ele>
        <time>2021-04-18T08:40:31.000Z</time>
      </trkpt>
      <trkpt lat="47.30959" lon="-2.26949">
        <ele>0.20000000298023</ele>
        <time>2021-04-18T08:40:32.000Z</time>
      </trkpt>
      <trkpt lat="47.30952" lon="-2.26945">
        <ele>-0.40000000596046</ele>
        <time>2021-04-18T08:40:33.000Z</time>
      </trkpt>
      <trkpt lat="47.30945" lon="-2.26942">
        <ele>-0.80000001192093</ele>
        <time>2021-04-18T08:40:34.000Z</time>
      </trkpt>
      <trkpt lat="47.30939" lon="-2.26938">
        <ele>-0.80000001192093</ele>
        <time>2021-04-18T08:40:35.000Z</time>
      </trkpt>
      <trkpt lat="47.30921" lon="-2.2693">
        <ele>-0.80000001192093</ele>
        <time>2021-04-18T08:40:38.000Z</time>
      </trkpt>
      <trkpt lat="47.30897" lon="-2.26921">
        <ele>-0.80000001192093</ele>
        <time>2021-04-18T08:40:42.000Z</time>
      </trkpt>
      <trkpt lat="47.30885" lon="-2.2692">
        <ele>-0.80000001192093</ele>
        <time>2021-04-18T08:40:44.000Z</time>
      </trkpt>
      <trkpt lat="47.30853" lon="-2.2693">
        <ele>-0.80000001192093</ele>
        <time>2021-04-18T08:40:49.000Z</time>
      </trkpt>
      <trkpt lat="47.3083" lon="-2.26943">
        <ele>-0.80000001192093</ele>
        <time>2021-04-18T08:40:53.000Z</time>
      </trkpt>
      <trkpt lat="47.30819" lon="-2.26952">
        <ele>-0.80000001192093</ele>
        <time>2021-04-18T08:40:55.000Z</time>
      </trkpt>
      <trkpt lat="47.30814" lon="-2.26955">
        <ele>-0.80000001192093</ele>
        <time>2021-04-18T08:40:56.000Z</time>
      </trkpt>
      <trkpt lat="47.30802" lon="-2.26955">
        <ele>-0.80000001192093</ele>
        <time>2021-04-18T08:40:58.000Z</time>
      </trkpt>
      <trkpt lat="47.30757" lon="-2.26946">
        <ele>-0.80000001192093</ele>
        <time>2021-04-18T08:41:06.000Z</time>
      </trkpt>
      <trkpt lat="47.30734" lon="-2.26937">
        <ele>-0.40000000596046</ele>
        <time>2021-04-18T08:41:11.000Z</time>
      </trkpt>
      <trkpt lat="47.30729" lon="-2.26934">
        <ele>6.1</ele>
        <time>2021-04-18T08:41:12.000Z</time>
      </trkpt>
      <trkpt lat="47.30725" lon="-2.26931">
        <ele>0.40000000596046</ele>
        <time>2021-04-18T08:41:13.000Z</time>
      </trkpt>
      <trkpt lat="47.30721" lon="-2.26928">
        <ele>0.80000001192093</ele>
        <time>2021-04-18T08:41:14.000Z</time>
      </trkpt>
      <trkpt lat="47.30716" lon="-2.26924">
        <ele>1.2000000476837</ele>
        <time>2021-04-18T08:41:15.000Z</time>
      </trkpt>
      <trkpt lat="47.30697" lon="-2.26905">
        <ele>1.2000000476837</ele>
        <time>2021-04-18T08:41:19.000Z</time>
      </trkpt>
      <trkpt lat="47.30692" lon="-2.269">
        <ele>1.2000000476837</ele>
        <time>2021-04-18T08:41:20.000Z</time>
      </trkpt>
      <trkpt lat="47.30688" lon="-2.26894">
        <ele>1.7999999523163</ele>
        <time>2021-04-18T08:41:21.000Z</time>
      </trkpt>
      <trkpt lat="47.30684" lon="-2.26886">
        <ele>2.2000000476837</ele>
        <time>2021-04-18T08:41:22.000Z</time>
      </trkpt>
      <trkpt lat="47.30681" lon="-2.2688">
        <ele>2.5999999046326</ele>
        <time>2021-04-18T08:41:23.000Z</time>
      </trkpt>
      <trkpt lat="47.30678" lon="-2.26872">
        <ele>3</ele>
        <time>2021-04-18T08:41:24.000Z</time>
      </trkpt>
      <trkpt lat="47.30674" lon="-2.26865">
        <ele>3.5999999046326</ele>
        <time>2021-04-18T08:41:25.000Z</time>
      </trkpt>
      <trkpt lat="47.30653" lon="-2.26817">
        <ele>3.5999999046326</ele>
        <time>2021-04-18T08:41:32.000Z</time>
      </trkpt>
      <trkpt lat="47.30626" lon="-2.26756">
        <ele>3.5999999046326</ele>
        <time>2021-04-18T08:41:41.000Z</time>
      </trkpt>
      <trkpt lat="47.30623" lon="-2.26748">
        <ele>4</ele>
        <time>2021-04-18T08:41:42.000Z</time>
      </trkpt>
      <trkpt lat="47.30622" lon="-2.26739">
        <ele>4.4000000953674</ele>
        <time>2021-04-18T08:41:43.000Z</time>
      </trkpt>
      <trkpt lat="47.3062" lon="-2.2673">
        <ele>4.8000001907349</ele>
        <time>2021-04-18T08:41:44.000Z</time>
      </trkpt>
      <trkpt lat="47.30618" lon="-2.2672">
        <ele>5.1999998092651</ele>
        <time>2021-04-18T08:41:45.000Z</time>
      </trkpt>
      <trkpt lat="47.30617" lon="-2.2671">
        <ele>5.5999999046326</ele>
        <time>2021-04-18T08:41:46.000Z</time>
      </trkpt>
      <trkpt lat="47.30614" lon="-2.26693">
        <ele>5.5999999046326</ele>
        <time>2021-04-18T08:41:48.000Z</time>
      </trkpt>
      <trkpt lat="47.30611" lon="-2.26666">
        <ele>5.5999999046326</ele>
        <time>2021-04-18T08:41:51.000Z</time>
      </trkpt>
      <trkpt lat="47.306" lon="-2.26598">
        <ele>5.5999999046326</ele>
        <time>2021-04-18T08:41:59.000Z</time>
      </trkpt>
      <trkpt lat="47.30598" lon="-2.26589">
        <ele>5.5999999046326</ele>
        <time>2021-04-18T08:42:00.000Z</time>
      </trkpt>
      <trkpt lat="47.30593" lon="-2.26575">
        <ele>5.5999999046326</ele>
        <time>2021-04-18T08:42:02.000Z</time>
      </trkpt>
      <trkpt lat="47.3059" lon="-2.26569">
        <ele>5.5999999046326</ele>
        <time>2021-04-18T08:42:03.000Z</time>
      </trkpt>
      <trkpt lat="47.30585" lon="-2.26562">
        <ele>5.5999999046326</ele>
        <time>2021-04-18T08:42:04.000Z</time>
      </trkpt>
      <trkpt lat="47.30572" lon="-2.26548">
        <ele>5.5999999046326</ele>
        <time>2021-04-18T08:42:07.000Z</time>
      </trkpt>
      <trkpt lat="47.30562" lon="-2.2654">
        <ele>5.5999999046326</ele>
        <time>2021-04-18T08:42:09.000Z</time>
      </trkpt>
      <trkpt lat="47.3054" lon="-2.26525">
        <ele>5.5999999046326</ele>
        <time>2021-04-18T08:42:13.000Z</time>
      </trkpt>
      <trkpt lat="47.30506" lon="-2.26503">
        <ele>5.5999999046326</ele>
        <time>2021-04-18T08:42:19.000Z</time>
      </trkpt>
      <trkpt lat="47.30498" lon="-2.26496">
        <ele>5.5999999046326</ele>
        <time>2021-04-18T08:42:21.000Z</time>
      </trkpt>
      <trkpt lat="47.30491" lon="-2.26478">
        <ele>5.5999999046326</ele>
        <time>2021-04-18T08:42:22.000Z</time>
      </trkpt>
      <trkpt lat="47.30491" lon="-2.26478">
        <ele>5.5999999046326</ele>
        <time>2021-04-18T08:42:25.000Z</time>
      </trkpt>
      <trkpt lat="47.30493" lon="-2.26461">
        <ele>5.5999999046326</ele>
        <time>2021-04-18T08:42:28.000Z</time>
      </trkpt>
      <trkpt lat="47.30495" lon="-2.26455">
        <ele>5.5999999046326</ele>
        <time>2021-04-18T08:42:29.000Z</time>
      </trkpt>
      <trkpt lat="47.30518" lon="-2.26407">
        <ele>5.5999999046326</ele>
        <time>2021-04-18T08:42:36.000Z</time>
      </trkpt>
      <trkpt lat="47.30539" lon="-2.26355">
        <ele>5.5999999046326</ele>
        <time>2021-04-18T08:42:43.000Z</time>
      </trkpt>
      <trkpt lat="47.30553" lon="-2.2631">
        <ele>5.5999999046326</ele>
        <time>2021-04-18T08:42:49.000Z</time>
      </trkpt>
      <trkpt lat="47.30568" lon="-2.26258">
        <ele>5.5999999046326</ele>
        <time>2021-04-18T08:42:56.000Z</time>
      </trkpt>
      <trkpt lat="47.3057" lon="-2.26249">
        <ele>5.5999999046326</ele>
        <time>2021-04-18T08:42:57.000Z</time>
      </trkpt>
      <trkpt lat="47.30577" lon="-2.26226">
        <ele>5.5999999046326</ele>
        <time>2021-04-18T08:43:00.000Z</time>
      </trkpt>
      <trkpt lat="47.30579" lon="-2.26219">
        <ele>5.5999999046326</ele>
        <time>2021-04-18T08:43:01.000Z</time>
      </trkpt>
      <trkpt lat="47.3058" lon="-2.26212">
        <ele>5.5999999046326</ele>
        <time>2021-04-18T08:43:02.000Z</time>
      </trkpt>
      <trkpt lat="47.30584" lon="-2.26198">
        <ele>5.5999999046326</ele>
        <time>2021-04-18T08:43:04.000Z</time>
      </trkpt>
      <trkpt lat="47.30586" lon="-2.26192">
        <ele>5.5999999046326</ele>
        <time>2021-04-18T08:43:05.000Z</time>
      </trkpt>
      <trkpt lat="47.30603" lon="-2.26153">
        <ele>5.5999999046326</ele>
        <time>2021-04-18T08:43:11.000Z</time>
      </trkpt>
      <trkpt lat="47.30625" lon="-2.26119">
        <ele>5.5999999046326</ele>
        <time>2021-04-18T08:43:17.000Z</time>
      </trkpt>
      <trkpt lat="47.30628" lon="-2.26116">
        <ele>5.5999999046326</ele>
        <time>2021-04-18T08:43:18.000Z</time>
      </trkpt>
      <trkpt lat="47.30635" lon="-2.26109">
        <ele>5.5999999046326</ele>
        <time>2021-04-18T08:43:20.000Z</time>
      </trkpt>
      <trkpt lat="47.3065" lon="-2.26098">
        <ele>5.5999999046326</ele>
        <time>2021-04-18T08:43:23.000Z</time>
      </trkpt>
      <trkpt lat="47.30698" lon="-2.2607">
        <ele>5.5999999046326</ele>
        <time>2021-04-18T08:43:32.000Z</time>
      </trkpt>
      <trkpt lat="47.30745" lon="-2.26044">
        <ele>5.5999999046326</ele>
        <time>2021-04-18T08:43:41.000Z</time>
      </trkpt>
      <trkpt lat="47.30771" lon="-2.2603">
        <ele>6</ele>
        <time>2021-04-18T08:43:46.000Z</time>
      </trkpt>
      <trkpt lat="47.30776" lon="-2.26027">
        <ele>6.4000000953674</ele>
        <time>2021-04-18T08:43:47.000Z</time>
      </trkpt>
      <trkpt lat="47.30781" lon="-2.26024">
        <ele>6.8000001907349</ele>
        <time>2021-04-18T08:43:48.000Z</time>
      </trkpt>
      <trkpt lat="47.30785" lon="-2.26021">
        <ele>7.1999998092651</ele>
        <time>2021-04-18T08:43:49.000Z</time>
      </trkpt>
      <trkpt lat="47.3079" lon="-2.26017">
        <ele>7.5999999046326</ele>
        <time>2021-04-18T08:43:50.000Z</time>
      </trkpt>
      <trkpt lat="47.30803" lon="-2.26008">
        <ele>7.5999999046326</ele>
        <time>2021-04-18T08:43:53.000Z</time>
      </trkpt>
      <trkpt lat="47.30807" lon="-2.26008">
        <ele>7.5999999046326</ele>
        <time>2021-04-18T08:43:54.000Z</time>
      </trkpt>
      <trkpt lat="47.3081" lon="-2.26011">
        <ele>7.5999999046326</ele>
        <time>2021-04-18T08:43:55.000Z</time>
      </trkpt>
      <trkpt lat="47.30824" lon="-2.26025">
        <ele>7.5999999046326</ele>
        <time>2021-04-18T08:44:00.000Z</time>
      </trkpt>
      <trkpt lat="47.30827" lon="-2.26025">
        <ele>7.1999998092651</ele>
        <time>2021-04-18T08:44:01.000Z</time>
      </trkpt>
      <trkpt lat="47.3083" lon="-2.26024">
        <ele>6.8000001907349</ele>
        <time>2021-04-18T08:44:02.000Z</time>
      </trkpt>
      <trkpt lat="47.30835" lon="-2.26023">
        <ele>6.4000000953674</ele>
        <time>2021-04-18T08:44:03.000Z</time>
      </trkpt>
      <trkpt lat="47.30839" lon="-2.26023">
        <ele>6</ele>
        <time>2021-04-18T08:44:04.000Z</time>
      </trkpt>
      <trkpt lat="47.30843" lon="-2.26022">
        <ele>5.5999999046326</ele>
        <time>2021-04-18T08:44:05.000Z</time>
      </trkpt>
      <trkpt lat="47.30858" lon="-2.26024">
        <ele>5.5999999046326</ele>
        <time>2021-04-18T08:44:10.000Z</time>
      </trkpt>
      <trkpt lat="47.30872" lon="-2.26024">
        <ele>5.5999999046326</ele>
        <time>2021-04-18T08:44:15.000Z</time>
      </trkpt>
      <trkpt lat="47.30891" lon="-2.26023">
        <ele>5.5999999046326</ele>
        <time>2021-04-18T08:44:20.000Z</time>
      </trkpt>
      <trkpt lat="47.30906" lon="-2.26019">
        <ele>5</ele>
        <time>2021-04-18T08:44:24.000Z</time>
      </trkpt>
      <trkpt lat="47.3091" lon="-2.26019">
        <ele>4.1999998092651</ele>
        <time>2021-04-18T08:44:25.000Z</time>
      </trkpt>
      <trkpt lat="47.30913" lon="-2.26017">
        <ele>3.7999999523163</ele>
        <time>2021-04-18T08:44:26.000Z</time>
      </trkpt>
      <trkpt lat="47.30916" lon="-2.26016">
        <ele>3.4000000953674</ele>
        <time>2021-04-18T08:44:27.000Z</time>
      </trkpt>
      <trkpt lat="47.3093" lon="-2.26015">
        <ele>3.4000000953674</ele>
        <time>2021-04-18T08:44:32.000Z</time>
      </trkpt>
      <trkpt lat="47.30952" lon="-2.26007">
        <ele>3.4000000953674</ele>
        <time>2021-04-18T08:44:38.000Z</time>
      </trkpt>
      <trkpt lat="47.30973" lon="-2.25998">
        <ele>3.4000000953674</ele>
        <time>2021-04-18T08:44:43.000Z</time>
      </trkpt>
      <trkpt lat="47.30978" lon="-2.25999">
        <ele>3.4000000953674</ele>
        <time>2021-04-18T08:44:44.000Z</time>
      </trkpt>
      <trkpt lat="47.31004" lon="-2.26007">
        <ele>3.4000000953674</ele>
        <time>2021-04-18T08:44:50.000Z</time>
      </trkpt>
      <trkpt lat="47.31006" lon="-2.26009">
        <ele>3</ele>
        <time>2021-04-18T08:44:51.000Z</time>
      </trkpt>
      <trkpt lat="47.31008" lon="-2.2601">
        <ele>2.5999999046326</ele>
        <time>2021-04-18T08:44:52.000Z</time>
      </trkpt>
      <trkpt lat="47.31017" lon="-2.2601">
        <ele>1.2000000476837</ele>
        <time>2021-04-18T08:45:34.000Z</time>
      </trkpt>
      <trkpt lat="47.31019" lon="-2.2601">
        <ele>1.2000000476837</ele>
        <time>2021-04-18T08:45:35.000Z</time>
      </trkpt>
      <trkpt lat="47.31028" lon="-2.26012">
        <ele>1.2000000476837</ele>
        <time>2021-04-18T08:45:40.000Z</time>
      </trkpt>
      <trkpt lat="47.31031" lon="-2.26012">
        <ele>1.2000000476837</ele>
        <time>2021-04-18T08:45:42.000Z</time>
      </trkpt>
      <trkpt lat="47.31035" lon="-2.26012">
        <ele>1.2000000476837</ele>
        <time>2021-04-18T08:45:45.000Z</time>
      </trkpt>
      <trkpt lat="47.31038" lon="-2.26013">
        <ele>1.2000000476837</ele>
        <time>2021-04-18T08:45:48.000Z</time>
      </trkpt>
      <trkpt lat="47.3104" lon="-2.26013">
        <ele>1.2000000476837</ele>
        <time>2021-04-18T08:45:50.000Z</time>
      </trkpt>
      <trkpt lat="47.31045" lon="-2.26012">
        <ele>1.2000000476837</ele>
        <time>2021-04-18T08:45:54.000Z</time>
      </trkpt>
      <trkpt lat="47.31056" lon="-2.26012">
        <ele>1.2000000476837</ele>
        <time>2021-04-18T08:46:00.000Z</time>
      </trkpt>
      <trkpt lat="47.31062" lon="-2.26007">
        <ele>1.2000000476837</ele>
        <time>2021-04-18T08:46:05.000Z</time>
      </trkpt>
      <trkpt lat="47.31064" lon="-2.26004">
        <ele>1.2000000476837</ele>
        <time>2021-04-18T08:46:08.000Z</time>
      </trkpt>
      <trkpt lat="47.31066" lon="-2.26004">
        <ele>1.2000000476837</ele>
        <time>2021-04-18T08:46:11.000Z</time>
      </trkpt>
      <trkpt lat="47.31068" lon="-2.26004">
        <ele>1.2000000476837</ele>
        <time>2021-04-18T08:46:25.000Z</time>
      </trkpt>
      <trkpt lat="47.31079" lon="-2.25997">
        <ele>1.2000000476837</ele>
        <time>2021-04-18T08:46:30.000Z</time>
      </trkpt>
      <trkpt lat="47.3108" lon="-2.25995">
        <ele>1.2000000476837</ele>
        <time>2021-04-18T08:46:31.000Z</time>
      </trkpt>
      <trkpt lat="47.31093" lon="-2.25994">
        <ele>1.2000000476837</ele>
        <time>2021-04-18T08:46:36.000Z</time>
      </trkpt>
      <trkpt lat="47.31112" lon="-2.26007">
        <ele>1.2000000476837</ele>
        <time>2021-04-18T08:46:41.000Z</time>
      </trkpt>
      <trkpt lat="47.31129" lon="-2.26018">
        <ele>0.80000001192093</ele>
        <time>2021-04-18T08:46:45.000Z</time>
      </trkpt>
      <trkpt lat="47.31134" lon="-2.26021">
        <ele>0.40000000596046</ele>
        <time>2021-04-18T08:46:46.000Z</time>
      </trkpt>
      <trkpt lat="47.31138" lon="-2.26023">
        <ele>4.2</ele>
        <time>2021-04-18T08:46:47.000Z</time>
      </trkpt>
      <trkpt lat="47.31143" lon="-2.26026">
        <ele>-0.40000000596046</ele>
        <time>2021-04-18T08:46:48.000Z</time>
      </trkpt>
      <trkpt lat="47.31147" lon="-2.26029">
        <ele>-0.80000001192093</ele>
        <time>2021-04-18T08:46:49.000Z</time>
      </trkpt>
      <trkpt lat="47.31168" lon="-2.26045">
        <ele>-0.80000001192093</ele>
        <time>2021-04-18T08:46:53.000Z</time>
      </trkpt>
      <trkpt lat="47.31177" lon="-2.26051">
        <ele>-1.2000000476837</ele>
        <time>2021-04-18T08:46:56.000Z</time>
      </trkpt>
      <trkpt lat="47.31178" lon="-2.26053">
        <ele>-1.6000000238419</ele>
        <time>2021-04-18T08:46:57.000Z</time>
      </trkpt>
      <trkpt lat="47.3118" lon="-2.26054">
        <ele>-2</ele>
        <time>2021-04-18T08:46:58.000Z</time>
      </trkpt>
      <trkpt lat="47.31182" lon="-2.26055">
        <ele>-2.4000000953674</ele>
        <time>2021-04-18T08:46:59.000Z</time>
      </trkpt>
      <trkpt lat="47.31184" lon="-2.26057">
        <ele>-2.7999999523163</ele>
        <time>2021-04-18T08:47:00.000Z</time>
      </trkpt>
      <trkpt lat="47.31189" lon="-2.26057">
        <ele>-2.7999999523163</ele>
        <time>2021-04-18T08:47:02.000Z</time>
      </trkpt>
      <trkpt lat="47.31202" lon="-2.26046">
        <ele>-2.7999999523163</ele>
        <time>2021-04-18T08:47:07.000Z</time>
      </trkpt>
      <trkpt lat="47.31214" lon="-2.26041">
        <ele>-2.7999999523163</ele>
        <time>2021-04-18T08:47:13.000Z</time>
      </trkpt>
      <trkpt lat="47.31223" lon="-2.26039">
        <ele>-2.7999999523163</ele>
        <time>2021-04-18T08:47:20.000Z</time>
      </trkpt>
      <trkpt lat="47.31229" lon="-2.26034">
        <ele>-2.7999999523163</ele>
        <time>2021-04-18T08:47:26.000Z</time>
      </trkpt>
      <trkpt lat="47.31229" lon="-2.26034">
        <ele>-2.7999999523163</ele>
        <time>2021-04-18T08:47:27.000Z</time>
      </trkpt>
      <trkpt lat="47.31236" lon="-2.2603">
        <ele>-2.7999999523163</ele>
        <time>2021-04-18T08:47:52.000Z</time>
      </trkpt>
      <trkpt lat="47.31241" lon="-2.26026">
        <ele>-2.7999999523163</ele>
        <time>2021-04-18T08:47:55.000Z</time>
      </trkpt>
      <trkpt lat="47.31251" lon="-2.26017">
        <ele>-2.7999999523163</ele>
        <time>2021-04-18T08:48:03.000Z</time>
      </trkpt>
      <trkpt lat="47.31256" lon="-2.26013">
        <ele>-2.7999999523163</ele>
        <time>2021-04-18T08:48:13.000Z</time>
      </trkpt>
      <trkpt lat="47.31258" lon="-2.26012">
        <ele>-2.7999999523163</ele>
        <time>2021-04-18T08:48:14.000Z</time>
      </trkpt>
      <trkpt lat="47.31262" lon="-2.26008">
        <ele>-2.7999999523163</ele>
        <time>2021-04-18T08:48:16.000Z</time>
      </trkpt>
      <trkpt lat="47.31269" lon="-2.26001">
        <ele>-2.4000000953674</ele>
        <time>2021-04-18T08:48:20.000Z</time>
      </trkpt>
      <trkpt lat="47.31271" lon="-2.25999">
        <ele>-2</ele>
        <time>2021-04-18T08:48:21.000Z</time>
      </trkpt>
      <trkpt lat="47.31273" lon="-2.25997">
        <ele>-1.6000000238419</ele>
        <time>2021-04-18T08:48:22.000Z</time>
      </trkpt>
      <trkpt lat="47.31275" lon="-2.25995">
        <ele>-1.2000000476837</ele>
        <time>2021-04-18T08:48:23.000Z</time>
      </trkpt>
      <trkpt lat="47.31278" lon="-2.25994">
        <ele>-0.80000001192093</ele>
        <time>2021-04-18T08:48:24.000Z</time>
      </trkpt>
      <trkpt lat="47.31284" lon="-2.25989">
        <ele>-0.80000001192093</ele>
        <time>2021-04-18T08:48:28.000Z</time>
      </trkpt>
      <trkpt lat="47.31288" lon="-2.25988">
        <ele>-0.80000001192093</ele>
        <time>2021-04-18T08:48:30.000Z</time>
      </trkpt>
      <trkpt lat="47.31295" lon="-2.25987">
        <ele>-0.80000001192093</ele>
        <time>2021-04-18T08:48:33.000Z</time>
      </trkpt>
      <trkpt lat="47.31298" lon="-2.25987">
        <ele>-0.80000001192093</ele>
        <time>2021-04-18T08:48:35.000Z</time>
      </trkpt>
      <trkpt lat="47.31301" lon="-2.25987">
        <ele>-0.80000001192093</ele>
        <time>2021-04-18T08:48:37.000Z</time>
      </trkpt>
      <trkpt lat="47.31307" lon="-2.25993">
        <ele>-0.80000001192093</ele>
        <time>2021-04-18T08:48:41.000Z</time>
      </trkpt>
      <trkpt lat="47.31315" lon="-2.26002">
        <ele>-0.80000001192093</ele>
        <time>2021-04-18T08:48:46.000Z</time>
      </trkpt>
      <trkpt lat="47.31323" lon="-2.26019">
        <ele>-0.80000001192093</ele>
        <time>2021-04-18T08:48:51.000Z</time>
      </trkpt>
      <trkpt lat="47.31333" lon="-2.26044">
        <ele>-0.80000001192093</ele>
        <time>2021-04-18T08:48:56.000Z</time>
      </trkpt>
      <trkpt lat="47.31344" lon="-2.26068">
        <ele>-0.80000001192093</ele>
        <time>2021-04-18T08:49:01.000Z</time>
      </trkpt>
      <trkpt lat="47.31358" lon="-2.26103">
        <ele>-0.80000001192093</ele>
        <time>2021-04-18T08:49:07.000Z</time>
      </trkpt>
      <trkpt lat="47.31373" lon="-2.26144">
        <ele>-0.80000001192093</ele>
        <time>2021-04-18T08:49:13.000Z</time>
      </trkpt>
      <trkpt lat="47.31378" lon="-2.26152">
        <ele>-1.2000000476837</ele>
        <time>2021-04-18T08:49:15.000Z</time>
      </trkpt>
      <trkpt lat="47.31381" lon="-2.26151">
        <ele>-1.6000000238419</ele>
        <time>2021-04-18T08:49:16.000Z</time>
      </trkpt>
      <trkpt lat="47.31385" lon="-2.26148">
        <ele>-2</ele>
        <time>2021-04-18T08:49:17.000Z</time>
      </trkpt>
      <trkpt lat="47.31389" lon="-2.26145">
        <ele>-2.4000000953674</ele>
        <time>2021-04-18T08:49:18.000Z</time>
      </trkpt>
      <trkpt lat="47.31392" lon="-2.26142">
        <ele>-2.7999999523163</ele>
        <time>2021-04-18T08:49:19.000Z</time>
      </trkpt>
      <trkpt lat="47.31399" lon="-2.26134">
        <ele>-2.7999999523163</ele>
        <time>2021-04-18T08:49:21.000Z</time>
      </trkpt>
      <trkpt lat="47.31403" lon="-2.26129">
        <ele>-2.7999999523163</ele>
        <time>2021-04-18T08:49:22.000Z</time>
      </trkpt>
      <trkpt lat="47.31406" lon="-2.26125">
        <ele>-2.7999999523163</ele>
        <time>2021-04-18T08:49:23.000Z</time>
      </trkpt>
      <trkpt lat="47.31417" lon="-2.2611">
        <ele>-2.7999999523163</ele>
        <time>2021-04-18T08:49:26.000Z</time>
      </trkpt>
      <trkpt lat="47.3142" lon="-2.26103">
        <ele>-2.7999999523163</ele>
        <time>2021-04-18T08:49:27.000Z</time>
      </trkpt>
      <trkpt lat="47.31436" lon="-2.26066">
        <ele>-2.7999999523163</ele>
        <time>2021-04-18T08:49:32.000Z</time>
      </trkpt>
      <trkpt lat="47.31439" lon="-2.2606">
        <ele>-2.7999999523163</ele>
        <time>2021-04-18T08:49:33.000Z</time>
      </trkpt>
      <trkpt lat="47.31463" lon="-2.26019">
        <ele>-2.7999999523163</ele>
        <time>2021-04-18T08:49:40.000Z</time>
      </trkpt>
      <trkpt lat="47.31481" lon="-2.25991">
        <ele>-2.7999999523163</ele>
        <time>2021-04-18T08:49:46.000Z</time>
      </trkpt>
      <trkpt lat="47.31485" lon="-2.25992">
        <ele>-2.7999999523163</ele>
        <time>2021-04-18T08:49:47.000Z</time>
      </trkpt>
      <trkpt lat="47.31491" lon="-2.25996">
        <ele>-2.7999999523163</ele>
        <time>2021-04-18T08:49:49.000Z</time>
      </trkpt>
      <trkpt lat="47.31497" lon="-2.26006">
        <ele>-2.7999999523163</ele>
        <time>2021-04-18T08:49:53.000Z</time>
      </trkpt>
      <trkpt lat="47.31497" lon="-2.26008">
        <ele>-2.7999999523163</ele>
        <time>2021-04-18T08:49:54.000Z</time>
      </trkpt>
      <trkpt lat="47.31499" lon="-2.26016">
        <ele>-2.7999999523163</ele>
        <time>2021-04-18T08:49:58.000Z</time>
      </trkpt>
      <trkpt lat="47.31502" lon="-2.26016">
        <ele>-5</ele>
        <time>2021-04-18T09:14:05.000Z</time>
      </trkpt>
      <trkpt lat="47.31502" lon="-2.26007">
        <ele>-5</ele>
        <time>2021-04-18T09:14:10.000Z</time>
      </trkpt>
      <trkpt lat="47.31501" lon="-2.26005">
        <ele>-5</ele>
        <time>2021-04-18T09:14:11.000Z</time>
      </trkpt>
      <trkpt lat="47.31499" lon="-2.26002">
        <ele>-4.5999999046326</ele>
        <time>2021-04-18T09:14:13.000Z</time>
      </trkpt>
      <trkpt lat="47.31492" lon="-2.25991">
        <ele>-3</ele>
        <time>2021-04-18T09:14:27.000Z</time>
      </trkpt>
      <trkpt lat="47.31493" lon="-2.25987">
        <ele>-3</ele>
        <time>2021-04-18T09:14:28.000Z</time>
      </trkpt>
      <trkpt lat="47.31496" lon="-2.25981">
        <ele>-3</ele>
        <time>2021-04-18T09:14:30.000Z</time>
      </trkpt>
      <trkpt lat="47.31506" lon="-2.25958">
        <ele>-3</ele>
        <time>2021-04-18T09:14:35.000Z</time>
      </trkpt>
      <trkpt lat="47.31529" lon="-2.25912">
        <ele>-3</ele>
        <time>2021-04-18T09:14:44.000Z</time>
      </trkpt>
      <trkpt lat="47.3154" lon="-2.25889">
        <ele>-3</ele>
        <time>2021-04-18T09:14:49.000Z</time>
      </trkpt>
      <trkpt lat="47.31547" lon="-2.25871">
        <ele>-3</ele>
        <time>2021-04-18T09:14:52.000Z</time>
      </trkpt>
      <trkpt lat="47.3155" lon="-2.25858">
        <ele>-3</ele>
        <time>2021-04-18T09:14:54.000Z</time>
      </trkpt>
      <trkpt lat="47.3155" lon="-2.25844">
        <ele>-3</ele>
        <time>2021-04-18T09:14:56.000Z</time>
      </trkpt>
      <trkpt lat="47.31549" lon="-2.25828">
        <ele>-3</ele>
        <time>2021-04-18T09:14:59.000Z</time>
      </trkpt>
      <trkpt lat="47.31545" lon="-2.25793">
        <ele>-3</ele>
        <time>2021-04-18T09:15:05.000Z</time>
      </trkpt>
      <trkpt lat="47.31543" lon="-2.25776">
        <ele>-2.5999999046326</ele>
        <time>2021-04-18T09:15:08.000Z</time>
      </trkpt>
      <trkpt lat="47.31542" lon="-2.2577">
        <ele>-2.2000000476837</ele>
        <time>2021-04-18T09:15:09.000Z</time>
      </trkpt>
      <trkpt lat="47.31542" lon="-2.25765">
        <ele>-1.7999999523163</ele>
        <time>2021-04-18T09:15:10.000Z</time>
      </trkpt>
      <trkpt lat="47.31541" lon="-2.25759">
        <ele>-1.3999999761581</ele>
        <time>2021-04-18T09:15:11.000Z</time>
      </trkpt>
      <trkpt lat="47.3154" lon="-2.25754">
        <ele>-0.80000001192093</ele>
        <time>2021-04-18T09:15:12.000Z</time>
      </trkpt>
      <trkpt lat="47.31536" lon="-2.25735">
        <ele>-0.80000001192093</ele>
        <time>2021-04-18T09:15:15.000Z</time>
      </trkpt>
      <trkpt lat="47.31532" lon="-2.25714">
        <ele>-0.80000001192093</ele>
        <time>2021-04-18T09:15:18.000Z</time>
      </trkpt>
      <trkpt lat="47.31518" lon="-2.2565">
        <ele>-0.80000001192093</ele>
        <time>2021-04-18T09:15:26.000Z</time>
      </trkpt>
      <trkpt lat="47.31516" lon="-2.25641">
        <ele>-0.80000001192093</ele>
        <time>2021-04-18T09:15:27.000Z</time>
      </trkpt>
      <trkpt lat="47.31505" lon="-2.25601">
        <ele>-0.80000001192093</ele>
        <time>2021-04-18T09:15:32.000Z</time>
      </trkpt>
      <trkpt lat="47.31499" lon="-2.25588">
        <ele>-0.80000001192093</ele>
        <time>2021-04-18T09:15:34.000Z</time>
      </trkpt>
      <trkpt lat="47.31491" lon="-2.25577">
        <ele>-0.80000001192093</ele>
        <time>2021-04-18T09:15:36.000Z</time>
      </trkpt>
      <trkpt lat="47.31473" lon="-2.25556">
        <ele>-0.80000001192093</ele>
        <time>2021-04-18T09:15:40.000Z</time>
      </trkpt>
      <trkpt lat="47.31445" lon="-2.25527">
        <ele>-0.80000001192093</ele>
        <time>2021-04-18T09:15:46.000Z</time>
      </trkpt>
      <trkpt lat="47.31442" lon="-2.25521">
        <ele>-0.80000001192093</ele>
        <time>2021-04-18T09:15:47.000Z</time>
      </trkpt>
      <trkpt lat="47.3142" lon="-2.25481">
        <ele>-0.80000001192093</ele>
        <time>2021-04-18T09:15:54.000Z</time>
      </trkpt>
      <trkpt lat="47.31397" lon="-2.25428">
        <ele>-0.80000001192093</ele>
        <time>2021-04-18T09:16:02.000Z</time>
      </trkpt>
      <trkpt lat="47.31375" lon="-2.25398">
        <ele>-0.80000001192093</ele>
        <time>2021-04-18T09:16:07.000Z</time>
      </trkpt>
      <trkpt lat="47.31365" lon="-2.25386">
        <ele>-0.80000001192093</ele>
        <time>2021-04-18T09:16:09.000Z</time>
      </trkpt>
      <trkpt lat="47.31356" lon="-2.25371">
        <ele>-0.80000001192093</ele>
        <time>2021-04-18T09:16:11.000Z</time>
      </trkpt>
      <trkpt lat="47.31349" lon="-2.25356">
        <ele>-0.80000001192093</ele>
        <time>2021-04-18T09:16:13.000Z</time>
      </trkpt>
      <trkpt lat="47.31346" lon="-2.25348">
        <ele>-0.80000001192093</ele>
        <time>2021-04-18T09:16:14.000Z</time>
      </trkpt>
      <trkpt lat="47.31342" lon="-2.25323">
        <ele>-0.80000001192093</ele>
        <time>2021-04-18T09:16:17.000Z</time>
      </trkpt>
      <trkpt lat="47.31335" lon="-2.25269">
        <ele>-0.80000001192093</ele>
        <time>2021-04-18T09:16:23.000Z</time>
      </trkpt>
      <trkpt lat="47.31332" lon="-2.25261">
        <ele>-0.80000001192093</ele>
        <time>2021-04-18T09:16:24.000Z</time>
      </trkpt>
      <trkpt lat="47.31321" lon="-2.25241">
        <ele>-0.80000001192093</ele>
        <time>2021-04-18T09:16:27.000Z</time>
      </trkpt>
      <trkpt lat="47.31317" lon="-2.25236">
        <ele>-0.80000001192093</ele>
        <time>2021-04-18T09:16:28.000Z</time>
      </trkpt>
      <trkpt lat="47.31309" lon="-2.25225">
        <ele>-0.80000001192093</ele>
        <time>2021-04-18T09:16:30.000Z</time>
      </trkpt>
      <trkpt lat="47.3129" lon="-2.25201">
        <ele>-0.80000001192093</ele>
        <time>2021-04-18T09:16:34.000Z</time>
      </trkpt>
      <trkpt lat="47.3126" lon="-2.25151">
        <ele>-0.80000001192093</ele>
        <time>2021-04-18T09:16:41.000Z</time>
      </trkpt>
      <trkpt lat="47.31231" lon="-2.25101">
        <ele>-0.80000001192093</ele>
        <time>2021-04-18T09:16:48.000Z</time>
      </trkpt>
      <trkpt lat="47.31217" lon="-2.25069">
        <ele>-0.80000001192093</ele>
        <time>2021-04-18T09:16:53.000Z</time>
      </trkpt>
      <trkpt lat="47.31212" lon="-2.25057">
        <ele>-0.80000001192093</ele>
        <time>2021-04-18T09:16:55.000Z</time>
      </trkpt>
      <trkpt lat="47.31197" lon="-2.25014">
        <ele>-0.80000001192093</ele>
        <time>2021-04-18T09:17:02.000Z</time>
      </trkpt>
      <trkpt lat="47.31193" lon="-2.25001">
        <ele>-0.80000001192093</ele>
        <time>2021-04-18T09:17:04.000Z</time>
      </trkpt>
      <trkpt lat="47.31185" lon="-2.24995">
        <ele>-0.80000001192093</ele>
        <time>2021-04-18T09:17:06.000Z</time>
      </trkpt>
      <trkpt lat="47.31171" lon="-2.25002">
        <ele>-0.80000001192093</ele>
        <time>2021-04-18T09:17:09.000Z</time>
      </trkpt>
      <trkpt lat="47.31162" lon="-2.2501">
        <ele>-0.80000001192093</ele>
        <time>2021-04-18T09:17:11.000Z</time>
      </trkpt>
      <trkpt lat="47.31149" lon="-2.25024">
        <ele>-0.80000001192093</ele>
        <time>2021-04-18T09:17:14.000Z</time>
      </trkpt>
      <trkpt lat="47.31117" lon="-2.25052">
        <ele>-0.80000001192093</ele>
        <time>2021-04-18T09:17:21.000Z</time>
      </trkpt>
      <trkpt lat="47.31088" lon="-2.25066">
        <ele>-0.80000001192093</ele>
        <time>2021-04-18T09:17:27.000Z</time>
      </trkpt>
      <trkpt lat="47.31062" lon="-2.25083">
        <ele>-0.80000001192093</ele>
        <time>2021-04-18T09:17:33.000Z</time>
      </trkpt>
      <trkpt lat="47.31059" lon="-2.25088">
        <ele>-0.80000001192093</ele>
        <time>2021-04-18T09:17:34.000Z</time>
      </trkpt>
      <trkpt lat="47.3105" lon="-2.25105">
        <ele>-0.80000001192093</ele>
        <time>2021-04-18T09:17:37.000Z</time>
      </trkpt>
      <trkpt lat="47.31042" lon="-2.25122">
        <ele>-0.80000001192093</ele>
        <time>2021-04-18T09:17:40.000Z</time>
      </trkpt>
      <trkpt lat="47.31031" lon="-2.2514">
        <ele>-0.80000001192093</ele>
        <time>2021-04-18T09:17:43.000Z</time>
      </trkpt>
      <trkpt lat="47.31016" lon="-2.25163">
        <ele>-0.80000001192093</ele>
        <time>2021-04-18T09:17:47.000Z</time>
      </trkpt>
      <trkpt lat="47.31014" lon="-2.2517">
        <ele>-0.80000001192093</ele>
        <time>2021-04-18T09:17:48.000Z</time>
      </trkpt>
      <trkpt lat="47.31008" lon="-2.25184">
        <ele>-0.80000001192093</ele>
        <time>2021-04-18T09:17:50.000Z</time>
      </trkpt>
      <trkpt lat="47.31005" lon="-2.25196">
        <ele>-0.80000001192093</ele>
        <time>2021-04-18T09:17:52.000Z</time>
      </trkpt>
      <trkpt lat="47.31002" lon="-2.25224">
        <ele>-0.80000001192093</ele>
        <time>2021-04-18T09:17:58.000Z</time>
      </trkpt>
      <trkpt lat="47.30997" lon="-2.25245">
        <ele>-0.80000001192093</ele>
        <time>2021-04-18T09:18:04.000Z</time>
      </trkpt>
      <trkpt lat="47.3099" lon="-2.25272">
        <ele>-0.80000001192093</ele>
        <time>2021-04-18T09:18:09.000Z</time>
      </trkpt>
      <trkpt lat="47.30986" lon="-2.25276">
        <ele>-0.80000001192093</ele>
        <time>2021-04-18T09:18:10.000Z</time>
      </trkpt>
      <trkpt lat="47.30978" lon="-2.25283">
        <ele>-0.40000000596046</ele>
        <time>2021-04-18T09:18:12.000Z</time>
      </trkpt>
      <trkpt lat="47.30976" lon="-2.25289">
        <ele>6.4</ele>
        <time>2021-04-18T09:18:13.000Z</time>
      </trkpt>
      <trkpt lat="47.30974" lon="-2.25295">
        <ele>0.40000000596046</ele>
        <time>2021-04-18T09:18:14.000Z</time>
      </trkpt>
      <trkpt lat="47.30973" lon="-2.25301">
        <ele>0.80000001192093</ele>
        <time>2021-04-18T09:18:15.000Z</time>
      </trkpt>
      <trkpt lat="47.30971" lon="-2.25306">
        <ele>1.2000000476837</ele>
        <time>2021-04-18T09:18:16.000Z</time>
      </trkpt>
      <trkpt lat="47.30969" lon="-2.25318">
        <ele>1.2000000476837</ele>
        <time>2021-04-18T09:18:18.000Z</time>
      </trkpt>
      <trkpt lat="47.30959" lon="-2.25354">
        <ele>1.2000000476837</ele>
        <time>2021-04-18T09:18:25.000Z</time>
      </trkpt>
      <trkpt lat="47.30952" lon="-2.25387">
        <ele>1.2000000476837</ele>
        <time>2021-04-18T09:18:31.000Z</time>
      </trkpt>
      <trkpt lat="47.30946" lon="-2.25396">
        <ele>1.2000000476837</ele>
        <time>2021-04-18T09:18:33.000Z</time>
      </trkpt>
      <trkpt lat="47.30941" lon="-2.25401">
        <ele>1.6000000238419</ele>
        <time>2021-04-18T09:18:35.000Z</time>
      </trkpt>
      <trkpt lat="47.30938" lon="-2.25402">
        <ele>2</ele>
        <time>2021-04-18T09:18:36.000Z</time>
      </trkpt>
      <trkpt lat="47.30935" lon="-2.25403">
        <ele>2.4000000953674</ele>
        <time>2021-04-18T09:18:37.000Z</time>
      </trkpt>
      <trkpt lat="47.30933" lon="-2.25403">
        <ele>3</ele>
        <time>2021-04-18T09:18:38.000Z</time>
      </trkpt>
      <trkpt lat="47.30929" lon="-2.25403">
        <ele>3.4000000953674</ele>
        <time>2021-04-18T09:18:39.000Z</time>
      </trkpt>
      <trkpt lat="47.30912" lon="-2.25408">
        <ele>3.4000000953674</ele>
        <time>2021-04-18T09:18:43.000Z</time>
      </trkpt>
      <trkpt lat="47.30904" lon="-2.25409">
        <ele>3.4000000953674</ele>
        <time>2021-04-18T09:18:45.000Z</time>
      </trkpt>
      <trkpt lat="47.30881" lon="-2.2541">
        <ele>3.4000000953674</ele>
        <time>2021-04-18T09:18:50.000Z</time>
      </trkpt>
      <trkpt lat="47.30846" lon="-2.25413">
        <ele>3.4000000953674</ele>
        <time>2021-04-18T09:18:56.000Z</time>
      </trkpt>
      <trkpt lat="47.30812" lon="-2.25421">
        <ele>3.4000000953674</ele>
        <time>2021-04-18T09:19:03.000Z</time>
      </trkpt>
      <trkpt lat="47.30779" lon="-2.25427">
        <ele>2.7999999523163</ele>
        <time>2021-04-18T09:19:09.000Z</time>
      </trkpt>
      <trkpt lat="47.30775" lon="-2.25428">
        <ele>2.4000000953674</ele>
        <time>2021-04-18T09:19:10.000Z</time>
      </trkpt>
      <trkpt lat="47.30772" lon="-2.25429">
        <ele>2</ele>
        <time>2021-04-18T09:19:11.000Z</time>
      </trkpt>
      <trkpt lat="47.30768" lon="-2.2543">
        <ele>1.3999999761581</ele>
        <time>2021-04-18T09:19:12.000Z</time>
      </trkpt>
      <trkpt lat="47.30764" lon="-2.25431">
        <ele>1</ele>
        <time>2021-04-18T09:19:13.000Z</time>
      </trkpt>
      <trkpt lat="47.30742" lon="-2.25438">
        <ele>1</ele>
        <time>2021-04-18T09:19:18.000Z</time>
      </trkpt>
      <trkpt lat="47.30737" lon="-2.25439">
        <ele>0.60000002384186</ele>
        <time>2021-04-18T09:19:19.000Z</time>
      </trkpt>
      <trkpt lat="47.30732" lon="-2.25439">
        <ele>0.20000000298023</ele>
        <time>2021-04-18T09:19:20.000Z</time>
      </trkpt>
      <trkpt lat="47.30727" lon="-2.25439">
        <ele>-0.40000000596046</ele>
        <time>2021-04-18T09:19:21.000Z</time>
      </trkpt>
      <trkpt lat="47.30722" lon="-2.25439">
        <ele>-0.80000001192093</ele>
        <time>2021-04-18T09:19:22.000Z</time>
      </trkpt>
      <trkpt lat="47.30717" lon="-2.25439">
        <ele>-1.2000000476837</ele>
        <time>2021-04-18T09:19:23.000Z</time>
      </trkpt>
      <trkpt lat="47.30712" lon="-2.25439">
        <ele>-1.2000000476837</ele>
        <time>2021-04-18T09:19:24.000Z</time>
      </trkpt>
      <trkpt lat="47.30686" lon="-2.25436">
        <ele>-1.2000000476837</ele>
        <time>2021-04-18T09:19:29.000Z</time>
      </trkpt>
      <trkpt lat="47.30674" lon="-2.2542">
        <ele>-1.2000000476837</ele>
        <time>2021-04-18T09:19:33.000Z</time>
      </trkpt>
      <trkpt lat="47.3067" lon="-2.25414">
        <ele>-1.2000000476837</ele>
        <time>2021-04-18T09:19:34.000Z</time>
      </trkpt>
      <trkpt lat="47.30664" lon="-2.25401">
        <ele>-1.2000000476837</ele>
        <time>2021-04-18T09:19:36.000Z</time>
      </trkpt>
      <trkpt lat="47.30663" lon="-2.25392">
        <ele>-1.2000000476837</ele>
        <time>2021-04-18T09:19:37.000Z</time>
      </trkpt>
      <trkpt lat="47.30659" lon="-2.25366">
        <ele>-1.2000000476837</ele>
        <time>2021-04-18T09:19:40.000Z</time>
      </trkpt>
      <trkpt lat="47.30656" lon="-2.25348">
        <ele>-1.2000000476837</ele>
        <time>2021-04-18T09:19:42.000Z</time>
      </trkpt>
      <trkpt lat="47.30654" lon="-2.2534">
        <ele>-1.2000000476837</ele>
        <time>2021-04-18T09:19:43.000Z</time>
      </trkpt>
      <trkpt lat="47.30644" lon="-2.2528">
        <ele>-1.2000000476837</ele>
        <time>2021-04-18T09:19:50.000Z</time>
      </trkpt>
      <trkpt lat="47.30628" lon="-2.25212">
        <ele>-1.2000000476837</ele>
        <time>2021-04-18T09:19:57.000Z</time>
      </trkpt>
      <trkpt lat="47.30607" lon="-2.25162">
        <ele>-1.2000000476837</ele>
        <time>2021-04-18T09:20:03.000Z</time>
      </trkpt>
      <trkpt lat="47.30589" lon="-2.25118">
        <ele>-1.2000000476837</ele>
        <time>2021-04-18T09:20:09.000Z</time>
      </trkpt>
      <trkpt lat="47.30588" lon="-2.25109">
        <ele>-1.2000000476837</ele>
        <time>2021-04-18T09:20:10.000Z</time>
      </trkpt>
      <trkpt lat="47.3058" lon="-2.25065">
        <ele>-1.2000000476837</ele>
        <time>2021-04-18T09:20:15.000Z</time>
      </trkpt>
      <trkpt lat="47.30579" lon="-2.25056">
        <ele>-1.2000000476837</ele>
        <time>2021-04-18T09:20:16.000Z</time>
      </trkpt>
      <trkpt lat="47.30573" lon="-2.25004">
        <ele>-1.2000000476837</ele>
        <time>2021-04-18T09:20:22.000Z</time>
      </trkpt>
      <trkpt lat="47.30572" lon="-2.24952">
        <ele>-1.2000000476837</ele>
        <time>2021-04-18T09:20:28.000Z</time>
      </trkpt>
      <trkpt lat="47.30575" lon="-2.24908">
        <ele>-1.2000000476837</ele>
        <time>2021-04-18T09:20:33.000Z</time>
      </trkpt>
      <trkpt lat="47.30578" lon="-2.2489">
        <ele>-1.2000000476837</ele>
        <time>2021-04-18T09:20:35.000Z</time>
      </trkpt>
      <trkpt lat="47.3058" lon="-2.24883">
        <ele>-1.2000000476837</ele>
        <time>2021-04-18T09:20:36.000Z</time>
      </trkpt>
      <trkpt lat="47.30589" lon="-2.24853">
        <ele>-1.2000000476837</ele>
        <time>2021-04-18T09:20:40.000Z</time>
      </trkpt>
      <trkpt lat="47.30592" lon="-2.24846">
        <ele>-1.2000000476837</ele>
        <time>2021-04-18T09:20:41.000Z</time>
      </trkpt>
      <trkpt lat="47.30616" lon="-2.24808">
        <ele>-1.2000000476837</ele>
        <time>2021-04-18T09:20:47.000Z</time>
      </trkpt>
      <trkpt lat="47.30643" lon="-2.2477">
        <ele>-1.2000000476837</ele>
        <time>2021-04-18T09:20:54.000Z</time>
      </trkpt>
      <trkpt lat="47.30648" lon="-2.24757">
        <ele>-1.2000000476837</ele>
        <time>2021-04-18T09:20:56.000Z</time>
      </trkpt>
      <trkpt lat="47.30649" lon="-2.24743">
        <ele>-1.2000000476837</ele>
        <time>2021-04-18T09:20:58.000Z</time>
      </trkpt>
      <trkpt lat="47.30641" lon="-2.24713">
        <ele>-1.2000000476837</ele>
        <time>2021-04-18T09:21:02.000Z</time>
      </trkpt>
      <trkpt lat="47.30639" lon="-2.24705">
        <ele>-1.2000000476837</ele>
        <time>2021-04-18T09:21:03.000Z</time>
      </trkpt>
      <trkpt lat="47.30625" lon="-2.24659">
        <ele>-1.2000000476837</ele>
        <time>2021-04-18T09:21:09.000Z</time>
      </trkpt>
      <trkpt lat="47.30613" lon="-2.24596">
        <ele>-1.2000000476837</ele>
        <time>2021-04-18T09:21:17.000Z</time>
      </trkpt>
      <trkpt lat="47.30617" lon="-2.24556">
        <ele>-1.2000000476837</ele>
        <time>2021-04-18T09:21:22.000Z</time>
      </trkpt>
      <trkpt lat="47.3062" lon="-2.24512">
        <ele>-1.2000000476837</ele>
        <time>2021-04-18T09:21:28.000Z</time>
      </trkpt>
      <trkpt lat="47.30621" lon="-2.24498">
        <ele>-0.80000001192093</ele>
        <time>2021-04-18T09:21:30.000Z</time>
      </trkpt>
      <trkpt lat="47.30622" lon="-2.24491">
        <ele>-0.40000000596046</ele>
        <time>2021-04-18T09:21:31.000Z</time>
      </trkpt>
      <trkpt lat="47.30623" lon="-2.24485">
        <ele>0.20000000298023</ele>
        <time>2021-04-18T09:21:32.000Z</time>
      </trkpt>
      <trkpt lat="47.30624" lon="-2.24478">
        <ele>0.60000002384186</ele>
        <time>2021-04-18T09:21:33.000Z</time>
      </trkpt>
      <trkpt lat="47.30625" lon="-2.24472">
        <ele>1</ele>
        <time>2021-04-18T09:21:34.000Z</time>
      </trkpt>
      <trkpt lat="47.30627" lon="-2.24466">
        <ele>1</ele>
        <time>2021-04-18T09:21:35.000Z</time>
      </trkpt>
      <trkpt lat="47.30628" lon="-2.24459">
        <ele>1.3999999761581</ele>
        <time>2021-04-18T09:21:36.000Z</time>
      </trkpt>
      <trkpt lat="47.30629" lon="-2.24452">
        <ele>1.7999999523163</ele>
        <time>2021-04-18T09:21:37.000Z</time>
      </trkpt>
      <trkpt lat="47.3063" lon="-2.24446">
        <ele>2.2000000476837</ele>
        <time>2021-04-18T09:21:38.000Z</time>
      </trkpt>
      <trkpt lat="47.3063" lon="-2.2444">
        <ele>2.5999999046326</ele>
        <time>2021-04-18T09:21:39.000Z</time>
      </trkpt>
      <trkpt lat="47.3063" lon="-2.24433">
        <ele>3</ele>
        <time>2021-04-18T09:21:40.000Z</time>
      </trkpt>
      <trkpt lat="47.30629" lon="-2.24428">
        <ele>3</ele>
        <time>2021-04-18T09:21:41.000Z</time>
      </trkpt>
      <trkpt lat="47.30626" lon="-2.24423">
        <ele>3.4000000953674</ele>
        <time>2021-04-18T09:21:43.000Z</time>
      </trkpt>
      <trkpt lat="47.30623" lon="-2.24422">
        <ele>4</ele>
        <time>2021-04-18T09:21:44.000Z</time>
      </trkpt>
      <trkpt lat="47.3062" lon="-2.24422">
        <ele>4.4000000953674</ele>
        <time>2021-04-18T09:21:45.000Z</time>
      </trkpt>
      <trkpt lat="47.30616" lon="-2.2442">
        <ele>4.8000001907349</ele>
        <time>2021-04-18T09:21:46.000Z</time>
      </trkpt>
      <trkpt lat="47.30612" lon="-2.24418">
        <ele>5.1999998092651</ele>
        <time>2021-04-18T09:21:47.000Z</time>
      </trkpt>
      <trkpt lat="47.30604" lon="-2.24413">
        <ele>5.1999998092651</ele>
        <time>2021-04-18T09:21:49.000Z</time>
      </trkpt>
      <trkpt lat="47.30591" lon="-2.24403">
        <ele>5.8000001907349</ele>
        <time>2021-04-18T09:21:52.000Z</time>
      </trkpt>
      <trkpt lat="47.30587" lon="-2.24398">
        <ele>6.1999998092651</ele>
        <time>2021-04-18T09:21:53.000Z</time>
      </trkpt>
      <trkpt lat="47.30583" lon="-2.24394">
        <ele>6.5999999046326</ele>
        <time>2021-04-18T09:21:54.000Z</time>
      </trkpt>
      <trkpt lat="47.30579" lon="-2.2439">
        <ele>7</ele>
        <time>2021-04-18T09:21:55.000Z</time>
      </trkpt>
      <trkpt lat="47.30575" lon="-2.24386">
        <ele>7.4000000953674</ele>
        <time>2021-04-18T09:21:56.000Z</time>
      </trkpt>
      <trkpt lat="47.30559" lon="-2.24368">
        <ele>7.4000000953674</ele>
        <time>2021-04-18T09:22:00.000Z</time>
      </trkpt>
      <trkpt lat="47.30548" lon="-2.24357">
        <ele>7.8000001907349</ele>
        <time>2021-04-18T09:22:03.000Z</time>
      </trkpt>
      <trkpt lat="47.30544" lon="-2.24354">
        <ele>8.1999998092651</ele>
        <time>2021-04-18T09:22:04.000Z</time>
      </trkpt>
      <trkpt lat="47.3054" lon="-2.24349">
        <ele>8.6000003814697</ele>
        <time>2021-04-18T09:22:05.000Z</time>
      </trkpt>
      <trkpt lat="47.30537" lon="-2.24346">
        <ele>9</ele>
        <time>2021-04-18T09:22:06.000Z</time>
      </trkpt>
      <trkpt lat="47.30532" lon="-2.24341">
        <ele>9.3999996185303</ele>
        <time>2021-04-18T09:22:07.000Z</time>
      </trkpt>
      <trkpt lat="47.30528" lon="-2.24337">
        <ele>9.3999996185303</ele>
        <time>2021-04-18T09:22:08.000Z</time>
      </trkpt>
      <trkpt lat="47.30498" lon="-2.24306">
        <ele>9.3999996185303</ele>
        <time>2021-04-18T09:22:15.000Z</time>
      </trkpt>
      <trkpt lat="47.30487" lon="-2.24298">
        <ele>9.3999996185303</ele>
        <time>2021-04-18T09:22:17.000Z</time>
      </trkpt>
      <trkpt lat="47.30468" lon="-2.24286">
        <ele>9.3999996185303</ele>
        <time>2021-04-18T09:22:21.000Z</time>
      </trkpt>
      <trkpt lat="47.30434" lon="-2.24277">
        <ele>9.3999996185303</ele>
        <time>2021-04-18T09:22:27.000Z</time>
      </trkpt>
      <trkpt lat="47.30413" lon="-2.2427">
        <ele>9.3999996185303</ele>
        <time>2021-04-18T09:22:31.000Z</time>
      </trkpt>
      <trkpt lat="47.30408" lon="-2.24265">
        <ele>9.3999996185303</ele>
        <time>2021-04-18T09:22:32.000Z</time>
      </trkpt>
      <trkpt lat="47.30399" lon="-2.24255">
        <ele>9.3999996185303</ele>
        <time>2021-04-18T09:22:34.000Z</time>
      </trkpt>
      <trkpt lat="47.30387" lon="-2.24243">
        <ele>9.3999996185303</ele>
        <time>2021-04-18T09:22:37.000Z</time>
      </trkpt>
      <trkpt lat="47.30364" lon="-2.2422">
        <ele>9.3999996185303</ele>
        <time>2021-04-18T09:22:43.000Z</time>
      </trkpt>
      <trkpt lat="47.30343" lon="-2.24187">
        <ele>9.3999996185303</ele>
        <time>2021-04-18T09:22:49.000Z</time>
      </trkpt>
      <trkpt lat="47.30348" lon="-2.24168">
        <ele>9.3999996185303</ele>
        <time>2021-04-18T09:22:52.000Z</time>
      </trkpt>
      <trkpt lat="47.30355" lon="-2.24158">
        <ele>9.3999996185303</ele>
        <time>2021-04-18T09:22:54.000Z</time>
      </trkpt>
      <trkpt lat="47.3037" lon="-2.24135">
        <ele>9.3999996185303</ele>
        <time>2021-04-18T09:22:59.000Z</time>
      </trkpt>
      <trkpt lat="47.30392" lon="-2.2411">
        <ele>9.3999996185303</ele>
        <time>2021-04-18T09:23:06.000Z</time>
      </trkpt>
      <trkpt lat="47.30412" lon="-2.24083">
        <ele>9.3999996185303</ele>
        <time>2021-04-18T09:23:12.000Z</time>
      </trkpt>
      <trkpt lat="47.3042" lon="-2.24073">
        <ele>9.3999996185303</ele>
        <time>2021-04-18T09:23:14.000Z</time>
      </trkpt>
      <trkpt lat="47.30439" lon="-2.24052">
        <ele>9.3999996185303</ele>
        <time>2021-04-18T09:23:18.000Z</time>
      </trkpt>
      <trkpt lat="47.30448" lon="-2.24042">
        <ele>9</ele>
        <time>2021-04-18T09:23:20.000Z</time>
      </trkpt>
      <trkpt lat="47.30454" lon="-2.24038">
        <ele>8.3999996185303</ele>
        <time>2021-04-18T09:23:21.000Z</time>
      </trkpt>
      <trkpt lat="47.3046" lon="-2.24035">
        <ele>8</ele>
        <time>2021-04-18T09:23:22.000Z</time>
      </trkpt>
      <trkpt lat="47.30465" lon="-2.24032">
        <ele>7.4000000953674</ele>
        <time>2021-04-18T09:23:23.000Z</time>
      </trkpt>
      <trkpt lat="47.3047" lon="-2.24031">
        <ele>6.8000001907349</ele>
        <time>2021-04-18T09:23:24.000Z</time>
      </trkpt>
      <trkpt lat="47.30479" lon="-2.24025">
        <ele>6.8000001907349</ele>
        <time>2021-04-18T09:23:26.000Z</time>
      </trkpt>
      <trkpt lat="47.30483" lon="-2.24021">
        <ele>6.4000000953674</ele>
        <time>2021-04-18T09:23:27.000Z</time>
      </trkpt>
      <trkpt lat="47.30488" lon="-2.24015">
        <ele>6</ele>
        <time>2021-04-18T09:23:28.000Z</time>
      </trkpt>
      <trkpt lat="47.30492" lon="-2.2401">
        <ele>5.5999999046326</ele>
        <time>2021-04-18T09:23:29.000Z</time>
      </trkpt>
      <trkpt lat="47.30496" lon="-2.24005">
        <ele>5</ele>
        <time>2021-04-18T09:23:30.000Z</time>
      </trkpt>
      <trkpt lat="47.30499" lon="-2.23995">
        <ele>4.5999999046326</ele>
        <time>2021-04-18T09:23:31.000Z</time>
      </trkpt>
      <trkpt lat="47.30505" lon="-2.23986">
        <ele>4.5999999046326</ele>
        <time>2021-04-18T09:23:32.000Z</time>
      </trkpt>
      <trkpt lat="47.30511" lon="-2.23981">
        <ele>4.1999998092651</ele>
        <time>2021-04-18T09:23:33.000Z</time>
      </trkpt>
      <trkpt lat="47.30517" lon="-2.23975">
        <ele>3.7999999523163</ele>
        <time>2021-04-18T09:23:34.000Z</time>
      </trkpt>
      <trkpt lat="47.30522" lon="-2.2397">
        <ele>3.4000000953674</ele>
        <time>2021-04-18T09:23:35.000Z</time>
      </trkpt>
      <trkpt lat="47.30527" lon="-2.23964">
        <ele>3</ele>
        <time>2021-04-18T09:23:36.000Z</time>
      </trkpt>
      <trkpt lat="47.30532" lon="-2.23959">
        <ele>2.5999999046326</ele>
        <time>2021-04-18T09:23:37.000Z</time>
      </trkpt>
      <trkpt lat="47.30538" lon="-2.23953">
        <ele>2</ele>
        <time>2021-04-18T09:23:38.000Z</time>
      </trkpt>
      <trkpt lat="47.30542" lon="-2.23947">
        <ele>1.6000000238419</ele>
        <time>2021-04-18T09:23:39.000Z</time>
      </trkpt>
      <trkpt lat="47.30546" lon="-2.23941">
        <ele>1</ele>
        <time>2021-04-18T09:23:40.000Z</time>
      </trkpt>
      <trkpt lat="47.30551" lon="-2.23935">
        <ele>0.60000002384186</ele>
        <time>2021-04-18T09:23:41.000Z</time>
      </trkpt>
      <trkpt lat="47.30553" lon="-2.23928">
        <ele>2.5</ele>
        <time>2021-04-18T09:23:42.000Z</time>
      </trkpt>
      <trkpt lat="47.30554" lon="-2.23921">
        <ele>-0.60000002384186</ele>
        <time>2021-04-18T09:23:43.000Z</time>
      </trkpt>
      <trkpt lat="47.30554" lon="-2.23915">
        <ele>-1</ele>
        <time>2021-04-18T09:23:44.000Z</time>
      </trkpt>
      <trkpt lat="47.30552" lon="-2.2391">
        <ele>-1.6000000238419</ele>
        <time>2021-04-18T09:23:45.000Z</time>
      </trkpt>
      <trkpt lat="47.3055" lon="-2.23906">
        <ele>-2.2000000476837</ele>
        <time>2021-04-18T09:23:46.000Z</time>
      </trkpt>
      <trkpt lat="47.3053" lon="-2.23883">
        <ele>-2.2000000476837</ele>
        <time>2021-04-18T09:23:50.000Z</time>
      </trkpt>
      <trkpt lat="47.30492" lon="-2.2384">
        <ele>-2.2000000476837</ele>
        <time>2021-04-18T09:23:58.000Z</time>
      </trkpt>
      <trkpt lat="47.30462" lon="-2.23841">
        <ele>-2.2000000476837</ele>
        <time>2021-04-18T09:24:02.000Z</time>
      </trkpt>
      <trkpt lat="47.3045" lon="-2.23843">
        <ele>-2.2000000476837</ele>
        <time>2021-04-18T09:24:04.000Z</time>
      </trkpt>
      <trkpt lat="47.30431" lon="-2.23848">
        <ele>-2.2000000476837</ele>
        <time>2021-04-18T09:24:07.000Z</time>
      </trkpt>
      <trkpt lat="47.30375" lon="-2.23858">
        <ele>-2.2000000476837</ele>
        <time>2021-04-18T09:24:16.000Z</time>
      </trkpt>
      <trkpt lat="47.30326" lon="-2.23872">
        <ele>-2.2000000476837</ele>
        <time>2021-04-18T09:24:24.000Z</time>
      </trkpt>
      <trkpt lat="47.30304" lon="-2.23881">
        <ele>-2.2000000476837</ele>
        <time>2021-04-18T09:24:28.000Z</time>
      </trkpt>
      <trkpt lat="47.30289" lon="-2.23885">
        <ele>-2.2000000476837</ele>
        <time>2021-04-18T09:24:31.000Z</time>
      </trkpt>
      <trkpt lat="47.30284" lon="-2.23886">
        <ele>-2.2000000476837</ele>
        <time>2021-04-18T09:24:32.000Z</time>
      </trkpt>
      <trkpt lat="47.30272" lon="-2.23891">
        <ele>-2.2000000476837</ele>
        <time>2021-04-18T09:24:35.000Z</time>
      </trkpt>
      <trkpt lat="47.30265" lon="-2.23898">
        <ele>-2.2000000476837</ele>
        <time>2021-04-18T09:24:38.000Z</time>
      </trkpt>
      <trkpt lat="47.30263" lon="-2.23901">
        <ele>-2.2000000476837</ele>
        <time>2021-04-18T09:24:41.000Z</time>
      </trkpt>
      <trkpt lat="47.30265" lon="-2.23905">
        <ele>-2.2000000476837</ele>
        <time>2021-04-18T09:25:04.000Z</time>
      </trkpt>
      <trkpt lat="47.30264" lon="-2.23915">
        <ele>-2.2000000476837</ele>
        <time>2021-04-18T09:25:07.000Z</time>
      </trkpt>
      <trkpt lat="47.30266" lon="-2.23931">
        <ele>-2.2000000476837</ele>
        <time>2021-04-18T09:25:10.000Z</time>
      </trkpt>
      <trkpt lat="47.30267" lon="-2.23937">
        <ele>-2.2000000476837</ele>
        <time>2021-04-18T09:25:11.000Z</time>
      </trkpt>
      <trkpt lat="47.30276" lon="-2.23972">
        <ele>-2.2000000476837</ele>
        <time>2021-04-18T09:25:17.000Z</time>
      </trkpt>
      <trkpt lat="47.30281" lon="-2.23997">
        <ele>-1.7999999523163</ele>
        <time>2021-04-18T09:25:21.000Z</time>
      </trkpt>
      <trkpt lat="47.30283" lon="-2.24004">
        <ele>-1.3999999761581</ele>
        <time>2021-04-18T09:25:22.000Z</time>
      </trkpt>
      <trkpt lat="47.30284" lon="-2.2401">
        <ele>-1</ele>
        <time>2021-04-18T09:25:23.000Z</time>
      </trkpt>
      <trkpt lat="47.30284" lon="-2.24016">
        <ele>-0.40000000596046</ele>
        <time>2021-04-18T09:25:24.000Z</time>
      </trkpt>
      <trkpt lat="47.30285" lon="-2.24021">
        <ele>4.5</ele>
        <time>2021-04-18T09:25:25.000Z</time>
      </trkpt>
      <trkpt lat="47.30286" lon="-2.24047">
        <ele>0.40000000596046</ele>
        <time>2021-04-18T09:25:30.000Z</time>
      </trkpt>
      <trkpt lat="47.30285" lon="-2.24051">
        <ele>0.80000001192093</ele>
        <time>2021-04-18T09:25:31.000Z</time>
      </trkpt>
      <trkpt lat="47.30285" lon="-2.24055">
        <ele>1.2000000476837</ele>
        <time>2021-04-18T09:25:32.000Z</time>
      </trkpt>
      <trkpt lat="47.30284" lon="-2.24057">
        <ele>1.6000000238419</ele>
        <time>2021-04-18T09:25:33.000Z</time>
      </trkpt>
      <trkpt lat="47.30283" lon="-2.24059">
        <ele>2</ele>
        <time>2021-04-18T09:25:34.000Z</time>
      </trkpt>
      <trkpt lat="47.30271" lon="-2.24066">
        <ele>2</ele>
        <time>2021-04-18T09:25:39.000Z</time>
      </trkpt>
      <trkpt lat="47.30265" lon="-2.24066">
        <ele>2</ele>
        <time>2021-04-18T09:25:41.000Z</time>
      </trkpt>
      <trkpt lat="47.30258" lon="-2.24067">
        <ele>2.4000000953674</ele>
        <time>2021-04-18T09:25:43.000Z</time>
      </trkpt>
      <trkpt lat="47.30253" lon="-2.24067">
        <ele>2.7999999523163</ele>
        <time>2021-04-18T09:25:44.000Z</time>
      </trkpt>
      <trkpt lat="47.30249" lon="-2.24068">
        <ele>3.2000000476837</ele>
        <time>2021-04-18T09:25:45.000Z</time>
      </trkpt>
      <trkpt lat="47.30244" lon="-2.24068">
        <ele>3.5999999046326</ele>
        <time>2021-04-18T09:25:46.000Z</time>
      </trkpt>
      <trkpt lat="47.30239" lon="-2.24069">
        <ele>4</ele>
        <time>2021-04-18T09:25:47.000Z</time>
      </trkpt>
      <trkpt lat="47.30217" lon="-2.24067">
        <ele>4</ele>
        <time>2021-04-18T09:25:51.000Z</time>
      </trkpt>
      <trkpt lat="47.30212" lon="-2.24066">
        <ele>4</ele>
        <time>2021-04-18T09:25:52.000Z</time>
      </trkpt>
      <trkpt lat="47.30189" lon="-2.24068">
        <ele>4</ele>
        <time>2021-04-18T09:25:56.000Z</time>
      </trkpt>
      <trkpt lat="47.30173" lon="-2.24072">
        <ele>4</ele>
        <time>2021-04-18T09:25:59.000Z</time>
      </trkpt>
      <trkpt lat="47.30154" lon="-2.2408">
        <ele>4</ele>
        <time>2021-04-18T09:26:03.000Z</time>
      </trkpt>
      <trkpt lat="47.3015" lon="-2.24082">
        <ele>4</ele>
        <time>2021-04-18T09:26:04.000Z</time>
      </trkpt>
      <trkpt lat="47.30141" lon="-2.24084">
        <ele>4.8000001907349</ele>
        <time>2021-04-18T09:26:06.000Z</time>
      </trkpt>
      <trkpt lat="47.30136" lon="-2.24086">
        <ele>5.4000000953674</ele>
        <time>2021-04-18T09:26:07.000Z</time>
      </trkpt>
      <trkpt lat="47.30132" lon="-2.24089">
        <ele>5.8000001907349</ele>
        <time>2021-04-18T09:26:08.000Z</time>
      </trkpt>
      <trkpt lat="47.30127" lon="-2.24092">
        <ele>6.1999998092651</ele>
        <time>2021-04-18T09:26:09.000Z</time>
      </trkpt>
      <trkpt lat="47.30123" lon="-2.24095">
        <ele>6.1999998092651</ele>
        <time>2021-04-18T09:26:10.000Z</time>
      </trkpt>
      <trkpt lat="47.30115" lon="-2.24101">
        <ele>6.1999998092651</ele>
        <time>2021-04-18T09:26:12.000Z</time>
      </trkpt>
      <trkpt lat="47.30111" lon="-2.24104">
        <ele>6.1999998092651</ele>
        <time>2021-04-18T09:26:13.000Z</time>
      </trkpt>
      <trkpt lat="47.30107" lon="-2.24107">
        <ele>6.1999998092651</ele>
        <time>2021-04-18T09:26:14.000Z</time>
      </trkpt>
      <trkpt lat="47.30082" lon="-2.24118">
        <ele>6.1999998092651</ele>
        <time>2021-04-18T09:26:19.000Z</time>
      </trkpt>
      <trkpt lat="47.30061" lon="-2.24129">
        <ele>6.1999998092651</ele>
        <time>2021-04-18T09:26:24.000Z</time>
      </trkpt>
      <trkpt lat="47.30045" lon="-2.24143">
        <ele>6.1999998092651</ele>
        <time>2021-04-18T09:26:28.000Z</time>
      </trkpt>
      <trkpt lat="47.30041" lon="-2.24146">
        <ele>5.8000001907349</ele>
        <time>2021-04-18T09:26:29.000Z</time>
      </trkpt>
      <trkpt lat="47.30038" lon="-2.24148">
        <ele>5.4000000953674</ele>
        <time>2021-04-18T09:26:30.000Z</time>
      </trkpt>
      <trkpt lat="47.30035" lon="-2.2415">
        <ele>4.4000000953674</ele>
        <time>2021-04-18T09:26:31.000Z</time>
      </trkpt>
      <trkpt lat="47.30032" lon="-2.24151">
        <ele>4</ele>
        <time>2021-04-18T09:26:32.000Z</time>
      </trkpt>
      <trkpt lat="47.30031" lon="-2.24152">
        <ele>4</ele>
        <time>2021-04-18T09:26:33.000Z</time>
      </trkpt>
      <trkpt lat="47.30029" lon="-2.24152">
        <ele>3.5999999046326</ele>
        <time>2021-04-18T09:26:34.000Z</time>
      </trkpt>
      <trkpt lat="47.30028" lon="-2.24153">
        <ele>3.2000000476837</ele>
        <time>2021-04-18T09:26:35.000Z</time>
      </trkpt>
      <trkpt lat="47.30026" lon="-2.24153">
        <ele>2.7999999523163</ele>
        <time>2021-04-18T09:26:36.000Z</time>
      </trkpt>
      <trkpt lat="47.30025" lon="-2.24153">
        <ele>2.4000000953674</ele>
        <time>2021-04-18T09:26:37.000Z</time>
      </trkpt>
      <trkpt lat="47.30024" lon="-2.24153">
        <ele>2</ele>
        <time>2021-04-18T09:26:38.000Z</time>
      </trkpt>
      <trkpt lat="47.30024" lon="-2.24152">
        <ele>2</ele>
        <time>2021-04-18T09:26:39.000Z</time>
      </trkpt>
      <trkpt lat="47.30026" lon="-2.2416">
        <ele>2</ele>
        <time>2021-04-18T09:26:51.000Z</time>
      </trkpt>
      <trkpt lat="47.30028" lon="-2.24174">
        <ele>2</ele>
        <time>2021-04-18T09:26:56.000Z</time>
      </trkpt>
      <trkpt lat="47.30029" lon="-2.24185">
        <ele>2.4000000953674</ele>
        <time>2021-04-18T09:26:59.000Z</time>
      </trkpt>
      <trkpt lat="47.30029" lon="-2.24189">
        <ele>2.7999999523163</ele>
        <time>2021-04-18T09:27:00.000Z</time>
      </trkpt>
      <trkpt lat="47.30029" lon="-2.24193">
        <ele>3.2000000476837</ele>
        <time>2021-04-18T09:27:01.000Z</time>
      </trkpt>
      <trkpt lat="47.30029" lon="-2.24197">
        <ele>3.5999999046326</ele>
        <time>2021-04-18T09:27:02.000Z</time>
      </trkpt>
      <trkpt lat="47.30029" lon="-2.24199">
        <ele>4.1999998092651</ele>
        <time>2021-04-18T09:27:03.000Z</time>
      </trkpt>
      <trkpt lat="47.30028" lon="-2.24204">
        <ele>4.1999998092651</ele>
        <time>2021-04-18T09:27:05.000Z</time>
      </trkpt>
      <trkpt lat="47.30028" lon="-2.24207">
        <ele>4.5999999046326</ele>
        <time>2021-04-18T09:27:06.000Z</time>
      </trkpt>
      <trkpt lat="47.30028" lon="-2.2421">
        <ele>5</ele>
        <time>2021-04-18T09:27:07.000Z</time>
      </trkpt>
      <trkpt lat="47.30028" lon="-2.24212">
        <ele>5.5999999046326</ele>
        <time>2021-04-18T09:27:08.000Z</time>
      </trkpt>
      <trkpt lat="47.30028" lon="-2.24215">
        <ele>6</ele>
        <time>2021-04-18T09:27:09.000Z</time>
      </trkpt>
      <trkpt lat="47.30028" lon="-2.24218">
        <ele>6.4000000953674</ele>
        <time>2021-04-18T09:27:10.000Z</time>
      </trkpt>
      <trkpt lat="47.30029" lon="-2.24245">
        <ele>6.4000000953674</ele>
        <time>2021-04-18T09:27:15.000Z</time>
      </trkpt>
      <trkpt lat="47.3003" lon="-2.24253">
        <ele>6.8000001907349</ele>
        <time>2021-04-18T09:27:17.000Z</time>
      </trkpt>
      <trkpt lat="47.3003" lon="-2.24257">
        <ele>7.4000000953674</ele>
        <time>2021-04-18T09:27:18.000Z</time>
      </trkpt>
      <trkpt lat="47.30029" lon="-2.2426">
        <ele>7.8000001907349</ele>
        <time>2021-04-18T09:27:19.000Z</time>
      </trkpt>
      <trkpt lat="47.3003" lon="-2.24264">
        <ele>8.6000003814697</ele>
        <time>2021-04-18T09:27:20.000Z</time>
      </trkpt>
      <trkpt lat="47.30031" lon="-2.24269">
        <ele>8.6000003814697</ele>
        <time>2021-04-18T09:27:21.000Z</time>
      </trkpt>
      <trkpt lat="47.30031" lon="-2.24272">
        <ele>8.6000003814697</ele>
        <time>2021-04-18T09:27:22.000Z</time>
      </trkpt>
      <trkpt lat="47.30026" lon="-2.24282">
        <ele>9</ele>
        <time>2021-04-18T09:27:25.000Z</time>
      </trkpt>
      <trkpt lat="47.30025" lon="-2.24287">
        <ele>9.3999996185303</ele>
        <time>2021-04-18T09:27:26.000Z</time>
      </trkpt>
      <trkpt lat="47.30023" lon="-2.24293">
        <ele>9.8000001907349</ele>
        <time>2021-04-18T09:27:27.000Z</time>
      </trkpt>
      <trkpt lat="47.30022" lon="-2.24298">
        <ele>10.199999809265</ele>
        <time>2021-04-18T09:27:28.000Z</time>
      </trkpt>
      <trkpt lat="47.30021" lon="-2.24303">
        <ele>10.60000038147</ele>
        <time>2021-04-18T09:27:29.000Z</time>
      </trkpt>
      <trkpt lat="47.30019" lon="-2.24308">
        <ele>10.60000038147</ele>
        <time>2021-04-18T09:27:30.000Z</time>
      </trkpt>
      <trkpt lat="47.30016" lon="-2.24313">
        <ele>10.60000038147</ele>
        <time>2021-04-18T09:27:31.000Z</time>
      </trkpt>
      <trkpt lat="47.30006" lon="-2.2434">
        <ele>10.60000038147</ele>
        <time>2021-04-18T09:27:36.000Z</time>
      </trkpt>
      <trkpt lat="47.29997" lon="-2.24359">
        <ele>10.60000038147</ele>
        <time>2021-04-18T09:27:41.000Z</time>
      </trkpt>
      <trkpt lat="47.29996" lon="-2.24358">
        <ele>10.60000038147</ele>
        <time>2021-04-18T09:27:43.000Z</time>
      </trkpt>
      <trkpt lat="47.2999" lon="-2.24357">
        <ele>10.60000038147</ele>
        <time>2021-04-18T09:28:10.000Z</time>
      </trkpt>
      <trkpt lat="47.29988" lon="-2.24355">
        <ele>10.60000038147</ele>
        <time>2021-04-18T09:28:11.000Z</time>
      </trkpt>
      <trkpt lat="47.29975" lon="-2.24341">
        <ele>10.60000038147</ele>
        <time>2021-04-18T09:28:16.000Z</time>
      </trkpt>
      <trkpt lat="47.29955" lon="-2.24319">
        <ele>10.60000038147</ele>
        <time>2021-04-18T09:28:23.000Z</time>
      </trkpt>
      <trkpt lat="47.29937" lon="-2.24304">
        <ele>10.60000038147</ele>
        <time>2021-04-18T09:28:28.000Z</time>
      </trkpt>
      <trkpt lat="47.29929" lon="-2.24295">
        <ele>10.60000038147</ele>
        <time>2021-04-18T09:28:30.000Z</time>
      </trkpt>
      <trkpt lat="47.29914" lon="-2.24285">
        <ele>10.60000038147</ele>
        <time>2021-04-18T09:28:33.000Z</time>
      </trkpt>
      <trkpt lat="47.29875" lon="-2.24256">
        <ele>10.60000038147</ele>
        <time>2021-04-18T09:28:41.000Z</time>
      </trkpt>
      <trkpt lat="47.29848" lon="-2.24241">
        <ele>10.60000038147</ele>
        <time>2021-04-18T09:28:47.000Z</time>
      </trkpt>
      <trkpt lat="47.29823" lon="-2.2423">
        <ele>10.60000038147</ele>
        <time>2021-04-18T09:28:53.000Z</time>
      </trkpt>
      <trkpt lat="47.29819" lon="-2.24227">
        <ele>10.60000038147</ele>
        <time>2021-04-18T09:28:54.000Z</time>
      </trkpt>
      <trkpt lat="47.29804" lon="-2.24217">
        <ele>10.60000038147</ele>
        <time>2021-04-18T09:28:57.000Z</time>
      </trkpt>
      <trkpt lat="47.29794" lon="-2.24217">
        <ele>10.60000038147</ele>
        <time>2021-04-18T09:28:59.000Z</time>
      </trkpt>
      <trkpt lat="47.29784" lon="-2.24223">
        <ele>10.199999809265</ele>
        <time>2021-04-18T09:29:01.000Z</time>
      </trkpt>
      <trkpt lat="47.29778" lon="-2.24227">
        <ele>9.8000001907349</ele>
        <time>2021-04-18T09:29:02.000Z</time>
      </trkpt>
      <trkpt lat="47.29772" lon="-2.2423">
        <ele>9.3999996185303</ele>
        <time>2021-04-18T09:29:03.000Z</time>
      </trkpt>
      <trkpt lat="47.29766" lon="-2.24233">
        <ele>9</ele>
        <time>2021-04-18T09:29:04.000Z</time>
      </trkpt>
      <trkpt lat="47.2976" lon="-2.24237">
        <ele>8.6000003814697</ele>
        <time>2021-04-18T09:29:05.000Z</time>
      </trkpt>
      <trkpt lat="47.29733" lon="-2.24251">
        <ele>8.6000003814697</ele>
        <time>2021-04-18T09:29:09.000Z</time>
      </trkpt>
      <trkpt lat="47.29725" lon="-2.24254">
        <ele>8.1999998092651</ele>
        <time>2021-04-18T09:29:10.000Z</time>
      </trkpt>
      <trkpt lat="47.29718" lon="-2.24257">
        <ele>7.8000001907349</ele>
        <time>2021-04-18T09:29:11.000Z</time>
      </trkpt>
      <trkpt lat="47.29711" lon="-2.24261">
        <ele>7.4000000953674</ele>
        <time>2021-04-18T09:29:12.000Z</time>
      </trkpt>
      <trkpt lat="47.29704" lon="-2.24266">
        <ele>6.8000001907349</ele>
        <time>2021-04-18T09:29:13.000Z</time>
      </trkpt>
      <trkpt lat="47.29696" lon="-2.2427">
        <ele>6.4000000953674</ele>
        <time>2021-04-18T09:29:14.000Z</time>
      </trkpt>
      <trkpt lat="47.29681" lon="-2.24279">
        <ele>6.4000000953674</ele>
        <time>2021-04-18T09:29:16.000Z</time>
      </trkpt>
      <trkpt lat="47.29637" lon="-2.24304">
        <ele>6</ele>
        <time>2021-04-18T09:29:22.000Z</time>
      </trkpt>
      <trkpt lat="47.29629" lon="-2.24307">
        <ele>5</ele>
        <time>2021-04-18T09:29:23.000Z</time>
      </trkpt>
      <trkpt lat="47.29621" lon="-2.24311">
        <ele>4.4000000953674</ele>
        <time>2021-04-18T09:29:24.000Z</time>
      </trkpt>
      <trkpt lat="47.29613" lon="-2.24313">
        <ele>4</ele>
        <time>2021-04-18T09:29:25.000Z</time>
      </trkpt>
      <trkpt lat="47.29599" lon="-2.24317">
        <ele>3.5999999046326</ele>
        <time>2021-04-18T09:29:27.000Z</time>
      </trkpt>
      <trkpt lat="47.29593" lon="-2.24318">
        <ele>3</ele>
        <time>2021-04-18T09:29:28.000Z</time>
      </trkpt>
      <trkpt lat="47.29587" lon="-2.24318">
        <ele>2.5999999046326</ele>
        <time>2021-04-18T09:29:29.000Z</time>
      </trkpt>
      <trkpt lat="47.29582" lon="-2.24318">
        <ele>2.2000000476837</ele>
        <time>2021-04-18T09:29:30.000Z</time>
      </trkpt>
      <trkpt lat="47.29577" lon="-2.24317">
        <ele>1.7999999523163</ele>
        <time>2021-04-18T09:29:31.000Z</time>
      </trkpt>
      <trkpt lat="47.29571" lon="-2.24313">
        <ele>1.7999999523163</ele>
        <time>2021-04-18T09:29:32.000Z</time>
      </trkpt>
      <trkpt lat="47.29556" lon="-2.24296">
        <ele>1.3999999761581</ele>
        <time>2021-04-18T09:29:35.000Z</time>
      </trkpt>
      <trkpt lat="47.2955" lon="-2.24289">
        <ele>1</ele>
        <time>2021-04-18T09:29:36.000Z</time>
      </trkpt>
      <trkpt lat="47.29543" lon="-2.24285">
        <ele>0.60000002384186</ele>
        <time>2021-04-18T09:29:37.000Z</time>
      </trkpt>
      <trkpt lat="47.29536" lon="-2.24285">
        <ele>5</ele>
        <time>2021-04-18T09:29:38.000Z</time>
      </trkpt>
      <trkpt lat="47.29529" lon="-2.24287">
        <ele>-0.40000000596046</ele>
        <time>2021-04-18T09:29:39.000Z</time>
      </trkpt>
      <trkpt lat="47.29522" lon="-2.2429">
        <ele>-0.40000000596046</ele>
        <time>2021-04-18T09:29:40.000Z</time>
      </trkpt>
      <trkpt lat="47.29492" lon="-2.24301">
        <ele>-0.40000000596046</ele>
        <time>2021-04-18T09:29:45.000Z</time>
      </trkpt>
      <trkpt lat="47.29463" lon="-2.24311">
        <ele>8.5</ele>
        <time>2021-04-18T09:29:51.000Z</time>
      </trkpt>
      <trkpt lat="47.29459" lon="-2.24312">
        <ele>0.40000000596046</ele>
        <time>2021-04-18T09:29:52.000Z</time>
      </trkpt>
      <trkpt lat="47.29454" lon="-2.24314">
        <ele>1</ele>
        <time>2021-04-18T09:29:53.000Z</time>
      </trkpt>
      <trkpt lat="47.29449" lon="-2.24315">
        <ele>1.3999999761581</ele>
        <time>2021-04-18T09:29:54.000Z</time>
      </trkpt>
      <trkpt lat="47.29444" lon="-2.24317">
        <ele>1.7999999523163</ele>
        <time>2021-04-18T09:29:55.000Z</time>
      </trkpt>
      <trkpt lat="47.2943" lon="-2.24324">
        <ele>1.7999999523163</ele>
        <time>2021-04-18T09:29:58.000Z</time>
      </trkpt>
      <trkpt lat="47.29421" lon="-2.2433">
        <ele>1.7999999523163</ele>
        <time>2021-04-18T09:30:00.000Z</time>
      </trkpt>
      <trkpt lat="47.29412" lon="-2.24337">
        <ele>2.2000000476837</ele>
        <time>2021-04-18T09:30:02.000Z</time>
      </trkpt>
      <trkpt lat="47.29408" lon="-2.24341">
        <ele>2.5999999046326</ele>
        <time>2021-04-18T09:30:03.000Z</time>
      </trkpt>
      <trkpt lat="47.29404" lon="-2.24345">
        <ele>3</ele>
        <time>2021-04-18T09:30:04.000Z</time>
      </trkpt>
      <trkpt lat="47.29401" lon="-2.24349">
        <ele>3.4000000953674</ele>
        <time>2021-04-18T09:30:05.000Z</time>
      </trkpt>
      <trkpt lat="47.29397" lon="-2.24353">
        <ele>3.7999999523163</ele>
        <time>2021-04-18T09:30:06.000Z</time>
      </trkpt>
      <trkpt lat="47.29385" lon="-2.24363">
        <ele>3.7999999523163</ele>
        <time>2021-04-18T09:30:09.000Z</time>
      </trkpt>
      <trkpt lat="47.29373" lon="-2.24375">
        <ele>3.7999999523163</ele>
        <time>2021-04-18T09:30:12.000Z</time>
      </trkpt>
      <trkpt lat="47.2934" lon="-2.24412">
        <ele>3.7999999523163</ele>
        <time>2021-04-18T09:30:20.000Z</time>
      </trkpt>
      <trkpt lat="47.29309" lon="-2.24444">
        <ele>3.7999999523163</ele>
        <time>2021-04-18T09:30:28.000Z</time>
      </trkpt>
      <trkpt lat="47.29301" lon="-2.24451">
        <ele>3.7999999523163</ele>
        <time>2021-04-18T09:30:30.000Z</time>
      </trkpt>
      <trkpt lat="47.29293" lon="-2.24466">
        <ele>3.7999999523163</ele>
        <time>2021-04-18T09:30:33.000Z</time>
      </trkpt>
      <trkpt lat="47.29292" lon="-2.24495">
        <ele>3.7999999523163</ele>
        <time>2021-04-18T09:30:37.000Z</time>
      </trkpt>
      <trkpt lat="47.29293" lon="-2.24503">
        <ele>4.1999998092651</ele>
        <time>2021-04-18T09:30:38.000Z</time>
      </trkpt>
      <trkpt lat="47.29293" lon="-2.24511">
        <ele>4.5999999046326</ele>
        <time>2021-04-18T09:30:39.000Z</time>
      </trkpt>
      <trkpt lat="47.29293" lon="-2.24519">
        <ele>5</ele>
        <time>2021-04-18T09:30:40.000Z</time>
      </trkpt>
      <trkpt lat="47.29293" lon="-2.24527">
        <ele>5.4000000953674</ele>
        <time>2021-04-18T09:30:41.000Z</time>
      </trkpt>
      <trkpt lat="47.29293" lon="-2.24535">
        <ele>5.8000001907349</ele>
        <time>2021-04-18T09:30:42.000Z</time>
      </trkpt>
      <trkpt lat="47.29294" lon="-2.24542">
        <ele>5.8000001907349</ele>
        <time>2021-04-18T09:30:43.000Z</time>
      </trkpt>
      <trkpt lat="47.29294" lon="-2.2455">
        <ele>5.8000001907349</ele>
        <time>2021-04-18T09:30:44.000Z</time>
      </trkpt>
      <trkpt lat="47.29299" lon="-2.24604">
        <ele>5.8000001907349</ele>
        <time>2021-04-18T09:30:51.000Z</time>
      </trkpt>
      <trkpt lat="47.29297" lon="-2.24632">
        <ele>5.8000001907349</ele>
        <time>2021-04-18T09:30:55.000Z</time>
      </trkpt>
      <trkpt lat="47.29296" lon="-2.24639">
        <ele>5.8000001907349</ele>
        <time>2021-04-18T09:30:56.000Z</time>
      </trkpt>
      <trkpt lat="47.29296" lon="-2.24645">
        <ele>5.8000001907349</ele>
        <time>2021-04-18T09:30:57.000Z</time>
      </trkpt>
      <trkpt lat="47.29294" lon="-2.24667">
        <ele>5.8000001907349</ele>
        <time>2021-04-18T09:31:01.000Z</time>
      </trkpt>
      <trkpt lat="47.29297" lon="-2.24703">
        <ele>5.8000001907349</ele>
        <time>2021-04-18T09:31:08.000Z</time>
      </trkpt>
      <trkpt lat="47.293" lon="-2.24715">
        <ele>6.1999998092651</ele>
        <time>2021-04-18T09:31:10.000Z</time>
      </trkpt>
      <trkpt lat="47.29301" lon="-2.24722">
        <ele>6.8000001907349</ele>
        <time>2021-04-18T09:31:11.000Z</time>
      </trkpt>
      <trkpt lat="47.29303" lon="-2.24729">
        <ele>7.1999998092651</ele>
        <time>2021-04-18T09:31:12.000Z</time>
      </trkpt>
      <trkpt lat="47.29304" lon="-2.24735">
        <ele>7.5999999046326</ele>
        <time>2021-04-18T09:31:13.000Z</time>
      </trkpt>
      <trkpt lat="47.29306" lon="-2.24741">
        <ele>8</ele>
        <time>2021-04-18T09:31:14.000Z</time>
      </trkpt>
      <trkpt lat="47.29315" lon="-2.24765">
        <ele>8</ele>
        <time>2021-04-18T09:31:18.000Z</time>
      </trkpt>
      <trkpt lat="47.29319" lon="-2.24779">
        <ele>8</ele>
        <time>2021-04-18T09:31:20.000Z</time>
      </trkpt>
      <trkpt lat="47.29327" lon="-2.24823">
        <ele>8</ele>
        <time>2021-04-18T09:31:26.000Z</time>
      </trkpt>
      <trkpt lat="47.29334" lon="-2.24881">
        <ele>8</ele>
        <time>2021-04-18T09:31:33.000Z</time>
      </trkpt>
      <trkpt lat="47.2933" lon="-2.2491">
        <ele>8</ele>
        <time>2021-04-18T09:31:38.000Z</time>
      </trkpt>
      <trkpt lat="47.29313" lon="-2.24916">
        <ele>8</ele>
        <time>2021-04-18T09:31:42.000Z</time>
      </trkpt>
      <trkpt lat="47.29274" lon="-2.24918">
        <ele>8.3999996185303</ele>
        <time>2021-04-18T09:31:49.000Z</time>
      </trkpt>
      <trkpt lat="47.29268" lon="-2.24918">
        <ele>8.8000001907349</ele>
        <time>2021-04-18T09:31:50.000Z</time>
      </trkpt>
      <trkpt lat="47.29264" lon="-2.24919">
        <ele>9.6000003814697</ele>
        <time>2021-04-18T09:31:51.000Z</time>
      </trkpt>
      <trkpt lat="47.29259" lon="-2.24922">
        <ele>10</ele>
        <time>2021-04-18T09:31:52.000Z</time>
      </trkpt>
      <trkpt lat="47.29256" lon="-2.24927">
        <ele>10</ele>
        <time>2021-04-18T09:31:53.000Z</time>
      </trkpt>
      <trkpt lat="47.29256" lon="-2.24947">
        <ele>10</ele>
        <time>2021-04-18T09:31:56.000Z</time>
      </trkpt>
      <trkpt lat="47.29257" lon="-2.24954">
        <ele>10</ele>
        <time>2021-04-18T09:31:57.000Z</time>
      </trkpt>
      <trkpt lat="47.29264" lon="-2.24993">
        <ele>10</ele>
        <time>2021-04-18T09:32:02.000Z</time>
      </trkpt>
      <trkpt lat="47.29279" lon="-2.2505">
        <ele>10</ele>
        <time>2021-04-18T09:32:09.000Z</time>
      </trkpt>
      <trkpt lat="47.29294" lon="-2.25112">
        <ele>10</ele>
        <time>2021-04-18T09:32:16.000Z</time>
      </trkpt>
      <trkpt lat="47.29299" lon="-2.25142">
        <ele>9.6000003814697</ele>
        <time>2021-04-18T09:32:19.000Z</time>
      </trkpt>
      <trkpt lat="47.29301" lon="-2.25152">
        <ele>9.1999998092651</ele>
        <time>2021-04-18T09:32:20.000Z</time>
      </trkpt>
      <trkpt lat="47.29302" lon="-2.25161">
        <ele>8.8000001907349</ele>
        <time>2021-04-18T09:32:21.000Z</time>
      </trkpt>
      <trkpt lat="47.29303" lon="-2.25169">
        <ele>8.3999996185303</ele>
        <time>2021-04-18T09:32:22.000Z</time>
      </trkpt>
      <trkpt lat="47.29305" lon="-2.25177">
        <ele>7.8000001907349</ele>
        <time>2021-04-18T09:32:23.000Z</time>
      </trkpt>
      <trkpt lat="47.29307" lon="-2.25183">
        <ele>7.8000001907349</ele>
        <time>2021-04-18T09:32:24.000Z</time>
      </trkpt>
      <trkpt lat="47.29309" lon="-2.25188">
        <ele>7.4000000953674</ele>
        <time>2021-04-18T09:32:25.000Z</time>
      </trkpt>
      <trkpt lat="47.29312" lon="-2.25191">
        <ele>7</ele>
        <time>2021-04-18T09:32:26.000Z</time>
      </trkpt>
      <trkpt lat="47.29316" lon="-2.25191">
        <ele>6.5999999046326</ele>
        <time>2021-04-18T09:32:27.000Z</time>
      </trkpt>
      <trkpt lat="47.29319" lon="-2.25192">
        <ele>6.1999998092651</ele>
        <time>2021-04-18T09:32:28.000Z</time>
      </trkpt>
      <trkpt lat="47.29323" lon="-2.25192">
        <ele>5.8000001907349</ele>
        <time>2021-04-18T09:32:29.000Z</time>
      </trkpt>
      <trkpt lat="47.29328" lon="-2.25192">
        <ele>5.8000001907349</ele>
        <time>2021-04-18T09:32:30.000Z</time>
      </trkpt>
      <trkpt lat="47.29356" lon="-2.25197">
        <ele>5.8000001907349</ele>
        <time>2021-04-18T09:32:35.000Z</time>
      </trkpt>
      <trkpt lat="47.29396" lon="-2.25207">
        <ele>6.1999998092651</ele>
        <time>2021-04-18T09:32:42.000Z</time>
      </trkpt>
      <trkpt lat="47.29402" lon="-2.25209">
        <ele>6.5999999046326</ele>
        <time>2021-04-18T09:32:43.000Z</time>
      </trkpt>
      <trkpt lat="47.29408" lon="-2.25209">
        <ele>7</ele>
        <time>2021-04-18T09:32:44.000Z</time>
      </trkpt>
      <trkpt lat="47.29414" lon="-2.25209">
        <ele>7.4000000953674</ele>
        <time>2021-04-18T09:32:45.000Z</time>
      </trkpt>
      <trkpt lat="47.2942" lon="-2.25208">
        <ele>7.8000001907349</ele>
        <time>2021-04-18T09:32:46.000Z</time>
      </trkpt>
      <trkpt lat="47.29454" lon="-2.25199">
        <ele>7.8000001907349</ele>
        <time>2021-04-18T09:32:52.000Z</time>
      </trkpt>
      <trkpt lat="47.29487" lon="-2.25194">
        <ele>7.8000001907349</ele>
        <time>2021-04-18T09:32:58.000Z</time>
      </trkpt>
      <trkpt lat="47.29508" lon="-2.25186">
        <ele>8.1999998092651</ele>
        <time>2021-04-18T09:33:02.000Z</time>
      </trkpt>
      <trkpt lat="47.29513" lon="-2.25185">
        <ele>8.8000001907349</ele>
        <time>2021-04-18T09:33:03.000Z</time>
      </trkpt>
      <trkpt lat="47.29517" lon="-2.25183">
        <ele>9.1999998092651</ele>
        <time>2021-04-18T09:33:04.000Z</time>
      </trkpt>
      <trkpt lat="47.2952" lon="-2.25181">
        <ele>10</ele>
        <time>2021-04-18T09:33:05.000Z</time>
      </trkpt>
      <trkpt lat="47.29536" lon="-2.25175">
        <ele>10</ele>
        <time>2021-04-18T09:33:10.000Z</time>
      </trkpt>
      <trkpt lat="47.29539" lon="-2.25176">
        <ele>10</ele>
        <time>2021-04-18T09:33:11.000Z</time>
      </trkpt>
      <trkpt lat="47.29547" lon="-2.25182">
        <ele>10</ele>
        <time>2021-04-18T09:33:14.000Z</time>
      </trkpt>
      <trkpt lat="47.29549" lon="-2.25198">
        <ele>10</ele>
        <time>2021-04-18T09:33:18.000Z</time>
      </trkpt>
      <trkpt lat="47.29549" lon="-2.25204">
        <ele>10</ele>
        <time>2021-04-18T09:33:19.000Z</time>
      </trkpt>
      <trkpt lat="47.2954" lon="-2.25242">
        <ele>10</ele>
        <time>2021-04-18T09:33:24.000Z</time>
      </trkpt>
      <trkpt lat="47.2954" lon="-2.25287">
        <ele>10</ele>
        <time>2021-04-18T09:33:30.000Z</time>
      </trkpt>
      <trkpt lat="47.29548" lon="-2.25314">
        <ele>10</ele>
        <time>2021-04-18T09:33:34.000Z</time>
      </trkpt>
      <trkpt lat="47.29554" lon="-2.25328">
        <ele>10.39999961853</ele>
        <time>2021-04-18T09:33:36.000Z</time>
      </trkpt>
      <trkpt lat="47.29557" lon="-2.25335">
        <ele>10.800000190735</ele>
        <time>2021-04-18T09:33:37.000Z</time>
      </trkpt>
      <trkpt lat="47.29561" lon="-2.25342">
        <ele>11.39999961853</ele>
        <time>2021-04-18T09:33:38.000Z</time>
      </trkpt>
      <trkpt lat="47.29564" lon="-2.25348">
        <ele>11.800000190735</ele>
        <time>2021-04-18T09:33:39.000Z</time>
      </trkpt>
      <trkpt lat="47.29567" lon="-2.25355">
        <ele>12.199999809265</ele>
        <time>2021-04-18T09:33:40.000Z</time>
      </trkpt>
      <trkpt lat="47.2958" lon="-2.254">
        <ele>12.199999809265</ele>
        <time>2021-04-18T09:33:46.000Z</time>
      </trkpt>
      <trkpt lat="47.29582" lon="-2.25415">
        <ele>12.199999809265</ele>
        <time>2021-04-18T09:33:48.000Z</time>
      </trkpt>
      <trkpt lat="47.29583" lon="-2.25431">
        <ele>12.60000038147</ele>
        <time>2021-04-18T09:33:50.000Z</time>
      </trkpt>
      <trkpt lat="47.29584" lon="-2.25439">
        <ele>13</ele>
        <time>2021-04-18T09:33:51.000Z</time>
      </trkpt>
      <trkpt lat="47.29584" lon="-2.25447">
        <ele>13.39999961853</ele>
        <time>2021-04-18T09:33:52.000Z</time>
      </trkpt>
      <trkpt lat="47.29585" lon="-2.25455">
        <ele>13.800000190735</ele>
        <time>2021-04-18T09:33:53.000Z</time>
      </trkpt>
      <trkpt lat="47.29586" lon="-2.25463">
        <ele>14.199999809265</ele>
        <time>2021-04-18T09:33:54.000Z</time>
      </trkpt>
      <trkpt lat="47.29587" lon="-2.25479">
        <ele>14.199999809265</ele>
        <time>2021-04-18T09:33:56.000Z</time>
      </trkpt>
      <trkpt lat="47.29587" lon="-2.25487">
        <ele>14.199999809265</ele>
        <time>2021-04-18T09:33:57.000Z</time>
      </trkpt>
      <trkpt lat="47.29579" lon="-2.25525">
        <ele>14.199999809265</ele>
        <time>2021-04-18T09:34:02.000Z</time>
      </trkpt>
      <trkpt lat="47.29561" lon="-2.25545">
        <ele>14.199999809265</ele>
        <time>2021-04-18T09:34:06.000Z</time>
      </trkpt>
      <trkpt lat="47.29555" lon="-2.25549">
        <ele>14.199999809265</ele>
        <time>2021-04-18T09:34:07.000Z</time>
      </trkpt>
      <trkpt lat="47.29539" lon="-2.25559">
        <ele>14.60000038147</ele>
        <time>2021-04-18T09:34:10.000Z</time>
      </trkpt>
      <trkpt lat="47.29534" lon="-2.25562">
        <ele>15</ele>
        <time>2021-04-18T09:34:11.000Z</time>
      </trkpt>
      <trkpt lat="47.29529" lon="-2.25565">
        <ele>15.39999961853</ele>
        <time>2021-04-18T09:34:12.000Z</time>
      </trkpt>
      <trkpt lat="47.29524" lon="-2.25569">
        <ele>15.800000190735</ele>
        <time>2021-04-18T09:34:13.000Z</time>
      </trkpt>
      <trkpt lat="47.29518" lon="-2.25572">
        <ele>16.200000762939</ele>
        <time>2021-04-18T09:34:14.000Z</time>
      </trkpt>
      <trkpt lat="47.29487" lon="-2.25592">
        <ele>16.200000762939</ele>
        <time>2021-04-18T09:34:20.000Z</time>
      </trkpt>
      <trkpt lat="47.29465" lon="-2.25603">
        <ele>16.60000038147</ele>
        <time>2021-04-18T09:34:24.000Z</time>
      </trkpt>
      <trkpt lat="47.29459" lon="-2.25605">
        <ele>17</ele>
        <time>2021-04-18T09:34:25.000Z</time>
      </trkpt>
      <trkpt lat="47.29454" lon="-2.25607">
        <ele>17.39999961853</ele>
        <time>2021-04-18T09:34:26.000Z</time>
      </trkpt>
      <trkpt lat="47.29448" lon="-2.25609">
        <ele>17.799999237061</ele>
        <time>2021-04-18T09:34:27.000Z</time>
      </trkpt>
      <trkpt lat="47.29443" lon="-2.25611">
        <ele>18.200000762939</ele>
        <time>2021-04-18T09:34:28.000Z</time>
      </trkpt>
      <trkpt lat="47.29417" lon="-2.25621">
        <ele>18.200000762939</ele>
        <time>2021-04-18T09:34:33.000Z</time>
      </trkpt>
      <trkpt lat="47.29398" lon="-2.25632">
        <ele>18.200000762939</ele>
        <time>2021-04-18T09:34:37.000Z</time>
      </trkpt>
      <trkpt lat="47.29392" lon="-2.25644">
        <ele>18.200000762939</ele>
        <time>2021-04-18T09:34:39.000Z</time>
      </trkpt>
      <trkpt lat="47.29384" lon="-2.25677">
        <ele>18.200000762939</ele>
        <time>2021-04-18T09:34:43.000Z</time>
      </trkpt>
      <trkpt lat="47.29383" lon="-2.25686">
        <ele>18.200000762939</ele>
        <time>2021-04-18T09:34:44.000Z</time>
      </trkpt>
      <trkpt lat="47.29371" lon="-2.25737">
        <ele>18.200000762939</ele>
        <time>2021-04-18T09:34:50.000Z</time>
      </trkpt>
      <trkpt lat="47.2936" lon="-2.25759">
        <ele>18.200000762939</ele>
        <time>2021-04-18T09:34:54.000Z</time>
      </trkpt>
      <trkpt lat="47.29357" lon="-2.25763">
        <ele>18.200000762939</ele>
        <time>2021-04-18T09:34:55.000Z</time>
      </trkpt>
      <trkpt lat="47.29341" lon="-2.25783">
        <ele>18.200000762939</ele>
        <time>2021-04-18T09:35:01.000Z</time>
      </trkpt>
      <trkpt lat="47.29336" lon="-2.25787">
        <ele>18.200000762939</ele>
        <time>2021-04-18T09:35:08.000Z</time>
      </trkpt>
      <trkpt lat="47.29335" lon="-2.25787">
        <ele>18.200000762939</ele>
        <time>2021-04-18T09:35:09.000Z</time>
      </trkpt>
      <trkpt lat="47.29335" lon="-2.2579">
        <ele>18.200000762939</ele>
        <time>2021-04-18T09:35:23.000Z</time>
      </trkpt>
      <trkpt lat="47.29338" lon="-2.25794">
        <ele>18.200000762939</ele>
        <time>2021-04-18T09:35:25.000Z</time>
      </trkpt>
      <trkpt lat="47.29348" lon="-2.25796">
        <ele>18.200000762939</ele>
        <time>2021-04-18T09:35:30.000Z</time>
      </trkpt>
      <trkpt lat="47.29349" lon="-2.25796">
        <ele>18.200000762939</ele>
        <time>2021-04-18T09:35:31.000Z</time>
      </trkpt>
      <trkpt lat="47.29351" lon="-2.25793">
        <ele>17.799999237061</ele>
        <time>2021-04-18T09:35:33.000Z</time>
      </trkpt>
      <trkpt lat="47.29351" lon="-2.25791">
        <ele>16.799999237061</ele>
        <time>2021-04-18T09:35:34.000Z</time>
      </trkpt>
      <trkpt lat="47.29352" lon="-2.25789">
        <ele>16.39999961853</ele>
        <time>2021-04-18T09:35:35.000Z</time>
      </trkpt>
      <trkpt lat="47.29353" lon="-2.25786">
        <ele>16</ele>
        <time>2021-04-18T09:35:36.000Z</time>
      </trkpt>
      <trkpt lat="47.29357" lon="-2.25771">
        <ele>16</ele>
        <time>2021-04-18T09:35:42.000Z</time>
      </trkpt>
      <trkpt lat="47.29365" lon="-2.2577">
        <ele>16</ele>
        <time>2021-04-18T09:35:46.000Z</time>
      </trkpt>
      <trkpt lat="47.29376" lon="-2.25762">
        <ele>16</ele>
        <time>2021-04-18T09:35:50.000Z</time>
      </trkpt>
      <trkpt lat="47.29378" lon="-2.25761">
        <ele>16</ele>
        <time>2021-04-18T09:35:51.000Z</time>
      </trkpt>
      <trkpt lat="47.29384" lon="-2.25764">
        <ele>16</ele>
        <time>2021-04-18T09:35:53.000Z</time>
      </trkpt>
      <trkpt lat="47.29397" lon="-2.25772">
        <ele>16</ele>
        <time>2021-04-18T09:35:58.000Z</time>
      </trkpt>
      <trkpt lat="47.29399" lon="-2.25775">
        <ele>15.60000038147</ele>
        <time>2021-04-18T09:35:59.000Z</time>
      </trkpt>
      <trkpt lat="47.29403" lon="-2.25777">
        <ele>15.199999809265</ele>
        <time>2021-04-18T09:36:00.000Z</time>
      </trkpt>
      <trkpt lat="47.29406" lon="-2.25778">
        <ele>14.800000190735</ele>
        <time>2021-04-18T09:36:01.000Z</time>
      </trkpt>
      <trkpt lat="47.29414" lon="-2.25778">
        <ele>14.39999961853</ele>
        <time>2021-04-18T09:36:02.000Z</time>
      </trkpt>
      <trkpt lat="47.2942" lon="-2.25779">
        <ele>14</ele>
        <time>2021-04-18T09:36:03.000Z</time>
      </trkpt>
      <trkpt lat="47.29425" lon="-2.25789">
        <ele>14</ele>
        <time>2021-04-18T09:36:06.000Z</time>
      </trkpt>
      <trkpt lat="47.29425" lon="-2.25794">
        <ele>14</ele>
        <time>2021-04-18T09:36:07.000Z</time>
      </trkpt>
      <trkpt lat="47.29426" lon="-2.25803">
        <ele>14</ele>
        <time>2021-04-18T09:36:09.000Z</time>
      </trkpt>
      <trkpt lat="47.29429" lon="-2.25813">
        <ele>14</ele>
        <time>2021-04-18T09:36:11.000Z</time>
      </trkpt>
      <trkpt lat="47.29429" lon="-2.2582">
        <ele>13.60000038147</ele>
        <time>2021-04-18T09:36:12.000Z</time>
      </trkpt>
      <trkpt lat="47.29429" lon="-2.25826">
        <ele>13.199999809265</ele>
        <time>2021-04-18T09:36:13.000Z</time>
      </trkpt>
      <trkpt lat="47.29428" lon="-2.25832">
        <ele>12.800000190735</ele>
        <time>2021-04-18T09:36:14.000Z</time>
      </trkpt>
      <trkpt lat="47.29427" lon="-2.25838">
        <ele>12.39999961853</ele>
        <time>2021-04-18T09:36:15.000Z</time>
      </trkpt>
      <trkpt lat="47.29426" lon="-2.25844">
        <ele>11.800000190735</ele>
        <time>2021-04-18T09:36:16.000Z</time>
      </trkpt>
      <trkpt lat="47.29424" lon="-2.25863">
        <ele>11.800000190735</ele>
        <time>2021-04-18T09:36:20.000Z</time>
      </trkpt>
      <trkpt lat="47.29434" lon="-2.25892">
        <ele>11.800000190735</ele>
        <time>2021-04-18T09:36:25.000Z</time>
      </trkpt>
      <trkpt lat="47.29438" lon="-2.25921">
        <ele>11.800000190735</ele>
        <time>2021-04-18T09:36:29.000Z</time>
      </trkpt>
      <trkpt lat="47.29438" lon="-2.25926">
        <ele>11.800000190735</ele>
        <time>2021-04-18T09:36:30.000Z</time>
      </trkpt>
      <trkpt lat="47.29434" lon="-2.25937">
        <ele>11.800000190735</ele>
        <time>2021-04-18T09:36:33.000Z</time>
      </trkpt>
      <trkpt lat="47.29422" lon="-2.25955">
        <ele>11.800000190735</ele>
        <time>2021-04-18T09:36:38.000Z</time>
      </trkpt>
      <trkpt lat="47.29409" lon="-2.2596">
        <ele>11.800000190735</ele>
        <time>2021-04-18T09:36:42.000Z</time>
      </trkpt>
      <trkpt lat="47.29405" lon="-2.25959">
        <ele>11.800000190735</ele>
        <time>2021-04-18T09:36:43.000Z</time>
      </trkpt>
      <trkpt lat="47.29402" lon="-2.25959">
        <ele>12.39999961853</ele>
        <time>2021-04-18T09:36:44.000Z</time>
      </trkpt>
      <trkpt lat="47.29399" lon="-2.25957">
        <ele>12.800000190735</ele>
        <time>2021-04-18T09:36:45.000Z</time>
      </trkpt>
      <trkpt lat="47.29396" lon="-2.25956">
        <ele>13.199999809265</ele>
        <time>2021-04-18T09:36:46.000Z</time>
      </trkpt>
      <trkpt lat="47.29393" lon="-2.25955">
        <ele>14.199999809265</ele>
        <time>2021-04-18T09:36:47.000Z</time>
      </trkpt>
      <trkpt lat="47.29391" lon="-2.25954">
        <ele>14.199999809265</ele>
        <time>2021-04-18T09:36:48.000Z</time>
      </trkpt>
      <trkpt lat="47.29385" lon="-2.25954">
        <ele>14.199999809265</ele>
        <time>2021-04-18T09:36:52.000Z</time>
      </trkpt>
      <trkpt lat="47.29382" lon="-2.25956">
        <ele>14.199999809265</ele>
        <time>2021-04-18T09:36:54.000Z</time>
      </trkpt>
      <trkpt lat="47.29372" lon="-2.2597">
        <ele>14.199999809265</ele>
        <time>2021-04-18T09:36:58.000Z</time>
      </trkpt>
      <trkpt lat="47.29365" lon="-2.25979">
        <ele>14.199999809265</ele>
        <time>2021-04-18T09:37:02.000Z</time>
      </trkpt>
      <trkpt lat="47.2936" lon="-2.25979">
        <ele>14.199999809265</ele>
        <time>2021-04-18T09:37:07.000Z</time>
      </trkpt>
      <trkpt lat="47.29362" lon="-2.2598">
        <ele>14.199999809265</ele>
        <time>2021-04-18T09:37:11.000Z</time>
      </trkpt>
      <trkpt lat="47.2937" lon="-2.25989">
        <ele>14.199999809265</ele>
        <time>2021-04-18T09:37:16.000Z</time>
      </trkpt>
      <trkpt lat="47.29372" lon="-2.25995">
        <ele>14.199999809265</ele>
        <time>2021-04-18T09:37:18.000Z</time>
      </trkpt>
      <trkpt lat="47.29373" lon="-2.26001">
        <ele>14.199999809265</ele>
        <time>2021-04-18T09:37:20.000Z</time>
      </trkpt>
      <trkpt lat="47.29373" lon="-2.26003">
        <ele>14.199999809265</ele>
        <time>2021-04-18T09:37:21.000Z</time>
      </trkpt>
      <trkpt lat="47.29377" lon="-2.26015">
        <ele>13.800000190735</ele>
        <time>2021-04-18T09:37:25.000Z</time>
      </trkpt>
      <trkpt lat="47.29378" lon="-2.26019">
        <ele>13.39999961853</ele>
        <time>2021-04-18T09:37:26.000Z</time>
      </trkpt>
      <trkpt lat="47.29379" lon="-2.26024">
        <ele>13</ele>
        <time>2021-04-18T09:37:27.000Z</time>
      </trkpt>
      <trkpt lat="47.29381" lon="-2.26029">
        <ele>12.39999961853</ele>
        <time>2021-04-18T09:37:28.000Z</time>
      </trkpt>
      <trkpt lat="47.29383" lon="-2.26034">
        <ele>12</ele>
        <time>2021-04-18T09:37:29.000Z</time>
      </trkpt>
      <trkpt lat="47.29388" lon="-2.26047">
        <ele>12</ele>
        <time>2021-04-18T09:37:31.000Z</time>
      </trkpt>
      <trkpt lat="47.29408" lon="-2.2609">
        <ele>12</ele>
        <time>2021-04-18T09:37:38.000Z</time>
      </trkpt>
      <trkpt lat="47.29411" lon="-2.26098">
        <ele>12</ele>
        <time>2021-04-18T09:37:39.000Z</time>
      </trkpt>
      <trkpt lat="47.29418" lon="-2.26125">
        <ele>12</ele>
        <time>2021-04-18T09:37:43.000Z</time>
      </trkpt>
      <trkpt lat="47.29414" lon="-2.26166">
        <ele>12.60000038147</ele>
        <time>2021-04-18T09:37:50.000Z</time>
      </trkpt>
      <trkpt lat="47.29412" lon="-2.26168">
        <ele>13</ele>
        <time>2021-04-18T09:37:51.000Z</time>
      </trkpt>
      <trkpt lat="47.29409" lon="-2.26169">
        <ele>13.39999961853</ele>
        <time>2021-04-18T09:37:52.000Z</time>
      </trkpt>
      <trkpt lat="47.29407" lon="-2.26169">
        <ele>13.800000190735</ele>
        <time>2021-04-18T09:37:53.000Z</time>
      </trkpt>
      <trkpt lat="47.29406" lon="-2.26169">
        <ele>14.39999961853</ele>
        <time>2021-04-18T09:37:54.000Z</time>
      </trkpt>
      <trkpt lat="47.29403" lon="-2.26168">
        <ele>14.39999961853</ele>
        <time>2021-04-18T09:37:55.000Z</time>
      </trkpt>
      <trkpt lat="47.29399" lon="-2.26166">
        <ele>14.39999961853</ele>
        <time>2021-04-18T09:37:57.000Z</time>
      </trkpt>
      <trkpt lat="47.29393" lon="-2.26164">
        <ele>14.39999961853</ele>
        <time>2021-04-18T09:38:01.000Z</time>
      </trkpt>
      <trkpt lat="47.29387" lon="-2.26163">
        <ele>14.39999961853</ele>
        <time>2021-04-18T09:38:12.000Z</time>
      </trkpt>
      <trkpt lat="47.2938" lon="-2.26166">
        <ele>14.800000190735</ele>
        <time>2021-04-18T09:38:15.000Z</time>
      </trkpt>
      <trkpt lat="47.29377" lon="-2.26167">
        <ele>15.199999809265</ele>
        <time>2021-04-18T09:38:16.000Z</time>
      </trkpt>
      <trkpt lat="47.29374" lon="-2.26168">
        <ele>15.60000038147</ele>
        <time>2021-04-18T09:38:17.000Z</time>
      </trkpt>
      <trkpt lat="47.29371" lon="-2.2617">
        <ele>16</ele>
        <time>2021-04-18T09:38:18.000Z</time>
      </trkpt>
      <trkpt lat="47.29368" lon="-2.2617">
        <ele>16.39999961853</ele>
        <time>2021-04-18T09:38:19.000Z</time>
      </trkpt>
      <trkpt lat="47.29358" lon="-2.26172">
        <ele>16.39999961853</ele>
        <time>2021-04-18T09:38:23.000Z</time>
      </trkpt>
      <trkpt lat="47.29346" lon="-2.26176">
        <ele>16.799999237061</ele>
        <time>2021-04-18T09:38:28.000Z</time>
      </trkpt>
      <trkpt lat="47.29343" lon="-2.26176">
        <ele>17.200000762939</ele>
        <time>2021-04-18T09:38:29.000Z</time>
      </trkpt>
      <trkpt lat="47.2934" lon="-2.26175">
        <ele>17.60000038147</ele>
        <time>2021-04-18T09:38:30.000Z</time>
      </trkpt>
      <trkpt lat="47.29337" lon="-2.26175">
        <ele>18</ele>
        <time>2021-04-18T09:38:31.000Z</time>
      </trkpt>
      <trkpt lat="47.29334" lon="-2.26174">
        <ele>18.60000038147</ele>
        <time>2021-04-18T09:38:32.000Z</time>
      </trkpt>
      <trkpt lat="47.29331" lon="-2.26174">
        <ele>18.60000038147</ele>
        <time>2021-04-18T09:38:33.000Z</time>
      </trkpt>
      <trkpt lat="47.29326" lon="-2.26177">
        <ele>18.60000038147</ele>
        <time>2021-04-18T09:38:36.000Z</time>
      </trkpt>
      <trkpt lat="47.29323" lon="-2.26182">
        <ele>18.60000038147</ele>
        <time>2021-04-18T09:38:38.000Z</time>
      </trkpt>
      <trkpt lat="47.29323" lon="-2.26188">
        <ele>18.60000038147</ele>
        <time>2021-04-18T09:38:41.000Z</time>
      </trkpt>
      <trkpt lat="47.2932" lon="-2.26188">
        <ele>18.60000038147</ele>
        <time>2021-04-18T09:38:43.000Z</time>
      </trkpt>
      <trkpt lat="47.29306" lon="-2.2619">
        <ele>18.60000038147</ele>
        <time>2021-04-18T09:38:47.000Z</time>
      </trkpt>
      <trkpt lat="47.29289" lon="-2.26188">
        <ele>18.60000038147</ele>
        <time>2021-04-18T09:38:52.000Z</time>
      </trkpt>
      <trkpt lat="47.29287" lon="-2.26185">
        <ele>18.60000038147</ele>
        <time>2021-04-18T09:38:53.000Z</time>
      </trkpt>
      <trkpt lat="47.2928" lon="-2.2617">
        <ele>18.60000038147</ele>
        <time>2021-04-18T09:38:55.000Z</time>
      </trkpt>
      <trkpt lat="47.29272" lon="-2.26156">
        <ele>18.60000038147</ele>
        <time>2021-04-18T09:38:57.000Z</time>
      </trkpt>
      <trkpt lat="47.29269" lon="-2.2615">
        <ele>19</ele>
        <time>2021-04-18T09:38:58.000Z</time>
      </trkpt>
      <trkpt lat="47.29266" lon="-2.26145">
        <ele>19.39999961853</ele>
        <time>2021-04-18T09:38:59.000Z</time>
      </trkpt>
      <trkpt lat="47.29263" lon="-2.2614">
        <ele>19.799999237061</ele>
        <time>2021-04-18T09:39:00.000Z</time>
      </trkpt>
      <trkpt lat="47.2926" lon="-2.26134">
        <ele>20.200000762939</ele>
        <time>2021-04-18T09:39:01.000Z</time>
      </trkpt>
      <trkpt lat="47.29258" lon="-2.26129">
        <ele>20.799999237061</ele>
        <time>2021-04-18T09:39:02.000Z</time>
      </trkpt>
      <trkpt lat="47.29252" lon="-2.26121">
        <ele>20.799999237061</ele>
        <time>2021-04-18T09:39:04.000Z</time>
      </trkpt>
      <trkpt lat="47.29241" lon="-2.26107">
        <ele>20.799999237061</ele>
        <time>2021-04-18T09:39:09.000Z</time>
      </trkpt>
      <trkpt lat="47.29237" lon="-2.26098">
        <ele>20.799999237061</ele>
        <time>2021-04-18T09:39:14.000Z</time>
      </trkpt>
      <trkpt lat="47.29235" lon="-2.26096">
        <ele>20.799999237061</ele>
        <time>2021-04-18T09:39:17.000Z</time>
      </trkpt>
      <trkpt lat="47.29245" lon="-2.26086">
        <ele>20.799999237061</ele>
        <time>2021-04-18T09:39:31.000Z</time>
      </trkpt>
      <trkpt lat="47.2925" lon="-2.26084">
        <ele>20.799999237061</ele>
        <time>2021-04-18T09:39:33.000Z</time>
      </trkpt>
      <trkpt lat="47.29265" lon="-2.26082">
        <ele>20.799999237061</ele>
        <time>2021-04-18T09:39:38.000Z</time>
      </trkpt>
      <trkpt lat="47.29272" lon="-2.26075">
        <ele>20.799999237061</ele>
        <time>2021-04-18T09:39:41.000Z</time>
      </trkpt>
      <trkpt lat="47.29273" lon="-2.26071">
        <ele>20.799999237061</ele>
        <time>2021-04-18T09:39:42.000Z</time>
      </trkpt>
      <trkpt lat="47.29274" lon="-2.26065">
        <ele>20.39999961853</ele>
        <time>2021-04-18T09:39:43.000Z</time>
      </trkpt>
      <trkpt lat="47.29275" lon="-2.26061">
        <ele>19.799999237061</ele>
        <time>2021-04-18T09:39:44.000Z</time>
      </trkpt>
      <trkpt lat="47.29276" lon="-2.26057">
        <ele>19.39999961853</ele>
        <time>2021-04-18T09:39:45.000Z</time>
      </trkpt>
      <trkpt lat="47.29279" lon="-2.26051">
        <ele>19</ele>
        <time>2021-04-18T09:39:46.000Z</time>
      </trkpt>
      <trkpt lat="47.29281" lon="-2.26047">
        <ele>18.60000038147</ele>
        <time>2021-04-18T09:39:47.000Z</time>
      </trkpt>
      <trkpt lat="47.29286" lon="-2.26041">
        <ele>18.60000038147</ele>
        <time>2021-04-18T09:39:51.000Z</time>
      </trkpt>
      <trkpt lat="47.29289" lon="-2.2604">
        <ele>18.60000038147</ele>
        <time>2021-04-18T09:39:53.000Z</time>
      </trkpt>
      <trkpt lat="47.2929" lon="-2.26037">
        <ele>18.60000038147</ele>
        <time>2021-04-18T09:39:58.000Z</time>
      </trkpt>
      <trkpt lat="47.29262" lon="-2.2601">
        <ele>18.60000038147</ele>
        <time>2021-04-18T09:40:23.000Z</time>
      </trkpt>
      <trkpt lat="47.29264" lon="-2.25993">
        <ele>18.60000038147</ele>
        <time>2021-04-18T09:40:28.000Z</time>
      </trkpt>
      <trkpt lat="47.29277" lon="-2.2598">
        <ele>18.60000038147</ele>
        <time>2021-04-18T09:40:33.000Z</time>
      </trkpt>
      <trkpt lat="47.2929" lon="-2.25977">
        <ele>18.60000038147</ele>
        <time>2021-04-18T09:40:36.000Z</time>
      </trkpt>
      <trkpt lat="47.29296" lon="-2.25977">
        <ele>18.60000038147</ele>
        <time>2021-04-18T09:40:37.000Z</time>
      </trkpt>
      <trkpt lat="47.29302" lon="-2.25976">
        <ele>18.60000038147</ele>
        <time>2021-04-18T09:40:38.000Z</time>
      </trkpt>
      <trkpt lat="47.29312" lon="-2.25969">
        <ele>18.60000038147</ele>
        <time>2021-04-18T09:40:40.000Z</time>
      </trkpt>
      <trkpt lat="47.29321" lon="-2.25951">
        <ele>18.60000038147</ele>
        <time>2021-04-18T09:40:43.000Z</time>
      </trkpt>
      <trkpt lat="47.2933" lon="-2.25932">
        <ele>18.60000038147</ele>
        <time>2021-04-18T09:40:46.000Z</time>
      </trkpt>
      <trkpt lat="47.29334" lon="-2.25919">
        <ele>18.60000038147</ele>
        <time>2021-04-18T09:40:48.000Z</time>
      </trkpt>
      <trkpt lat="47.29341" lon="-2.259">
        <ele>18.60000038147</ele>
        <time>2021-04-18T09:40:52.000Z</time>
      </trkpt>
      <trkpt lat="47.29342" lon="-2.25897">
        <ele>18.200000762939</ele>
        <time>2021-04-18T09:40:53.000Z</time>
      </trkpt>
      <trkpt lat="47.29343" lon="-2.25895">
        <ele>17.799999237061</ele>
        <time>2021-04-18T09:40:54.000Z</time>
      </trkpt>
      <trkpt lat="47.29344" lon="-2.25893">
        <ele>17</ele>
        <time>2021-04-18T09:40:55.000Z</time>
      </trkpt>
      <trkpt lat="47.29344" lon="-2.25892">
        <ele>16.60000038147</ele>
        <time>2021-04-18T09:40:56.000Z</time>
      </trkpt>
      <trkpt lat="47.29344" lon="-2.25891">
        <ele>16.60000038147</ele>
        <time>2021-04-18T09:40:57.000Z</time>
      </trkpt>
      <trkpt lat="47.29343" lon="-2.25892">
        <ele>16.60000038147</ele>
        <time>2021-04-18T09:40:59.000Z</time>
      </trkpt>
      <trkpt lat="47.2934" lon="-2.25892">
        <ele>16.60000038147</ele>
        <time>2021-04-18T09:41:01.000Z</time>
      </trkpt>
      <trkpt lat="47.29337" lon="-2.25888">
        <ele>16.60000038147</ele>
        <time>2021-04-18T09:41:04.000Z</time>
      </trkpt>
      <trkpt lat="47.29334" lon="-2.25882">
        <ele>16.60000038147</ele>
        <time>2021-04-18T09:41:06.000Z</time>
      </trkpt>
      <trkpt lat="47.29331" lon="-2.25873">
        <ele>16.60000038147</ele>
        <time>2021-04-18T09:41:09.000Z</time>
      </trkpt>
      <trkpt lat="47.2933" lon="-2.25869">
        <ele>16.60000038147</ele>
        <time>2021-04-18T09:41:11.000Z</time>
      </trkpt>
      <trkpt lat="47.29327" lon="-2.25866">
        <ele>17</ele>
        <time>2021-04-18T09:41:15.000Z</time>
      </trkpt>
      <trkpt lat="47.29325" lon="-2.25865">
        <ele>17.39999961853</ele>
        <time>2021-04-18T09:41:16.000Z</time>
      </trkpt>
      <trkpt lat="47.29324" lon="-2.25864">
        <ele>17.799999237061</ele>
        <time>2021-04-18T09:41:17.000Z</time>
      </trkpt>
      <trkpt lat="47.29323" lon="-2.25863">
        <ele>18.39999961853</ele>
        <time>2021-04-18T09:41:18.000Z</time>
      </trkpt>
      <trkpt lat="47.29322" lon="-2.25862">
        <ele>18.799999237061</ele>
        <time>2021-04-18T09:41:19.000Z</time>
      </trkpt>
      <trkpt lat="47.29322" lon="-2.25861">
        <ele>18.799999237061</ele>
        <time>2021-04-18T09:41:23.000Z</time>
      </trkpt>
      <trkpt lat="47.29326" lon="-2.25871">
        <ele>18.799999237061</ele>
        <time>2021-04-18T09:41:26.000Z</time>
      </trkpt>
      <trkpt lat="47.29333" lon="-2.25886">
        <ele>18.799999237061</ele>
        <time>2021-04-18T09:41:30.000Z</time>
      </trkpt>
      <trkpt lat="47.29336" lon="-2.25895">
        <ele>18.799999237061</ele>
        <time>2021-04-18T09:41:32.000Z</time>
      </trkpt>
      <trkpt lat="47.29335" lon="-2.25906">
        <ele>18.799999237061</ele>
        <time>2021-04-18T09:41:34.000Z</time>
      </trkpt>
      <trkpt lat="47.29332" lon="-2.25911">
        <ele>18.799999237061</ele>
        <time>2021-04-18T09:41:36.000Z</time>
      </trkpt>
      <trkpt lat="47.2933" lon="-2.25912">
        <ele>18.799999237061</ele>
        <time>2021-04-18T09:41:37.000Z</time>
      </trkpt>
      <trkpt lat="47.29315" lon="-2.25922">
        <ele>18.799999237061</ele>
        <time>2021-04-18T09:41:43.000Z</time>
      </trkpt>
      <trkpt lat="47.29286" lon="-2.2594">
        <ele>18.799999237061</ele>
        <time>2021-04-18T09:41:49.000Z</time>
      </trkpt>
      <trkpt lat="47.29268" lon="-2.25949">
        <ele>18.799999237061</ele>
        <time>2021-04-18T09:41:54.000Z</time>
      </trkpt>
      <trkpt lat="47.29247" lon="-2.25955">
        <ele>18.799999237061</ele>
        <time>2021-04-18T09:41:59.000Z</time>
      </trkpt>
      <trkpt lat="47.29218" lon="-2.25969">
        <ele>18.799999237061</ele>
        <time>2021-04-18T09:42:05.000Z</time>
      </trkpt>
      <trkpt lat="47.29186" lon="-2.25977">
        <ele>18.799999237061</ele>
        <time>2021-04-18T09:42:12.000Z</time>
      </trkpt>
      <trkpt lat="47.29157" lon="-2.25976">
        <ele>18.799999237061</ele>
        <time>2021-04-18T09:42:18.000Z</time>
      </trkpt>
      <trkpt lat="47.2914" lon="-2.25973">
        <ele>18.799999237061</ele>
        <time>2021-04-18T09:42:21.000Z</time>
      </trkpt>
      <trkpt lat="47.2913" lon="-2.25969">
        <ele>18.799999237061</ele>
        <time>2021-04-18T09:42:23.000Z</time>
      </trkpt>
      <trkpt lat="47.2911" lon="-2.25971">
        <ele>18.799999237061</ele>
        <time>2021-04-18T09:42:27.000Z</time>
      </trkpt>
      <trkpt lat="47.29106" lon="-2.25973">
        <ele>18.799999237061</ele>
        <time>2021-04-18T09:42:28.000Z</time>
      </trkpt>
      <trkpt lat="47.29103" lon="-2.25975">
        <ele>18.799999237061</ele>
        <time>2021-04-18T09:42:29.000Z</time>
      </trkpt>
      <trkpt lat="47.29094" lon="-2.25987">
        <ele>18.799999237061</ele>
        <time>2021-04-18T09:42:32.000Z</time>
      </trkpt>
      <trkpt lat="47.29087" lon="-2.26001">
        <ele>18.799999237061</ele>
        <time>2021-04-18T09:42:35.000Z</time>
      </trkpt>
      <trkpt lat="47.29083" lon="-2.26009">
        <ele>18.799999237061</ele>
        <time>2021-04-18T09:42:37.000Z</time>
      </trkpt>
      <trkpt lat="47.29086" lon="-2.26026">
        <ele>18.799999237061</ele>
        <time>2021-04-18T09:42:41.000Z</time>
      </trkpt>
      <trkpt lat="47.29088" lon="-2.26036">
        <ele>18.799999237061</ele>
        <time>2021-04-18T09:42:43.000Z</time>
      </trkpt>
      <trkpt lat="47.29089" lon="-2.26048">
        <ele>18.799999237061</ele>
        <time>2021-04-18T09:42:45.000Z</time>
      </trkpt>
      <trkpt lat="47.29091" lon="-2.26055">
        <ele>18.799999237061</ele>
        <time>2021-04-18T09:42:46.000Z</time>
      </trkpt>
      <trkpt lat="47.29096" lon="-2.26076">
        <ele>18.799999237061</ele>
        <time>2021-04-18T09:42:49.000Z</time>
      </trkpt>
      <trkpt lat="47.29099" lon="-2.26104">
        <ele>18.799999237061</ele>
        <time>2021-04-18T09:42:53.000Z</time>
      </trkpt>
      <trkpt lat="47.291" lon="-2.26117">
        <ele>18.799999237061</ele>
        <time>2021-04-18T09:42:55.000Z</time>
      </trkpt>
      <trkpt lat="47.29098" lon="-2.26139">
        <ele>19.60000038147</ele>
        <time>2021-04-18T09:42:58.000Z</time>
      </trkpt>
      <trkpt lat="47.29097" lon="-2.26146">
        <ele>20</ele>
        <time>2021-04-18T09:42:59.000Z</time>
      </trkpt>
      <trkpt lat="47.29096" lon="-2.26153">
        <ele>20.39999961853</ele>
        <time>2021-04-18T09:43:00.000Z</time>
      </trkpt>
      <trkpt lat="47.29096" lon="-2.26161">
        <ele>20.799999237061</ele>
        <time>2021-04-18T09:43:01.000Z</time>
      </trkpt>
      <trkpt lat="47.29095" lon="-2.26176">
        <ele>20.799999237061</ele>
        <time>2021-04-18T09:43:03.000Z</time>
      </trkpt>
      <trkpt lat="47.29092" lon="-2.26199">
        <ele>20.799999237061</ele>
        <time>2021-04-18T09:43:06.000Z</time>
      </trkpt>
      <trkpt lat="47.29089" lon="-2.26206">
        <ele>20.799999237061</ele>
        <time>2021-04-18T09:43:07.000Z</time>
      </trkpt>
      <trkpt lat="47.29084" lon="-2.26243">
        <ele>20.799999237061</ele>
        <time>2021-04-18T09:43:12.000Z</time>
      </trkpt>
      <trkpt lat="47.29074" lon="-2.26292">
        <ele>20.799999237061</ele>
        <time>2021-04-18T09:43:19.000Z</time>
      </trkpt>
      <trkpt lat="47.29071" lon="-2.26305">
        <ele>20.799999237061</ele>
        <time>2021-04-18T09:43:21.000Z</time>
      </trkpt>
      <trkpt lat="47.2907" lon="-2.26311">
        <ele>20.799999237061</ele>
        <time>2021-04-18T09:43:22.000Z</time>
      </trkpt>
      <trkpt lat="47.2906" lon="-2.26333">
        <ele>20.799999237061</ele>
        <time>2021-04-18T09:43:26.000Z</time>
      </trkpt>
      <trkpt lat="47.2905" lon="-2.26342">
        <ele>20.799999237061</ele>
        <time>2021-04-18T09:43:29.000Z</time>
      </trkpt>
      <trkpt lat="47.29043" lon="-2.26347">
        <ele>20.799999237061</ele>
        <time>2021-04-18T09:43:31.000Z</time>
      </trkpt>
      <trkpt lat="47.29025" lon="-2.26367">
        <ele>20.799999237061</ele>
        <time>2021-04-18T09:43:37.000Z</time>
      </trkpt>
      <trkpt lat="47.29017" lon="-2.26379">
        <ele>21.200000762939</ele>
        <time>2021-04-18T09:43:41.000Z</time>
      </trkpt>
      <trkpt lat="47.29016" lon="-2.26383">
        <ele>21.60000038147</ele>
        <time>2021-04-18T09:43:42.000Z</time>
      </trkpt>
      <trkpt lat="47.29015" lon="-2.26386">
        <ele>22</ele>
        <time>2021-04-18T09:43:43.000Z</time>
      </trkpt>
      <trkpt lat="47.29014" lon="-2.2639">
        <ele>22.39999961853</ele>
        <time>2021-04-18T09:43:44.000Z</time>
      </trkpt>
      <trkpt lat="47.29014" lon="-2.26394">
        <ele>22.799999237061</ele>
        <time>2021-04-18T09:43:45.000Z</time>
      </trkpt>
      <trkpt lat="47.29014" lon="-2.26412">
        <ele>22.799999237061</ele>
        <time>2021-04-18T09:43:48.000Z</time>
      </trkpt>
      <trkpt lat="47.29017" lon="-2.26456">
        <ele>22.799999237061</ele>
        <time>2021-04-18T09:43:53.000Z</time>
      </trkpt>
      <trkpt lat="47.29021" lon="-2.26497">
        <ele>22.39999961853</ele>
        <time>2021-04-18T09:43:57.000Z</time>
      </trkpt>
      <trkpt lat="47.29022" lon="-2.26506">
        <ele>22</ele>
        <time>2021-04-18T09:43:58.000Z</time>
      </trkpt>
      <trkpt lat="47.29023" lon="-2.26514">
        <ele>21.60000038147</ele>
        <time>2021-04-18T09:43:59.000Z</time>
      </trkpt>
      <trkpt lat="47.29025" lon="-2.26523">
        <ele>21.200000762939</ele>
        <time>2021-04-18T09:44:00.000Z</time>
      </trkpt>
      <trkpt lat="47.29027" lon="-2.26531">
        <ele>20.799999237061</ele>
        <time>2021-04-18T09:44:01.000Z</time>
      </trkpt>
      <trkpt lat="47.29034" lon="-2.26562">
        <ele>20.799999237061</ele>
        <time>2021-04-18T09:44:05.000Z</time>
      </trkpt>
      <trkpt lat="47.29039" lon="-2.2659">
        <ele>20.39999961853</ele>
        <time>2021-04-18T09:44:10.000Z</time>
      </trkpt>
      <trkpt lat="47.2904" lon="-2.26596">
        <ele>19.39999961853</ele>
        <time>2021-04-18T09:44:11.000Z</time>
      </trkpt>
      <trkpt lat="47.2904" lon="-2.26601">
        <ele>19</ele>
        <time>2021-04-18T09:44:12.000Z</time>
      </trkpt>
      <trkpt lat="47.29041" lon="-2.26608">
        <ele>18.60000038147</ele>
        <time>2021-04-18T09:44:13.000Z</time>
      </trkpt>
      <trkpt lat="47.29042" lon="-2.26622">
        <ele>18.60000038147</ele>
        <time>2021-04-18T09:44:15.000Z</time>
      </trkpt>
      <trkpt lat="47.29046" lon="-2.26676">
        <ele>18.60000038147</ele>
        <time>2021-04-18T09:44:22.000Z</time>
      </trkpt>
      <trkpt lat="47.29053" lon="-2.26736">
        <ele>18.200000762939</ele>
        <time>2021-04-18T09:44:28.000Z</time>
      </trkpt>
      <trkpt lat="47.29055" lon="-2.26748">
        <ele>17.60000038147</ele>
        <time>2021-04-18T09:44:29.000Z</time>
      </trkpt>
      <trkpt lat="47.29057" lon="-2.2676">
        <ele>17.200000762939</ele>
        <time>2021-04-18T09:44:30.000Z</time>
      </trkpt>
      <trkpt lat="47.29059" lon="-2.26772">
        <ele>16.60000038147</ele>
        <time>2021-04-18T09:44:31.000Z</time>
      </trkpt>
      <trkpt lat="47.29061" lon="-2.26784">
        <ele>16</ele>
        <time>2021-04-18T09:44:32.000Z</time>
      </trkpt>
      <trkpt lat="47.29062" lon="-2.26797">
        <ele>15.60000038147</ele>
        <time>2021-04-18T09:44:33.000Z</time>
      </trkpt>
      <trkpt lat="47.29063" lon="-2.2681">
        <ele>15.199999809265</ele>
        <time>2021-04-18T09:44:34.000Z</time>
      </trkpt>
      <trkpt lat="47.29063" lon="-2.26822">
        <ele>14.800000190735</ele>
        <time>2021-04-18T09:44:35.000Z</time>
      </trkpt>
      <trkpt lat="47.29063" lon="-2.26835">
        <ele>14</ele>
        <time>2021-04-18T09:44:36.000Z</time>
      </trkpt>
      <trkpt lat="47.29062" lon="-2.26857">
        <ele>13.60000038147</ele>
        <time>2021-04-18T09:44:38.000Z</time>
      </trkpt>
      <trkpt lat="47.29061" lon="-2.26868">
        <ele>13.199999809265</ele>
        <time>2021-04-18T09:44:39.000Z</time>
      </trkpt>
      <trkpt lat="47.29061" lon="-2.26878">
        <ele>12.800000190735</ele>
        <time>2021-04-18T09:44:40.000Z</time>
      </trkpt>
      <trkpt lat="47.29061" lon="-2.26886">
        <ele>12.39999961853</ele>
        <time>2021-04-18T09:44:41.000Z</time>
      </trkpt>
      <trkpt lat="47.29061" lon="-2.26894">
        <ele>11.800000190735</ele>
        <time>2021-04-18T09:44:42.000Z</time>
      </trkpt>
      <trkpt lat="47.29062" lon="-2.26899">
        <ele>11.800000190735</ele>
        <time>2021-04-18T09:44:43.000Z</time>
      </trkpt>
      <trkpt lat="47.29069" lon="-2.26912">
        <ele>11.800000190735</ele>
        <time>2021-04-18T09:44:47.000Z</time>
      </trkpt>
      <trkpt lat="47.29072" lon="-2.26917">
        <ele>11.800000190735</ele>
        <time>2021-04-18T09:44:48.000Z</time>
      </trkpt>
      <trkpt lat="47.29076" lon="-2.26925">
        <ele>11.800000190735</ele>
        <time>2021-04-18T09:44:51.000Z</time>
      </trkpt>
      <trkpt lat="47.29077" lon="-2.26927">
        <ele>11.800000190735</ele>
        <time>2021-04-18T09:44:52.000Z</time>
      </trkpt>
      <trkpt lat="47.29075" lon="-2.26936">
        <ele>11.800000190735</ele>
        <time>2021-04-18T09:44:55.000Z</time>
      </trkpt>
      <trkpt lat="47.29076" lon="-2.2694">
        <ele>11.800000190735</ele>
        <time>2021-04-18T09:44:56.000Z</time>
      </trkpt>
      <trkpt lat="47.29075" lon="-2.26948">
        <ele>11.800000190735</ele>
        <time>2021-04-18T09:44:59.000Z</time>
      </trkpt>
      <trkpt lat="47.29074" lon="-2.26967">
        <ele>11.800000190735</ele>
        <time>2021-04-18T09:45:03.000Z</time>
      </trkpt>
      <trkpt lat="47.29073" lon="-2.26992">
        <ele>11.800000190735</ele>
        <time>2021-04-18T09:45:08.000Z</time>
      </trkpt>
      <trkpt lat="47.29071" lon="-2.27001">
        <ele>11.800000190735</ele>
        <time>2021-04-18T09:45:10.000Z</time>
      </trkpt>
      <trkpt lat="47.29071" lon="-2.27014">
        <ele>11.800000190735</ele>
        <time>2021-04-18T09:45:13.000Z</time>
      </trkpt>
      <trkpt lat="47.2907" lon="-2.27029">
        <ele>11.800000190735</ele>
        <time>2021-04-18T09:45:18.000Z</time>
      </trkpt>
      <trkpt lat="47.29066" lon="-2.27055">
        <ele>11.800000190735</ele>
        <time>2021-04-18T09:45:24.000Z</time>
      </trkpt>
      <trkpt lat="47.29067" lon="-2.27072">
        <ele>11.800000190735</ele>
        <time>2021-04-18T09:45:28.000Z</time>
      </trkpt>
      <trkpt lat="47.29065" lon="-2.27092">
        <ele>11.800000190735</ele>
        <time>2021-04-18T09:45:31.000Z</time>
      </trkpt>
      <trkpt lat="47.29065" lon="-2.27104">
        <ele>11.800000190735</ele>
        <time>2021-04-18T09:45:33.000Z</time>
      </trkpt>
      <trkpt lat="47.29063" lon="-2.27137">
        <ele>11.800000190735</ele>
        <time>2021-04-18T09:45:38.000Z</time>
      </trkpt>
      <trkpt lat="47.29062" lon="-2.2716">
        <ele>11.800000190735</ele>
        <time>2021-04-18T09:45:43.000Z</time>
      </trkpt>
      <trkpt lat="47.29067" lon="-2.27172">
        <ele>11.800000190735</ele>
        <time>2021-04-18T09:45:47.000Z</time>
      </trkpt>
      <trkpt lat="47.29069" lon="-2.27183">
        <ele>11.800000190735</ele>
        <time>2021-04-18T09:45:50.000Z</time>
      </trkpt>
      <trkpt lat="47.29072" lon="-2.27187">
        <ele>11.800000190735</ele>
        <time>2021-04-18T09:45:51.000Z</time>
      </trkpt>
      <trkpt lat="47.2908" lon="-2.27194">
        <ele>11.800000190735</ele>
        <time>2021-04-18T09:45:53.000Z</time>
      </trkpt>
      <trkpt lat="47.29093" lon="-2.27197">
        <ele>11.800000190735</ele>
        <time>2021-04-18T09:45:57.000Z</time>
      </trkpt>
      <trkpt lat="47.29098" lon="-2.27197">
        <ele>11.800000190735</ele>
        <time>2021-04-18T09:45:59.000Z</time>
      </trkpt>
      <trkpt lat="47.29102" lon="-2.27198">
        <ele>11.39999961853</ele>
        <time>2021-04-18T09:46:01.000Z</time>
      </trkpt>
      <trkpt lat="47.29103" lon="-2.27197">
        <ele>11</ele>
        <time>2021-04-18T09:46:02.000Z</time>
      </trkpt>
      <trkpt lat="47.29104" lon="-2.27197">
        <ele>10.60000038147</ele>
        <time>2021-04-18T09:46:03.000Z</time>
      </trkpt>
      <trkpt lat="47.29106" lon="-2.27198">
        <ele>10.199999809265</ele>
        <time>2021-04-18T09:46:04.000Z</time>
      </trkpt>
      <trkpt lat="47.29108" lon="-2.27198">
        <ele>9.8000001907349</ele>
        <time>2021-04-18T09:46:05.000Z</time>
      </trkpt>
      <trkpt lat="47.29113" lon="-2.27201">
        <ele>9.8000001907349</ele>
        <time>2021-04-18T09:46:08.000Z</time>
      </trkpt>
      <trkpt lat="47.29114" lon="-2.27202">
        <ele>9.8000001907349</ele>
        <time>2021-04-18T09:46:09.000Z</time>
      </trkpt>
      <trkpt lat="47.29117" lon="-2.27208">
        <ele>9.8000001907349</ele>
        <time>2021-04-18T09:46:13.000Z</time>
      </trkpt>
      <trkpt lat="47.29116" lon="-2.27214">
        <ele>9.8000001907349</ele>
        <time>2021-04-18T09:46:15.000Z</time>
      </trkpt>
      <trkpt lat="47.29114" lon="-2.27219">
        <ele>9.8000001907349</ele>
        <time>2021-04-18T09:46:17.000Z</time>
      </trkpt>
      <trkpt lat="47.29111" lon="-2.27229">
        <ele>9.8000001907349</ele>
        <time>2021-04-18T09:46:20.000Z</time>
      </trkpt>
      <trkpt lat="47.29111" lon="-2.27233">
        <ele>9.8000001907349</ele>
        <time>2021-04-18T09:46:21.000Z</time>
      </trkpt>
      <trkpt lat="47.29109" lon="-2.27246">
        <ele>9.8000001907349</ele>
        <time>2021-04-18T09:46:24.000Z</time>
      </trkpt>
      <trkpt lat="47.29106" lon="-2.27268">
        <ele>9.8000001907349</ele>
        <time>2021-04-18T09:46:29.000Z</time>
      </trkpt>
      <trkpt lat="47.29103" lon="-2.27286">
        <ele>9.8000001907349</ele>
        <time>2021-04-18T09:46:34.000Z</time>
      </trkpt>
      <trkpt lat="47.29095" lon="-2.27308">
        <ele>9.8000001907349</ele>
        <time>2021-04-18T09:46:39.000Z</time>
      </trkpt>
      <trkpt lat="47.29091" lon="-2.27331">
        <ele>9.8000001907349</ele>
        <time>2021-04-18T09:46:44.000Z</time>
      </trkpt>
      <trkpt lat="47.29091" lon="-2.27344">
        <ele>9.8000001907349</ele>
        <time>2021-04-18T09:46:47.000Z</time>
      </trkpt>
      <trkpt lat="47.29092" lon="-2.27346">
        <ele>9.8000001907349</ele>
        <time>2021-04-18T09:46:48.000Z</time>
      </trkpt>
      <trkpt lat="47.29097" lon="-2.27359">
        <ele>9.8000001907349</ele>
        <time>2021-04-18T09:46:52.000Z</time>
      </trkpt>
      <trkpt lat="47.29098" lon="-2.27369">
        <ele>9.8000001907349</ele>
        <time>2021-04-18T09:46:54.000Z</time>
      </trkpt>
      <trkpt lat="47.291" lon="-2.27384">
        <ele>9.8000001907349</ele>
        <time>2021-04-18T09:46:57.000Z</time>
      </trkpt>
      <trkpt lat="47.29104" lon="-2.27413">
        <ele>9.8000001907349</ele>
        <time>2021-04-18T09:47:02.000Z</time>
      </trkpt>
      <trkpt lat="47.29104" lon="-2.27425">
        <ele>10.199999809265</ele>
        <time>2021-04-18T09:47:04.000Z</time>
      </trkpt>
      <trkpt lat="47.29103" lon="-2.27431">
        <ele>10.60000038147</ele>
        <time>2021-04-18T09:47:05.000Z</time>
      </trkpt>
      <trkpt lat="47.29102" lon="-2.27437">
        <ele>11</ele>
        <time>2021-04-18T09:47:06.000Z</time>
      </trkpt>
      <trkpt lat="47.29102" lon="-2.27443">
        <ele>11.39999961853</ele>
        <time>2021-04-18T09:47:07.000Z</time>
      </trkpt>
      <trkpt lat="47.29102" lon="-2.27449">
        <ele>11.800000190735</ele>
        <time>2021-04-18T09:47:08.000Z</time>
      </trkpt>
      <trkpt lat="47.29101" lon="-2.27483">
        <ele>11.800000190735</ele>
        <time>2021-04-18T09:47:13.000Z</time>
      </trkpt>
      <trkpt lat="47.29103" lon="-2.27513">
        <ele>11.800000190735</ele>
        <time>2021-04-18T09:47:18.000Z</time>
      </trkpt>
      <trkpt lat="47.29104" lon="-2.27514">
        <ele>11.800000190735</ele>
        <time>2021-04-18T09:47:19.000Z</time>
      </trkpt>
      <trkpt lat="47.29111" lon="-2.27527">
        <ele>11.800000190735</ele>
        <time>2021-04-18T09:47:49.000Z</time>
      </trkpt>
      <trkpt lat="47.2911" lon="-2.27529">
        <ele>11.800000190735</ele>
        <time>2021-04-18T09:47:50.000Z</time>
      </trkpt>
      <trkpt lat="47.29101" lon="-2.27533">
        <ele>11.800000190735</ele>
        <time>2021-04-18T09:47:54.000Z</time>
      </trkpt>
      <trkpt lat="47.29094" lon="-2.27532">
        <ele>11.800000190735</ele>
        <time>2021-04-18T09:47:56.000Z</time>
      </trkpt>
      <trkpt lat="47.29083" lon="-2.27532">
        <ele>11.800000190735</ele>
        <time>2021-04-18T09:47:59.000Z</time>
      </trkpt>
      <trkpt lat="47.2905" lon="-2.27527">
        <ele>11.800000190735</ele>
        <time>2021-04-18T09:48:05.000Z</time>
      </trkpt>
      <trkpt lat="47.29012" lon="-2.27525">
        <ele>11.800000190735</ele>
        <time>2021-04-18T09:48:11.000Z</time>
      </trkpt>
      <trkpt lat="47.28963" lon="-2.27525">
        <ele>11.800000190735</ele>
        <time>2021-04-18T09:48:19.000Z</time>
      </trkpt>
      <trkpt lat="47.28924" lon="-2.27525">
        <ele>11.800000190735</ele>
        <time>2021-04-18T09:48:25.000Z</time>
      </trkpt>
      <trkpt lat="47.28912" lon="-2.27525">
        <ele>11.800000190735</ele>
        <time>2021-04-18T09:48:27.000Z</time>
      </trkpt>
      <trkpt lat="47.28897" lon="-2.2753">
        <ele>11.800000190735</ele>
        <time>2021-04-18T09:48:30.000Z</time>
      </trkpt>
      <trkpt lat="47.28859" lon="-2.27536">
        <ele>11.800000190735</ele>
        <time>2021-04-18T09:48:36.000Z</time>
      </trkpt>
      <trkpt lat="47.28831" lon="-2.27541">
        <ele>11.800000190735</ele>
        <time>2021-04-18T09:48:41.000Z</time>
      </trkpt>
      <trkpt lat="47.28815" lon="-2.27547">
        <ele>11.800000190735</ele>
        <time>2021-04-18T09:48:44.000Z</time>
      </trkpt>
      <trkpt lat="47.28799" lon="-2.27559">
        <ele>11.800000190735</ele>
        <time>2021-04-18T09:48:47.000Z</time>
      </trkpt>
      <trkpt lat="47.28794" lon="-2.27564">
        <ele>11.800000190735</ele>
        <time>2021-04-18T09:48:48.000Z</time>
      </trkpt>
      <trkpt lat="47.28777" lon="-2.27583">
        <ele>12.199999809265</ele>
        <time>2021-04-18T09:48:52.000Z</time>
      </trkpt>
      <trkpt lat="47.28772" lon="-2.27588">
        <ele>12.60000038147</ele>
        <time>2021-04-18T09:48:53.000Z</time>
      </trkpt>
      <trkpt lat="47.28768" lon="-2.27593">
        <ele>13</ele>
        <time>2021-04-18T09:48:54.000Z</time>
      </trkpt>
      <trkpt lat="47.28764" lon="-2.27597">
        <ele>13.39999961853</ele>
        <time>2021-04-18T09:48:55.000Z</time>
      </trkpt>
      <trkpt lat="47.2876" lon="-2.27602">
        <ele>13.800000190735</ele>
        <time>2021-04-18T09:48:56.000Z</time>
      </trkpt>
      <trkpt lat="47.28736" lon="-2.27637">
        <ele>13.800000190735</ele>
        <time>2021-04-18T09:49:02.000Z</time>
      </trkpt>
      <trkpt lat="47.2871" lon="-2.27682">
        <ele>13.800000190735</ele>
        <time>2021-04-18T09:49:09.000Z</time>
      </trkpt>
      <trkpt lat="47.28685" lon="-2.27719">
        <ele>13.800000190735</ele>
        <time>2021-04-18T09:49:14.000Z</time>
      </trkpt>
      <trkpt lat="47.28676" lon="-2.27732">
        <ele>13.800000190735</ele>
        <time>2021-04-18T09:49:16.000Z</time>
      </trkpt>
      <trkpt lat="47.28665" lon="-2.27752">
        <ele>13.800000190735</ele>
        <time>2021-04-18T09:49:19.000Z</time>
      </trkpt>
      <trkpt lat="47.28659" lon="-2.27768">
        <ele>13.800000190735</ele>
        <time>2021-04-18T09:49:21.000Z</time>
      </trkpt>
      <trkpt lat="47.28646" lon="-2.27817">
        <ele>13.800000190735</ele>
        <time>2021-04-18T09:49:27.000Z</time>
      </trkpt>
      <trkpt lat="47.28639" lon="-2.2786">
        <ele>13.800000190735</ele>
        <time>2021-04-18T09:49:33.000Z</time>
      </trkpt>
      <trkpt lat="47.28634" lon="-2.27892">
        <ele>14.39999961853</ele>
        <time>2021-04-18T09:49:37.000Z</time>
      </trkpt>
      <trkpt lat="47.28633" lon="-2.27901">
        <ele>14.800000190735</ele>
        <time>2021-04-18T09:49:38.000Z</time>
      </trkpt>
      <trkpt lat="47.28631" lon="-2.27908">
        <ele>15.199999809265</ele>
        <time>2021-04-18T09:49:39.000Z</time>
      </trkpt>
      <trkpt lat="47.2863" lon="-2.27916">
        <ele>15.60000038147</ele>
        <time>2021-04-18T09:49:40.000Z</time>
      </trkpt>
      <trkpt lat="47.28629" lon="-2.27924">
        <ele>16</ele>
        <time>2021-04-18T09:49:41.000Z</time>
      </trkpt>
      <trkpt lat="47.28623" lon="-2.27943">
        <ele>16</ele>
        <time>2021-04-18T09:49:44.000Z</time>
      </trkpt>
      <trkpt lat="47.28619" lon="-2.27949">
        <ele>16</ele>
        <time>2021-04-18T09:49:45.000Z</time>
      </trkpt>
      <trkpt lat="47.28605" lon="-2.27982">
        <ele>16</ele>
        <time>2021-04-18T09:49:50.000Z</time>
      </trkpt>
      <trkpt lat="47.28601" lon="-2.27995">
        <ele>16</ele>
        <time>2021-04-18T09:49:52.000Z</time>
      </trkpt>
      <trkpt lat="47.28598" lon="-2.28008">
        <ele>16</ele>
        <time>2021-04-18T09:49:54.000Z</time>
      </trkpt>
      <trkpt lat="47.28593" lon="-2.28018">
        <ele>16</ele>
        <time>2021-04-18T09:49:56.000Z</time>
      </trkpt>
      <trkpt lat="47.28577" lon="-2.28036">
        <ele>16</ele>
        <time>2021-04-18T09:50:01.000Z</time>
      </trkpt>
      <trkpt lat="47.2857" lon="-2.28042">
        <ele>16</ele>
        <time>2021-04-18T09:50:04.000Z</time>
      </trkpt>
      <trkpt lat="47.28567" lon="-2.28043">
        <ele>16</ele>
        <time>2021-04-18T09:50:05.000Z</time>
      </trkpt>
      <trkpt lat="47.28557" lon="-2.28048">
        <ele>16</ele>
        <time>2021-04-18T09:50:09.000Z</time>
      </trkpt>
      <trkpt lat="47.28549" lon="-2.28046">
        <ele>16</ele>
        <time>2021-04-18T09:50:13.000Z</time>
      </trkpt>
      <trkpt lat="47.28544" lon="-2.28048">
        <ele>16.39999961853</ele>
        <time>2021-04-18T09:50:15.000Z</time>
      </trkpt>
      <trkpt lat="47.28542" lon="-2.28048">
        <ele>16.799999237061</ele>
        <time>2021-04-18T09:50:16.000Z</time>
      </trkpt>
      <trkpt lat="47.28539" lon="-2.28048">
        <ele>17.39999961853</ele>
        <time>2021-04-18T09:50:17.000Z</time>
      </trkpt>
      <trkpt lat="47.28536" lon="-2.28048">
        <ele>17.799999237061</ele>
        <time>2021-04-18T09:50:18.000Z</time>
      </trkpt>
      <trkpt lat="47.28534" lon="-2.28048">
        <ele>18.200000762939</ele>
        <time>2021-04-18T09:50:19.000Z</time>
      </trkpt>
      <trkpt lat="47.2853" lon="-2.2805">
        <ele>18.60000038147</ele>
        <time>2021-04-18T09:50:21.000Z</time>
      </trkpt>
      <trkpt lat="47.28529" lon="-2.28049">
        <ele>19.200000762939</ele>
        <time>2021-04-18T09:50:22.000Z</time>
      </trkpt>
      <trkpt lat="47.28527" lon="-2.28049">
        <ele>19.60000038147</ele>
        <time>2021-04-18T09:50:23.000Z</time>
      </trkpt>
      <trkpt lat="47.28525" lon="-2.28048">
        <ele>20.200000762939</ele>
        <time>2021-04-18T09:50:24.000Z</time>
      </trkpt>
      <trkpt lat="47.28523" lon="-2.28047">
        <ele>20.60000038147</ele>
        <time>2021-04-18T09:50:25.000Z</time>
      </trkpt>
      <trkpt lat="47.28521" lon="-2.28046">
        <ele>20.60000038147</ele>
        <time>2021-04-18T09:50:26.000Z</time>
      </trkpt>
      <trkpt lat="47.28518" lon="-2.28042">
        <ele>21</ele>
        <time>2021-04-18T09:50:28.000Z</time>
      </trkpt>
      <trkpt lat="47.28516" lon="-2.2804">
        <ele>21.39999961853</ele>
        <time>2021-04-18T09:50:29.000Z</time>
      </trkpt>
      <trkpt lat="47.28514" lon="-2.28039">
        <ele>22</ele>
        <time>2021-04-18T09:50:30.000Z</time>
      </trkpt>
      <trkpt lat="47.28513" lon="-2.28038">
        <ele>22.39999961853</ele>
        <time>2021-04-18T09:50:31.000Z</time>
      </trkpt>
      <trkpt lat="47.28511" lon="-2.28037">
        <ele>22.799999237061</ele>
        <time>2021-04-18T09:50:32.000Z</time>
      </trkpt>
      <trkpt lat="47.28503" lon="-2.28037">
        <ele>22.799999237061</ele>
        <time>2021-04-18T09:50:35.000Z</time>
      </trkpt>
      <trkpt lat="47.2849" lon="-2.28043">
        <ele>22.799999237061</ele>
        <time>2021-04-18T09:50:41.000Z</time>
      </trkpt>
      <trkpt lat="47.28487" lon="-2.28047">
        <ele>22.799999237061</ele>
        <time>2021-04-18T09:50:43.000Z</time>
      </trkpt>
      <trkpt lat="47.28486" lon="-2.28055">
        <ele>22.799999237061</ele>
        <time>2021-04-18T09:50:45.000Z</time>
      </trkpt>
      <trkpt lat="47.2849" lon="-2.28065">
        <ele>22.799999237061</ele>
        <time>2021-04-18T09:50:48.000Z</time>
      </trkpt>
      <trkpt lat="47.28492" lon="-2.28069">
        <ele>22.799999237061</ele>
        <time>2021-04-18T09:50:49.000Z</time>
      </trkpt>
      <trkpt lat="47.28494" lon="-2.2808">
        <ele>22.799999237061</ele>
        <time>2021-04-18T09:50:52.000Z</time>
      </trkpt>
      <trkpt lat="47.28493" lon="-2.28084">
        <ele>22.799999237061</ele>
        <time>2021-04-18T09:50:53.000Z</time>
      </trkpt>
      <trkpt lat="47.28484" lon="-2.28095">
        <ele>22.799999237061</ele>
        <time>2021-04-18T09:50:57.000Z</time>
      </trkpt>
      <trkpt lat="47.28479" lon="-2.28098">
        <ele>22.39999961853</ele>
        <time>2021-04-18T09:50:59.000Z</time>
      </trkpt>
      <trkpt lat="47.28477" lon="-2.28097">
        <ele>22</ele>
        <time>2021-04-18T09:51:00.000Z</time>
      </trkpt>
      <trkpt lat="47.28475" lon="-2.28096">
        <ele>21.60000038147</ele>
        <time>2021-04-18T09:51:01.000Z</time>
      </trkpt>
      <trkpt lat="47.28473" lon="-2.28095">
        <ele>21.200000762939</ele>
        <time>2021-04-18T09:51:02.000Z</time>
      </trkpt>
      <trkpt lat="47.28473" lon="-2.28094">
        <ele>20.799999237061</ele>
        <time>2021-04-18T09:51:03.000Z</time>
      </trkpt>
      <trkpt lat="47.28468" lon="-2.28094">
        <ele>20.799999237061</ele>
        <time>2021-04-18T09:51:06.000Z</time>
      </trkpt>
      <trkpt lat="47.28457" lon="-2.28093">
        <ele>20.799999237061</ele>
        <time>2021-04-18T09:51:11.000Z</time>
      </trkpt>
      <trkpt lat="47.28455" lon="-2.28093">
        <ele>20.799999237061</ele>
        <time>2021-04-18T09:51:13.000Z</time>
      </trkpt>
      <trkpt lat="47.28447" lon="-2.28092">
        <ele>20.799999237061</ele>
        <time>2021-04-18T09:51:16.000Z</time>
      </trkpt>
      <trkpt lat="47.28442" lon="-2.28092">
        <ele>20.799999237061</ele>
        <time>2021-04-18T09:51:18.000Z</time>
      </trkpt>
      <trkpt lat="47.28429" lon="-2.28087">
        <ele>20.799999237061</ele>
        <time>2021-04-18T09:51:24.000Z</time>
      </trkpt>
      <trkpt lat="47.28416" lon="-2.28086">
        <ele>20.799999237061</ele>
        <time>2021-04-18T09:51:28.000Z</time>
      </trkpt>
      <trkpt lat="47.284" lon="-2.28084">
        <ele>20.799999237061</ele>
        <time>2021-04-18T09:51:34.000Z</time>
      </trkpt>
      <trkpt lat="47.28396" lon="-2.2808">
        <ele>20.799999237061</ele>
        <time>2021-04-18T09:51:37.000Z</time>
      </trkpt>
      <trkpt lat="47.28394" lon="-2.28071">
        <ele>20.799999237061</ele>
        <time>2021-04-18T09:51:40.000Z</time>
      </trkpt>
      <trkpt lat="47.28392" lon="-2.28068">
        <ele>20.799999237061</ele>
        <time>2021-04-18T09:51:41.000Z</time>
      </trkpt>
      <trkpt lat="47.28385" lon="-2.28063">
        <ele>20.799999237061</ele>
        <time>2021-04-18T09:51:46.000Z</time>
      </trkpt>
      <trkpt lat="47.28374" lon="-2.28071">
        <ele>20.799999237061</ele>
        <time>2021-04-18T09:51:50.000Z</time>
      </trkpt>
      <trkpt lat="47.28367" lon="-2.28081">
        <ele>20.799999237061</ele>
        <time>2021-04-18T09:51:53.000Z</time>
      </trkpt>
      <trkpt lat="47.28366" lon="-2.28094">
        <ele>20.799999237061</ele>
        <time>2021-04-18T09:51:55.000Z</time>
      </trkpt>
      <trkpt lat="47.28366" lon="-2.28112">
        <ele>20.799999237061</ele>
        <time>2021-04-18T09:51:58.000Z</time>
      </trkpt>
      <trkpt lat="47.28367" lon="-2.28126">
        <ele>20.799999237061</ele>
        <time>2021-04-18T09:52:00.000Z</time>
      </trkpt>
      <trkpt lat="47.28369" lon="-2.28152">
        <ele>20.799999237061</ele>
        <time>2021-04-18T09:52:05.000Z</time>
      </trkpt>
      <trkpt lat="47.28371" lon="-2.28172">
        <ele>21.200000762939</ele>
        <time>2021-04-18T09:52:09.000Z</time>
      </trkpt>
      <trkpt lat="47.28371" lon="-2.28177">
        <ele>21.60000038147</ele>
        <time>2021-04-18T09:52:10.000Z</time>
      </trkpt>
      <trkpt lat="47.28372" lon="-2.28182">
        <ele>22</ele>
        <time>2021-04-18T09:52:11.000Z</time>
      </trkpt>
      <trkpt lat="47.28372" lon="-2.28187">
        <ele>22.39999961853</ele>
        <time>2021-04-18T09:52:12.000Z</time>
      </trkpt>
      <trkpt lat="47.28372" lon="-2.28192">
        <ele>22.799999237061</ele>
        <time>2021-04-18T09:52:13.000Z</time>
      </trkpt>
      <trkpt lat="47.28372" lon="-2.28212">
        <ele>23.200000762939</ele>
        <time>2021-04-18T09:52:17.000Z</time>
      </trkpt>
      <trkpt lat="47.28373" lon="-2.28216">
        <ele>23.60000038147</ele>
        <time>2021-04-18T09:52:18.000Z</time>
      </trkpt>
      <trkpt lat="47.28373" lon="-2.2822">
        <ele>24</ele>
        <time>2021-04-18T09:52:19.000Z</time>
      </trkpt>
      <trkpt lat="47.28373" lon="-2.28224">
        <ele>24.60000038147</ele>
        <time>2021-04-18T09:52:20.000Z</time>
      </trkpt>
      <trkpt lat="47.28373" lon="-2.28229">
        <ele>25</ele>
        <time>2021-04-18T09:52:21.000Z</time>
      </trkpt>
      <trkpt lat="47.28373" lon="-2.28234">
        <ele>25</ele>
        <time>2021-04-18T09:52:22.000Z</time>
      </trkpt>
      <trkpt lat="47.28375" lon="-2.28256">
        <ele>25.39999961853</ele>
        <time>2021-04-18T09:52:26.000Z</time>
      </trkpt>
      <trkpt lat="47.28375" lon="-2.28262">
        <ele>25.799999237061</ele>
        <time>2021-04-18T09:52:27.000Z</time>
      </trkpt>
      <trkpt lat="47.28376" lon="-2.28268">
        <ele>26.200000762939</ele>
        <time>2021-04-18T09:52:28.000Z</time>
      </trkpt>
      <trkpt lat="47.28376" lon="-2.28273">
        <ele>26.60000038147</ele>
        <time>2021-04-18T09:52:29.000Z</time>
      </trkpt>
      <trkpt lat="47.28376" lon="-2.28278">
        <ele>27</ele>
        <time>2021-04-18T09:52:30.000Z</time>
      </trkpt>
      <trkpt lat="47.28375" lon="-2.28305">
        <ele>27</ele>
        <time>2021-04-18T09:52:35.000Z</time>
      </trkpt>
      <trkpt lat="47.28374" lon="-2.28357">
        <ele>27</ele>
        <time>2021-04-18T09:52:44.000Z</time>
      </trkpt>
      <trkpt lat="47.28374" lon="-2.28386">
        <ele>27.39999961853</ele>
        <time>2021-04-18T09:52:49.000Z</time>
      </trkpt>
      <trkpt lat="47.28375" lon="-2.28393">
        <ele>28.200000762939</ele>
        <time>2021-04-18T09:52:50.000Z</time>
      </trkpt>
      <trkpt lat="47.28375" lon="-2.28398">
        <ele>28.60000038147</ele>
        <time>2021-04-18T09:52:51.000Z</time>
      </trkpt>
      <trkpt lat="47.28375" lon="-2.28405">
        <ele>29</ele>
        <time>2021-04-18T09:52:52.000Z</time>
      </trkpt>
      <trkpt lat="47.28375" lon="-2.28429">
        <ele>29</ele>
        <time>2021-04-18T09:52:55.000Z</time>
      </trkpt>
      <trkpt lat="47.28378" lon="-2.28487">
        <ele>29</ele>
        <time>2021-04-18T09:53:02.000Z</time>
      </trkpt>
      <trkpt lat="47.28381" lon="-2.2856">
        <ele>29</ele>
        <time>2021-04-18T09:53:11.000Z</time>
      </trkpt>
      <trkpt lat="47.28382" lon="-2.28618">
        <ele>29</ele>
        <time>2021-04-18T09:53:18.000Z</time>
      </trkpt>
      <trkpt lat="47.28384" lon="-2.28683">
        <ele>29</ele>
        <time>2021-04-18T09:53:26.000Z</time>
      </trkpt>
      <trkpt lat="47.28386" lon="-2.28733">
        <ele>29</ele>
        <time>2021-04-18T09:53:32.000Z</time>
      </trkpt>
      <trkpt lat="47.28388" lon="-2.28795">
        <ele>29</ele>
        <time>2021-04-18T09:53:39.000Z</time>
      </trkpt>
      <trkpt lat="47.28392" lon="-2.28875">
        <ele>29</ele>
        <time>2021-04-18T09:53:47.000Z</time>
      </trkpt>
      <trkpt lat="47.28395" lon="-2.28947">
        <ele>29</ele>
        <time>2021-04-18T09:53:54.000Z</time>
      </trkpt>
      <trkpt lat="47.28396" lon="-2.28985">
        <ele>29</ele>
        <time>2021-04-18T09:53:59.000Z</time>
      </trkpt>
      <trkpt lat="47.28397" lon="-2.28988">
        <ele>29</ele>
        <time>2021-04-18T09:54:00.000Z</time>
      </trkpt>
      <trkpt lat="47.28402" lon="-2.28988">
        <ele>29</ele>
        <time>2021-04-18T09:54:02.000Z</time>
      </trkpt>
      <trkpt lat="47.28414" lon="-2.28992">
        <ele>28.200000762939</ele>
        <time>2021-04-18T09:54:05.000Z</time>
      </trkpt>
      <trkpt lat="47.28419" lon="-2.28992">
        <ele>27.60000038147</ele>
        <time>2021-04-18T09:54:06.000Z</time>
      </trkpt>
      <trkpt lat="47.28424" lon="-2.28991">
        <ele>27.200000762939</ele>
        <time>2021-04-18T09:54:07.000Z</time>
      </trkpt>
      <trkpt lat="47.28429" lon="-2.28992">
        <ele>26.799999237061</ele>
        <time>2021-04-18T09:54:08.000Z</time>
      </trkpt>
      <trkpt lat="47.28434" lon="-2.28994">
        <ele>26.799999237061</ele>
        <time>2021-04-18T09:54:09.000Z</time>
      </trkpt>
      <trkpt lat="47.2844" lon="-2.28996">
        <ele>26.799999237061</ele>
        <time>2021-04-18T09:54:10.000Z</time>
      </trkpt>
      <trkpt lat="47.28457" lon="-2.28996">
        <ele>26.39999961853</ele>
        <time>2021-04-18T09:54:13.000Z</time>
      </trkpt>
      <trkpt lat="47.28462" lon="-2.28997">
        <ele>25.799999237061</ele>
        <time>2021-04-18T09:54:14.000Z</time>
      </trkpt>
      <trkpt lat="47.28467" lon="-2.28999">
        <ele>25.39999961853</ele>
        <time>2021-04-18T09:54:15.000Z</time>
      </trkpt>
      <trkpt lat="47.28471" lon="-2.29">
        <ele>25</ele>
        <time>2021-04-18T09:54:16.000Z</time>
      </trkpt>
      <trkpt lat="47.28476" lon="-2.29003">
        <ele>24.60000038147</ele>
        <time>2021-04-18T09:54:17.000Z</time>
      </trkpt>
      <trkpt lat="47.28488" lon="-2.29006">
        <ele>24.60000038147</ele>
        <time>2021-04-18T09:54:20.000Z</time>
      </trkpt>
      <trkpt lat="47.28493" lon="-2.2901">
        <ele>24.60000038147</ele>
        <time>2021-04-18T09:54:21.000Z</time>
      </trkpt>
      <trkpt lat="47.28503" lon="-2.29017">
        <ele>24.60000038147</ele>
        <time>2021-04-18T09:54:23.000Z</time>
      </trkpt>
      <trkpt lat="47.28508" lon="-2.2902">
        <ele>24.60000038147</ele>
        <time>2021-04-18T09:54:24.000Z</time>
      </trkpt>
      <trkpt lat="47.28524" lon="-2.29023">
        <ele>24.60000038147</ele>
        <time>2021-04-18T09:54:27.000Z</time>
      </trkpt>
      <trkpt lat="47.28529" lon="-2.29024">
        <ele>24</ele>
        <time>2021-04-18T09:54:28.000Z</time>
      </trkpt>
      <trkpt lat="47.28534" lon="-2.29025">
        <ele>23</ele>
        <time>2021-04-18T09:54:29.000Z</time>
      </trkpt>
      <trkpt lat="47.28538" lon="-2.29026">
        <ele>22.60000038147</ele>
        <time>2021-04-18T09:54:30.000Z</time>
      </trkpt>
      <trkpt lat="47.28543" lon="-2.29028">
        <ele>22.200000762939</ele>
        <time>2021-04-18T09:54:31.000Z</time>
      </trkpt>
      <trkpt lat="47.28548" lon="-2.29029">
        <ele>22.200000762939</ele>
        <time>2021-04-18T09:54:32.000Z</time>
      </trkpt>
      <trkpt lat="47.28557" lon="-2.2903">
        <ele>22.200000762939</ele>
        <time>2021-04-18T09:54:34.000Z</time>
      </trkpt>
      <trkpt lat="47.2857" lon="-2.29032">
        <ele>22.200000762939</ele>
        <time>2021-04-18T09:54:37.000Z</time>
      </trkpt>
      <trkpt lat="47.28584" lon="-2.2905">
        <ele>22.200000762939</ele>
        <time>2021-04-18T09:54:41.000Z</time>
      </trkpt>
      <trkpt lat="47.28592" lon="-2.29072">
        <ele>22.200000762939</ele>
        <time>2021-04-18T09:54:44.000Z</time>
      </trkpt>
      <trkpt lat="47.28592" lon="-2.29086">
        <ele>22.200000762939</ele>
        <time>2021-04-18T09:54:46.000Z</time>
      </trkpt>
      <trkpt lat="47.28591" lon="-2.29099">
        <ele>21.799999237061</ele>
        <time>2021-04-18T09:54:48.000Z</time>
      </trkpt>
      <trkpt lat="47.2859" lon="-2.29103">
        <ele>21.39999961853</ele>
        <time>2021-04-18T09:54:49.000Z</time>
      </trkpt>
      <trkpt lat="47.28589" lon="-2.29108">
        <ele>20.799999237061</ele>
        <time>2021-04-18T09:54:50.000Z</time>
      </trkpt>
      <trkpt lat="47.28589" lon="-2.29112">
        <ele>20.39999961853</ele>
        <time>2021-04-18T09:54:51.000Z</time>
      </trkpt>
      <trkpt lat="47.28588" lon="-2.29115">
        <ele>20</ele>
        <time>2021-04-18T09:54:52.000Z</time>
      </trkpt>
      <trkpt lat="47.28585" lon="-2.29126">
        <ele>20</ele>
        <time>2021-04-18T09:54:55.000Z</time>
      </trkpt>
      <trkpt lat="47.28576" lon="-2.29147">
        <ele>20</ele>
        <time>2021-04-18T09:55:01.000Z</time>
      </trkpt>
      <trkpt lat="47.28563" lon="-2.29166">
        <ele>20</ele>
        <time>2021-04-18T09:55:06.000Z</time>
      </trkpt>
      <trkpt lat="47.28546" lon="-2.29182">
        <ele>20</ele>
        <time>2021-04-18T09:55:11.000Z</time>
      </trkpt>
      <trkpt lat="47.28539" lon="-2.29188">
        <ele>20</ele>
        <time>2021-04-18T09:55:13.000Z</time>
      </trkpt>
      <trkpt lat="47.28523" lon="-2.29208">
        <ele>20</ele>
        <time>2021-04-18T09:55:18.000Z</time>
      </trkpt>
      <trkpt lat="47.28521" lon="-2.29213">
        <ele>20</ele>
        <time>2021-04-18T09:55:19.000Z</time>
      </trkpt>
      <trkpt lat="47.28515" lon="-2.29232">
        <ele>20</ele>
        <time>2021-04-18T09:55:22.000Z</time>
      </trkpt>
      <trkpt lat="47.28513" lon="-2.29245">
        <ele>20</ele>
        <time>2021-04-18T09:55:24.000Z</time>
      </trkpt>
      <trkpt lat="47.28514" lon="-2.29259">
        <ele>20</ele>
        <time>2021-04-18T09:55:26.000Z</time>
      </trkpt>
      <trkpt lat="47.28516" lon="-2.29276">
        <ele>20</ele>
        <time>2021-04-18T09:55:29.000Z</time>
      </trkpt>
      <trkpt lat="47.28519" lon="-2.29291">
        <ele>20</ele>
        <time>2021-04-18T09:55:32.000Z</time>
      </trkpt>
      <trkpt lat="47.28518" lon="-2.29295">
        <ele>20</ele>
        <time>2021-04-18T09:55:33.000Z</time>
      </trkpt>
      <trkpt lat="47.2851" lon="-2.29298">
        <ele>20</ele>
        <time>2021-04-18T09:55:36.000Z</time>
      </trkpt>
      <trkpt lat="47.28506" lon="-2.29302">
        <ele>20</ele>
        <time>2021-04-18T09:55:38.000Z</time>
      </trkpt>
      <trkpt lat="47.28495" lon="-2.29314">
        <ele>20</ele>
        <time>2021-04-18T09:55:42.000Z</time>
      </trkpt>
      <trkpt lat="47.28475" lon="-2.29333">
        <ele>20</ele>
        <time>2021-04-18T09:55:48.000Z</time>
      </trkpt>
      <trkpt lat="47.28466" lon="-2.29338">
        <ele>20</ele>
        <time>2021-04-18T09:55:50.000Z</time>
      </trkpt>
      <trkpt lat="47.28457" lon="-2.29341">
        <ele>20.39999961853</ele>
        <time>2021-04-18T09:55:52.000Z</time>
      </trkpt>
      <trkpt lat="47.28452" lon="-2.29344">
        <ele>20.799999237061</ele>
        <time>2021-04-18T09:55:53.000Z</time>
      </trkpt>
      <trkpt lat="47.28447" lon="-2.29345">
        <ele>21.200000762939</ele>
        <time>2021-04-18T09:55:54.000Z</time>
      </trkpt>
      <trkpt lat="47.28443" lon="-2.29347">
        <ele>21.799999237061</ele>
        <time>2021-04-18T09:55:55.000Z</time>
      </trkpt>
      <trkpt lat="47.28438" lon="-2.29349">
        <ele>22.200000762939</ele>
        <time>2021-04-18T09:55:56.000Z</time>
      </trkpt>
      <trkpt lat="47.2842" lon="-2.29359">
        <ele>22.200000762939</ele>
        <time>2021-04-18T09:56:00.000Z</time>
      </trkpt>
      <trkpt lat="47.28416" lon="-2.29364">
        <ele>22.200000762939</ele>
        <time>2021-04-18T09:56:01.000Z</time>
      </trkpt>
      <trkpt lat="47.28413" lon="-2.29377">
        <ele>22.200000762939</ele>
        <time>2021-04-18T09:56:03.000Z</time>
      </trkpt>
      <trkpt lat="47.28413" lon="-2.29396">
        <ele>22.200000762939</ele>
        <time>2021-04-18T09:56:06.000Z</time>
      </trkpt>
      <trkpt lat="47.28414" lon="-2.29403">
        <ele>22.60000038147</ele>
        <time>2021-04-18T09:56:07.000Z</time>
      </trkpt>
      <trkpt lat="47.28415" lon="-2.2941">
        <ele>23</ele>
        <time>2021-04-18T09:56:08.000Z</time>
      </trkpt>
      <trkpt lat="47.28416" lon="-2.29418">
        <ele>23.39999961853</ele>
        <time>2021-04-18T09:56:09.000Z</time>
      </trkpt>
      <trkpt lat="47.28417" lon="-2.29425">
        <ele>23.799999237061</ele>
        <time>2021-04-18T09:56:10.000Z</time>
      </trkpt>
      <trkpt lat="47.28418" lon="-2.29433">
        <ele>24.200000762939</ele>
        <time>2021-04-18T09:56:11.000Z</time>
      </trkpt>
      <trkpt lat="47.28419" lon="-2.29449">
        <ele>24.200000762939</ele>
        <time>2021-04-18T09:56:13.000Z</time>
      </trkpt>
      <trkpt lat="47.28422" lon="-2.29502">
        <ele>24.200000762939</ele>
        <time>2021-04-18T09:56:20.000Z</time>
      </trkpt>
      <trkpt lat="47.28431" lon="-2.29503">
        <ele>23.799999237061</ele>
        <time>2021-04-18T09:56:22.000Z</time>
      </trkpt>
      <trkpt lat="47.28435" lon="-2.29503">
        <ele>23.39999961853</ele>
        <time>2021-04-18T09:56:23.000Z</time>
      </trkpt>
      <trkpt lat="47.2844" lon="-2.29504">
        <ele>23</ele>
        <time>2021-04-18T09:56:24.000Z</time>
      </trkpt>
      <trkpt lat="47.28444" lon="-2.29504">
        <ele>22.60000038147</ele>
        <time>2021-04-18T09:56:25.000Z</time>
      </trkpt>
      <trkpt lat="47.28448" lon="-2.29504">
        <ele>22</ele>
        <time>2021-04-18T09:56:26.000Z</time>
      </trkpt>
      <trkpt lat="47.28453" lon="-2.29504">
        <ele>22</ele>
        <time>2021-04-18T09:56:27.000Z</time>
      </trkpt>
      <trkpt lat="47.28458" lon="-2.29503">
        <ele>22</ele>
        <time>2021-04-18T09:56:28.000Z</time>
      </trkpt>
      <trkpt lat="47.28478" lon="-2.29503">
        <ele>22</ele>
        <time>2021-04-18T09:56:32.000Z</time>
      </trkpt>
      <trkpt lat="47.28486" lon="-2.29503">
        <ele>22</ele>
        <time>2021-04-18T09:56:34.000Z</time>
      </trkpt>
      <trkpt lat="47.285" lon="-2.29502">
        <ele>22</ele>
        <time>2021-04-18T09:56:37.000Z</time>
      </trkpt>
      <trkpt lat="47.2851" lon="-2.295">
        <ele>22</ele>
        <time>2021-04-18T09:56:39.000Z</time>
      </trkpt>
      <trkpt lat="47.28525" lon="-2.29498">
        <ele>22</ele>
        <time>2021-04-18T09:56:42.000Z</time>
      </trkpt>
      <trkpt lat="47.28537" lon="-2.29485">
        <ele>22</ele>
        <time>2021-04-18T09:56:45.000Z</time>
      </trkpt>
      <trkpt lat="47.28548" lon="-2.29478">
        <ele>22</ele>
        <time>2021-04-18T09:56:48.000Z</time>
      </trkpt>
      <trkpt lat="47.28556" lon="-2.29475">
        <ele>22</ele>
        <time>2021-04-18T09:56:50.000Z</time>
      </trkpt>
      <trkpt lat="47.28577" lon="-2.29475">
        <ele>22</ele>
        <time>2021-04-18T09:56:55.000Z</time>
      </trkpt>
      <trkpt lat="47.28586" lon="-2.29499">
        <ele>22</ele>
        <time>2021-04-18T09:56:59.000Z</time>
      </trkpt>
      <trkpt lat="47.28591" lon="-2.29522">
        <ele>22</ele>
        <time>2021-04-18T09:57:02.000Z</time>
      </trkpt>
      <trkpt lat="47.28593" lon="-2.29537">
        <ele>22</ele>
        <time>2021-04-18T09:57:04.000Z</time>
      </trkpt>
      <trkpt lat="47.28594" lon="-2.29545">
        <ele>22</ele>
        <time>2021-04-18T09:57:05.000Z</time>
      </trkpt>
      <trkpt lat="47.28595" lon="-2.29561">
        <ele>22</ele>
        <time>2021-04-18T09:57:07.000Z</time>
      </trkpt>
      <trkpt lat="47.28594" lon="-2.29594">
        <ele>22</ele>
        <time>2021-04-18T09:57:11.000Z</time>
      </trkpt>
      <trkpt lat="47.28593" lon="-2.29609">
        <ele>22</ele>
        <time>2021-04-18T09:57:13.000Z</time>
      </trkpt>
      <trkpt lat="47.28596" lon="-2.29632">
        <ele>22</ele>
        <time>2021-04-18T09:57:16.000Z</time>
      </trkpt>
      <trkpt lat="47.28597" lon="-2.29641">
        <ele>22</ele>
        <time>2021-04-18T09:57:17.000Z</time>
      </trkpt>
      <trkpt lat="47.28601" lon="-2.29664">
        <ele>22</ele>
        <time>2021-04-18T09:57:20.000Z</time>
      </trkpt>
      <trkpt lat="47.28602" lon="-2.29672">
        <ele>21.200000762939</ele>
        <time>2021-04-18T09:57:21.000Z</time>
      </trkpt>
      <trkpt lat="47.28605" lon="-2.29678">
        <ele>20.799999237061</ele>
        <time>2021-04-18T09:57:22.000Z</time>
      </trkpt>
      <trkpt lat="47.28607" lon="-2.29684">
        <ele>20.39999961853</ele>
        <time>2021-04-18T09:57:23.000Z</time>
      </trkpt>
      <trkpt lat="47.28609" lon="-2.29691">
        <ele>19.799999237061</ele>
        <time>2021-04-18T09:57:24.000Z</time>
      </trkpt>
      <trkpt lat="47.28621" lon="-2.2972">
        <ele>19.799999237061</ele>
        <time>2021-04-18T09:57:29.000Z</time>
      </trkpt>
      <trkpt lat="47.28623" lon="-2.29726">
        <ele>19.799999237061</ele>
        <time>2021-04-18T09:57:30.000Z</time>
      </trkpt>
      <trkpt lat="47.28629" lon="-2.29743">
        <ele>19.799999237061</ele>
        <time>2021-04-18T09:57:33.000Z</time>
      </trkpt>
      <trkpt lat="47.28633" lon="-2.29755">
        <ele>19.799999237061</ele>
        <time>2021-04-18T09:57:35.000Z</time>
      </trkpt>
      <trkpt lat="47.28646" lon="-2.29797">
        <ele>19.799999237061</ele>
        <time>2021-04-18T09:57:42.000Z</time>
      </trkpt>
      <trkpt lat="47.28646" lon="-2.29803">
        <ele>19.799999237061</ele>
        <time>2021-04-18T09:57:43.000Z</time>
      </trkpt>
      <trkpt lat="47.28646" lon="-2.2983">
        <ele>19.799999237061</ele>
        <time>2021-04-18T09:57:47.000Z</time>
      </trkpt>
      <trkpt lat="47.28648" lon="-2.29875">
        <ele>19.39999961853</ele>
        <time>2021-04-18T09:57:54.000Z</time>
      </trkpt>
      <trkpt lat="47.2865" lon="-2.2988">
        <ele>19</ele>
        <time>2021-04-18T09:57:55.000Z</time>
      </trkpt>
      <trkpt lat="47.28651" lon="-2.29884">
        <ele>18.60000038147</ele>
        <time>2021-04-18T09:57:56.000Z</time>
      </trkpt>
      <trkpt lat="47.28652" lon="-2.29888">
        <ele>18.200000762939</ele>
        <time>2021-04-18T09:57:57.000Z</time>
      </trkpt>
      <trkpt lat="47.28653" lon="-2.29891">
        <ele>17.799999237061</ele>
        <time>2021-04-18T09:57:58.000Z</time>
      </trkpt>
      <trkpt lat="47.28654" lon="-2.29893">
        <ele>17.799999237061</ele>
        <time>2021-04-18T09:57:59.000Z</time>
      </trkpt>
      <trkpt lat="47.28654" lon="-2.2991">
        <ele>17.799999237061</ele>
        <time>2021-04-18T09:58:05.000Z</time>
      </trkpt>
      <trkpt lat="47.28648" lon="-2.29905">
        <ele>17.799999237061</ele>
        <time>2021-04-18T09:58:08.000Z</time>
      </trkpt>
      <trkpt lat="47.2865" lon="-2.29895">
        <ele>17.799999237061</ele>
        <time>2021-04-18T09:58:12.000Z</time>
      </trkpt>
      <trkpt lat="47.28648" lon="-2.29882">
        <ele>17.799999237061</ele>
        <time>2021-04-18T09:58:18.000Z</time>
      </trkpt>
      <trkpt lat="47.28647" lon="-2.2988">
        <ele>17.799999237061</ele>
        <time>2021-04-18T09:58:19.000Z</time>
      </trkpt>
      <trkpt lat="47.28646" lon="-2.29877">
        <ele>17.799999237061</ele>
        <time>2021-04-18T09:58:20.000Z</time>
      </trkpt>
      <trkpt lat="47.28644" lon="-2.29869">
        <ele>17.799999237061</ele>
        <time>2021-04-18T09:58:24.000Z</time>
      </trkpt>
      <trkpt lat="47.2864" lon="-2.29851">
        <ele>17.799999237061</ele>
        <time>2021-04-18T09:58:31.000Z</time>
      </trkpt>
      <trkpt lat="47.28644" lon="-2.29835">
        <ele>17.799999237061</ele>
        <time>2021-04-18T09:58:38.000Z</time>
      </trkpt>
      <trkpt lat="47.28645" lon="-2.29812">
        <ele>17.799999237061</ele>
        <time>2021-04-18T09:58:46.000Z</time>
      </trkpt>
      <trkpt lat="47.28648" lon="-2.298">
        <ele>17.799999237061</ele>
        <time>2021-04-18T09:58:51.000Z</time>
      </trkpt>
      <trkpt lat="47.28648" lon="-2.29795">
        <ele>17.799999237061</ele>
        <time>2021-04-18T09:58:54.000Z</time>
      </trkpt>
      <trkpt lat="47.28647" lon="-2.29792">
        <ele>17.799999237061</ele>
        <time>2021-04-18T09:58:57.000Z</time>
      </trkpt>
      <trkpt lat="47.28645" lon="-2.2979">
        <ele>17.799999237061</ele>
        <time>2021-04-18T10:00:16.000Z</time>
      </trkpt>
      <trkpt lat="47.28643" lon="-2.29788">
        <ele>17.799999237061</ele>
        <time>2021-04-18T10:00:17.000Z</time>
      </trkpt>
      <trkpt lat="47.28634" lon="-2.29772">
        <ele>17.799999237061</ele>
        <time>2021-04-18T10:00:25.000Z</time>
      </trkpt>
      <trkpt lat="47.28628" lon="-2.29751">
        <ele>17.799999237061</ele>
        <time>2021-04-18T10:00:34.000Z</time>
      </trkpt>
      <trkpt lat="47.28619" lon="-2.29731">
        <ele>17.799999237061</ele>
        <time>2021-04-18T10:00:43.000Z</time>
      </trkpt>
      <trkpt lat="47.28613" lon="-2.29713">
        <ele>17.799999237061</ele>
        <time>2021-04-18T10:00:51.000Z</time>
      </trkpt>
      <trkpt lat="47.28608" lon="-2.29688">
        <ele>17.799999237061</ele>
        <time>2021-04-18T10:01:01.000Z</time>
      </trkpt>
      <trkpt lat="47.28606" lon="-2.29683">
        <ele>17.799999237061</ele>
        <time>2021-04-18T10:01:03.000Z</time>
      </trkpt>
      <trkpt lat="47.28602" lon="-2.29677">
        <ele>17.799999237061</ele>
        <time>2021-04-18T10:01:06.000Z</time>
      </trkpt>
      <trkpt lat="47.286" lon="-2.29673">
        <ele>17.799999237061</ele>
        <time>2021-04-18T10:01:08.000Z</time>
      </trkpt>
      <trkpt lat="47.28599" lon="-2.29663">
        <ele>17.799999237061</ele>
        <time>2021-04-18T10:01:13.000Z</time>
      </trkpt>
      <trkpt lat="47.28597" lon="-2.29646">
        <ele>17.799999237061</ele>
        <time>2021-04-18T10:01:20.000Z</time>
      </trkpt>
      <trkpt lat="47.28594" lon="-2.29624">
        <ele>17.799999237061</ele>
        <time>2021-04-18T10:01:28.000Z</time>
      </trkpt>
      <trkpt lat="47.28586" lon="-2.29607">
        <ele>17.799999237061</ele>
        <time>2021-04-18T10:01:36.000Z</time>
      </trkpt>
      <trkpt lat="47.28583" lon="-2.29603">
        <ele>18.200000762939</ele>
        <time>2021-04-18T10:01:38.000Z</time>
      </trkpt>
      <trkpt lat="47.28582" lon="-2.29601">
        <ele>18.799999237061</ele>
        <time>2021-04-18T10:01:39.000Z</time>
      </trkpt>
      <trkpt lat="47.28582" lon="-2.29598">
        <ele>19.200000762939</ele>
        <time>2021-04-18T10:01:40.000Z</time>
      </trkpt>
      <trkpt lat="47.28582" lon="-2.29596">
        <ele>19.60000038147</ele>
        <time>2021-04-18T10:01:41.000Z</time>
      </trkpt>
      <trkpt lat="47.28584" lon="-2.29595">
        <ele>20</ele>
        <time>2021-04-18T10:01:42.000Z</time>
      </trkpt>
      <trkpt lat="47.28588" lon="-2.29597">
        <ele>20</ele>
        <time>2021-04-18T10:01:46.000Z</time>
      </trkpt>
      <trkpt lat="47.28594" lon="-2.2959">
        <ele>20</ele>
        <time>2021-04-18T10:01:50.000Z</time>
      </trkpt>
      <trkpt lat="47.28595" lon="-2.29586">
        <ele>20</ele>
        <time>2021-04-18T10:01:51.000Z</time>
      </trkpt>
      <trkpt lat="47.28598" lon="-2.29572">
        <ele>20</ele>
        <time>2021-04-18T10:01:56.000Z</time>
      </trkpt>
      <trkpt lat="47.286" lon="-2.29553">
        <ele>20</ele>
        <time>2021-04-18T10:02:04.000Z</time>
      </trkpt>
      <trkpt lat="47.28601" lon="-2.29539">
        <ele>20</ele>
        <time>2021-04-18T10:02:10.000Z</time>
      </trkpt>
      <trkpt lat="47.28602" lon="-2.29526">
        <ele>20</ele>
        <time>2021-04-18T10:02:17.000Z</time>
      </trkpt>
      <trkpt lat="47.286" lon="-2.29527">
        <ele>20</ele>
        <time>2021-04-18T10:02:28.000Z</time>
      </trkpt>
      <trkpt lat="47.28598" lon="-2.2953">
        <ele>20</ele>
        <time>2021-04-18T10:02:30.000Z</time>
      </trkpt>
      <trkpt lat="47.28599" lon="-2.29544">
        <ele>20</ele>
        <time>2021-04-18T10:02:34.000Z</time>
      </trkpt>
      <trkpt lat="47.286" lon="-2.29548">
        <ele>20</ele>
        <time>2021-04-18T10:02:35.000Z</time>
      </trkpt>
      <trkpt lat="47.28603" lon="-2.29572">
        <ele>20</ele>
        <time>2021-04-18T10:02:41.000Z</time>
      </trkpt>
      <trkpt lat="47.28602" lon="-2.29603">
        <ele>20</ele>
        <time>2021-04-18T10:02:47.000Z</time>
      </trkpt>
      <trkpt lat="47.28603" lon="-2.29633">
        <ele>20</ele>
        <time>2021-04-18T10:02:53.000Z</time>
      </trkpt>
      <trkpt lat="47.28608" lon="-2.29666">
        <ele>20</ele>
        <time>2021-04-18T10:02:58.000Z</time>
      </trkpt>
      <trkpt lat="47.28613" lon="-2.29687">
        <ele>20</ele>
        <time>2021-04-18T10:03:01.000Z</time>
      </trkpt>
      <trkpt lat="47.2862" lon="-2.29705">
        <ele>20</ele>
        <time>2021-04-18T10:03:04.000Z</time>
      </trkpt>
      <trkpt lat="47.28635" lon="-2.29751">
        <ele>20</ele>
        <time>2021-04-18T10:03:12.000Z</time>
      </trkpt>
      <trkpt lat="47.28648" lon="-2.29789">
        <ele>20</ele>
        <time>2021-04-18T10:03:19.000Z</time>
      </trkpt>
      <trkpt lat="47.28651" lon="-2.29807">
        <ele>20</ele>
        <time>2021-04-18T10:03:22.000Z</time>
      </trkpt>
      <trkpt lat="47.2865" lon="-2.29819">
        <ele>20</ele>
        <time>2021-04-18T10:03:24.000Z</time>
      </trkpt>
      <trkpt lat="47.28652" lon="-2.29874">
        <ele>20</ele>
        <time>2021-04-18T10:03:32.000Z</time>
      </trkpt>
      <trkpt lat="47.28665" lon="-2.29905">
        <ele>19.60000038147</ele>
        <time>2021-04-18T10:03:37.000Z</time>
      </trkpt>
      <trkpt lat="47.28669" lon="-2.2991">
        <ele>19.200000762939</ele>
        <time>2021-04-18T10:03:38.000Z</time>
      </trkpt>
      <trkpt lat="47.28673" lon="-2.29914">
        <ele>18.799999237061</ele>
        <time>2021-04-18T10:03:39.000Z</time>
      </trkpt>
      <trkpt lat="47.28679" lon="-2.29917">
        <ele>18.39999961853</ele>
        <time>2021-04-18T10:03:40.000Z</time>
      </trkpt>
      <trkpt lat="47.28685" lon="-2.29919">
        <ele>18</ele>
        <time>2021-04-18T10:03:41.000Z</time>
      </trkpt>
      <trkpt lat="47.28691" lon="-2.2992">
        <ele>18</ele>
        <time>2021-04-18T10:03:42.000Z</time>
      </trkpt>
      <trkpt lat="47.28698" lon="-2.29921">
        <ele>18</ele>
        <time>2021-04-18T10:03:43.000Z</time>
      </trkpt>
      <trkpt lat="47.2871" lon="-2.29924">
        <ele>18</ele>
        <time>2021-04-18T10:03:45.000Z</time>
      </trkpt>
      <trkpt lat="47.28724" lon="-2.29941">
        <ele>18</ele>
        <time>2021-04-18T10:03:48.000Z</time>
      </trkpt>
      <trkpt lat="47.28747" lon="-2.2997">
        <ele>17.60000038147</ele>
        <time>2021-04-18T10:03:53.000Z</time>
      </trkpt>
      <trkpt lat="47.28751" lon="-2.29975">
        <ele>17.200000762939</ele>
        <time>2021-04-18T10:03:54.000Z</time>
      </trkpt>
      <trkpt lat="47.28755" lon="-2.2998">
        <ele>16.39999961853</ele>
        <time>2021-04-18T10:03:55.000Z</time>
      </trkpt>
      <trkpt lat="47.28758" lon="-2.29983">
        <ele>15.800000190735</ele>
        <time>2021-04-18T10:03:56.000Z</time>
      </trkpt>
      <trkpt lat="47.28762" lon="-2.29987">
        <ele>15.39999961853</ele>
        <time>2021-04-18T10:03:57.000Z</time>
      </trkpt>
      <trkpt lat="47.28765" lon="-2.2999">
        <ele>15</ele>
        <time>2021-04-18T10:03:58.000Z</time>
      </trkpt>
      <trkpt lat="47.28767" lon="-2.29994">
        <ele>14.60000038147</ele>
        <time>2021-04-18T10:03:59.000Z</time>
      </trkpt>
      <trkpt lat="47.28768" lon="-2.29997">
        <ele>14.199999809265</ele>
        <time>2021-04-18T10:04:00.000Z</time>
      </trkpt>
      <trkpt lat="47.28769" lon="-2.29999">
        <ele>13.60000038147</ele>
        <time>2021-04-18T10:04:01.000Z</time>
      </trkpt>
      <trkpt lat="47.28769" lon="-2.3">
        <ele>13.60000038147</ele>
        <time>2021-04-18T10:04:02.000Z</time>
      </trkpt>
      <trkpt lat="47.28767" lon="-2.29994">
        <ele>13.60000038147</ele>
        <time>2021-04-18T10:04:06.000Z</time>
      </trkpt>
      <trkpt lat="47.28765" lon="-2.29992">
        <ele>13.60000038147</ele>
        <time>2021-04-18T10:04:07.000Z</time>
      </trkpt>
      <trkpt lat="47.2874" lon="-2.29969">
        <ele>13.60000038147</ele>
        <time>2021-04-18T10:04:13.000Z</time>
      </trkpt>
      <trkpt lat="47.28721" lon="-2.29956">
        <ele>13.60000038147</ele>
        <time>2021-04-18T10:04:19.000Z</time>
      </trkpt>
      <trkpt lat="47.28701" lon="-2.29952">
        <ele>13.60000038147</ele>
        <time>2021-04-18T10:04:24.000Z</time>
      </trkpt>
      <trkpt lat="47.28686" lon="-2.29931">
        <ele>13.60000038147</ele>
        <time>2021-04-18T10:04:29.000Z</time>
      </trkpt>
      <trkpt lat="47.28683" lon="-2.29928">
        <ele>14.199999809265</ele>
        <time>2021-04-18T10:04:30.000Z</time>
      </trkpt>
      <trkpt lat="47.2868" lon="-2.29925">
        <ele>14.60000038147</ele>
        <time>2021-04-18T10:04:31.000Z</time>
      </trkpt>
      <trkpt lat="47.28677" lon="-2.29923">
        <ele>15</ele>
        <time>2021-04-18T10:04:32.000Z</time>
      </trkpt>
      <trkpt lat="47.28674" lon="-2.29921">
        <ele>15.39999961853</ele>
        <time>2021-04-18T10:04:33.000Z</time>
      </trkpt>
      <trkpt lat="47.28671" lon="-2.2992">
        <ele>15.800000190735</ele>
        <time>2021-04-18T10:04:34.000Z</time>
      </trkpt>
      <trkpt lat="47.28655" lon="-2.29908">
        <ele>15.800000190735</ele>
        <time>2021-04-18T10:04:39.000Z</time>
      </trkpt>
      <trkpt lat="47.28648" lon="-2.29889">
        <ele>15.800000190735</ele>
        <time>2021-04-18T10:04:44.000Z</time>
      </trkpt>
      <trkpt lat="47.28647" lon="-2.29886">
        <ele>16.200000762939</ele>
        <time>2021-04-18T10:04:45.000Z</time>
      </trkpt>
      <trkpt lat="47.28647" lon="-2.29882">
        <ele>16.60000038147</ele>
        <time>2021-04-18T10:04:46.000Z</time>
      </trkpt>
      <trkpt lat="47.28646" lon="-2.29878">
        <ele>17</ele>
        <time>2021-04-18T10:04:47.000Z</time>
      </trkpt>
      <trkpt lat="47.28646" lon="-2.29875">
        <ele>17.39999961853</ele>
        <time>2021-04-18T10:04:48.000Z</time>
      </trkpt>
      <trkpt lat="47.28645" lon="-2.29871">
        <ele>17.799999237061</ele>
        <time>2021-04-18T10:04:49.000Z</time>
      </trkpt>
      <trkpt lat="47.28644" lon="-2.29862">
        <ele>17.799999237061</ele>
        <time>2021-04-18T10:04:51.000Z</time>
      </trkpt>
      <trkpt lat="47.28644" lon="-2.29832">
        <ele>17.799999237061</ele>
        <time>2021-04-18T10:04:58.000Z</time>
      </trkpt>
      <trkpt lat="47.28643" lon="-2.29802">
        <ele>17.799999237061</ele>
        <time>2021-04-18T10:05:05.000Z</time>
      </trkpt>
      <trkpt lat="47.28632" lon="-2.29768">
        <ele>17.799999237061</ele>
        <time>2021-04-18T10:05:13.000Z</time>
      </trkpt>
      <trkpt lat="47.28623" lon="-2.29743">
        <ele>17.799999237061</ele>
        <time>2021-04-18T10:05:20.000Z</time>
      </trkpt>
      <trkpt lat="47.28622" lon="-2.29741">
        <ele>17.799999237061</ele>
        <time>2021-04-18T10:05:22.000Z</time>
      </trkpt>
      <trkpt lat="47.28622" lon="-2.29739">
        <ele>17.799999237061</ele>
        <time>2021-04-18T10:05:24.000Z</time>
      </trkpt>
      <trkpt lat="47.28622" lon="-2.29738">
        <ele>17.799999237061</ele>
        <time>2021-04-18T10:05:25.000Z</time>
      </trkpt>
      <trkpt lat="47.28619" lon="-2.29726">
        <ele>17.799999237061</ele>
        <time>2021-04-18T10:05:30.000Z</time>
      </trkpt>
      <trkpt lat="47.28615" lon="-2.29714">
        <ele>17.799999237061</ele>
        <time>2021-04-18T10:05:36.000Z</time>
      </trkpt>
      <trkpt lat="47.2861" lon="-2.29701">
        <ele>17.799999237061</ele>
        <time>2021-04-18T10:05:43.000Z</time>
      </trkpt>
      <trkpt lat="47.28608" lon="-2.29699">
        <ele>17.799999237061</ele>
        <time>2021-04-18T10:05:46.000Z</time>
      </trkpt>
      <trkpt lat="47.28615" lon="-2.29704">
        <ele>17.799999237061</ele>
        <time>2021-04-18T10:06:24.000Z</time>
      </trkpt>
      <trkpt lat="47.2862" lon="-2.29722">
        <ele>17.799999237061</ele>
        <time>2021-04-18T10:06:29.000Z</time>
      </trkpt>
      <trkpt lat="47.28633" lon="-2.29753">
        <ele>17.799999237061</ele>
        <time>2021-04-18T10:06:36.000Z</time>
      </trkpt>
      <trkpt lat="47.28645" lon="-2.29791">
        <ele>17.799999237061</ele>
        <time>2021-04-18T10:06:44.000Z</time>
      </trkpt>
      <trkpt lat="47.28648" lon="-2.29825">
        <ele>17.799999237061</ele>
        <time>2021-04-18T10:06:50.000Z</time>
      </trkpt>
      <trkpt lat="47.2865" lon="-2.29869">
        <ele>17.799999237061</ele>
        <time>2021-04-18T10:06:57.000Z</time>
      </trkpt>
      <trkpt lat="47.28651" lon="-2.29875">
        <ele>17.799999237061</ele>
        <time>2021-04-18T10:06:58.000Z</time>
      </trkpt>
      <trkpt lat="47.28654" lon="-2.29888">
        <ele>17.799999237061</ele>
        <time>2021-04-18T10:07:00.000Z</time>
      </trkpt>
      <trkpt lat="47.28659" lon="-2.299">
        <ele>17.799999237061</ele>
        <time>2021-04-18T10:07:02.000Z</time>
      </trkpt>
      <trkpt lat="47.28662" lon="-2.29905">
        <ele>17.799999237061</ele>
        <time>2021-04-18T10:07:03.000Z</time>
      </trkpt>
      <trkpt lat="47.28681" lon="-2.2992">
        <ele>17.799999237061</ele>
        <time>2021-04-18T10:07:07.000Z</time>
      </trkpt>
      <trkpt lat="47.28705" lon="-2.29923">
        <ele>17.799999237061</ele>
        <time>2021-04-18T10:07:11.000Z</time>
      </trkpt>
      <trkpt lat="47.28717" lon="-2.29929">
        <ele>17.39999961853</ele>
        <time>2021-04-18T10:07:14.000Z</time>
      </trkpt>
      <trkpt lat="47.28719" lon="-2.29932">
        <ele>17</ele>
        <time>2021-04-18T10:07:15.000Z</time>
      </trkpt>
      <trkpt lat="47.28721" lon="-2.29936">
        <ele>16.60000038147</ele>
        <time>2021-04-18T10:07:16.000Z</time>
      </trkpt>
      <trkpt lat="47.28724" lon="-2.29939">
        <ele>16.200000762939</ele>
        <time>2021-04-18T10:07:17.000Z</time>
      </trkpt>
      <trkpt lat="47.28726" lon="-2.29944">
        <ele>15.800000190735</ele>
        <time>2021-04-18T10:07:18.000Z</time>
      </trkpt>
      <trkpt lat="47.28734" lon="-2.29955">
        <ele>15.800000190735</ele>
        <time>2021-04-18T10:07:21.000Z</time>
      </trkpt>
      <trkpt lat="47.28756" lon="-2.29982">
        <ele>15.39999961853</ele>
        <time>2021-04-18T10:07:27.000Z</time>
      </trkpt>
      <trkpt lat="47.28761" lon="-2.29987">
        <ele>15</ele>
        <time>2021-04-18T10:07:28.000Z</time>
      </trkpt>
      <trkpt lat="47.28766" lon="-2.29991">
        <ele>14.60000038147</ele>
        <time>2021-04-18T10:07:29.000Z</time>
      </trkpt>
      <trkpt lat="47.28771" lon="-2.29994">
        <ele>14.199999809265</ele>
        <time>2021-04-18T10:07:30.000Z</time>
      </trkpt>
      <trkpt lat="47.28776" lon="-2.29997">
        <ele>13.800000190735</ele>
        <time>2021-04-18T10:07:31.000Z</time>
      </trkpt>
      <trkpt lat="47.28782" lon="-2.3">
        <ele>13.800000190735</ele>
        <time>2021-04-18T10:07:32.000Z</time>
      </trkpt>
      <trkpt lat="47.28795" lon="-2.30016">
        <ele>13.800000190735</ele>
        <time>2021-04-18T10:07:35.000Z</time>
      </trkpt>
      <trkpt lat="47.28799" lon="-2.30023">
        <ele>13.800000190735</ele>
        <time>2021-04-18T10:07:36.000Z</time>
      </trkpt>
      <trkpt lat="47.28821" lon="-2.30062">
        <ele>13.800000190735</ele>
        <time>2021-04-18T10:07:41.000Z</time>
      </trkpt>
      <trkpt lat="47.28842" lon="-2.30089">
        <ele>13.39999961853</ele>
        <time>2021-04-18T10:07:45.000Z</time>
      </trkpt>
      <trkpt lat="47.28847" lon="-2.30095">
        <ele>13</ele>
        <time>2021-04-18T10:07:46.000Z</time>
      </trkpt>
      <trkpt lat="47.28852" lon="-2.30101">
        <ele>12.60000038147</ele>
        <time>2021-04-18T10:07:47.000Z</time>
      </trkpt>
      <trkpt lat="47.28857" lon="-2.30106">
        <ele>12</ele>
        <time>2021-04-18T10:07:48.000Z</time>
      </trkpt>
      <trkpt lat="47.28862" lon="-2.30112">
        <ele>11.60000038147</ele>
        <time>2021-04-18T10:07:49.000Z</time>
      </trkpt>
      <trkpt lat="47.28889" lon="-2.30146">
        <ele>11.60000038147</ele>
        <time>2021-04-18T10:07:55.000Z</time>
      </trkpt>
      <trkpt lat="47.28911" lon="-2.3017">
        <ele>11.199999809265</ele>
        <time>2021-04-18T10:07:59.000Z</time>
      </trkpt>
      <trkpt lat="47.28916" lon="-2.30176">
        <ele>10.39999961853</ele>
        <time>2021-04-18T10:08:00.000Z</time>
      </trkpt>
      <trkpt lat="47.28922" lon="-2.30182">
        <ele>9.8000001907349</ele>
        <time>2021-04-18T10:08:01.000Z</time>
      </trkpt>
      <trkpt lat="47.28928" lon="-2.30189">
        <ele>9.3999996185303</ele>
        <time>2021-04-18T10:08:02.000Z</time>
      </trkpt>
      <trkpt lat="47.2895" lon="-2.30215">
        <ele>9.3999996185303</ele>
        <time>2021-04-18T10:08:06.000Z</time>
      </trkpt>
      <trkpt lat="47.28965" lon="-2.30229">
        <ele>9.3999996185303</ele>
        <time>2021-04-18T10:08:09.000Z</time>
      </trkpt>
      <trkpt lat="47.28974" lon="-2.30235">
        <ele>9</ele>
        <time>2021-04-18T10:08:11.000Z</time>
      </trkpt>
      <trkpt lat="47.28978" lon="-2.30239">
        <ele>8.6000003814697</ele>
        <time>2021-04-18T10:08:12.000Z</time>
      </trkpt>
      <trkpt lat="47.28979" lon="-2.30245">
        <ele>8</ele>
        <time>2021-04-18T10:08:13.000Z</time>
      </trkpt>
      <trkpt lat="47.28979" lon="-2.30252">
        <ele>7.5999999046326</ele>
        <time>2021-04-18T10:08:14.000Z</time>
      </trkpt>
      <trkpt lat="47.28978" lon="-2.3026">
        <ele>7.1999998092651</ele>
        <time>2021-04-18T10:08:15.000Z</time>
      </trkpt>
      <trkpt lat="47.28977" lon="-2.30267">
        <ele>7.1999998092651</ele>
        <time>2021-04-18T10:08:16.000Z</time>
      </trkpt>
      <trkpt lat="47.28976" lon="-2.30276">
        <ele>7.1999998092651</ele>
        <time>2021-04-18T10:08:17.000Z</time>
      </trkpt>
      <trkpt lat="47.28976" lon="-2.30301">
        <ele>7.1999998092651</ele>
        <time>2021-04-18T10:08:20.000Z</time>
      </trkpt>
      <trkpt lat="47.28977" lon="-2.30362">
        <ele>7.1999998092651</ele>
        <time>2021-04-18T10:08:27.000Z</time>
      </trkpt>
      <trkpt lat="47.28978" lon="-2.30413">
        <ele>7.1999998092651</ele>
        <time>2021-04-18T10:08:33.000Z</time>
      </trkpt>
      <trkpt lat="47.28981" lon="-2.30438">
        <ele>7.5999999046326</ele>
        <time>2021-04-18T10:08:36.000Z</time>
      </trkpt>
      <trkpt lat="47.28982" lon="-2.30447">
        <ele>8</ele>
        <time>2021-04-18T10:08:37.000Z</time>
      </trkpt>
      <trkpt lat="47.28983" lon="-2.30456">
        <ele>8.3999996185303</ele>
        <time>2021-04-18T10:08:38.000Z</time>
      </trkpt>
      <trkpt lat="47.28984" lon="-2.30464">
        <ele>8.8000001907349</ele>
        <time>2021-04-18T10:08:39.000Z</time>
      </trkpt>
      <trkpt lat="47.28984" lon="-2.30473">
        <ele>9.1999998092651</ele>
        <time>2021-04-18T10:08:40.000Z</time>
      </trkpt>
      <trkpt lat="47.28995" lon="-2.30529">
        <ele>9.1999998092651</ele>
        <time>2021-04-18T10:08:47.000Z</time>
      </trkpt>
      <trkpt lat="47.28998" lon="-2.30546">
        <ele>9.1999998092651</ele>
        <time>2021-04-18T10:08:49.000Z</time>
      </trkpt>
      <trkpt lat="47.29002" lon="-2.30573">
        <ele>9.1999998092651</ele>
        <time>2021-04-18T10:08:52.000Z</time>
      </trkpt>
      <trkpt lat="47.29005" lon="-2.30609">
        <ele>9.1999998092651</ele>
        <time>2021-04-18T10:08:56.000Z</time>
      </trkpt>
      <trkpt lat="47.29004" lon="-2.30617">
        <ele>9.1999998092651</ele>
        <time>2021-04-18T10:08:57.000Z</time>
      </trkpt>
      <trkpt lat="47.2899" lon="-2.30633">
        <ele>9.1999998092651</ele>
        <time>2021-04-18T10:09:00.000Z</time>
      </trkpt>
      <trkpt lat="47.28982" lon="-2.30637">
        <ele>9.1999998092651</ele>
        <time>2021-04-18T10:09:01.000Z</time>
      </trkpt>
      <trkpt lat="47.28951" lon="-2.30662">
        <ele>9.1999998092651</ele>
        <time>2021-04-18T10:09:06.000Z</time>
      </trkpt>
      <trkpt lat="47.28918" lon="-2.30704">
        <ele>9.1999998092651</ele>
        <time>2021-04-18T10:09:13.000Z</time>
      </trkpt>
      <trkpt lat="47.28888" lon="-2.30747">
        <ele>9.1999998092651</ele>
        <time>2021-04-18T10:09:20.000Z</time>
      </trkpt>
      <trkpt lat="47.28859" lon="-2.30792">
        <ele>9.1999998092651</ele>
        <time>2021-04-18T10:09:27.000Z</time>
      </trkpt>
      <trkpt lat="47.2883" lon="-2.30846">
        <ele>9.1999998092651</ele>
        <time>2021-04-18T10:09:35.000Z</time>
      </trkpt>
      <trkpt lat="47.28817" lon="-2.30874">
        <ele>10.199999809265</ele>
        <time>2021-04-18T10:09:39.000Z</time>
      </trkpt>
      <trkpt lat="47.28814" lon="-2.3088">
        <ele>10.60000038147</ele>
        <time>2021-04-18T10:09:40.000Z</time>
      </trkpt>
      <trkpt lat="47.2881" lon="-2.30888">
        <ele>11</ele>
        <time>2021-04-18T10:09:41.000Z</time>
      </trkpt>
      <trkpt lat="47.28807" lon="-2.30894">
        <ele>11.39999961853</ele>
        <time>2021-04-18T10:09:42.000Z</time>
      </trkpt>
      <trkpt lat="47.28784" lon="-2.30941">
        <ele>11.39999961853</ele>
        <time>2021-04-18T10:09:49.000Z</time>
      </trkpt>
      <trkpt lat="47.28781" lon="-2.30948">
        <ele>11.800000190735</ele>
        <time>2021-04-18T10:09:50.000Z</time>
      </trkpt>
      <trkpt lat="47.28779" lon="-2.30954">
        <ele>12.199999809265</ele>
        <time>2021-04-18T10:09:51.000Z</time>
      </trkpt>
      <trkpt lat="47.28776" lon="-2.3096">
        <ele>12.60000038147</ele>
        <time>2021-04-18T10:09:52.000Z</time>
      </trkpt>
      <trkpt lat="47.28773" lon="-2.30967">
        <ele>13</ele>
        <time>2021-04-18T10:09:53.000Z</time>
      </trkpt>
      <trkpt lat="47.2877" lon="-2.30974">
        <ele>13.39999961853</ele>
        <time>2021-04-18T10:09:54.000Z</time>
      </trkpt>
      <trkpt lat="47.28768" lon="-2.3098">
        <ele>13.39999961853</ele>
        <time>2021-04-18T10:09:55.000Z</time>
      </trkpt>
      <trkpt lat="47.28749" lon="-2.31034">
        <ele>13.39999961853</ele>
        <time>2021-04-18T10:10:03.000Z</time>
      </trkpt>
      <trkpt lat="47.2874" lon="-2.31062">
        <ele>13.800000190735</ele>
        <time>2021-04-18T10:10:07.000Z</time>
      </trkpt>
      <trkpt lat="47.28738" lon="-2.31069">
        <ele>14.199999809265</ele>
        <time>2021-04-18T10:10:08.000Z</time>
      </trkpt>
      <trkpt lat="47.28736" lon="-2.31075">
        <ele>14.800000190735</ele>
        <time>2021-04-18T10:10:09.000Z</time>
      </trkpt>
      <trkpt lat="47.28735" lon="-2.31082">
        <ele>15.199999809265</ele>
        <time>2021-04-18T10:10:10.000Z</time>
      </trkpt>
      <trkpt lat="47.28733" lon="-2.31088">
        <ele>15.60000038147</ele>
        <time>2021-04-18T10:10:11.000Z</time>
      </trkpt>
      <trkpt lat="47.2873" lon="-2.31102">
        <ele>15.60000038147</ele>
        <time>2021-04-18T10:10:13.000Z</time>
      </trkpt>
      <trkpt lat="47.28727" lon="-2.31128">
        <ele>15.60000038147</ele>
        <time>2021-04-18T10:10:17.000Z</time>
      </trkpt>
      <trkpt lat="47.28722" lon="-2.31157">
        <ele>15.60000038147</ele>
        <time>2021-04-18T10:10:21.000Z</time>
      </trkpt>
      <trkpt lat="47.28716" lon="-2.3117">
        <ele>16</ele>
        <time>2021-04-18T10:10:23.000Z</time>
      </trkpt>
      <trkpt lat="47.28712" lon="-2.31175">
        <ele>16.39999961853</ele>
        <time>2021-04-18T10:10:24.000Z</time>
      </trkpt>
      <trkpt lat="47.28708" lon="-2.31181">
        <ele>16.799999237061</ele>
        <time>2021-04-18T10:10:25.000Z</time>
      </trkpt>
      <trkpt lat="47.28704" lon="-2.31187">
        <ele>17.200000762939</ele>
        <time>2021-04-18T10:10:26.000Z</time>
      </trkpt>
      <trkpt lat="47.28699" lon="-2.31192">
        <ele>17.60000038147</ele>
        <time>2021-04-18T10:10:27.000Z</time>
      </trkpt>
      <trkpt lat="47.28687" lon="-2.31207">
        <ele>17.60000038147</ele>
        <time>2021-04-18T10:10:30.000Z</time>
      </trkpt>
      <trkpt lat="47.28663" lon="-2.31236">
        <ele>17.60000038147</ele>
        <time>2021-04-18T10:10:36.000Z</time>
      </trkpt>
      <trkpt lat="47.28656" lon="-2.31248">
        <ele>18</ele>
        <time>2021-04-18T10:10:38.000Z</time>
      </trkpt>
      <trkpt lat="47.28653" lon="-2.31255">
        <ele>18.60000038147</ele>
        <time>2021-04-18T10:10:39.000Z</time>
      </trkpt>
      <trkpt lat="47.2865" lon="-2.31262">
        <ele>19</ele>
        <time>2021-04-18T10:10:40.000Z</time>
      </trkpt>
      <trkpt lat="47.28648" lon="-2.31269">
        <ele>19.39999961853</ele>
        <time>2021-04-18T10:10:41.000Z</time>
      </trkpt>
      <trkpt lat="47.28647" lon="-2.31276">
        <ele>19.799999237061</ele>
        <time>2021-04-18T10:10:42.000Z</time>
      </trkpt>
      <trkpt lat="47.28646" lon="-2.3129">
        <ele>19.799999237061</ele>
        <time>2021-04-18T10:10:44.000Z</time>
      </trkpt>
      <trkpt lat="47.28646" lon="-2.31297">
        <ele>19.799999237061</ele>
        <time>2021-04-18T10:10:45.000Z</time>
      </trkpt>
      <trkpt lat="47.28651" lon="-2.31327">
        <ele>19.799999237061</ele>
        <time>2021-04-18T10:10:49.000Z</time>
      </trkpt>
      <trkpt lat="47.28657" lon="-2.31342">
        <ele>19.799999237061</ele>
        <time>2021-04-18T10:10:51.000Z</time>
      </trkpt>
      <trkpt lat="47.28665" lon="-2.31356">
        <ele>20.60000038147</ele>
        <time>2021-04-18T10:10:53.000Z</time>
      </trkpt>
      <trkpt lat="47.28669" lon="-2.31363">
        <ele>21</ele>
        <time>2021-04-18T10:10:54.000Z</time>
      </trkpt>
      <trkpt lat="47.28673" lon="-2.31369">
        <ele>21.60000038147</ele>
        <time>2021-04-18T10:10:55.000Z</time>
      </trkpt>
      <trkpt lat="47.28677" lon="-2.31375">
        <ele>22</ele>
        <time>2021-04-18T10:10:56.000Z</time>
      </trkpt>
      <trkpt lat="47.2868" lon="-2.31382">
        <ele>22</ele>
        <time>2021-04-18T10:10:57.000Z</time>
      </trkpt>
      <trkpt lat="47.28685" lon="-2.31396">
        <ele>22</ele>
        <time>2021-04-18T10:10:59.000Z</time>
      </trkpt>
      <trkpt lat="47.28687" lon="-2.31411">
        <ele>22</ele>
        <time>2021-04-18T10:11:01.000Z</time>
      </trkpt>
      <trkpt lat="47.28683" lon="-2.31432">
        <ele>22</ele>
        <time>2021-04-18T10:11:04.000Z</time>
      </trkpt>
      <trkpt lat="47.28675" lon="-2.31443">
        <ele>22.39999961853</ele>
        <time>2021-04-18T10:11:06.000Z</time>
      </trkpt>
      <trkpt lat="47.28671" lon="-2.31447">
        <ele>22.799999237061</ele>
        <time>2021-04-18T10:11:07.000Z</time>
      </trkpt>
      <trkpt lat="47.28667" lon="-2.31451">
        <ele>23.200000762939</ele>
        <time>2021-04-18T10:11:08.000Z</time>
      </trkpt>
      <trkpt lat="47.28662" lon="-2.31454">
        <ele>23.60000038147</ele>
        <time>2021-04-18T10:11:09.000Z</time>
      </trkpt>
      <trkpt lat="47.28658" lon="-2.31456">
        <ele>24</ele>
        <time>2021-04-18T10:11:10.000Z</time>
      </trkpt>
      <trkpt lat="47.28648" lon="-2.3146">
        <ele>24</ele>
        <time>2021-04-18T10:11:12.000Z</time>
      </trkpt>
      <trkpt lat="47.28643" lon="-2.31462">
        <ele>24</ele>
        <time>2021-04-18T10:11:13.000Z</time>
      </trkpt>
      <trkpt lat="47.28607" lon="-2.31481">
        <ele>24</ele>
        <time>2021-04-18T10:11:21.000Z</time>
      </trkpt>
      <trkpt lat="47.28565" lon="-2.31497">
        <ele>24</ele>
        <time>2021-04-18T10:11:29.000Z</time>
      </trkpt>
      <trkpt lat="47.28521" lon="-2.31506">
        <ele>24</ele>
        <time>2021-04-18T10:11:36.000Z</time>
      </trkpt>
      <trkpt lat="47.28502" lon="-2.3151">
        <ele>23.60000038147</ele>
        <time>2021-04-18T10:11:39.000Z</time>
      </trkpt>
      <trkpt lat="47.28497" lon="-2.31511">
        <ele>23.200000762939</ele>
        <time>2021-04-18T10:11:40.000Z</time>
      </trkpt>
      <trkpt lat="47.28491" lon="-2.31511">
        <ele>22.799999237061</ele>
        <time>2021-04-18T10:11:41.000Z</time>
      </trkpt>
      <trkpt lat="47.28486" lon="-2.31513">
        <ele>22.39999961853</ele>
        <time>2021-04-18T10:11:42.000Z</time>
      </trkpt>
      <trkpt lat="47.2848" lon="-2.31514">
        <ele>22</ele>
        <time>2021-04-18T10:11:43.000Z</time>
      </trkpt>
      <trkpt lat="47.28454" lon="-2.31524">
        <ele>22</ele>
        <time>2021-04-18T10:11:48.000Z</time>
      </trkpt>
      <trkpt lat="47.28439" lon="-2.31537">
        <ele>22</ele>
        <time>2021-04-18T10:11:51.000Z</time>
      </trkpt>
      <trkpt lat="47.2843" lon="-2.31548">
        <ele>22</ele>
        <time>2021-04-18T10:11:53.000Z</time>
      </trkpt>
      <trkpt lat="47.28409" lon="-2.31561">
        <ele>22</ele>
        <time>2021-04-18T10:11:57.000Z</time>
      </trkpt>
      <trkpt lat="47.28403" lon="-2.31563">
        <ele>22</ele>
        <time>2021-04-18T10:11:58.000Z</time>
      </trkpt>
      <trkpt lat="47.28365" lon="-2.3158">
        <ele>22</ele>
        <time>2021-04-18T10:12:05.000Z</time>
      </trkpt>
      <trkpt lat="47.28333" lon="-2.31593">
        <ele>22</ele>
        <time>2021-04-18T10:12:12.000Z</time>
      </trkpt>
      <trkpt lat="47.2832" lon="-2.31599">
        <ele>22</ele>
        <time>2021-04-18T10:12:16.000Z</time>
      </trkpt>
      <trkpt lat="47.28316" lon="-2.31598">
        <ele>22</ele>
        <time>2021-04-18T10:12:17.000Z</time>
      </trkpt>
      <trkpt lat="47.28296" lon="-2.31596">
        <ele>22</ele>
        <time>2021-04-18T10:12:21.000Z</time>
      </trkpt>
      <trkpt lat="47.28291" lon="-2.31597">
        <ele>22</ele>
        <time>2021-04-18T10:12:22.000Z</time>
      </trkpt>
      <trkpt lat="47.28262" lon="-2.31607">
        <ele>22</ele>
        <time>2021-04-18T10:12:27.000Z</time>
      </trkpt>
      <trkpt lat="47.28213" lon="-2.3162">
        <ele>22</ele>
        <time>2021-04-18T10:12:35.000Z</time>
      </trkpt>
      <trkpt lat="47.28199" lon="-2.31623">
        <ele>21.60000038147</ele>
        <time>2021-04-18T10:12:37.000Z</time>
      </trkpt>
      <trkpt lat="47.28192" lon="-2.31624">
        <ele>21.200000762939</ele>
        <time>2021-04-18T10:12:38.000Z</time>
      </trkpt>
      <trkpt lat="47.28185" lon="-2.31625">
        <ele>20.799999237061</ele>
        <time>2021-04-18T10:12:39.000Z</time>
      </trkpt>
      <trkpt lat="47.28178" lon="-2.31626">
        <ele>20.39999961853</ele>
        <time>2021-04-18T10:12:40.000Z</time>
      </trkpt>
      <trkpt lat="47.28171" lon="-2.31627">
        <ele>20</ele>
        <time>2021-04-18T10:12:41.000Z</time>
      </trkpt>
      <trkpt lat="47.28157" lon="-2.31629">
        <ele>20</ele>
        <time>2021-04-18T10:12:43.000Z</time>
      </trkpt>
      <trkpt lat="47.281" lon="-2.31632">
        <ele>20</ele>
        <time>2021-04-18T10:12:51.000Z</time>
      </trkpt>
      <trkpt lat="47.28063" lon="-2.3163">
        <ele>19.60000038147</ele>
        <time>2021-04-18T10:12:56.000Z</time>
      </trkpt>
      <trkpt lat="47.28056" lon="-2.31631">
        <ele>18.60000038147</ele>
        <time>2021-04-18T10:12:57.000Z</time>
      </trkpt>
      <trkpt lat="47.28048" lon="-2.31632">
        <ele>18.200000762939</ele>
        <time>2021-04-18T10:12:58.000Z</time>
      </trkpt>
      <trkpt lat="47.2804" lon="-2.31634">
        <ele>17.799999237061</ele>
        <time>2021-04-18T10:12:59.000Z</time>
      </trkpt>
      <trkpt lat="47.28033" lon="-2.31638">
        <ele>17.799999237061</ele>
        <time>2021-04-18T10:13:00.000Z</time>
      </trkpt>
      <trkpt lat="47.28026" lon="-2.31641">
        <ele>17.799999237061</ele>
        <time>2021-04-18T10:13:01.000Z</time>
      </trkpt>
      <trkpt lat="47.27988" lon="-2.3166">
        <ele>17.799999237061</ele>
        <time>2021-04-18T10:13:07.000Z</time>
      </trkpt>
      <trkpt lat="47.27945" lon="-2.3169">
        <ele>17.799999237061</ele>
        <time>2021-04-18T10:13:15.000Z</time>
      </trkpt>
      <trkpt lat="47.27935" lon="-2.31699">
        <ele>17.799999237061</ele>
        <time>2021-04-18T10:13:17.000Z</time>
      </trkpt>
      <trkpt lat="47.2791" lon="-2.3172">
        <ele>17.799999237061</ele>
        <time>2021-04-18T10:13:22.000Z</time>
      </trkpt>
      <trkpt lat="47.27895" lon="-2.31731">
        <ele>18.200000762939</ele>
        <time>2021-04-18T10:13:25.000Z</time>
      </trkpt>
      <trkpt lat="47.27891" lon="-2.31734">
        <ele>18.60000038147</ele>
        <time>2021-04-18T10:13:26.000Z</time>
      </trkpt>
      <trkpt lat="47.27885" lon="-2.31739">
        <ele>19.200000762939</ele>
        <time>2021-04-18T10:13:27.000Z</time>
      </trkpt>
      <trkpt lat="47.27881" lon="-2.31744">
        <ele>19.60000038147</ele>
        <time>2021-04-18T10:13:28.000Z</time>
      </trkpt>
      <trkpt lat="47.27877" lon="-2.3175">
        <ele>20</ele>
        <time>2021-04-18T10:13:29.000Z</time>
      </trkpt>
      <trkpt lat="47.27871" lon="-2.31766">
        <ele>20</ele>
        <time>2021-04-18T10:13:31.000Z</time>
      </trkpt>
      <trkpt lat="47.27863" lon="-2.31788">
        <ele>20</ele>
        <time>2021-04-18T10:13:34.000Z</time>
      </trkpt>
      <trkpt lat="47.27863" lon="-2.31795">
        <ele>20</ele>
        <time>2021-04-18T10:13:35.000Z</time>
      </trkpt>
      <trkpt lat="47.27865" lon="-2.3182">
        <ele>20</ele>
        <time>2021-04-18T10:13:38.000Z</time>
      </trkpt>
      <trkpt lat="47.27874" lon="-2.3187">
        <ele>20</ele>
        <time>2021-04-18T10:13:44.000Z</time>
      </trkpt>
      <trkpt lat="47.27876" lon="-2.31886">
        <ele>20</ele>
        <time>2021-04-18T10:13:46.000Z</time>
      </trkpt>
      <trkpt lat="47.27874" lon="-2.3191">
        <ele>20</ele>
        <time>2021-04-18T10:13:49.000Z</time>
      </trkpt>
      <trkpt lat="47.27873" lon="-2.31918">
        <ele>20</ele>
        <time>2021-04-18T10:13:50.000Z</time>
      </trkpt>
      <trkpt lat="47.27864" lon="-2.31947">
        <ele>20</ele>
        <time>2021-04-18T10:13:54.000Z</time>
      </trkpt>
      <trkpt lat="47.27861" lon="-2.31953">
        <ele>20</ele>
        <time>2021-04-18T10:13:55.000Z</time>
      </trkpt>
      <trkpt lat="47.27852" lon="-2.31961">
        <ele>20</ele>
        <time>2021-04-18T10:13:57.000Z</time>
      </trkpt>
      <trkpt lat="47.27841" lon="-2.31966">
        <ele>20</ele>
        <time>2021-04-18T10:13:59.000Z</time>
      </trkpt>
      <trkpt lat="47.2783" lon="-2.31974">
        <ele>20</ele>
        <time>2021-04-18T10:14:01.000Z</time>
      </trkpt>
      <trkpt lat="47.27825" lon="-2.3198">
        <ele>20</ele>
        <time>2021-04-18T10:14:02.000Z</time>
      </trkpt>
      <trkpt lat="47.27812" lon="-2.32003">
        <ele>20</ele>
        <time>2021-04-18T10:14:05.000Z</time>
      </trkpt>
      <trkpt lat="47.27808" lon="-2.32011">
        <ele>20</ele>
        <time>2021-04-18T10:14:06.000Z</time>
      </trkpt>
      <trkpt lat="47.27781" lon="-2.32065">
        <ele>20</ele>
        <time>2021-04-18T10:14:12.000Z</time>
      </trkpt>
      <trkpt lat="47.27759" lon="-2.32077">
        <ele>20</ele>
        <time>2021-04-18T10:14:15.000Z</time>
      </trkpt>
      <trkpt lat="47.27743" lon="-2.32077">
        <ele>19.39999961853</ele>
        <time>2021-04-18T10:14:17.000Z</time>
      </trkpt>
      <trkpt lat="47.27735" lon="-2.32076">
        <ele>19</ele>
        <time>2021-04-18T10:14:18.000Z</time>
      </trkpt>
      <trkpt lat="47.27727" lon="-2.32075">
        <ele>18.39999961853</ele>
        <time>2021-04-18T10:14:19.000Z</time>
      </trkpt>
      <trkpt lat="47.27719" lon="-2.32074">
        <ele>18</ele>
        <time>2021-04-18T10:14:20.000Z</time>
      </trkpt>
      <trkpt lat="47.27711" lon="-2.32074">
        <ele>17.60000038147</ele>
        <time>2021-04-18T10:14:21.000Z</time>
      </trkpt>
      <trkpt lat="47.27702" lon="-2.32076">
        <ele>17.60000038147</ele>
        <time>2021-04-18T10:14:22.000Z</time>
      </trkpt>
      <trkpt lat="47.27694" lon="-2.3208">
        <ele>17.60000038147</ele>
        <time>2021-04-18T10:14:23.000Z</time>
      </trkpt>
      <trkpt lat="47.27687" lon="-2.32085">
        <ele>17</ele>
        <time>2021-04-18T10:14:24.000Z</time>
      </trkpt>
      <trkpt lat="47.27681" lon="-2.32093">
        <ele>16.60000038147</ele>
        <time>2021-04-18T10:14:25.000Z</time>
      </trkpt>
      <trkpt lat="47.27677" lon="-2.32102">
        <ele>16</ele>
        <time>2021-04-18T10:14:26.000Z</time>
      </trkpt>
      <trkpt lat="47.27673" lon="-2.32111">
        <ele>15.60000038147</ele>
        <time>2021-04-18T10:14:27.000Z</time>
      </trkpt>
      <trkpt lat="47.2767" lon="-2.32119">
        <ele>15</ele>
        <time>2021-04-18T10:14:28.000Z</time>
      </trkpt>
      <trkpt lat="47.27662" lon="-2.32143">
        <ele>15</ele>
        <time>2021-04-18T10:14:31.000Z</time>
      </trkpt>
      <trkpt lat="47.27651" lon="-2.32185">
        <ele>15</ele>
        <time>2021-04-18T10:14:37.000Z</time>
      </trkpt>
      <trkpt lat="47.27638" lon="-2.32232">
        <ele>15.39999961853</ele>
        <time>2021-04-18T10:14:44.000Z</time>
      </trkpt>
      <trkpt lat="47.27636" lon="-2.32239">
        <ele>16</ele>
        <time>2021-04-18T10:14:45.000Z</time>
      </trkpt>
      <trkpt lat="47.27634" lon="-2.32244">
        <ele>16.39999961853</ele>
        <time>2021-04-18T10:14:46.000Z</time>
      </trkpt>
      <trkpt lat="47.27632" lon="-2.3225">
        <ele>16.799999237061</ele>
        <time>2021-04-18T10:14:47.000Z</time>
      </trkpt>
      <trkpt lat="47.2763" lon="-2.32256">
        <ele>17.200000762939</ele>
        <time>2021-04-18T10:14:48.000Z</time>
      </trkpt>
      <trkpt lat="47.27623" lon="-2.32271">
        <ele>17.200000762939</ele>
        <time>2021-04-18T10:14:51.000Z</time>
      </trkpt>
      <trkpt lat="47.27616" lon="-2.32288">
        <ele>17.200000762939</ele>
        <time>2021-04-18T10:14:56.000Z</time>
      </trkpt>
      <trkpt lat="47.27621" lon="-2.32295">
        <ele>17.200000762939</ele>
        <time>2021-04-18T10:14:59.000Z</time>
      </trkpt>
      <trkpt lat="47.27628" lon="-2.323">
        <ele>17.200000762939</ele>
        <time>2021-04-18T10:15:02.000Z</time>
      </trkpt>
      <trkpt lat="47.27634" lon="-2.32303">
        <ele>17.200000762939</ele>
        <time>2021-04-18T10:15:04.000Z</time>
      </trkpt>
      <trkpt lat="47.2765" lon="-2.32309">
        <ele>17.200000762939</ele>
        <time>2021-04-18T10:15:09.000Z</time>
      </trkpt>
      <trkpt lat="47.27655" lon="-2.32311">
        <ele>17.200000762939</ele>
        <time>2021-04-18T10:15:11.000Z</time>
      </trkpt>
      <trkpt lat="47.27671" lon="-2.32316">
        <ele>17.200000762939</ele>
        <time>2021-04-18T10:15:16.000Z</time>
      </trkpt>
      <trkpt lat="47.27689" lon="-2.32322">
        <ele>17.200000762939</ele>
        <time>2021-04-18T10:15:21.000Z</time>
      </trkpt>
      <trkpt lat="47.2771" lon="-2.32337">
        <ele>17.200000762939</ele>
        <time>2021-04-18T10:15:27.000Z</time>
      </trkpt>
      <trkpt lat="47.27732" lon="-2.32354">
        <ele>17.200000762939</ele>
        <time>2021-04-18T10:15:34.000Z</time>
      </trkpt>
      <trkpt lat="47.2775" lon="-2.32363">
        <ele>17.200000762939</ele>
        <time>2021-04-18T10:15:39.000Z</time>
      </trkpt>
      <trkpt lat="47.27766" lon="-2.32379">
        <ele>17.200000762939</ele>
        <time>2021-04-18T10:15:44.000Z</time>
      </trkpt>
      <trkpt lat="47.27769" lon="-2.3238">
        <ele>17.200000762939</ele>
        <time>2021-04-18T10:15:45.000Z</time>
      </trkpt>
      <trkpt lat="47.27778" lon="-2.3238">
        <ele>17.200000762939</ele>
        <time>2021-04-18T10:15:48.000Z</time>
      </trkpt>
      <trkpt lat="47.27796" lon="-2.32378">
        <ele>17.200000762939</ele>
        <time>2021-04-18T10:15:53.000Z</time>
      </trkpt>
      <trkpt lat="47.2782" lon="-2.32378">
        <ele>17.200000762939</ele>
        <time>2021-04-18T10:15:59.000Z</time>
      </trkpt>
      <trkpt lat="47.27838" lon="-2.32373">
        <ele>17.200000762939</ele>
        <time>2021-04-18T10:16:05.000Z</time>
      </trkpt>
      <trkpt lat="47.27845" lon="-2.32377">
        <ele>17.200000762939</ele>
        <time>2021-04-18T10:16:10.000Z</time>
      </trkpt>
      <trkpt lat="47.27854" lon="-2.32383">
        <ele>17.200000762939</ele>
        <time>2021-04-18T10:16:19.000Z</time>
      </trkpt>
      <trkpt lat="47.27858" lon="-2.3238">
        <ele>17.200000762939</ele>
        <time>2021-04-18T10:16:23.000Z</time>
      </trkpt>
      <trkpt lat="47.27864" lon="-2.32383">
        <ele>17.200000762939</ele>
        <time>2021-04-18T10:16:27.000Z</time>
      </trkpt>
      <trkpt lat="47.27867" lon="-2.32386">
        <ele>17.200000762939</ele>
        <time>2021-04-18T10:16:29.000Z</time>
      </trkpt>
      <trkpt lat="47.27874" lon="-2.32387">
        <ele>17.200000762939</ele>
        <time>2021-04-18T10:16:33.000Z</time>
      </trkpt>
      <trkpt lat="47.27878" lon="-2.32389">
        <ele>17.200000762939</ele>
        <time>2021-04-18T10:16:35.000Z</time>
      </trkpt>
      <trkpt lat="47.27879" lon="-2.32389">
        <ele>17.200000762939</ele>
        <time>2021-04-18T10:16:36.000Z</time>
      </trkpt>
      <trkpt lat="47.27881" lon="-2.32387">
        <ele>17.200000762939</ele>
        <time>2021-04-18T10:16:42.000Z</time>
      </trkpt>
      <trkpt lat="47.27883" lon="-2.32384">
        <ele>17.200000762939</ele>
        <time>2021-04-18T10:16:44.000Z</time>
      </trkpt>
      <trkpt lat="47.27887" lon="-2.32384">
        <ele>17.200000762939</ele>
        <time>2021-04-18T10:16:46.000Z</time>
      </trkpt>
      <trkpt lat="47.27895" lon="-2.32384">
        <ele>17.200000762939</ele>
        <time>2021-04-18T10:16:49.000Z</time>
      </trkpt>
      <trkpt lat="47.27902" lon="-2.3239">
        <ele>17.200000762939</ele>
        <time>2021-04-18T10:16:53.000Z</time>
      </trkpt>
      <trkpt lat="47.27903" lon="-2.32392">
        <ele>17.200000762939</ele>
        <time>2021-04-18T10:16:54.000Z</time>
      </trkpt>
      <trkpt lat="47.27901" lon="-2.32401">
        <ele>17.200000762939</ele>
        <time>2021-04-18T10:16:59.000Z</time>
      </trkpt>
      <trkpt lat="47.27892" lon="-2.32414">
        <ele>17.200000762939</ele>
        <time>2021-04-18T10:17:03.000Z</time>
      </trkpt>
      <trkpt lat="47.2788" lon="-2.32435">
        <ele>17.200000762939</ele>
        <time>2021-04-18T10:17:08.000Z</time>
      </trkpt>
      <trkpt lat="47.27869" lon="-2.32452">
        <ele>17.200000762939</ele>
        <time>2021-04-18T10:17:13.000Z</time>
      </trkpt>
      <trkpt lat="47.27864" lon="-2.32455">
        <ele>17.200000762939</ele>
        <time>2021-04-18T10:17:14.000Z</time>
      </trkpt>
      <trkpt lat="47.27856" lon="-2.32462">
        <ele>17.200000762939</ele>
        <time>2021-04-18T10:17:16.000Z</time>
      </trkpt>
      <trkpt lat="47.27847" lon="-2.32477">
        <ele>17.200000762939</ele>
        <time>2021-04-18T10:17:20.000Z</time>
      </trkpt>
      <trkpt lat="47.27845" lon="-2.32483">
        <ele>17.200000762939</ele>
        <time>2021-04-18T10:17:22.000Z</time>
      </trkpt>
      <trkpt lat="47.27844" lon="-2.32486">
        <ele>17.200000762939</ele>
        <time>2021-04-18T10:17:23.000Z</time>
      </trkpt>
      <trkpt lat="47.27838" lon="-2.32499">
        <ele>17.200000762939</ele>
        <time>2021-04-18T10:17:28.000Z</time>
      </trkpt>
      <trkpt lat="47.27823" lon="-2.32518">
        <ele>17.200000762939</ele>
        <time>2021-04-18T10:17:33.000Z</time>
      </trkpt>
      <trkpt lat="47.27806" lon="-2.32544">
        <ele>17.200000762939</ele>
        <time>2021-04-18T10:17:39.000Z</time>
      </trkpt>
      <trkpt lat="47.27785" lon="-2.32571">
        <ele>17.200000762939</ele>
        <time>2021-04-18T10:17:45.000Z</time>
      </trkpt>
      <trkpt lat="47.27763" lon="-2.32606">
        <ele>17.200000762939</ele>
        <time>2021-04-18T10:17:52.000Z</time>
      </trkpt>
      <trkpt lat="47.27756" lon="-2.32618">
        <ele>16.799999237061</ele>
        <time>2021-04-18T10:17:54.000Z</time>
      </trkpt>
      <trkpt lat="47.27753" lon="-2.32624">
        <ele>16.39999961853</ele>
        <time>2021-04-18T10:17:55.000Z</time>
      </trkpt>
      <trkpt lat="47.2775" lon="-2.32631">
        <ele>16</ele>
        <time>2021-04-18T10:17:56.000Z</time>
      </trkpt>
      <trkpt lat="47.27747" lon="-2.32637">
        <ele>15.60000038147</ele>
        <time>2021-04-18T10:17:57.000Z</time>
      </trkpt>
      <trkpt lat="47.27744" lon="-2.32643">
        <ele>15.199999809265</ele>
        <time>2021-04-18T10:17:58.000Z</time>
      </trkpt>
      <trkpt lat="47.27742" lon="-2.3265">
        <ele>14.60000038147</ele>
        <time>2021-04-18T10:17:59.000Z</time>
      </trkpt>
      <trkpt lat="47.27739" lon="-2.32657">
        <ele>14.199999809265</ele>
        <time>2021-04-18T10:18:00.000Z</time>
      </trkpt>
      <trkpt lat="47.27736" lon="-2.32664">
        <ele>13.800000190735</ele>
        <time>2021-04-18T10:18:01.000Z</time>
      </trkpt>
      <trkpt lat="47.27733" lon="-2.32671">
        <ele>13</ele>
        <time>2021-04-18T10:18:02.000Z</time>
      </trkpt>
      <trkpt lat="47.2773" lon="-2.32677">
        <ele>12.39999961853</ele>
        <time>2021-04-18T10:18:03.000Z</time>
      </trkpt>
      <trkpt lat="47.27727" lon="-2.32682">
        <ele>11.800000190735</ele>
        <time>2021-04-18T10:18:04.000Z</time>
      </trkpt>
      <trkpt lat="47.27724" lon="-2.32686">
        <ele>11</ele>
        <time>2021-04-18T10:18:05.000Z</time>
      </trkpt>
      <trkpt lat="47.27721" lon="-2.3269">
        <ele>10.39999961853</ele>
        <time>2021-04-18T10:18:06.000Z</time>
      </trkpt>
      <trkpt lat="47.27719" lon="-2.32693">
        <ele>9.6000003814697</ele>
        <time>2021-04-18T10:18:07.000Z</time>
      </trkpt>
      <trkpt lat="47.27717" lon="-2.32696">
        <ele>8.8000001907349</ele>
        <time>2021-04-18T10:18:08.000Z</time>
      </trkpt>
      <trkpt lat="47.27715" lon="-2.327">
        <ele>8.1999998092651</ele>
        <time>2021-04-18T10:18:09.000Z</time>
      </trkpt>
      <trkpt lat="47.27711" lon="-2.32707">
        <ele>7.5999999046326</ele>
        <time>2021-04-18T10:18:11.000Z</time>
      </trkpt>
      <trkpt lat="47.27709" lon="-2.3271">
        <ele>7.1999998092651</ele>
        <time>2021-04-18T10:18:12.000Z</time>
      </trkpt>
      <trkpt lat="47.27707" lon="-2.32713">
        <ele>6.8000001907349</ele>
        <time>2021-04-18T10:18:13.000Z</time>
      </trkpt>
      <trkpt lat="47.27704" lon="-2.32716">
        <ele>6.4000000953674</ele>
        <time>2021-04-18T10:18:14.000Z</time>
      </trkpt>
      <trkpt lat="47.27702" lon="-2.32719">
        <ele>6</ele>
        <time>2021-04-18T10:18:15.000Z</time>
      </trkpt>
      <trkpt lat="47.27689" lon="-2.32728">
        <ele>6</ele>
        <time>2021-04-18T10:18:21.000Z</time>
      </trkpt>
      <trkpt lat="47.27675" lon="-2.32726">
        <ele>6</ele>
        <time>2021-04-18T10:18:26.000Z</time>
      </trkpt>
      <trkpt lat="47.27658" lon="-2.32716">
        <ele>6</ele>
        <time>2021-04-18T10:18:31.000Z</time>
      </trkpt>
      <trkpt lat="47.27636" lon="-2.32703">
        <ele>6</ele>
        <time>2021-04-18T10:18:37.000Z</time>
      </trkpt>
      <trkpt lat="47.27624" lon="-2.32693">
        <ele>6</ele>
        <time>2021-04-18T10:18:40.000Z</time>
      </trkpt>
      <trkpt lat="47.27619" lon="-2.32693">
        <ele>6</ele>
        <time>2021-04-18T10:18:41.000Z</time>
      </trkpt>
      <trkpt lat="47.27604" lon="-2.32705">
        <ele>6</ele>
        <time>2021-04-18T10:18:45.000Z</time>
      </trkpt>
      <trkpt lat="47.276" lon="-2.32714">
        <ele>6</ele>
        <time>2021-04-18T10:18:47.000Z</time>
      </trkpt>
      <trkpt lat="47.27594" lon="-2.32727">
        <ele>6</ele>
        <time>2021-04-18T10:18:50.000Z</time>
      </trkpt>
      <trkpt lat="47.27591" lon="-2.32737">
        <ele>6</ele>
        <time>2021-04-18T10:18:54.000Z</time>
      </trkpt>
      <trkpt lat="47.27591" lon="-2.32742">
        <ele>6.4000000953674</ele>
        <time>2021-04-18T10:18:56.000Z</time>
      </trkpt>
      <trkpt lat="47.27592" lon="-2.32745">
        <ele>6.8000001907349</ele>
        <time>2021-04-18T10:18:57.000Z</time>
      </trkpt>
      <trkpt lat="47.27591" lon="-2.32747">
        <ele>7.1999998092651</ele>
        <time>2021-04-18T10:18:58.000Z</time>
      </trkpt>
      <trkpt lat="47.27591" lon="-2.3275">
        <ele>7.8000001907349</ele>
        <time>2021-04-18T10:18:59.000Z</time>
      </trkpt>
      <trkpt lat="47.2759" lon="-2.32753">
        <ele>8.1999998092651</ele>
        <time>2021-04-18T10:19:00.000Z</time>
      </trkpt>
      <trkpt lat="47.27589" lon="-2.32756">
        <ele>8.6000003814697</ele>
        <time>2021-04-18T10:19:01.000Z</time>
      </trkpt>
      <trkpt lat="47.27587" lon="-2.3276">
        <ele>9</ele>
        <time>2021-04-18T10:19:02.000Z</time>
      </trkpt>
      <trkpt lat="47.27585" lon="-2.32763">
        <ele>9.3999996185303</ele>
        <time>2021-04-18T10:19:03.000Z</time>
      </trkpt>
      <trkpt lat="47.27583" lon="-2.32766">
        <ele>9.8000001907349</ele>
        <time>2021-04-18T10:19:04.000Z</time>
      </trkpt>
      <trkpt lat="47.27581" lon="-2.3277">
        <ele>10.199999809265</ele>
        <time>2021-04-18T10:19:05.000Z</time>
      </trkpt>
      <trkpt lat="47.27579" lon="-2.32774">
        <ele>10.199999809265</ele>
        <time>2021-04-18T10:19:06.000Z</time>
      </trkpt>
      <trkpt lat="47.27572" lon="-2.32796">
        <ele>10.199999809265</ele>
        <time>2021-04-18T10:19:12.000Z</time>
      </trkpt>
      <trkpt lat="47.27564" lon="-2.32815">
        <ele>10.60000038147</ele>
        <time>2021-04-18T10:19:18.000Z</time>
      </trkpt>
      <trkpt lat="47.27564" lon="-2.32817">
        <ele>11</ele>
        <time>2021-04-18T10:19:19.000Z</time>
      </trkpt>
      <trkpt lat="47.27563" lon="-2.3282">
        <ele>11.39999961853</ele>
        <time>2021-04-18T10:19:20.000Z</time>
      </trkpt>
      <trkpt lat="47.27561" lon="-2.32824">
        <ele>11.800000190735</ele>
        <time>2021-04-18T10:19:21.000Z</time>
      </trkpt>
      <trkpt lat="47.2756" lon="-2.32827">
        <ele>12.199999809265</ele>
        <time>2021-04-18T10:19:22.000Z</time>
      </trkpt>
      <trkpt lat="47.27554" lon="-2.32838">
        <ele>12.199999809265</ele>
        <time>2021-04-18T10:19:25.000Z</time>
      </trkpt>
      <trkpt lat="47.2754" lon="-2.32852">
        <ele>12.199999809265</ele>
        <time>2021-04-18T10:19:30.000Z</time>
      </trkpt>
      <trkpt lat="47.27525" lon="-2.32867">
        <ele>12.199999809265</ele>
        <time>2021-04-18T10:19:35.000Z</time>
      </trkpt>
      <trkpt lat="47.27522" lon="-2.32871">
        <ele>12.60000038147</ele>
        <time>2021-04-18T10:19:36.000Z</time>
      </trkpt>
      <trkpt lat="47.2752" lon="-2.32876">
        <ele>13</ele>
        <time>2021-04-18T10:19:37.000Z</time>
      </trkpt>
      <trkpt lat="47.27517" lon="-2.3288">
        <ele>13.39999961853</ele>
        <time>2021-04-18T10:19:38.000Z</time>
      </trkpt>
      <trkpt lat="47.27514" lon="-2.32886">
        <ele>13.800000190735</ele>
        <time>2021-04-18T10:19:39.000Z</time>
      </trkpt>
      <trkpt lat="47.27512" lon="-2.32892">
        <ele>14.199999809265</ele>
        <time>2021-04-18T10:19:40.000Z</time>
      </trkpt>
      <trkpt lat="47.2751" lon="-2.32897">
        <ele>14.199999809265</ele>
        <time>2021-04-18T10:19:41.000Z</time>
      </trkpt>
      <trkpt lat="47.27504" lon="-2.32915">
        <ele>14.199999809265</ele>
        <time>2021-04-18T10:19:44.000Z</time>
      </trkpt>
      <trkpt lat="47.27501" lon="-2.32933">
        <ele>14.199999809265</ele>
        <time>2021-04-18T10:19:47.000Z</time>
      </trkpt>
      <trkpt lat="47.27491" lon="-2.32969">
        <ele>14.60000038147</ele>
        <time>2021-04-18T10:19:54.000Z</time>
      </trkpt>
      <trkpt lat="47.2749" lon="-2.32973">
        <ele>15</ele>
        <time>2021-04-18T10:19:55.000Z</time>
      </trkpt>
      <trkpt lat="47.27488" lon="-2.32977">
        <ele>16</ele>
        <time>2021-04-18T10:19:56.000Z</time>
      </trkpt>
      <trkpt lat="47.27486" lon="-2.32982">
        <ele>16.39999961853</ele>
        <time>2021-04-18T10:19:57.000Z</time>
      </trkpt>
      <trkpt lat="47.27481" lon="-2.32997">
        <ele>16.39999961853</ele>
        <time>2021-04-18T10:20:00.000Z</time>
      </trkpt>
      <trkpt lat="47.2747" lon="-2.33025">
        <ele>16.39999961853</ele>
        <time>2021-04-18T10:20:06.000Z</time>
      </trkpt>
      <trkpt lat="47.27468" lon="-2.33029">
        <ele>16.799999237061</ele>
        <time>2021-04-18T10:20:07.000Z</time>
      </trkpt>
      <trkpt lat="47.27465" lon="-2.33033">
        <ele>17.200000762939</ele>
        <time>2021-04-18T10:20:08.000Z</time>
      </trkpt>
      <trkpt lat="47.27464" lon="-2.33038">
        <ele>17.60000038147</ele>
        <time>2021-04-18T10:20:09.000Z</time>
      </trkpt>
      <trkpt lat="47.27463" lon="-2.33044">
        <ele>18</ele>
        <time>2021-04-18T10:20:10.000Z</time>
      </trkpt>
      <trkpt lat="47.27462" lon="-2.3305">
        <ele>18.39999961853</ele>
        <time>2021-04-18T10:20:11.000Z</time>
      </trkpt>
      <trkpt lat="47.27461" lon="-2.33072">
        <ele>18.39999961853</ele>
        <time>2021-04-18T10:20:15.000Z</time>
      </trkpt>
      <trkpt lat="47.27454" lon="-2.33086">
        <ele>18.799999237061</ele>
        <time>2021-04-18T10:20:18.000Z</time>
      </trkpt>
      <trkpt lat="47.27452" lon="-2.33091">
        <ele>19.200000762939</ele>
        <time>2021-04-18T10:20:19.000Z</time>
      </trkpt>
      <trkpt lat="47.27449" lon="-2.33096">
        <ele>19.799999237061</ele>
        <time>2021-04-18T10:20:20.000Z</time>
      </trkpt>
      <trkpt lat="47.27447" lon="-2.33101">
        <ele>20.60000038147</ele>
        <time>2021-04-18T10:20:21.000Z</time>
      </trkpt>
      <trkpt lat="47.27445" lon="-2.33113">
        <ele>20.60000038147</ele>
        <time>2021-04-18T10:20:23.000Z</time>
      </trkpt>
      <trkpt lat="47.27442" lon="-2.33132">
        <ele>20.60000038147</ele>
        <time>2021-04-18T10:20:26.000Z</time>
      </trkpt>
      <trkpt lat="47.27433" lon="-2.33182">
        <ele>20.60000038147</ele>
        <time>2021-04-18T10:20:34.000Z</time>
      </trkpt>
      <trkpt lat="47.27432" lon="-2.33189">
        <ele>21</ele>
        <time>2021-04-18T10:20:35.000Z</time>
      </trkpt>
      <trkpt lat="47.27431" lon="-2.33195">
        <ele>21.39999961853</ele>
        <time>2021-04-18T10:20:36.000Z</time>
      </trkpt>
      <trkpt lat="47.2743" lon="-2.33201">
        <ele>21.799999237061</ele>
        <time>2021-04-18T10:20:37.000Z</time>
      </trkpt>
      <trkpt lat="47.27428" lon="-2.33207">
        <ele>22.200000762939</ele>
        <time>2021-04-18T10:20:38.000Z</time>
      </trkpt>
      <trkpt lat="47.27426" lon="-2.33213">
        <ele>22.60000038147</ele>
        <time>2021-04-18T10:20:39.000Z</time>
      </trkpt>
      <trkpt lat="47.27422" lon="-2.33229">
        <ele>22.60000038147</ele>
        <time>2021-04-18T10:20:42.000Z</time>
      </trkpt>
      <trkpt lat="47.2741" lon="-2.33268">
        <ele>22.60000038147</ele>
        <time>2021-04-18T10:20:49.000Z</time>
      </trkpt>
      <trkpt lat="47.274" lon="-2.33315">
        <ele>22.60000038147</ele>
        <time>2021-04-18T10:20:58.000Z</time>
      </trkpt>
      <trkpt lat="47.27404" lon="-2.33346">
        <ele>22.60000038147</ele>
        <time>2021-04-18T10:21:05.000Z</time>
      </trkpt>
      <trkpt lat="47.27415" lon="-2.33386">
        <ele>22.60000038147</ele>
        <time>2021-04-18T10:21:13.000Z</time>
      </trkpt>
      <trkpt lat="47.27432" lon="-2.3343">
        <ele>22.60000038147</ele>
        <time>2021-04-18T10:21:22.000Z</time>
      </trkpt>
      <trkpt lat="47.27448" lon="-2.33444">
        <ele>22.60000038147</ele>
        <time>2021-04-18T10:21:27.000Z</time>
      </trkpt>
      <trkpt lat="47.27462" lon="-2.33446">
        <ele>22.60000038147</ele>
        <time>2021-04-18T10:21:31.000Z</time>
      </trkpt>
      <trkpt lat="47.27473" lon="-2.3346">
        <ele>22.60000038147</ele>
        <time>2021-04-18T10:21:35.000Z</time>
      </trkpt>
      <trkpt lat="47.27486" lon="-2.33478">
        <ele>22.60000038147</ele>
        <time>2021-04-18T10:21:40.000Z</time>
      </trkpt>
      <trkpt lat="47.2749" lon="-2.33479">
        <ele>22.60000038147</ele>
        <time>2021-04-18T10:21:41.000Z</time>
      </trkpt>
      <trkpt lat="47.27513" lon="-2.33489">
        <ele>22.60000038147</ele>
        <time>2021-04-18T10:21:47.000Z</time>
      </trkpt>
      <trkpt lat="47.27517" lon="-2.3349">
        <ele>23</ele>
        <time>2021-04-18T10:21:48.000Z</time>
      </trkpt>
      <trkpt lat="47.27521" lon="-2.33492">
        <ele>23.39999961853</ele>
        <time>2021-04-18T10:21:49.000Z</time>
      </trkpt>
      <trkpt lat="47.27524" lon="-2.33494">
        <ele>23.799999237061</ele>
        <time>2021-04-18T10:21:50.000Z</time>
      </trkpt>
      <trkpt lat="47.27528" lon="-2.33494">
        <ele>24.200000762939</ele>
        <time>2021-04-18T10:21:51.000Z</time>
      </trkpt>
      <trkpt lat="47.27531" lon="-2.33496">
        <ele>24.799999237061</ele>
        <time>2021-04-18T10:21:52.000Z</time>
      </trkpt>
      <trkpt lat="47.27537" lon="-2.33498">
        <ele>24.799999237061</ele>
        <time>2021-04-18T10:21:54.000Z</time>
      </trkpt>
      <trkpt lat="47.27558" lon="-2.33505">
        <ele>24.799999237061</ele>
        <time>2021-04-18T10:22:01.000Z</time>
      </trkpt>
      <trkpt lat="47.27582" lon="-2.33516">
        <ele>24.799999237061</ele>
        <time>2021-04-18T10:22:07.000Z</time>
      </trkpt>
      <trkpt lat="47.27609" lon="-2.33535">
        <ele>24.799999237061</ele>
        <time>2021-04-18T10:22:14.000Z</time>
      </trkpt>
      <trkpt lat="47.27627" lon="-2.33558">
        <ele>24.799999237061</ele>
        <time>2021-04-18T10:22:20.000Z</time>
      </trkpt>
      <trkpt lat="47.2765" lon="-2.33596">
        <ele>24.799999237061</ele>
        <time>2021-04-18T10:22:28.000Z</time>
      </trkpt>
      <trkpt lat="47.27668" lon="-2.33637">
        <ele>24.799999237061</ele>
        <time>2021-04-18T10:22:35.000Z</time>
      </trkpt>
      <trkpt lat="47.27686" lon="-2.33681">
        <ele>24.799999237061</ele>
        <time>2021-04-18T10:22:43.000Z</time>
      </trkpt>
      <trkpt lat="47.27694" lon="-2.33701">
        <ele>24.799999237061</ele>
        <time>2021-04-18T10:22:47.000Z</time>
      </trkpt>
      <trkpt lat="47.27703" lon="-2.33719">
        <ele>24.799999237061</ele>
        <time>2021-04-18T10:22:51.000Z</time>
      </trkpt>
      <trkpt lat="47.27707" lon="-2.33724">
        <ele>24.799999237061</ele>
        <time>2021-04-18T10:22:52.000Z</time>
      </trkpt>
      <trkpt lat="47.27719" lon="-2.33739">
        <ele>24.799999237061</ele>
        <time>2021-04-18T10:22:56.000Z</time>
      </trkpt>
      <trkpt lat="47.27721" lon="-2.33751">
        <ele>24.799999237061</ele>
        <time>2021-04-18T10:22:59.000Z</time>
      </trkpt>
      <trkpt lat="47.27719" lon="-2.33759">
        <ele>24.799999237061</ele>
        <time>2021-04-18T10:23:03.000Z</time>
      </trkpt>
      <trkpt lat="47.2772" lon="-2.3376">
        <ele>24.799999237061</ele>
        <time>2021-04-18T10:23:05.000Z</time>
      </trkpt>
      <trkpt lat="47.27713" lon="-2.33758">
        <ele>24.799999237061</ele>
        <time>2021-04-18T10:33:07.000Z</time>
      </trkpt>
      <trkpt lat="47.27702" lon="-2.33754">
        <ele>24.799999237061</ele>
        <time>2021-04-18T10:33:11.000Z</time>
      </trkpt>
      <trkpt lat="47.27688" lon="-2.33753">
        <ele>24.799999237061</ele>
        <time>2021-04-18T10:33:15.000Z</time>
      </trkpt>
      <trkpt lat="47.2768" lon="-2.33755">
        <ele>24.799999237061</ele>
        <time>2021-04-18T10:33:17.000Z</time>
      </trkpt>
      <trkpt lat="47.27661" lon="-2.33763">
        <ele>24.799999237061</ele>
        <time>2021-04-18T10:33:22.000Z</time>
      </trkpt>
      <trkpt lat="47.27648" lon="-2.33769">
        <ele>24.799999237061</ele>
        <time>2021-04-18T10:33:25.000Z</time>
      </trkpt>
      <trkpt lat="47.27611" lon="-2.33792">
        <ele>24.799999237061</ele>
        <time>2021-04-18T10:33:34.000Z</time>
      </trkpt>
      <trkpt lat="47.27572" lon="-2.33821">
        <ele>24.799999237061</ele>
        <time>2021-04-18T10:33:43.000Z</time>
      </trkpt>
      <trkpt lat="47.27543" lon="-2.33843">
        <ele>24.799999237061</ele>
        <time>2021-04-18T10:33:50.000Z</time>
      </trkpt>
      <trkpt lat="47.27527" lon="-2.33858">
        <ele>24.799999237061</ele>
        <time>2021-04-18T10:33:55.000Z</time>
      </trkpt>
      <trkpt lat="47.27527" lon="-2.33859">
        <ele>24.799999237061</ele>
        <time>2021-04-18T10:33:56.000Z</time>
      </trkpt>
      <trkpt lat="47.27522" lon="-2.33864">
        <ele>24.799999237061</ele>
        <time>2021-04-18T10:33:59.000Z</time>
      </trkpt>
      <trkpt lat="47.27508" lon="-2.33875">
        <ele>24.799999237061</ele>
        <time>2021-04-18T10:34:03.000Z</time>
      </trkpt>
      <trkpt lat="47.27504" lon="-2.33879">
        <ele>24.799999237061</ele>
        <time>2021-04-18T10:34:04.000Z</time>
      </trkpt>
      <trkpt lat="47.27482" lon="-2.33905">
        <ele>24.799999237061</ele>
        <time>2021-04-18T10:34:10.000Z</time>
      </trkpt>
      <trkpt lat="47.27479" lon="-2.33909">
        <ele>24.799999237061</ele>
        <time>2021-04-18T10:34:11.000Z</time>
      </trkpt>
      <trkpt lat="47.27449" lon="-2.33946">
        <ele>24.799999237061</ele>
        <time>2021-04-18T10:34:19.000Z</time>
      </trkpt>
      <trkpt lat="47.27434" lon="-2.3397">
        <ele>24.799999237061</ele>
        <time>2021-04-18T10:34:25.000Z</time>
      </trkpt>
      <trkpt lat="47.27431" lon="-2.33983">
        <ele>24.799999237061</ele>
        <time>2021-04-18T10:34:29.000Z</time>
      </trkpt>
      <trkpt lat="47.27422" lon="-2.33992">
        <ele>24.799999237061</ele>
        <time>2021-04-18T10:34:33.000Z</time>
      </trkpt>
      <trkpt lat="47.27412" lon="-2.34003">
        <ele>24.799999237061</ele>
        <time>2021-04-18T10:34:36.000Z</time>
      </trkpt>
      <trkpt lat="47.27405" lon="-2.34009">
        <ele>24.799999237061</ele>
        <time>2021-04-18T10:34:38.000Z</time>
      </trkpt>
      <trkpt lat="47.27396" lon="-2.34007">
        <ele>24.799999237061</ele>
        <time>2021-04-18T10:34:41.000Z</time>
      </trkpt>
      <trkpt lat="47.27392" lon="-2.3399">
        <ele>24.799999237061</ele>
        <time>2021-04-18T10:34:44.000Z</time>
      </trkpt>
      <trkpt lat="47.27391" lon="-2.33971">
        <ele>24.799999237061</ele>
        <time>2021-04-18T10:34:47.000Z</time>
      </trkpt>
      <trkpt lat="47.27387" lon="-2.33964">
        <ele>24.799999237061</ele>
        <time>2021-04-18T10:34:49.000Z</time>
      </trkpt>
      <trkpt lat="47.27376" lon="-2.33963">
        <ele>24.799999237061</ele>
        <time>2021-04-18T10:34:52.000Z</time>
      </trkpt>
      <trkpt lat="47.27372" lon="-2.33964">
        <ele>24.799999237061</ele>
        <time>2021-04-18T10:34:53.000Z</time>
      </trkpt>
      <trkpt lat="47.27351" lon="-2.33963">
        <ele>24.799999237061</ele>
        <time>2021-04-18T10:34:57.000Z</time>
      </trkpt>
      <trkpt lat="47.2733" lon="-2.33957">
        <ele>24.799999237061</ele>
        <time>2021-04-18T10:35:01.000Z</time>
      </trkpt>
      <trkpt lat="47.27326" lon="-2.33953">
        <ele>24.799999237061</ele>
        <time>2021-04-18T10:35:02.000Z</time>
      </trkpt>
      <trkpt lat="47.27321" lon="-2.33947">
        <ele>24.799999237061</ele>
        <time>2021-04-18T10:35:03.000Z</time>
      </trkpt>
      <trkpt lat="47.27295" lon="-2.33917">
        <ele>24.799999237061</ele>
        <time>2021-04-18T10:35:09.000Z</time>
      </trkpt>
      <trkpt lat="47.27278" lon="-2.33895">
        <ele>24.799999237061</ele>
        <time>2021-04-18T10:35:13.000Z</time>
      </trkpt>
      <trkpt lat="47.27273" lon="-2.3389">
        <ele>24.799999237061</ele>
        <time>2021-04-18T10:35:14.000Z</time>
      </trkpt>
      <trkpt lat="47.27248" lon="-2.33864">
        <ele>24.799999237061</ele>
        <time>2021-04-18T10:35:19.000Z</time>
      </trkpt>
      <trkpt lat="47.27242" lon="-2.33862">
        <ele>24.799999237061</ele>
        <time>2021-04-18T10:35:20.000Z</time>
      </trkpt>
      <trkpt lat="47.27206" lon="-2.33848">
        <ele>24.799999237061</ele>
        <time>2021-04-18T10:35:27.000Z</time>
      </trkpt>
      <trkpt lat="47.27195" lon="-2.33848">
        <ele>24.799999237061</ele>
        <time>2021-04-18T10:35:29.000Z</time>
      </trkpt>
      <trkpt lat="47.27187" lon="-2.33856">
        <ele>24.799999237061</ele>
        <time>2021-04-18T10:35:31.000Z</time>
      </trkpt>
      <trkpt lat="47.27182" lon="-2.33878">
        <ele>24.799999237061</ele>
        <time>2021-04-18T10:35:34.000Z</time>
      </trkpt>
      <trkpt lat="47.27176" lon="-2.3389">
        <ele>24.799999237061</ele>
        <time>2021-04-18T10:35:36.000Z</time>
      </trkpt>
      <trkpt lat="47.27164" lon="-2.33913">
        <ele>24.799999237061</ele>
        <time>2021-04-18T10:35:39.000Z</time>
      </trkpt>
      <trkpt lat="47.27158" lon="-2.33921">
        <ele>24.200000762939</ele>
        <time>2021-04-18T10:35:40.000Z</time>
      </trkpt>
      <trkpt lat="47.27153" lon="-2.33929">
        <ele>23.799999237061</ele>
        <time>2021-04-18T10:35:41.000Z</time>
      </trkpt>
      <trkpt lat="47.27148" lon="-2.33937">
        <ele>23.39999961853</ele>
        <time>2021-04-18T10:35:42.000Z</time>
      </trkpt>
      <trkpt lat="47.27143" lon="-2.33943">
        <ele>23</ele>
        <time>2021-04-18T10:35:43.000Z</time>
      </trkpt>
      <trkpt lat="47.27138" lon="-2.33949">
        <ele>22.60000038147</ele>
        <time>2021-04-18T10:35:44.000Z</time>
      </trkpt>
      <trkpt lat="47.27135" lon="-2.33953">
        <ele>22</ele>
        <time>2021-04-18T10:35:45.000Z</time>
      </trkpt>
      <trkpt lat="47.27133" lon="-2.33956">
        <ele>21.60000038147</ele>
        <time>2021-04-18T10:35:46.000Z</time>
      </trkpt>
      <trkpt lat="47.27131" lon="-2.33959">
        <ele>21.200000762939</ele>
        <time>2021-04-18T10:35:47.000Z</time>
      </trkpt>
      <trkpt lat="47.27129" lon="-2.33961">
        <ele>20.60000038147</ele>
        <time>2021-04-18T10:35:48.000Z</time>
      </trkpt>
      <trkpt lat="47.27126" lon="-2.33964">
        <ele>20.200000762939</ele>
        <time>2021-04-18T10:35:49.000Z</time>
      </trkpt>
      <trkpt lat="47.27118" lon="-2.33964">
        <ele>20.200000762939</ele>
        <time>2021-04-18T10:35:52.000Z</time>
      </trkpt>
      <trkpt lat="47.27113" lon="-2.33958">
        <ele>20.200000762939</ele>
        <time>2021-04-18T10:35:53.000Z</time>
      </trkpt>
      <trkpt lat="47.2709" lon="-2.33935">
        <ele>19.799999237061</ele>
        <time>2021-04-18T10:35:57.000Z</time>
      </trkpt>
      <trkpt lat="47.27082" lon="-2.33928">
        <ele>19.39999961853</ele>
        <time>2021-04-18T10:35:58.000Z</time>
      </trkpt>
      <trkpt lat="47.27074" lon="-2.33921">
        <ele>19</ele>
        <time>2021-04-18T10:35:59.000Z</time>
      </trkpt>
      <trkpt lat="47.27066" lon="-2.33913">
        <ele>18</ele>
        <time>2021-04-18T10:36:00.000Z</time>
      </trkpt>
      <trkpt lat="47.27059" lon="-2.33906">
        <ele>17.60000038147</ele>
        <time>2021-04-18T10:36:01.000Z</time>
      </trkpt>
      <trkpt lat="47.27052" lon="-2.33897">
        <ele>17</ele>
        <time>2021-04-18T10:36:02.000Z</time>
      </trkpt>
      <trkpt lat="47.27044" lon="-2.3389">
        <ele>16.60000038147</ele>
        <time>2021-04-18T10:36:03.000Z</time>
      </trkpt>
      <trkpt lat="47.27036" lon="-2.33884">
        <ele>16</ele>
        <time>2021-04-18T10:36:04.000Z</time>
      </trkpt>
      <trkpt lat="47.27021" lon="-2.33871">
        <ele>15.60000038147</ele>
        <time>2021-04-18T10:36:06.000Z</time>
      </trkpt>
      <trkpt lat="47.27013" lon="-2.33866">
        <ele>15.199999809265</ele>
        <time>2021-04-18T10:36:07.000Z</time>
      </trkpt>
      <trkpt lat="47.27005" lon="-2.33861">
        <ele>14.800000190735</ele>
        <time>2021-04-18T10:36:08.000Z</time>
      </trkpt>
      <trkpt lat="47.26997" lon="-2.33855">
        <ele>14.39999961853</ele>
        <time>2021-04-18T10:36:09.000Z</time>
      </trkpt>
      <trkpt lat="47.26989" lon="-2.3385">
        <ele>14</ele>
        <time>2021-04-18T10:36:10.000Z</time>
      </trkpt>
      <trkpt lat="47.2698" lon="-2.33845">
        <ele>13.60000038147</ele>
        <time>2021-04-18T10:36:11.000Z</time>
      </trkpt>
      <trkpt lat="47.26972" lon="-2.33839">
        <ele>13.199999809265</ele>
        <time>2021-04-18T10:36:12.000Z</time>
      </trkpt>
      <trkpt lat="47.26964" lon="-2.33835">
        <ele>12.800000190735</ele>
        <time>2021-04-18T10:36:13.000Z</time>
      </trkpt>
      <trkpt lat="47.26955" lon="-2.33831">
        <ele>12.199999809265</ele>
        <time>2021-04-18T10:36:14.000Z</time>
      </trkpt>
      <trkpt lat="47.26948" lon="-2.33827">
        <ele>11.800000190735</ele>
        <time>2021-04-18T10:36:15.000Z</time>
      </trkpt>
      <trkpt lat="47.26941" lon="-2.33821">
        <ele>11.39999961853</ele>
        <time>2021-04-18T10:36:16.000Z</time>
      </trkpt>
      <trkpt lat="47.26934" lon="-2.33816">
        <ele>11</ele>
        <time>2021-04-18T10:36:17.000Z</time>
      </trkpt>
      <trkpt lat="47.26929" lon="-2.33807">
        <ele>10.60000038147</ele>
        <time>2021-04-18T10:36:18.000Z</time>
      </trkpt>
      <trkpt lat="47.26924" lon="-2.338">
        <ele>10</ele>
        <time>2021-04-18T10:36:19.000Z</time>
      </trkpt>
      <trkpt lat="47.2692" lon="-2.33791">
        <ele>9.6000003814697</ele>
        <time>2021-04-18T10:36:20.000Z</time>
      </trkpt>
      <trkpt lat="47.26916" lon="-2.33782">
        <ele>9.1999998092651</ele>
        <time>2021-04-18T10:36:21.000Z</time>
      </trkpt>
      <trkpt lat="47.26917" lon="-2.33774">
        <ele>8.8000001907349</ele>
        <time>2021-04-18T10:36:22.000Z</time>
      </trkpt>
      <trkpt lat="47.2692" lon="-2.33764">
        <ele>8.3999996185303</ele>
        <time>2021-04-18T10:36:23.000Z</time>
      </trkpt>
      <trkpt lat="47.26922" lon="-2.33755">
        <ele>7.5999999046326</ele>
        <time>2021-04-18T10:36:24.000Z</time>
      </trkpt>
      <trkpt lat="47.26925" lon="-2.33745">
        <ele>7.5999999046326</ele>
        <time>2021-04-18T10:36:25.000Z</time>
      </trkpt>
      <trkpt lat="47.26928" lon="-2.33734">
        <ele>7.5999999046326</ele>
        <time>2021-04-18T10:36:26.000Z</time>
      </trkpt>
      <trkpt lat="47.26931" lon="-2.33714">
        <ele>7.5999999046326</ele>
        <time>2021-04-18T10:36:28.000Z</time>
      </trkpt>
      <trkpt lat="47.26931" lon="-2.33704">
        <ele>7.5999999046326</ele>
        <time>2021-04-18T10:36:29.000Z</time>
      </trkpt>
      <trkpt lat="47.26928" lon="-2.33675">
        <ele>7.5999999046326</ele>
        <time>2021-04-18T10:36:32.000Z</time>
      </trkpt>
      <trkpt lat="47.26927" lon="-2.33664">
        <ele>7.5999999046326</ele>
        <time>2021-04-18T10:36:33.000Z</time>
      </trkpt>
      <trkpt lat="47.2692" lon="-2.33623">
        <ele>7.5999999046326</ele>
        <time>2021-04-18T10:36:37.000Z</time>
      </trkpt>
      <trkpt lat="47.26915" lon="-2.33605">
        <ele>7.5999999046326</ele>
        <time>2021-04-18T10:36:39.000Z</time>
      </trkpt>
      <trkpt lat="47.26904" lon="-2.33576">
        <ele>7.5999999046326</ele>
        <time>2021-04-18T10:36:42.000Z</time>
      </trkpt>
      <trkpt lat="47.26888" lon="-2.33542">
        <ele>7.5999999046326</ele>
        <time>2021-04-18T10:36:46.000Z</time>
      </trkpt>
      <trkpt lat="47.26882" lon="-2.33536">
        <ele>7.1999998092651</ele>
        <time>2021-04-18T10:36:47.000Z</time>
      </trkpt>
      <trkpt lat="47.26874" lon="-2.33534">
        <ele>6.4000000953674</ele>
        <time>2021-04-18T10:36:48.000Z</time>
      </trkpt>
      <trkpt lat="47.26866" lon="-2.33535">
        <ele>5.8000001907349</ele>
        <time>2021-04-18T10:36:49.000Z</time>
      </trkpt>
      <trkpt lat="47.26859" lon="-2.33537">
        <ele>5.4000000953674</ele>
        <time>2021-04-18T10:36:50.000Z</time>
      </trkpt>
      <trkpt lat="47.26852" lon="-2.3354">
        <ele>4.8000001907349</ele>
        <time>2021-04-18T10:36:51.000Z</time>
      </trkpt>
      <trkpt lat="47.26845" lon="-2.33542">
        <ele>4.4000000953674</ele>
        <time>2021-04-18T10:36:52.000Z</time>
      </trkpt>
      <trkpt lat="47.26839" lon="-2.33545">
        <ele>3.7999999523163</ele>
        <time>2021-04-18T10:36:53.000Z</time>
      </trkpt>
      <trkpt lat="47.26832" lon="-2.33547">
        <ele>3.4000000953674</ele>
        <time>2021-04-18T10:36:54.000Z</time>
      </trkpt>
      <trkpt lat="47.2681" lon="-2.33556">
        <ele>3.4000000953674</ele>
        <time>2021-04-18T10:36:57.000Z</time>
      </trkpt>
      <trkpt lat="47.26782" lon="-2.33567">
        <ele>3.4000000953674</ele>
        <time>2021-04-18T10:37:02.000Z</time>
      </trkpt>
      <trkpt lat="47.26779" lon="-2.33567">
        <ele>3</ele>
        <time>2021-04-18T10:37:03.000Z</time>
      </trkpt>
      <trkpt lat="47.26779" lon="-2.33564">
        <ele>2.5999999046326</ele>
        <time>2021-04-18T10:37:04.000Z</time>
      </trkpt>
      <trkpt lat="47.26778" lon="-2.3356">
        <ele>2</ele>
        <time>2021-04-18T10:37:05.000Z</time>
      </trkpt>
      <trkpt lat="47.26777" lon="-2.33554">
        <ele>1.6000000238419</ele>
        <time>2021-04-18T10:37:06.000Z</time>
      </trkpt>
      <trkpt lat="47.26776" lon="-2.33548">
        <ele>1.2000000476837</ele>
        <time>2021-04-18T10:37:07.000Z</time>
      </trkpt>
      <trkpt lat="47.26773" lon="-2.33526">
        <ele>1.2000000476837</ele>
        <time>2021-04-18T10:37:10.000Z</time>
      </trkpt>
      <trkpt lat="47.26764" lon="-2.33472">
        <ele>1.2000000476837</ele>
        <time>2021-04-18T10:37:16.000Z</time>
      </trkpt>
      <trkpt lat="47.26755" lon="-2.33415">
        <ele>1.2000000476837</ele>
        <time>2021-04-18T10:37:22.000Z</time>
      </trkpt>
      <trkpt lat="47.2675" lon="-2.33367">
        <ele>1.2000000476837</ele>
        <time>2021-04-18T10:37:27.000Z</time>
      </trkpt>
      <trkpt lat="47.26747" lon="-2.33352">
        <ele>1.2000000476837</ele>
        <time>2021-04-18T10:37:29.000Z</time>
      </trkpt>
      <trkpt lat="47.26745" lon="-2.33341">
        <ele>1.2000000476837</ele>
        <time>2021-04-18T10:37:31.000Z</time>
      </trkpt>
      <trkpt lat="47.26744" lon="-2.33338">
        <ele>1.2000000476837</ele>
        <time>2021-04-18T10:37:32.000Z</time>
      </trkpt>
      <trkpt lat="47.26728" lon="-2.33326">
        <ele>1.2000000476837</ele>
        <time>2021-04-18T10:37:37.000Z</time>
      </trkpt>
      <trkpt lat="47.26724" lon="-2.33322">
        <ele>1.2000000476837</ele>
        <time>2021-04-18T10:37:38.000Z</time>
      </trkpt>
      <trkpt lat="47.26717" lon="-2.3331">
        <ele>1.2000000476837</ele>
        <time>2021-04-18T10:37:40.000Z</time>
      </trkpt>
      <trkpt lat="47.26713" lon="-2.33294">
        <ele>1.2000000476837</ele>
        <time>2021-04-18T10:37:42.000Z</time>
      </trkpt>
      <trkpt lat="47.2671" lon="-2.33279">
        <ele>1.2000000476837</ele>
        <time>2021-04-18T10:37:44.000Z</time>
      </trkpt>
      <trkpt lat="47.26709" lon="-2.33271">
        <ele>1.2000000476837</ele>
        <time>2021-04-18T10:37:45.000Z</time>
      </trkpt>
      <trkpt lat="47.26705" lon="-2.33247">
        <ele>1.2000000476837</ele>
        <time>2021-04-18T10:37:48.000Z</time>
      </trkpt>
      <trkpt lat="47.26703" lon="-2.3324">
        <ele>1.2000000476837</ele>
        <time>2021-04-18T10:37:49.000Z</time>
      </trkpt>
      <trkpt lat="47.26697" lon="-2.33209">
        <ele>1.2000000476837</ele>
        <time>2021-04-18T10:37:54.000Z</time>
      </trkpt>
      <trkpt lat="47.26692" lon="-2.33184">
        <ele>1.2000000476837</ele>
        <time>2021-04-18T10:37:58.000Z</time>
      </trkpt>
      <trkpt lat="47.2669" lon="-2.33179">
        <ele>1.2000000476837</ele>
        <time>2021-04-18T10:37:59.000Z</time>
      </trkpt>
      <trkpt lat="47.26684" lon="-2.33172">
        <ele>1.2000000476837</ele>
        <time>2021-04-18T10:38:01.000Z</time>
      </trkpt>
      <trkpt lat="47.26674" lon="-2.33166">
        <ele>1.2000000476837</ele>
        <time>2021-04-18T10:38:05.000Z</time>
      </trkpt>
      <trkpt lat="47.26659" lon="-2.33181">
        <ele>1.2000000476837</ele>
        <time>2021-04-18T10:38:09.000Z</time>
      </trkpt>
      <trkpt lat="47.26626" lon="-2.33213">
        <ele>1.2000000476837</ele>
        <time>2021-04-18T10:38:16.000Z</time>
      </trkpt>
      <trkpt lat="47.26606" lon="-2.33235">
        <ele>1.2000000476837</ele>
        <time>2021-04-18T10:38:21.000Z</time>
      </trkpt>
      <trkpt lat="47.26596" lon="-2.33245">
        <ele>1.2000000476837</ele>
        <time>2021-04-18T10:38:24.000Z</time>
      </trkpt>
      <trkpt lat="47.26584" lon="-2.33256">
        <ele>1.2000000476837</ele>
        <time>2021-04-18T10:38:27.000Z</time>
      </trkpt>
      <trkpt lat="47.26571" lon="-2.33268">
        <ele>1.2000000476837</ele>
        <time>2021-04-18T10:38:30.000Z</time>
      </trkpt>
      <trkpt lat="47.26562" lon="-2.33277">
        <ele>1.2000000476837</ele>
        <time>2021-04-18T10:38:32.000Z</time>
      </trkpt>
      <trkpt lat="47.2654" lon="-2.33301">
        <ele>1.2000000476837</ele>
        <time>2021-04-18T10:38:38.000Z</time>
      </trkpt>
      <trkpt lat="47.26534" lon="-2.33295">
        <ele>1.2000000476837</ele>
        <time>2021-04-18T10:38:41.000Z</time>
      </trkpt>
      <trkpt lat="47.26527" lon="-2.33284">
        <ele>1.2000000476837</ele>
        <time>2021-04-18T10:38:44.000Z</time>
      </trkpt>
      <trkpt lat="47.2652" lon="-2.33286">
        <ele>1.2000000476837</ele>
        <time>2021-04-18T10:38:46.000Z</time>
      </trkpt>
      <trkpt lat="47.26516" lon="-2.33287">
        <ele>1.2000000476837</ele>
        <time>2021-04-18T10:38:47.000Z</time>
      </trkpt>
      <trkpt lat="47.26511" lon="-2.33285">
        <ele>1.2000000476837</ele>
        <time>2021-04-18T10:38:48.000Z</time>
      </trkpt>
      <trkpt lat="47.26499" lon="-2.3328">
        <ele>1.2000000476837</ele>
        <time>2021-04-18T10:38:51.000Z</time>
      </trkpt>
      <trkpt lat="47.26479" lon="-2.33278">
        <ele>1.2000000476837</ele>
        <time>2021-04-18T10:38:55.000Z</time>
      </trkpt>
      <trkpt lat="47.26474" lon="-2.33277">
        <ele>1.2000000476837</ele>
        <time>2021-04-18T10:38:56.000Z</time>
      </trkpt>
      <trkpt lat="47.26443" lon="-2.3327">
        <ele>1.2000000476837</ele>
        <time>2021-04-18T10:39:01.000Z</time>
      </trkpt>
      <trkpt lat="47.26398" lon="-2.33264">
        <ele>1.2000000476837</ele>
        <time>2021-04-18T10:39:08.000Z</time>
      </trkpt>
      <trkpt lat="47.26392" lon="-2.33261">
        <ele>1.2000000476837</ele>
        <time>2021-04-18T10:39:09.000Z</time>
      </trkpt>
      <trkpt lat="47.26383" lon="-2.33249">
        <ele>1.2000000476837</ele>
        <time>2021-04-18T10:39:11.000Z</time>
      </trkpt>
      <trkpt lat="47.26378" lon="-2.33221">
        <ele>1.2000000476837</ele>
        <time>2021-04-18T10:39:14.000Z</time>
      </trkpt>
      <trkpt lat="47.26377" lon="-2.33202">
        <ele>1.2000000476837</ele>
        <time>2021-04-18T10:39:16.000Z</time>
      </trkpt>
      <trkpt lat="47.26375" lon="-2.33154">
        <ele>1.2000000476837</ele>
        <time>2021-04-18T10:39:21.000Z</time>
      </trkpt>
      <trkpt lat="47.2637" lon="-2.33088">
        <ele>1.2000000476837</ele>
        <time>2021-04-18T10:39:28.000Z</time>
      </trkpt>
      <trkpt lat="47.26367" lon="-2.33022">
        <ele>1.2000000476837</ele>
        <time>2021-04-18T10:39:35.000Z</time>
      </trkpt>
      <trkpt lat="47.26366" lon="-2.32986">
        <ele>1.2000000476837</ele>
        <time>2021-04-18T10:39:39.000Z</time>
      </trkpt>
      <trkpt lat="47.26358" lon="-2.32973">
        <ele>1.2000000476837</ele>
        <time>2021-04-18T10:39:41.000Z</time>
      </trkpt>
      <trkpt lat="47.26345" lon="-2.32953">
        <ele>1.2000000476837</ele>
        <time>2021-04-18T10:39:44.000Z</time>
      </trkpt>
      <trkpt lat="47.2634" lon="-2.32937">
        <ele>1.2000000476837</ele>
        <time>2021-04-18T10:39:46.000Z</time>
      </trkpt>
      <trkpt lat="47.26326" lon="-2.32896">
        <ele>1.2000000476837</ele>
        <time>2021-04-18T10:39:51.000Z</time>
      </trkpt>
      <trkpt lat="47.26324" lon="-2.32889">
        <ele>1.2000000476837</ele>
        <time>2021-04-18T10:39:52.000Z</time>
      </trkpt>
      <trkpt lat="47.26315" lon="-2.32868">
        <ele>1.2000000476837</ele>
        <time>2021-04-18T10:39:55.000Z</time>
      </trkpt>
      <trkpt lat="47.2631" lon="-2.32864">
        <ele>1.2000000476837</ele>
        <time>2021-04-18T10:39:56.000Z</time>
      </trkpt>
      <trkpt lat="47.2629" lon="-2.32849">
        <ele>1.2000000476837</ele>
        <time>2021-04-18T10:40:00.000Z</time>
      </trkpt>
      <trkpt lat="47.26279" lon="-2.32819">
        <ele>1.2000000476837</ele>
        <time>2021-04-18T10:40:04.000Z</time>
      </trkpt>
      <trkpt lat="47.26275" lon="-2.32803">
        <ele>1.2000000476837</ele>
        <time>2021-04-18T10:40:06.000Z</time>
      </trkpt>
      <trkpt lat="47.26262" lon="-2.32773">
        <ele>1.2000000476837</ele>
        <time>2021-04-18T10:40:10.000Z</time>
      </trkpt>
      <trkpt lat="47.26241" lon="-2.3274">
        <ele>1.2000000476837</ele>
        <time>2021-04-18T10:40:15.000Z</time>
      </trkpt>
      <trkpt lat="47.26217" lon="-2.32703">
        <ele>1.2000000476837</ele>
        <time>2021-04-18T10:40:21.000Z</time>
      </trkpt>
      <trkpt lat="47.26213" lon="-2.32698">
        <ele>1.2000000476837</ele>
        <time>2021-04-18T10:40:22.000Z</time>
      </trkpt>
      <trkpt lat="47.26201" lon="-2.32681">
        <ele>1.2000000476837</ele>
        <time>2021-04-18T10:40:25.000Z</time>
      </trkpt>
      <trkpt lat="47.26187" lon="-2.32666">
        <ele>1.2000000476837</ele>
        <time>2021-04-18T10:40:28.000Z</time>
      </trkpt>
      <trkpt lat="47.26178" lon="-2.32659">
        <ele>1.2000000476837</ele>
        <time>2021-04-18T10:40:30.000Z</time>
      </trkpt>
      <trkpt lat="47.2616" lon="-2.32648">
        <ele>1.2000000476837</ele>
        <time>2021-04-18T10:40:34.000Z</time>
      </trkpt>
      <trkpt lat="47.26149" lon="-2.32645">
        <ele>1.2000000476837</ele>
        <time>2021-04-18T10:40:36.000Z</time>
      </trkpt>
      <trkpt lat="47.26134" lon="-2.32638">
        <ele>1.2000000476837</ele>
        <time>2021-04-18T10:40:39.000Z</time>
      </trkpt>
      <trkpt lat="47.26118" lon="-2.32636">
        <ele>1.2000000476837</ele>
        <time>2021-04-18T10:40:42.000Z</time>
      </trkpt>
      <trkpt lat="47.26113" lon="-2.32636">
        <ele>1.2000000476837</ele>
        <time>2021-04-18T10:40:43.000Z</time>
      </trkpt>
      <trkpt lat="47.26093" lon="-2.32638">
        <ele>1.2000000476837</ele>
        <time>2021-04-18T10:40:47.000Z</time>
      </trkpt>
      <trkpt lat="47.26051" lon="-2.32646">
        <ele>1.2000000476837</ele>
        <time>2021-04-18T10:40:55.000Z</time>
      </trkpt>
      <trkpt lat="47.2601" lon="-2.32655">
        <ele>1.2000000476837</ele>
        <time>2021-04-18T10:41:02.000Z</time>
      </trkpt>
      <trkpt lat="47.25986" lon="-2.32658">
        <ele>1.2000000476837</ele>
        <time>2021-04-18T10:41:06.000Z</time>
      </trkpt>
      <trkpt lat="47.25974" lon="-2.32656">
        <ele>1.2000000476837</ele>
        <time>2021-04-18T10:41:08.000Z</time>
      </trkpt>
      <trkpt lat="47.25968" lon="-2.32657">
        <ele>0.80000001192093</ele>
        <time>2021-04-18T10:41:09.000Z</time>
      </trkpt>
      <trkpt lat="47.25962" lon="-2.32658">
        <ele>0.40000000596046</ele>
        <time>2021-04-18T10:41:10.000Z</time>
      </trkpt>
      <trkpt lat="47.25956" lon="-2.32656">
        <ele>3.2</ele>
        <time>2021-04-18T10:41:11.000Z</time>
      </trkpt>
      <trkpt lat="47.25951" lon="-2.32653">
        <ele>-0.40000000596046</ele>
        <time>2021-04-18T10:41:12.000Z</time>
      </trkpt>
      <trkpt lat="47.25946" lon="-2.32647">
        <ele>-0.80000001192093</ele>
        <time>2021-04-18T10:41:13.000Z</time>
      </trkpt>
      <trkpt lat="47.25928" lon="-2.32623">
        <ele>-0.80000001192093</ele>
        <time>2021-04-18T10:41:17.000Z</time>
      </trkpt>
      <trkpt lat="47.259" lon="-2.32587">
        <ele>-0.80000001192093</ele>
        <time>2021-04-18T10:41:23.000Z</time>
      </trkpt>
      <trkpt lat="47.25895" lon="-2.32583">
        <ele>-0.80000001192093</ele>
        <time>2021-04-18T10:41:24.000Z</time>
      </trkpt>
      <trkpt lat="47.25884" lon="-2.32576">
        <ele>-0.80000001192093</ele>
        <time>2021-04-18T10:41:26.000Z</time>
      </trkpt>
      <trkpt lat="47.25875" lon="-2.32564">
        <ele>-0.80000001192093</ele>
        <time>2021-04-18T10:41:28.000Z</time>
      </trkpt>
      <trkpt lat="47.25855" lon="-2.32536">
        <ele>-0.80000001192093</ele>
        <time>2021-04-18T10:41:33.000Z</time>
      </trkpt>
      <trkpt lat="47.2583" lon="-2.32498">
        <ele>-0.80000001192093</ele>
        <time>2021-04-18T10:41:40.000Z</time>
      </trkpt>
      <trkpt lat="47.25824" lon="-2.32488">
        <ele>-0.80000001192093</ele>
        <time>2021-04-18T10:41:42.000Z</time>
      </trkpt>
      <trkpt lat="47.25823" lon="-2.32479">
        <ele>-0.80000001192093</ele>
        <time>2021-04-18T10:41:44.000Z</time>
      </trkpt>
      <trkpt lat="47.25828" lon="-2.32476">
        <ele>-0.80000001192093</ele>
        <time>2021-04-18T10:41:47.000Z</time>
      </trkpt>
      <trkpt lat="47.25846" lon="-2.32475">
        <ele>-0.80000001192093</ele>
        <time>2021-04-18T10:41:51.000Z</time>
      </trkpt>
      <trkpt lat="47.25852" lon="-2.32476">
        <ele>-0.80000001192093</ele>
        <time>2021-04-18T10:41:52.000Z</time>
      </trkpt>
      <trkpt lat="47.25874" lon="-2.32478">
        <ele>-0.80000001192093</ele>
        <time>2021-04-18T10:41:56.000Z</time>
      </trkpt>
      <trkpt lat="47.25879" lon="-2.32476">
        <ele>-0.80000001192093</ele>
        <time>2021-04-18T10:41:57.000Z</time>
      </trkpt>
      <trkpt lat="47.25889" lon="-2.32462">
        <ele>-0.80000001192093</ele>
        <time>2021-04-18T10:42:00.000Z</time>
      </trkpt>
      <trkpt lat="47.25895" lon="-2.32452">
        <ele>-0.80000001192093</ele>
        <time>2021-04-18T10:42:02.000Z</time>
      </trkpt>
      <trkpt lat="47.25906" lon="-2.32438">
        <ele>-0.80000001192093</ele>
        <time>2021-04-18T10:42:05.000Z</time>
      </trkpt>
      <trkpt lat="47.2594" lon="-2.32396">
        <ele>-0.80000001192093</ele>
        <time>2021-04-18T10:42:13.000Z</time>
      </trkpt>
      <trkpt lat="47.25974" lon="-2.32355">
        <ele>-0.80000001192093</ele>
        <time>2021-04-18T10:42:21.000Z</time>
      </trkpt>
      <trkpt lat="47.26002" lon="-2.32319">
        <ele>-0.80000001192093</ele>
        <time>2021-04-18T10:42:28.000Z</time>
      </trkpt>
      <trkpt lat="47.26032" lon="-2.32279">
        <ele>-0.80000001192093</ele>
        <time>2021-04-18T10:42:36.000Z</time>
      </trkpt>
      <trkpt lat="47.26063" lon="-2.32246">
        <ele>-0.80000001192093</ele>
        <time>2021-04-18T10:42:43.000Z</time>
      </trkpt>
      <trkpt lat="47.26072" lon="-2.32236">
        <ele>-0.80000001192093</ele>
        <time>2021-04-18T10:42:45.000Z</time>
      </trkpt>
      <trkpt lat="47.26084" lon="-2.3222">
        <ele>-0.80000001192093</ele>
        <time>2021-04-18T10:42:48.000Z</time>
      </trkpt>
      <trkpt lat="47.26103" lon="-2.32191">
        <ele>-0.80000001192093</ele>
        <time>2021-04-18T10:42:53.000Z</time>
      </trkpt>
      <trkpt lat="47.26108" lon="-2.32178">
        <ele>-0.80000001192093</ele>
        <time>2021-04-18T10:42:55.000Z</time>
      </trkpt>
      <trkpt lat="47.26128" lon="-2.32134">
        <ele>-0.80000001192093</ele>
        <time>2021-04-18T10:43:02.000Z</time>
      </trkpt>
      <trkpt lat="47.26137" lon="-2.321">
        <ele>-0.80000001192093</ele>
        <time>2021-04-18T10:43:07.000Z</time>
      </trkpt>
      <trkpt lat="47.26141" lon="-2.32087">
        <ele>-0.80000001192093</ele>
        <time>2021-04-18T10:43:09.000Z</time>
      </trkpt>
      <trkpt lat="47.26158" lon="-2.32037">
        <ele>-0.80000001192093</ele>
        <time>2021-04-18T10:43:17.000Z</time>
      </trkpt>
      <trkpt lat="47.26161" lon="-2.32032">
        <ele>-0.80000001192093</ele>
        <time>2021-04-18T10:43:18.000Z</time>
      </trkpt>
      <trkpt lat="47.26171" lon="-2.32017">
        <ele>-0.80000001192093</ele>
        <time>2021-04-18T10:43:22.000Z</time>
      </trkpt>
      <trkpt lat="47.26181" lon="-2.32019">
        <ele>-0.80000001192093</ele>
        <time>2021-04-18T10:43:25.000Z</time>
      </trkpt>
      <trkpt lat="47.26184" lon="-2.3202">
        <ele>-0.80000001192093</ele>
        <time>2021-04-18T10:43:26.000Z</time>
      </trkpt>
      <trkpt lat="47.26192" lon="-2.32022">
        <ele>-0.80000001192093</ele>
        <time>2021-04-18T10:43:30.000Z</time>
      </trkpt>
      <trkpt lat="47.26194" lon="-2.32021">
        <ele>-0.80000001192093</ele>
        <time>2021-04-18T10:43:31.000Z</time>
      </trkpt>
      <trkpt lat="47.26197" lon="-2.32014">
        <ele>-0.80000001192093</ele>
        <time>2021-04-18T10:43:33.000Z</time>
      </trkpt>
      <trkpt lat="47.26198" lon="-2.32007">
        <ele>-0.80000001192093</ele>
        <time>2021-04-18T10:43:35.000Z</time>
      </trkpt>
      <trkpt lat="47.26199" lon="-2.32004">
        <ele>-0.80000001192093</ele>
        <time>2021-04-18T10:43:36.000Z</time>
      </trkpt>
      <trkpt lat="47.26202" lon="-2.31997">
        <ele>-0.80000001192093</ele>
        <time>2021-04-18T10:43:38.000Z</time>
      </trkpt>
      <trkpt lat="47.26218" lon="-2.31974">
        <ele>-0.80000001192093</ele>
        <time>2021-04-18T10:43:44.000Z</time>
      </trkpt>
      <trkpt lat="47.26232" lon="-2.31965">
        <ele>-0.80000001192093</ele>
        <time>2021-04-18T10:43:48.000Z</time>
      </trkpt>
      <trkpt lat="47.26244" lon="-2.31945">
        <ele>-0.80000001192093</ele>
        <time>2021-04-18T10:43:52.000Z</time>
      </trkpt>
      <trkpt lat="47.2625" lon="-2.31938">
        <ele>-0.80000001192093</ele>
        <time>2021-04-18T10:43:54.000Z</time>
      </trkpt>
      <trkpt lat="47.26255" lon="-2.31933">
        <ele>-0.80000001192093</ele>
        <time>2021-04-18T10:43:56.000Z</time>
      </trkpt>
      <trkpt lat="47.26256" lon="-2.31929">
        <ele>-0.80000001192093</ele>
        <time>2021-04-18T10:43:57.000Z</time>
      </trkpt>
      <trkpt lat="47.26265" lon="-2.31911">
        <ele>-0.80000001192093</ele>
        <time>2021-04-18T10:44:01.000Z</time>
      </trkpt>
      <trkpt lat="47.26287" lon="-2.31885">
        <ele>-0.80000001192093</ele>
        <time>2021-04-18T10:44:07.000Z</time>
      </trkpt>
      <trkpt lat="47.26297" lon="-2.31857">
        <ele>-0.80000001192093</ele>
        <time>2021-04-18T10:44:12.000Z</time>
      </trkpt>
      <trkpt lat="47.26301" lon="-2.3182">
        <ele>-0.80000001192093</ele>
        <time>2021-04-18T10:44:18.000Z</time>
      </trkpt>
      <trkpt lat="47.26303" lon="-2.31799">
        <ele>-0.80000001192093</ele>
        <time>2021-04-18T10:44:21.000Z</time>
      </trkpt>
      <trkpt lat="47.26303" lon="-2.31765">
        <ele>-0.80000001192093</ele>
        <time>2021-04-18T10:44:26.000Z</time>
      </trkpt>
      <trkpt lat="47.263" lon="-2.31731">
        <ele>-0.80000001192093</ele>
        <time>2021-04-18T10:44:31.000Z</time>
      </trkpt>
      <trkpt lat="47.26301" lon="-2.31724">
        <ele>-0.80000001192093</ele>
        <time>2021-04-18T10:44:32.000Z</time>
      </trkpt>
      <trkpt lat="47.26308" lon="-2.3171">
        <ele>-0.80000001192093</ele>
        <time>2021-04-18T10:44:35.000Z</time>
      </trkpt>
      <trkpt lat="47.26318" lon="-2.31703">
        <ele>-0.80000001192093</ele>
        <time>2021-04-18T10:44:38.000Z</time>
      </trkpt>
      <trkpt lat="47.26322" lon="-2.317">
        <ele>-0.80000001192093</ele>
        <time>2021-04-18T10:44:39.000Z</time>
      </trkpt>
      <trkpt lat="47.26327" lon="-2.31694">
        <ele>-0.80000001192093</ele>
        <time>2021-04-18T10:44:41.000Z</time>
      </trkpt>
      <trkpt lat="47.2633" lon="-2.3169">
        <ele>-0.40000000596046</ele>
        <time>2021-04-18T10:44:42.000Z</time>
      </trkpt>
      <trkpt lat="47.26332" lon="-2.31686">
        <ele>0.20000000298023</ele>
        <time>2021-04-18T10:44:43.000Z</time>
      </trkpt>
      <trkpt lat="47.26335" lon="-2.31684">
        <ele>0.60000002384186</ele>
        <time>2021-04-18T10:44:44.000Z</time>
      </trkpt>
      <trkpt lat="47.26338" lon="-2.31682">
        <ele>1</ele>
        <time>2021-04-18T10:44:45.000Z</time>
      </trkpt>
      <trkpt lat="47.26341" lon="-2.3168">
        <ele>1.6000000238419</ele>
        <time>2021-04-18T10:44:46.000Z</time>
      </trkpt>
      <trkpt lat="47.26352" lon="-2.31674">
        <ele>1.6000000238419</ele>
        <time>2021-04-18T10:44:49.000Z</time>
      </trkpt>
      <trkpt lat="47.2636" lon="-2.3167">
        <ele>2</ele>
        <time>2021-04-18T10:44:51.000Z</time>
      </trkpt>
      <trkpt lat="47.26363" lon="-2.31669">
        <ele>2.4000000953674</ele>
        <time>2021-04-18T10:44:52.000Z</time>
      </trkpt>
      <trkpt lat="47.26367" lon="-2.31667">
        <ele>2.7999999523163</ele>
        <time>2021-04-18T10:44:53.000Z</time>
      </trkpt>
      <trkpt lat="47.2637" lon="-2.31666">
        <ele>3.2000000476837</ele>
        <time>2021-04-18T10:44:54.000Z</time>
      </trkpt>
      <trkpt lat="47.26373" lon="-2.31663">
        <ele>3.5999999046326</ele>
        <time>2021-04-18T10:44:55.000Z</time>
      </trkpt>
      <trkpt lat="47.26391" lon="-2.31654">
        <ele>3.5999999046326</ele>
        <time>2021-04-18T10:45:00.000Z</time>
      </trkpt>
      <trkpt lat="47.26405" lon="-2.31641">
        <ele>3.5999999046326</ele>
        <time>2021-04-18T10:45:06.000Z</time>
      </trkpt>
      <trkpt lat="47.26406" lon="-2.31638">
        <ele>3.5999999046326</ele>
        <time>2021-04-18T10:45:07.000Z</time>
      </trkpt>
      <trkpt lat="47.26409" lon="-2.31625">
        <ele>3.5999999046326</ele>
        <time>2021-04-18T10:45:10.000Z</time>
      </trkpt>
      <trkpt lat="47.2641" lon="-2.31588">
        <ele>3.5999999046326</ele>
        <time>2021-04-18T10:45:17.000Z</time>
      </trkpt>
      <trkpt lat="47.26411" lon="-2.31573">
        <ele>4</ele>
        <time>2021-04-18T10:45:20.000Z</time>
      </trkpt>
      <trkpt lat="47.26411" lon="-2.31569">
        <ele>4.4000000953674</ele>
        <time>2021-04-18T10:45:21.000Z</time>
      </trkpt>
      <trkpt lat="47.26411" lon="-2.31565">
        <ele>4.8000001907349</ele>
        <time>2021-04-18T10:45:22.000Z</time>
      </trkpt>
      <trkpt lat="47.26411" lon="-2.31561">
        <ele>5.1999998092651</ele>
        <time>2021-04-18T10:45:23.000Z</time>
      </trkpt>
      <trkpt lat="47.2641" lon="-2.31557">
        <ele>5.5999999046326</ele>
        <time>2021-04-18T10:45:24.000Z</time>
      </trkpt>
      <trkpt lat="47.26412" lon="-2.3155">
        <ele>5.5999999046326</ele>
        <time>2021-04-18T10:45:26.000Z</time>
      </trkpt>
      <trkpt lat="47.26415" lon="-2.3155">
        <ele>5.5999999046326</ele>
        <time>2021-04-18T10:45:28.000Z</time>
      </trkpt>
      <trkpt lat="47.26417" lon="-2.31552">
        <ele>5.5999999046326</ele>
        <time>2021-04-18T10:45:31.000Z</time>
      </trkpt>
    </trkseg>
  </trk>
</gpx>